<?xml version="1.0" encoding="UTF-8" standalone="no" ?>
<gpx xmlns="http://www.topografix.com/GPX/1/1" xmlns:xsi="http://www.w3.org/2001/XMLSchema-instance" xsi:schemaLocation="http://www.topografix.com/GPX/1/1 http://www.topografix.com/GPX/1/1/gpx.xsd" version="1.1" creator="VisuGPX - https://www.visugpx.com">
  <metadata>
    <name>VTT du mardi 23 octobre 2018 (à 3, la Tuilière)</name>
    <desc><![CDATA[Un bel après-midi. Sans Chris, un parcours un peu long pour moi (IDE = 55) mais qui nous a permis de passer à coté de l'étang de La Tuilière.
]]></desc>
  </metadata>
  <wpt lat="47.68623" lon="6.04523">
    <ele>229</ele>
    <name><![CDATA[0000065]]></name>
  </wpt>
  <wpt lat="47.68624" lon="6.04547">
    <ele>229</ele>
    <name><![CDATA[0000066]]></name>
  </wpt>
  <trk>
    <name><![CDATA[2018-10-23 13:35]]></name>
    <trkseg>
      <trkpt lat="47.68623" lon="6.04523">
        <ele>229</ele>
        <time>2018-10-23T11:35:14Z</time>
      </trkpt>
      <trkpt lat="47.68623" lon="6.04551">
        <ele>229</ele>
        <time>2018-10-23T11:35:16Z</time>
      </trkpt>
      <trkpt lat="47.68628" lon="6.04547">
        <ele>229</ele>
        <time>2018-10-23T11:35:20Z</time>
      </trkpt>
      <trkpt lat="47.68631" lon="6.04541">
        <ele>229</ele>
        <time>2018-10-23T11:35:40Z</time>
      </trkpt>
      <trkpt lat="47.68635" lon="6.04537">
        <ele>229</ele>
        <time>2018-10-23T11:35:44Z</time>
      </trkpt>
      <trkpt lat="47.6864" lon="6.04539">
        <ele>230</ele>
        <time>2018-10-23T11:35:48Z</time>
      </trkpt>
      <trkpt lat="47.68644" lon="6.04544">
        <ele>230</ele>
        <time>2018-10-23T11:35:51Z</time>
      </trkpt>
      <trkpt lat="47.68649" lon="6.04548">
        <ele>230</ele>
        <time>2018-10-23T11:35:54Z</time>
      </trkpt>
      <trkpt lat="47.68654" lon="6.04553">
        <ele>231</ele>
        <time>2018-10-23T11:35:57Z</time>
      </trkpt>
      <trkpt lat="47.68659" lon="6.04558">
        <ele>231</ele>
        <time>2018-10-23T11:36:00Z</time>
      </trkpt>
      <trkpt lat="47.68664" lon="6.04563">
        <ele>231</ele>
        <time>2018-10-23T11:36:03Z</time>
      </trkpt>
      <trkpt lat="47.68668" lon="6.04569">
        <ele>233</ele>
        <time>2018-10-23T11:36:06Z</time>
      </trkpt>
      <trkpt lat="47.68671" lon="6.04577">
        <ele>233</ele>
        <time>2018-10-23T11:36:09Z</time>
      </trkpt>
      <trkpt lat="47.68674" lon="6.04585">
        <ele>234</ele>
        <time>2018-10-23T11:36:12Z</time>
      </trkpt>
      <trkpt lat="47.68677" lon="6.04593">
        <ele>234</ele>
        <time>2018-10-23T11:36:15Z</time>
      </trkpt>
      <trkpt lat="47.6868" lon="6.04601">
        <ele>233</ele>
        <time>2018-10-23T11:36:18Z</time>
      </trkpt>
      <trkpt lat="47.68682" lon="6.04608">
        <ele>233</ele>
        <time>2018-10-23T11:36:21Z</time>
      </trkpt>
      <trkpt lat="47.68685" lon="6.04616">
        <ele>233</ele>
        <time>2018-10-23T11:36:24Z</time>
      </trkpt>
      <trkpt lat="47.68689" lon="6.04625">
        <ele>233</ele>
        <time>2018-10-23T11:36:27Z</time>
      </trkpt>
      <trkpt lat="47.68692" lon="6.04633">
        <ele>233</ele>
        <time>2018-10-23T11:36:30Z</time>
      </trkpt>
      <trkpt lat="47.68695" lon="6.04639">
        <ele>233</ele>
        <time>2018-10-23T11:36:32Z</time>
      </trkpt>
      <trkpt lat="47.68698" lon="6.04645">
        <ele>233</ele>
        <time>2018-10-23T11:36:34Z</time>
      </trkpt>
      <trkpt lat="47.68702" lon="6.04653">
        <ele>233</ele>
        <time>2018-10-23T11:36:37Z</time>
      </trkpt>
      <trkpt lat="47.68705" lon="6.04659">
        <ele>233</ele>
        <time>2018-10-23T11:36:39Z</time>
      </trkpt>
      <trkpt lat="47.68709" lon="6.04665">
        <ele>233</ele>
        <time>2018-10-23T11:36:41Z</time>
      </trkpt>
      <trkpt lat="47.68712" lon="6.04672">
        <ele>234</ele>
        <time>2018-10-23T11:36:43Z</time>
      </trkpt>
      <trkpt lat="47.68715" lon="6.0468">
        <ele>233</ele>
        <time>2018-10-23T11:36:45Z</time>
      </trkpt>
      <trkpt lat="47.68719" lon="6.04686">
        <ele>233</ele>
        <time>2018-10-23T11:36:47Z</time>
      </trkpt>
      <trkpt lat="47.68722" lon="6.04694">
        <ele>233</ele>
        <time>2018-10-23T11:36:49Z</time>
      </trkpt>
      <trkpt lat="47.68725" lon="6.04701">
        <ele>233</ele>
        <time>2018-10-23T11:36:51Z</time>
      </trkpt>
      <trkpt lat="47.68729" lon="6.04709">
        <ele>233</ele>
        <time>2018-10-23T11:36:53Z</time>
      </trkpt>
      <trkpt lat="47.68732" lon="6.04717">
        <ele>233</ele>
        <time>2018-10-23T11:36:55Z</time>
      </trkpt>
      <trkpt lat="47.68736" lon="6.04727">
        <ele>233</ele>
        <time>2018-10-23T11:36:57Z</time>
      </trkpt>
      <trkpt lat="47.68738" lon="6.04736">
        <ele>232</ele>
        <time>2018-10-23T11:36:59Z</time>
      </trkpt>
      <trkpt lat="47.68741" lon="6.04744">
        <ele>232</ele>
        <time>2018-10-23T11:37:01Z</time>
      </trkpt>
      <trkpt lat="47.68743" lon="6.04752">
        <ele>232</ele>
        <time>2018-10-23T11:37:03Z</time>
      </trkpt>
      <trkpt lat="47.68746" lon="6.04761">
        <ele>232</ele>
        <time>2018-10-23T11:37:05Z</time>
      </trkpt>
      <trkpt lat="47.68749" lon="6.04771">
        <ele>232</ele>
        <time>2018-10-23T11:37:07Z</time>
      </trkpt>
      <trkpt lat="47.68752" lon="6.04782">
        <ele>230</ele>
        <time>2018-10-23T11:37:09Z</time>
      </trkpt>
      <trkpt lat="47.68755" lon="6.04795">
        <ele>230</ele>
        <time>2018-10-23T11:37:11Z</time>
      </trkpt>
      <trkpt lat="47.68758" lon="6.04806">
        <ele>230</ele>
        <time>2018-10-23T11:37:12Z</time>
      </trkpt>
      <trkpt lat="47.6876" lon="6.04812">
        <ele>230</ele>
        <time>2018-10-23T11:37:13Z</time>
      </trkpt>
      <trkpt lat="47.68762" lon="6.04819">
        <ele>230</ele>
        <time>2018-10-23T11:37:14Z</time>
      </trkpt>
      <trkpt lat="47.68764" lon="6.04825">
        <ele>230</ele>
        <time>2018-10-23T11:37:15Z</time>
      </trkpt>
      <trkpt lat="47.68765" lon="6.04831">
        <ele>230</ele>
        <time>2018-10-23T11:37:16Z</time>
      </trkpt>
      <trkpt lat="47.68767" lon="6.04838">
        <ele>230</ele>
        <time>2018-10-23T11:37:17Z</time>
      </trkpt>
      <trkpt lat="47.68769" lon="6.04844">
        <ele>230</ele>
        <time>2018-10-23T11:37:18Z</time>
      </trkpt>
      <trkpt lat="47.68771" lon="6.0485">
        <ele>230</ele>
        <time>2018-10-23T11:37:19Z</time>
      </trkpt>
      <trkpt lat="47.68773" lon="6.04857">
        <ele>230</ele>
        <time>2018-10-23T11:37:20Z</time>
      </trkpt>
      <trkpt lat="47.68774" lon="6.04864">
        <ele>230</ele>
        <time>2018-10-23T11:37:21Z</time>
      </trkpt>
      <trkpt lat="47.68776" lon="6.0487">
        <ele>230</ele>
        <time>2018-10-23T11:37:22Z</time>
      </trkpt>
      <trkpt lat="47.68778" lon="6.04877">
        <ele>230</ele>
        <time>2018-10-23T11:37:23Z</time>
      </trkpt>
      <trkpt lat="47.6878" lon="6.04884">
        <ele>230</ele>
        <time>2018-10-23T11:37:24Z</time>
      </trkpt>
      <trkpt lat="47.68781" lon="6.0489">
        <ele>230</ele>
        <time>2018-10-23T11:37:25Z</time>
      </trkpt>
      <trkpt lat="47.68784" lon="6.049">
        <ele>230</ele>
        <time>2018-10-23T11:37:27Z</time>
      </trkpt>
      <trkpt lat="47.68787" lon="6.04908">
        <ele>229</ele>
        <time>2018-10-23T11:37:29Z</time>
      </trkpt>
      <trkpt lat="47.68789" lon="6.04916">
        <ele>229</ele>
        <time>2018-10-23T11:37:31Z</time>
      </trkpt>
      <trkpt lat="47.68791" lon="6.04924">
        <ele>230</ele>
        <time>2018-10-23T11:37:33Z</time>
      </trkpt>
      <trkpt lat="47.68793" lon="6.0493">
        <ele>230</ele>
        <time>2018-10-23T11:37:35Z</time>
      </trkpt>
      <trkpt lat="47.68795" lon="6.04938">
        <ele>230</ele>
        <time>2018-10-23T11:37:38Z</time>
      </trkpt>
      <trkpt lat="47.68796" lon="6.04946">
        <ele>230</ele>
        <time>2018-10-23T11:37:41Z</time>
      </trkpt>
      <trkpt lat="47.68792" lon="6.04953">
        <ele>230</ele>
        <time>2018-10-23T11:37:44Z</time>
      </trkpt>
      <trkpt lat="47.68787" lon="6.04958">
        <ele>230</ele>
        <time>2018-10-23T11:37:47Z</time>
      </trkpt>
      <trkpt lat="47.68782" lon="6.04964">
        <ele>230</ele>
        <time>2018-10-23T11:37:50Z</time>
      </trkpt>
      <trkpt lat="47.68778" lon="6.04968">
        <ele>230</ele>
        <time>2018-10-23T11:37:52Z</time>
      </trkpt>
      <trkpt lat="47.68774" lon="6.04974">
        <ele>230</ele>
        <time>2018-10-23T11:37:54Z</time>
      </trkpt>
      <trkpt lat="47.68769" lon="6.04979">
        <ele>230</ele>
        <time>2018-10-23T11:37:56Z</time>
      </trkpt>
      <trkpt lat="47.68765" lon="6.04985">
        <ele>230</ele>
        <time>2018-10-23T11:37:58Z</time>
      </trkpt>
      <trkpt lat="47.68761" lon="6.04991">
        <ele>230</ele>
        <time>2018-10-23T11:38:00Z</time>
      </trkpt>
      <trkpt lat="47.68757" lon="6.04997">
        <ele>231</ele>
        <time>2018-10-23T11:38:02Z</time>
      </trkpt>
      <trkpt lat="47.68752" lon="6.05003">
        <ele>231</ele>
        <time>2018-10-23T11:38:04Z</time>
      </trkpt>
      <trkpt lat="47.68748" lon="6.05008">
        <ele>231</ele>
        <time>2018-10-23T11:38:06Z</time>
      </trkpt>
      <trkpt lat="47.68744" lon="6.05014">
        <ele>232</ele>
        <time>2018-10-23T11:38:08Z</time>
      </trkpt>
      <trkpt lat="47.6874" lon="6.0502">
        <ele>232</ele>
        <time>2018-10-23T11:38:10Z</time>
      </trkpt>
      <trkpt lat="47.68736" lon="6.05026">
        <ele>232</ele>
        <time>2018-10-23T11:38:12Z</time>
      </trkpt>
      <trkpt lat="47.68731" lon="6.05032">
        <ele>232</ele>
        <time>2018-10-23T11:38:14Z</time>
      </trkpt>
      <trkpt lat="47.68727" lon="6.05037">
        <ele>232</ele>
        <time>2018-10-23T11:38:16Z</time>
      </trkpt>
      <trkpt lat="47.68723" lon="6.05043">
        <ele>232</ele>
        <time>2018-10-23T11:38:18Z</time>
      </trkpt>
      <trkpt lat="47.68719" lon="6.05048">
        <ele>232</ele>
        <time>2018-10-23T11:38:20Z</time>
      </trkpt>
      <trkpt lat="47.68715" lon="6.05054">
        <ele>232</ele>
        <time>2018-10-23T11:38:22Z</time>
      </trkpt>
      <trkpt lat="47.68711" lon="6.0506">
        <ele>233</ele>
        <time>2018-10-23T11:38:24Z</time>
      </trkpt>
      <trkpt lat="47.68707" lon="6.05066">
        <ele>233</ele>
        <time>2018-10-23T11:38:26Z</time>
      </trkpt>
      <trkpt lat="47.68703" lon="6.05072">
        <ele>233</ele>
        <time>2018-10-23T11:38:28Z</time>
      </trkpt>
      <trkpt lat="47.68698" lon="6.05078">
        <ele>233</ele>
        <time>2018-10-23T11:38:30Z</time>
      </trkpt>
      <trkpt lat="47.68694" lon="6.05083">
        <ele>233</ele>
        <time>2018-10-23T11:38:32Z</time>
      </trkpt>
      <trkpt lat="47.6869" lon="6.05088">
        <ele>234</ele>
        <time>2018-10-23T11:38:34Z</time>
      </trkpt>
      <trkpt lat="47.68685" lon="6.05093">
        <ele>234</ele>
        <time>2018-10-23T11:38:36Z</time>
      </trkpt>
      <trkpt lat="47.68681" lon="6.05098">
        <ele>234</ele>
        <time>2018-10-23T11:38:38Z</time>
      </trkpt>
      <trkpt lat="47.68676" lon="6.05104">
        <ele>234</ele>
        <time>2018-10-23T11:38:40Z</time>
      </trkpt>
      <trkpt lat="47.68671" lon="6.05108">
        <ele>234</ele>
        <time>2018-10-23T11:38:42Z</time>
      </trkpt>
      <trkpt lat="47.68667" lon="6.05113">
        <ele>234</ele>
        <time>2018-10-23T11:38:44Z</time>
      </trkpt>
      <trkpt lat="47.68662" lon="6.05117">
        <ele>235</ele>
        <time>2018-10-23T11:38:46Z</time>
      </trkpt>
      <trkpt lat="47.68657" lon="6.05122">
        <ele>235</ele>
        <time>2018-10-23T11:38:48Z</time>
      </trkpt>
      <trkpt lat="47.68652" lon="6.05126">
        <ele>235</ele>
        <time>2018-10-23T11:38:50Z</time>
      </trkpt>
      <trkpt lat="47.68647" lon="6.0513">
        <ele>235</ele>
        <time>2018-10-23T11:38:52Z</time>
      </trkpt>
      <trkpt lat="47.68642" lon="6.05134">
        <ele>235</ele>
        <time>2018-10-23T11:38:54Z</time>
      </trkpt>
      <trkpt lat="47.68637" lon="6.05137">
        <ele>235</ele>
        <time>2018-10-23T11:38:56Z</time>
      </trkpt>
      <trkpt lat="47.68633" lon="6.05141">
        <ele>235</ele>
        <time>2018-10-23T11:38:58Z</time>
      </trkpt>
      <trkpt lat="47.68628" lon="6.05145">
        <ele>235</ele>
        <time>2018-10-23T11:39:00Z</time>
      </trkpt>
      <trkpt lat="47.68623" lon="6.05149">
        <ele>235</ele>
        <time>2018-10-23T11:39:02Z</time>
      </trkpt>
      <trkpt lat="47.68618" lon="6.05153">
        <ele>235</ele>
        <time>2018-10-23T11:39:04Z</time>
      </trkpt>
      <trkpt lat="47.68613" lon="6.05157">
        <ele>235</ele>
        <time>2018-10-23T11:39:06Z</time>
      </trkpt>
      <trkpt lat="47.68608" lon="6.05161">
        <ele>235</ele>
        <time>2018-10-23T11:39:08Z</time>
      </trkpt>
      <trkpt lat="47.68603" lon="6.05166">
        <ele>236</ele>
        <time>2018-10-23T11:39:10Z</time>
      </trkpt>
      <trkpt lat="47.68598" lon="6.05171">
        <ele>236</ele>
        <time>2018-10-23T11:39:12Z</time>
      </trkpt>
      <trkpt lat="47.68594" lon="6.05175">
        <ele>236</ele>
        <time>2018-10-23T11:39:14Z</time>
      </trkpt>
      <trkpt lat="47.68589" lon="6.05179">
        <ele>236</ele>
        <time>2018-10-23T11:39:16Z</time>
      </trkpt>
      <trkpt lat="47.68585" lon="6.05182">
        <ele>236</ele>
        <time>2018-10-23T11:39:18Z</time>
      </trkpt>
      <trkpt lat="47.68581" lon="6.05185">
        <ele>237</ele>
        <time>2018-10-23T11:39:20Z</time>
      </trkpt>
      <trkpt lat="47.68576" lon="6.05188">
        <ele>237</ele>
        <time>2018-10-23T11:39:22Z</time>
      </trkpt>
      <trkpt lat="47.68571" lon="6.05192">
        <ele>237</ele>
        <time>2018-10-23T11:39:24Z</time>
      </trkpt>
      <trkpt lat="47.68567" lon="6.05197">
        <ele>237</ele>
        <time>2018-10-23T11:39:26Z</time>
      </trkpt>
      <trkpt lat="47.68562" lon="6.05201">
        <ele>237</ele>
        <time>2018-10-23T11:39:28Z</time>
      </trkpt>
      <trkpt lat="47.68558" lon="6.05205">
        <ele>237</ele>
        <time>2018-10-23T11:39:30Z</time>
      </trkpt>
      <trkpt lat="47.68554" lon="6.05209">
        <ele>237</ele>
        <time>2018-10-23T11:39:32Z</time>
      </trkpt>
      <trkpt lat="47.6855" lon="6.05212">
        <ele>237</ele>
        <time>2018-10-23T11:39:34Z</time>
      </trkpt>
      <trkpt lat="47.68546" lon="6.05216">
        <ele>237</ele>
        <time>2018-10-23T11:39:36Z</time>
      </trkpt>
      <trkpt lat="47.68542" lon="6.05219">
        <ele>237</ele>
        <time>2018-10-23T11:39:38Z</time>
      </trkpt>
      <trkpt lat="47.68536" lon="6.05224">
        <ele>238</ele>
        <time>2018-10-23T11:39:41Z</time>
      </trkpt>
      <trkpt lat="47.6853" lon="6.05228">
        <ele>238</ele>
        <time>2018-10-23T11:39:44Z</time>
      </trkpt>
      <trkpt lat="47.68524" lon="6.05233">
        <ele>238</ele>
        <time>2018-10-23T11:39:47Z</time>
      </trkpt>
      <trkpt lat="47.68521" lon="6.0524">
        <ele>238</ele>
        <time>2018-10-23T11:39:50Z</time>
      </trkpt>
      <trkpt lat="47.68522" lon="6.05249">
        <ele>238</ele>
        <time>2018-10-23T11:39:53Z</time>
      </trkpt>
      <trkpt lat="47.68523" lon="6.05258">
        <ele>240</ele>
        <time>2018-10-23T11:39:56Z</time>
      </trkpt>
      <trkpt lat="47.68525" lon="6.05267">
        <ele>240</ele>
        <time>2018-10-23T11:39:59Z</time>
      </trkpt>
      <trkpt lat="47.68527" lon="6.05274">
        <ele>240</ele>
        <time>2018-10-23T11:40:02Z</time>
      </trkpt>
      <trkpt lat="47.68528" lon="6.05281">
        <ele>240</ele>
        <time>2018-10-23T11:40:05Z</time>
      </trkpt>
      <trkpt lat="47.68526" lon="6.05288">
        <ele>240</ele>
        <time>2018-10-23T11:40:09Z</time>
      </trkpt>
      <trkpt lat="47.68521" lon="6.05291">
        <ele>240</ele>
        <time>2018-10-23T11:40:13Z</time>
      </trkpt>
      <trkpt lat="47.68516" lon="6.05293">
        <ele>240</ele>
        <time>2018-10-23T11:40:17Z</time>
      </trkpt>
      <trkpt lat="47.68509" lon="6.05295">
        <ele>240</ele>
        <time>2018-10-23T11:40:20Z</time>
      </trkpt>
      <trkpt lat="47.68504" lon="6.05297">
        <ele>240</ele>
        <time>2018-10-23T11:40:22Z</time>
      </trkpt>
      <trkpt lat="47.68499" lon="6.05299">
        <ele>241</ele>
        <time>2018-10-23T11:40:24Z</time>
      </trkpt>
      <trkpt lat="47.68495" lon="6.05305">
        <ele>241</ele>
        <time>2018-10-23T11:40:27Z</time>
      </trkpt>
      <trkpt lat="47.68497" lon="6.05313">
        <ele>241</ele>
        <time>2018-10-23T11:40:31Z</time>
      </trkpt>
      <trkpt lat="47.685" lon="6.0532">
        <ele>242</ele>
        <time>2018-10-23T11:40:34Z</time>
      </trkpt>
      <trkpt lat="47.68502" lon="6.05326">
        <ele>242</ele>
        <time>2018-10-23T11:40:37Z</time>
      </trkpt>
      <trkpt lat="47.68505" lon="6.05332">
        <ele>242</ele>
        <time>2018-10-23T11:40:40Z</time>
      </trkpt>
      <trkpt lat="47.68508" lon="6.05339">
        <ele>243</ele>
        <time>2018-10-23T11:40:43Z</time>
      </trkpt>
      <trkpt lat="47.6851" lon="6.05346">
        <ele>243</ele>
        <time>2018-10-23T11:40:46Z</time>
      </trkpt>
      <trkpt lat="47.68513" lon="6.05352">
        <ele>244</ele>
        <time>2018-10-23T11:40:49Z</time>
      </trkpt>
      <trkpt lat="47.68515" lon="6.05359">
        <ele>244</ele>
        <time>2018-10-23T11:40:52Z</time>
      </trkpt>
      <trkpt lat="47.68516" lon="6.05366">
        <ele>244</ele>
        <time>2018-10-23T11:40:55Z</time>
      </trkpt>
      <trkpt lat="47.68515" lon="6.05373">
        <ele>244</ele>
        <time>2018-10-23T11:40:58Z</time>
      </trkpt>
      <trkpt lat="47.68514" lon="6.0538">
        <ele>245</ele>
        <time>2018-10-23T11:41:01Z</time>
      </trkpt>
      <trkpt lat="47.68513" lon="6.05387">
        <ele>245</ele>
        <time>2018-10-23T11:41:04Z</time>
      </trkpt>
      <trkpt lat="47.68513" lon="6.05395">
        <ele>245</ele>
        <time>2018-10-23T11:41:08Z</time>
      </trkpt>
      <trkpt lat="47.68514" lon="6.05402">
        <ele>246</ele>
        <time>2018-10-23T11:41:12Z</time>
      </trkpt>
      <trkpt lat="47.68516" lon="6.05408">
        <ele>246</ele>
        <time>2018-10-23T11:41:15Z</time>
      </trkpt>
      <trkpt lat="47.68517" lon="6.05416">
        <ele>246</ele>
        <time>2018-10-23T11:41:18Z</time>
      </trkpt>
      <trkpt lat="47.68518" lon="6.05425">
        <ele>248</ele>
        <time>2018-10-23T11:41:21Z</time>
      </trkpt>
      <trkpt lat="47.68517" lon="6.05432">
        <ele>248</ele>
        <time>2018-10-23T11:41:23Z</time>
      </trkpt>
      <trkpt lat="47.68515" lon="6.05439">
        <ele>248</ele>
        <time>2018-10-23T11:41:25Z</time>
      </trkpt>
      <trkpt lat="47.68512" lon="6.05447">
        <ele>249</ele>
        <time>2018-10-23T11:41:28Z</time>
      </trkpt>
      <trkpt lat="47.68509" lon="6.05453">
        <ele>249</ele>
        <time>2018-10-23T11:41:31Z</time>
      </trkpt>
      <trkpt lat="47.68505" lon="6.0546">
        <ele>249</ele>
        <time>2018-10-23T11:41:34Z</time>
      </trkpt>
      <trkpt lat="47.685" lon="6.05466">
        <ele>249</ele>
        <time>2018-10-23T11:41:37Z</time>
      </trkpt>
      <trkpt lat="47.68496" lon="6.05473">
        <ele>250</ele>
        <time>2018-10-23T11:41:40Z</time>
      </trkpt>
      <trkpt lat="47.68492" lon="6.05478">
        <ele>250</ele>
        <time>2018-10-23T11:41:42Z</time>
      </trkpt>
      <trkpt lat="47.68488" lon="6.05483">
        <ele>250</ele>
        <time>2018-10-23T11:41:44Z</time>
      </trkpt>
      <trkpt lat="47.68484" lon="6.05488">
        <ele>250</ele>
        <time>2018-10-23T11:41:46Z</time>
      </trkpt>
      <trkpt lat="47.68479" lon="6.05493">
        <ele>250</ele>
        <time>2018-10-23T11:41:48Z</time>
      </trkpt>
      <trkpt lat="47.68475" lon="6.05497">
        <ele>250</ele>
        <time>2018-10-23T11:41:50Z</time>
      </trkpt>
      <trkpt lat="47.68471" lon="6.05502">
        <ele>251</ele>
        <time>2018-10-23T11:41:52Z</time>
      </trkpt>
      <trkpt lat="47.68466" lon="6.05508">
        <ele>251</ele>
        <time>2018-10-23T11:41:54Z</time>
      </trkpt>
      <trkpt lat="47.68462" lon="6.05513">
        <ele>251</ele>
        <time>2018-10-23T11:41:56Z</time>
      </trkpt>
      <trkpt lat="47.68459" lon="6.05518">
        <ele>251</ele>
        <time>2018-10-23T11:41:58Z</time>
      </trkpt>
      <trkpt lat="47.68455" lon="6.05525">
        <ele>251</ele>
        <time>2018-10-23T11:42:01Z</time>
      </trkpt>
      <trkpt lat="47.68452" lon="6.05533">
        <ele>251</ele>
        <time>2018-10-23T11:42:04Z</time>
      </trkpt>
      <trkpt lat="47.68449" lon="6.05541">
        <ele>251</ele>
        <time>2018-10-23T11:42:07Z</time>
      </trkpt>
      <trkpt lat="47.6845" lon="6.0555">
        <ele>252</ele>
        <time>2018-10-23T11:42:10Z</time>
      </trkpt>
      <trkpt lat="47.68451" lon="6.05556">
        <ele>252</ele>
        <time>2018-10-23T11:42:12Z</time>
      </trkpt>
      <trkpt lat="47.68455" lon="6.05565">
        <ele>252</ele>
        <time>2018-10-23T11:42:15Z</time>
      </trkpt>
      <trkpt lat="47.68459" lon="6.0557">
        <ele>252</ele>
        <time>2018-10-23T11:42:17Z</time>
      </trkpt>
      <trkpt lat="47.68464" lon="6.05573">
        <ele>252</ele>
        <time>2018-10-23T11:42:19Z</time>
      </trkpt>
      <trkpt lat="47.68469" lon="6.05577">
        <ele>252</ele>
        <time>2018-10-23T11:42:22Z</time>
      </trkpt>
      <trkpt lat="47.68475" lon="6.05581">
        <ele>252</ele>
        <time>2018-10-23T11:42:25Z</time>
      </trkpt>
      <trkpt lat="47.6848" lon="6.05586">
        <ele>252</ele>
        <time>2018-10-23T11:42:28Z</time>
      </trkpt>
      <trkpt lat="47.68485" lon="6.05592">
        <ele>252</ele>
        <time>2018-10-23T11:42:31Z</time>
      </trkpt>
      <trkpt lat="47.6849" lon="6.056">
        <ele>252</ele>
        <time>2018-10-23T11:42:34Z</time>
      </trkpt>
      <trkpt lat="47.68492" lon="6.05605">
        <ele>252</ele>
        <time>2018-10-23T11:42:36Z</time>
      </trkpt>
      <trkpt lat="47.68497" lon="6.05612">
        <ele>252</ele>
        <time>2018-10-23T11:42:39Z</time>
      </trkpt>
      <trkpt lat="47.68501" lon="6.05616">
        <ele>253</ele>
        <time>2018-10-23T11:42:41Z</time>
      </trkpt>
      <trkpt lat="47.68505" lon="6.05618">
        <ele>253</ele>
        <time>2018-10-23T11:42:43Z</time>
      </trkpt>
      <trkpt lat="47.6851" lon="6.0562">
        <ele>253</ele>
        <time>2018-10-23T11:42:45Z</time>
      </trkpt>
      <trkpt lat="47.68515" lon="6.0562">
        <ele>253</ele>
        <time>2018-10-23T11:42:47Z</time>
      </trkpt>
      <trkpt lat="47.68519" lon="6.0562">
        <ele>253</ele>
        <time>2018-10-23T11:42:49Z</time>
      </trkpt>
      <trkpt lat="47.68526" lon="6.05619">
        <ele>253</ele>
        <time>2018-10-23T11:42:52Z</time>
      </trkpt>
      <trkpt lat="47.68531" lon="6.05619">
        <ele>253</ele>
        <time>2018-10-23T11:42:54Z</time>
      </trkpt>
      <trkpt lat="47.68536" lon="6.05619">
        <ele>253</ele>
        <time>2018-10-23T11:42:56Z</time>
      </trkpt>
      <trkpt lat="47.6854" lon="6.05619">
        <ele>253</ele>
        <time>2018-10-23T11:42:58Z</time>
      </trkpt>
      <trkpt lat="47.68547" lon="6.05618">
        <ele>253</ele>
        <time>2018-10-23T11:43:01Z</time>
      </trkpt>
      <trkpt lat="47.68553" lon="6.05617">
        <ele>253</ele>
        <time>2018-10-23T11:43:04Z</time>
      </trkpt>
      <trkpt lat="47.68558" lon="6.05616">
        <ele>253</ele>
        <time>2018-10-23T11:43:06Z</time>
      </trkpt>
      <trkpt lat="47.68563" lon="6.05616">
        <ele>253</ele>
        <time>2018-10-23T11:43:08Z</time>
      </trkpt>
      <trkpt lat="47.68569" lon="6.05616">
        <ele>253</ele>
        <time>2018-10-23T11:43:10Z</time>
      </trkpt>
      <trkpt lat="47.68575" lon="6.05617">
        <ele>253</ele>
        <time>2018-10-23T11:43:12Z</time>
      </trkpt>
      <trkpt lat="47.68581" lon="6.05616">
        <ele>254</ele>
        <time>2018-10-23T11:43:14Z</time>
      </trkpt>
      <trkpt lat="47.68586" lon="6.05616">
        <ele>254</ele>
        <time>2018-10-23T11:43:16Z</time>
      </trkpt>
      <trkpt lat="47.68592" lon="6.05616">
        <ele>254</ele>
        <time>2018-10-23T11:43:18Z</time>
      </trkpt>
      <trkpt lat="47.68597" lon="6.05616">
        <ele>254</ele>
        <time>2018-10-23T11:43:20Z</time>
      </trkpt>
      <trkpt lat="47.68603" lon="6.05616">
        <ele>254</ele>
        <time>2018-10-23T11:43:22Z</time>
      </trkpt>
      <trkpt lat="47.68608" lon="6.05616">
        <ele>254</ele>
        <time>2018-10-23T11:43:24Z</time>
      </trkpt>
      <trkpt lat="47.68614" lon="6.05617">
        <ele>254</ele>
        <time>2018-10-23T11:43:26Z</time>
      </trkpt>
      <trkpt lat="47.68619" lon="6.05617">
        <ele>253</ele>
        <time>2018-10-23T11:43:28Z</time>
      </trkpt>
      <trkpt lat="47.68625" lon="6.05617">
        <ele>253</ele>
        <time>2018-10-23T11:43:30Z</time>
      </trkpt>
      <trkpt lat="47.68631" lon="6.05616">
        <ele>253</ele>
        <time>2018-10-23T11:43:32Z</time>
      </trkpt>
      <trkpt lat="47.68637" lon="6.05616">
        <ele>253</ele>
        <time>2018-10-23T11:43:34Z</time>
      </trkpt>
      <trkpt lat="47.68643" lon="6.05616">
        <ele>253</ele>
        <time>2018-10-23T11:43:36Z</time>
      </trkpt>
      <trkpt lat="47.6865" lon="6.05616">
        <ele>253</ele>
        <time>2018-10-23T11:43:38Z</time>
      </trkpt>
      <trkpt lat="47.68657" lon="6.05615">
        <ele>253</ele>
        <time>2018-10-23T11:43:40Z</time>
      </trkpt>
      <trkpt lat="47.68664" lon="6.05614">
        <ele>253</ele>
        <time>2018-10-23T11:43:42Z</time>
      </trkpt>
      <trkpt lat="47.68672" lon="6.05613">
        <ele>251</ele>
        <time>2018-10-23T11:43:44Z</time>
      </trkpt>
      <trkpt lat="47.68676" lon="6.05613">
        <ele>251</ele>
        <time>2018-10-23T11:43:45Z</time>
      </trkpt>
      <trkpt lat="47.68684" lon="6.0561">
        <ele>251</ele>
        <time>2018-10-23T11:43:47Z</time>
      </trkpt>
      <trkpt lat="47.6869" lon="6.05605">
        <ele>251</ele>
        <time>2018-10-23T11:43:49Z</time>
      </trkpt>
      <trkpt lat="47.68695" lon="6.056">
        <ele>251</ele>
        <time>2018-10-23T11:43:51Z</time>
      </trkpt>
      <trkpt lat="47.68701" lon="6.05599">
        <ele>251</ele>
        <time>2018-10-23T11:43:53Z</time>
      </trkpt>
      <trkpt lat="47.68707" lon="6.05599">
        <ele>251</ele>
        <time>2018-10-23T11:43:55Z</time>
      </trkpt>
      <trkpt lat="47.68712" lon="6.05599">
        <ele>250</ele>
        <time>2018-10-23T11:43:59Z</time>
      </trkpt>
      <trkpt lat="47.68717" lon="6.05603">
        <ele>250</ele>
        <time>2018-10-23T11:44:03Z</time>
      </trkpt>
      <trkpt lat="47.68714" lon="6.0561">
        <ele>250</ele>
        <time>2018-10-23T11:44:07Z</time>
      </trkpt>
      <trkpt lat="47.68709" lon="6.05617">
        <ele>250</ele>
        <time>2018-10-23T11:44:10Z</time>
      </trkpt>
      <trkpt lat="47.68705" lon="6.05623">
        <ele>251</ele>
        <time>2018-10-23T11:44:12Z</time>
      </trkpt>
      <trkpt lat="47.68701" lon="6.05631">
        <ele>251</ele>
        <time>2018-10-23T11:44:14Z</time>
      </trkpt>
      <trkpt lat="47.68697" lon="6.05638">
        <ele>251</ele>
        <time>2018-10-23T11:44:16Z</time>
      </trkpt>
      <trkpt lat="47.68692" lon="6.05646">
        <ele>251</ele>
        <time>2018-10-23T11:44:18Z</time>
      </trkpt>
      <trkpt lat="47.68688" lon="6.05654">
        <ele>251</ele>
        <time>2018-10-23T11:44:20Z</time>
      </trkpt>
      <trkpt lat="47.68684" lon="6.05663">
        <ele>251</ele>
        <time>2018-10-23T11:44:22Z</time>
      </trkpt>
      <trkpt lat="47.68678" lon="6.05672">
        <ele>251</ele>
        <time>2018-10-23T11:44:24Z</time>
      </trkpt>
      <trkpt lat="47.68672" lon="6.05682">
        <ele>250</ele>
        <time>2018-10-23T11:44:26Z</time>
      </trkpt>
      <trkpt lat="47.68666" lon="6.05694">
        <ele>251</ele>
        <time>2018-10-23T11:44:27Z</time>
      </trkpt>
      <trkpt lat="47.68662" lon="6.05699">
        <ele>251</ele>
        <time>2018-10-23T11:44:28Z</time>
      </trkpt>
      <trkpt lat="47.68659" lon="6.05705">
        <ele>250</ele>
        <time>2018-10-23T11:44:29Z</time>
      </trkpt>
      <trkpt lat="47.68656" lon="6.05711">
        <ele>250</ele>
        <time>2018-10-23T11:44:30Z</time>
      </trkpt>
      <trkpt lat="47.68652" lon="6.05717">
        <ele>250</ele>
        <time>2018-10-23T11:44:31Z</time>
      </trkpt>
      <trkpt lat="47.68649" lon="6.05724">
        <ele>249</ele>
        <time>2018-10-23T11:44:32Z</time>
      </trkpt>
      <trkpt lat="47.68645" lon="6.0573">
        <ele>249</ele>
        <time>2018-10-23T11:44:33Z</time>
      </trkpt>
      <trkpt lat="47.68641" lon="6.05737">
        <ele>249</ele>
        <time>2018-10-23T11:44:34Z</time>
      </trkpt>
      <trkpt lat="47.68636" lon="6.05742">
        <ele>249</ele>
        <time>2018-10-23T11:44:35Z</time>
      </trkpt>
      <trkpt lat="47.68632" lon="6.05748">
        <ele>249</ele>
        <time>2018-10-23T11:44:36Z</time>
      </trkpt>
      <trkpt lat="47.68627" lon="6.05755">
        <ele>247</ele>
        <time>2018-10-23T11:44:37Z</time>
      </trkpt>
      <trkpt lat="47.68622" lon="6.05762">
        <ele>247</ele>
        <time>2018-10-23T11:44:38Z</time>
      </trkpt>
      <trkpt lat="47.68617" lon="6.05768">
        <ele>247</ele>
        <time>2018-10-23T11:44:39Z</time>
      </trkpt>
      <trkpt lat="47.68612" lon="6.05776">
        <ele>247</ele>
        <time>2018-10-23T11:44:40Z</time>
      </trkpt>
      <trkpt lat="47.68608" lon="6.05783">
        <ele>246</ele>
        <time>2018-10-23T11:44:41Z</time>
      </trkpt>
      <trkpt lat="47.68604" lon="6.05792">
        <ele>246</ele>
        <time>2018-10-23T11:44:42Z</time>
      </trkpt>
      <trkpt lat="47.686" lon="6.058">
        <ele>246</ele>
        <time>2018-10-23T11:44:43Z</time>
      </trkpt>
      <trkpt lat="47.68597" lon="6.05808">
        <ele>245</ele>
        <time>2018-10-23T11:44:44Z</time>
      </trkpt>
      <trkpt lat="47.68594" lon="6.05815">
        <ele>245</ele>
        <time>2018-10-23T11:44:45Z</time>
      </trkpt>
      <trkpt lat="47.6859" lon="6.05823">
        <ele>244</ele>
        <time>2018-10-23T11:44:46Z</time>
      </trkpt>
      <trkpt lat="47.68587" lon="6.05831">
        <ele>243</ele>
        <time>2018-10-23T11:44:47Z</time>
      </trkpt>
      <trkpt lat="47.68584" lon="6.05839">
        <ele>243</ele>
        <time>2018-10-23T11:44:48Z</time>
      </trkpt>
      <trkpt lat="47.68581" lon="6.05847">
        <ele>241</ele>
        <time>2018-10-23T11:44:49Z</time>
      </trkpt>
      <trkpt lat="47.68578" lon="6.05854">
        <ele>241</ele>
        <time>2018-10-23T11:44:50Z</time>
      </trkpt>
      <trkpt lat="47.68575" lon="6.05861">
        <ele>241</ele>
        <time>2018-10-23T11:44:51Z</time>
      </trkpt>
      <trkpt lat="47.68572" lon="6.05868">
        <ele>241</ele>
        <time>2018-10-23T11:44:52Z</time>
      </trkpt>
      <trkpt lat="47.68568" lon="6.05876">
        <ele>241</ele>
        <time>2018-10-23T11:44:53Z</time>
      </trkpt>
      <trkpt lat="47.68565" lon="6.05883">
        <ele>241</ele>
        <time>2018-10-23T11:44:54Z</time>
      </trkpt>
      <trkpt lat="47.68562" lon="6.05889">
        <ele>240</ele>
        <time>2018-10-23T11:44:55Z</time>
      </trkpt>
      <trkpt lat="47.6856" lon="6.05896">
        <ele>240</ele>
        <time>2018-10-23T11:44:56Z</time>
      </trkpt>
      <trkpt lat="47.68558" lon="6.05903">
        <ele>240</ele>
        <time>2018-10-23T11:44:57Z</time>
      </trkpt>
      <trkpt lat="47.68555" lon="6.05911">
        <ele>240</ele>
        <time>2018-10-23T11:44:58Z</time>
      </trkpt>
      <trkpt lat="47.68553" lon="6.05918">
        <ele>239</ele>
        <time>2018-10-23T11:44:59Z</time>
      </trkpt>
      <trkpt lat="47.6855" lon="6.05925">
        <ele>239</ele>
        <time>2018-10-23T11:45:00Z</time>
      </trkpt>
      <trkpt lat="47.68548" lon="6.05932">
        <ele>239</ele>
        <time>2018-10-23T11:45:01Z</time>
      </trkpt>
      <trkpt lat="47.68545" lon="6.05938">
        <ele>239</ele>
        <time>2018-10-23T11:45:02Z</time>
      </trkpt>
      <trkpt lat="47.68543" lon="6.05945">
        <ele>239</ele>
        <time>2018-10-23T11:45:03Z</time>
      </trkpt>
      <trkpt lat="47.68541" lon="6.05951">
        <ele>239</ele>
        <time>2018-10-23T11:45:04Z</time>
      </trkpt>
      <trkpt lat="47.68538" lon="6.05958">
        <ele>239</ele>
        <time>2018-10-23T11:45:05Z</time>
      </trkpt>
      <trkpt lat="47.68536" lon="6.05965">
        <ele>239</ele>
        <time>2018-10-23T11:45:06Z</time>
      </trkpt>
      <trkpt lat="47.68534" lon="6.05971">
        <ele>239</ele>
        <time>2018-10-23T11:45:07Z</time>
      </trkpt>
      <trkpt lat="47.68531" lon="6.05977">
        <ele>239</ele>
        <time>2018-10-23T11:45:08Z</time>
      </trkpt>
      <trkpt lat="47.68528" lon="6.05983">
        <ele>239</ele>
        <time>2018-10-23T11:45:09Z</time>
      </trkpt>
      <trkpt lat="47.68526" lon="6.0599">
        <ele>238</ele>
        <time>2018-10-23T11:45:10Z</time>
      </trkpt>
      <trkpt lat="47.68524" lon="6.05996">
        <ele>238</ele>
        <time>2018-10-23T11:45:11Z</time>
      </trkpt>
      <trkpt lat="47.68521" lon="6.06002">
        <ele>238</ele>
        <time>2018-10-23T11:45:12Z</time>
      </trkpt>
      <trkpt lat="47.68519" lon="6.06007">
        <ele>238</ele>
        <time>2018-10-23T11:45:13Z</time>
      </trkpt>
      <trkpt lat="47.68517" lon="6.06013">
        <ele>238</ele>
        <time>2018-10-23T11:45:14Z</time>
      </trkpt>
      <trkpt lat="47.68514" lon="6.06019">
        <ele>238</ele>
        <time>2018-10-23T11:45:15Z</time>
      </trkpt>
      <trkpt lat="47.6851" lon="6.0603">
        <ele>238</ele>
        <time>2018-10-23T11:45:17Z</time>
      </trkpt>
      <trkpt lat="47.68505" lon="6.06041">
        <ele>238</ele>
        <time>2018-10-23T11:45:19Z</time>
      </trkpt>
      <trkpt lat="47.685" lon="6.06051">
        <ele>238</ele>
        <time>2018-10-23T11:45:21Z</time>
      </trkpt>
      <trkpt lat="47.68495" lon="6.06061">
        <ele>237</ele>
        <time>2018-10-23T11:45:23Z</time>
      </trkpt>
      <trkpt lat="47.6849" lon="6.06071">
        <ele>237</ele>
        <time>2018-10-23T11:45:25Z</time>
      </trkpt>
      <trkpt lat="47.68487" lon="6.06083">
        <ele>237</ele>
        <time>2018-10-23T11:45:27Z</time>
      </trkpt>
      <trkpt lat="47.68483" lon="6.06094">
        <ele>237</ele>
        <time>2018-10-23T11:45:29Z</time>
      </trkpt>
      <trkpt lat="47.68479" lon="6.06106">
        <ele>237</ele>
        <time>2018-10-23T11:45:31Z</time>
      </trkpt>
      <trkpt lat="47.68477" lon="6.06113">
        <ele>237</ele>
        <time>2018-10-23T11:45:32Z</time>
      </trkpt>
      <trkpt lat="47.68476" lon="6.06119">
        <ele>237</ele>
        <time>2018-10-23T11:45:33Z</time>
      </trkpt>
      <trkpt lat="47.68472" lon="6.06131">
        <ele>237</ele>
        <time>2018-10-23T11:45:35Z</time>
      </trkpt>
      <trkpt lat="47.68468" lon="6.06142">
        <ele>237</ele>
        <time>2018-10-23T11:45:37Z</time>
      </trkpt>
      <trkpt lat="47.68464" lon="6.06154">
        <ele>237</ele>
        <time>2018-10-23T11:45:39Z</time>
      </trkpt>
      <trkpt lat="47.68459" lon="6.06165">
        <ele>237</ele>
        <time>2018-10-23T11:45:41Z</time>
      </trkpt>
      <trkpt lat="47.68456" lon="6.06176">
        <ele>236</ele>
        <time>2018-10-23T11:45:43Z</time>
      </trkpt>
      <trkpt lat="47.68452" lon="6.06186">
        <ele>236</ele>
        <time>2018-10-23T11:45:45Z</time>
      </trkpt>
      <trkpt lat="47.68448" lon="6.06197">
        <ele>236</ele>
        <time>2018-10-23T11:45:47Z</time>
      </trkpt>
      <trkpt lat="47.68446" lon="6.06207">
        <ele>237</ele>
        <time>2018-10-23T11:45:49Z</time>
      </trkpt>
      <trkpt lat="47.68443" lon="6.06216">
        <ele>237</ele>
        <time>2018-10-23T11:45:51Z</time>
      </trkpt>
      <trkpt lat="47.68439" lon="6.06226">
        <ele>237</ele>
        <time>2018-10-23T11:45:53Z</time>
      </trkpt>
      <trkpt lat="47.68436" lon="6.06236">
        <ele>237</ele>
        <time>2018-10-23T11:45:55Z</time>
      </trkpt>
      <trkpt lat="47.68433" lon="6.06246">
        <ele>237</ele>
        <time>2018-10-23T11:45:57Z</time>
      </trkpt>
      <trkpt lat="47.6843" lon="6.06256">
        <ele>237</ele>
        <time>2018-10-23T11:45:59Z</time>
      </trkpt>
      <trkpt lat="47.68427" lon="6.06266">
        <ele>237</ele>
        <time>2018-10-23T11:46:01Z</time>
      </trkpt>
      <trkpt lat="47.68424" lon="6.06275">
        <ele>236</ele>
        <time>2018-10-23T11:46:03Z</time>
      </trkpt>
      <trkpt lat="47.68421" lon="6.06285">
        <ele>236</ele>
        <time>2018-10-23T11:46:05Z</time>
      </trkpt>
      <trkpt lat="47.68417" lon="6.06294">
        <ele>236</ele>
        <time>2018-10-23T11:46:07Z</time>
      </trkpt>
      <trkpt lat="47.68414" lon="6.06304">
        <ele>236</ele>
        <time>2018-10-23T11:46:09Z</time>
      </trkpt>
      <trkpt lat="47.68411" lon="6.06314">
        <ele>236</ele>
        <time>2018-10-23T11:46:11Z</time>
      </trkpt>
      <trkpt lat="47.68409" lon="6.06324">
        <ele>236</ele>
        <time>2018-10-23T11:46:13Z</time>
      </trkpt>
      <trkpt lat="47.68406" lon="6.06333">
        <ele>236</ele>
        <time>2018-10-23T11:46:15Z</time>
      </trkpt>
      <trkpt lat="47.68403" lon="6.0634">
        <ele>236</ele>
        <time>2018-10-23T11:46:17Z</time>
      </trkpt>
      <trkpt lat="47.684" lon="6.06347">
        <ele>237</ele>
        <time>2018-10-23T11:46:19Z</time>
      </trkpt>
      <trkpt lat="47.68398" lon="6.06355">
        <ele>237</ele>
        <time>2018-10-23T11:46:21Z</time>
      </trkpt>
      <trkpt lat="47.68396" lon="6.06364">
        <ele>237</ele>
        <time>2018-10-23T11:46:23Z</time>
      </trkpt>
      <trkpt lat="47.68394" lon="6.06372">
        <ele>237</ele>
        <time>2018-10-23T11:46:25Z</time>
      </trkpt>
      <trkpt lat="47.68391" lon="6.0638">
        <ele>237</ele>
        <time>2018-10-23T11:46:27Z</time>
      </trkpt>
      <trkpt lat="47.68388" lon="6.0639">
        <ele>237</ele>
        <time>2018-10-23T11:46:29Z</time>
      </trkpt>
      <trkpt lat="47.68386" lon="6.06398">
        <ele>237</ele>
        <time>2018-10-23T11:46:31Z</time>
      </trkpt>
      <trkpt lat="47.68383" lon="6.06407">
        <ele>237</ele>
        <time>2018-10-23T11:46:33Z</time>
      </trkpt>
      <trkpt lat="47.68381" lon="6.06416">
        <ele>237</ele>
        <time>2018-10-23T11:46:35Z</time>
      </trkpt>
      <trkpt lat="47.68378" lon="6.06425">
        <ele>238</ele>
        <time>2018-10-23T11:46:37Z</time>
      </trkpt>
      <trkpt lat="47.68375" lon="6.06433">
        <ele>238</ele>
        <time>2018-10-23T11:46:39Z</time>
      </trkpt>
      <trkpt lat="47.68372" lon="6.06442">
        <ele>238</ele>
        <time>2018-10-23T11:46:41Z</time>
      </trkpt>
      <trkpt lat="47.6837" lon="6.06451">
        <ele>238</ele>
        <time>2018-10-23T11:46:43Z</time>
      </trkpt>
      <trkpt lat="47.68367" lon="6.0646">
        <ele>238</ele>
        <time>2018-10-23T11:46:45Z</time>
      </trkpt>
      <trkpt lat="47.68364" lon="6.0647">
        <ele>238</ele>
        <time>2018-10-23T11:46:47Z</time>
      </trkpt>
      <trkpt lat="47.68361" lon="6.06479">
        <ele>239</ele>
        <time>2018-10-23T11:46:49Z</time>
      </trkpt>
      <trkpt lat="47.68358" lon="6.06487">
        <ele>239</ele>
        <time>2018-10-23T11:46:51Z</time>
      </trkpt>
      <trkpt lat="47.68355" lon="6.06495">
        <ele>239</ele>
        <time>2018-10-23T11:46:53Z</time>
      </trkpt>
      <trkpt lat="47.68353" lon="6.06504">
        <ele>240</ele>
        <time>2018-10-23T11:46:55Z</time>
      </trkpt>
      <trkpt lat="47.6835" lon="6.06513">
        <ele>240</ele>
        <time>2018-10-23T11:46:57Z</time>
      </trkpt>
      <trkpt lat="47.68348" lon="6.06522">
        <ele>240</ele>
        <time>2018-10-23T11:46:59Z</time>
      </trkpt>
      <trkpt lat="47.68345" lon="6.06531">
        <ele>240</ele>
        <time>2018-10-23T11:47:01Z</time>
      </trkpt>
      <trkpt lat="47.68342" lon="6.06539">
        <ele>240</ele>
        <time>2018-10-23T11:47:03Z</time>
      </trkpt>
      <trkpt lat="47.68339" lon="6.06547">
        <ele>240</ele>
        <time>2018-10-23T11:47:05Z</time>
      </trkpt>
      <trkpt lat="47.68336" lon="6.06556">
        <ele>240</ele>
        <time>2018-10-23T11:47:07Z</time>
      </trkpt>
      <trkpt lat="47.68334" lon="6.06564">
        <ele>240</ele>
        <time>2018-10-23T11:47:09Z</time>
      </trkpt>
      <trkpt lat="47.68331" lon="6.06572">
        <ele>243</ele>
        <time>2018-10-23T11:47:11Z</time>
      </trkpt>
      <trkpt lat="47.68329" lon="6.0658">
        <ele>242</ele>
        <time>2018-10-23T11:47:13Z</time>
      </trkpt>
      <trkpt lat="47.68326" lon="6.06588">
        <ele>243</ele>
        <time>2018-10-23T11:47:15Z</time>
      </trkpt>
      <trkpt lat="47.68323" lon="6.06596">
        <ele>244</ele>
        <time>2018-10-23T11:47:17Z</time>
      </trkpt>
      <trkpt lat="47.68321" lon="6.06604">
        <ele>245</ele>
        <time>2018-10-23T11:47:19Z</time>
      </trkpt>
      <trkpt lat="47.68318" lon="6.06611">
        <ele>245</ele>
        <time>2018-10-23T11:47:21Z</time>
      </trkpt>
      <trkpt lat="47.68315" lon="6.06619">
        <ele>245</ele>
        <time>2018-10-23T11:47:23Z</time>
      </trkpt>
      <trkpt lat="47.68313" lon="6.06626">
        <ele>246</ele>
        <time>2018-10-23T11:47:25Z</time>
      </trkpt>
      <trkpt lat="47.6831" lon="6.06634">
        <ele>246</ele>
        <time>2018-10-23T11:47:27Z</time>
      </trkpt>
      <trkpt lat="47.68307" lon="6.06642">
        <ele>246</ele>
        <time>2018-10-23T11:47:29Z</time>
      </trkpt>
      <trkpt lat="47.68304" lon="6.0665">
        <ele>246</ele>
        <time>2018-10-23T11:47:31Z</time>
      </trkpt>
      <trkpt lat="47.68301" lon="6.06657">
        <ele>246</ele>
        <time>2018-10-23T11:47:33Z</time>
      </trkpt>
      <trkpt lat="47.68298" lon="6.06663">
        <ele>246</ele>
        <time>2018-10-23T11:47:35Z</time>
      </trkpt>
      <trkpt lat="47.68295" lon="6.0667">
        <ele>247</ele>
        <time>2018-10-23T11:47:37Z</time>
      </trkpt>
      <trkpt lat="47.68291" lon="6.06677">
        <ele>247</ele>
        <time>2018-10-23T11:47:39Z</time>
      </trkpt>
      <trkpt lat="47.68288" lon="6.06684">
        <ele>247</ele>
        <time>2018-10-23T11:47:41Z</time>
      </trkpt>
      <trkpt lat="47.68286" lon="6.0669">
        <ele>247</ele>
        <time>2018-10-23T11:47:43Z</time>
      </trkpt>
      <trkpt lat="47.68283" lon="6.06696">
        <ele>247</ele>
        <time>2018-10-23T11:47:45Z</time>
      </trkpt>
      <trkpt lat="47.68279" lon="6.06702">
        <ele>247</ele>
        <time>2018-10-23T11:47:47Z</time>
      </trkpt>
      <trkpt lat="47.68276" lon="6.06707">
        <ele>248</ele>
        <time>2018-10-23T11:47:49Z</time>
      </trkpt>
      <trkpt lat="47.68274" lon="6.06713">
        <ele>248</ele>
        <time>2018-10-23T11:47:51Z</time>
      </trkpt>
      <trkpt lat="47.68271" lon="6.06719">
        <ele>248</ele>
        <time>2018-10-23T11:47:53Z</time>
      </trkpt>
      <trkpt lat="47.68268" lon="6.06724">
        <ele>248</ele>
        <time>2018-10-23T11:47:55Z</time>
      </trkpt>
      <trkpt lat="47.68265" lon="6.0673">
        <ele>248</ele>
        <time>2018-10-23T11:47:57Z</time>
      </trkpt>
      <trkpt lat="47.68263" lon="6.06736">
        <ele>248</ele>
        <time>2018-10-23T11:47:59Z</time>
      </trkpt>
      <trkpt lat="47.68259" lon="6.06744">
        <ele>248</ele>
        <time>2018-10-23T11:48:02Z</time>
      </trkpt>
      <trkpt lat="47.68255" lon="6.06752">
        <ele>249</ele>
        <time>2018-10-23T11:48:05Z</time>
      </trkpt>
      <trkpt lat="47.68252" lon="6.0676">
        <ele>248</ele>
        <time>2018-10-23T11:48:08Z</time>
      </trkpt>
      <trkpt lat="47.68249" lon="6.06767">
        <ele>252</ele>
        <time>2018-10-23T11:48:11Z</time>
      </trkpt>
      <trkpt lat="47.68245" lon="6.06774">
        <ele>253</ele>
        <time>2018-10-23T11:48:14Z</time>
      </trkpt>
      <trkpt lat="47.68242" lon="6.06782">
        <ele>254</ele>
        <time>2018-10-23T11:48:17Z</time>
      </trkpt>
      <trkpt lat="47.68239" lon="6.06789">
        <ele>254</ele>
        <time>2018-10-23T11:48:20Z</time>
      </trkpt>
      <trkpt lat="47.68236" lon="6.06796">
        <ele>254</ele>
        <time>2018-10-23T11:48:23Z</time>
      </trkpt>
      <trkpt lat="47.68232" lon="6.06802">
        <ele>254</ele>
        <time>2018-10-23T11:48:26Z</time>
      </trkpt>
      <trkpt lat="47.68229" lon="6.06808">
        <ele>254</ele>
        <time>2018-10-23T11:48:29Z</time>
      </trkpt>
      <trkpt lat="47.68225" lon="6.06813">
        <ele>254</ele>
        <time>2018-10-23T11:48:32Z</time>
      </trkpt>
      <trkpt lat="47.68221" lon="6.06815">
        <ele>255</ele>
        <time>2018-10-23T11:48:35Z</time>
      </trkpt>
      <trkpt lat="47.68215" lon="6.06814">
        <ele>255</ele>
        <time>2018-10-23T11:48:38Z</time>
      </trkpt>
      <trkpt lat="47.68211" lon="6.0681">
        <ele>256</ele>
        <time>2018-10-23T11:48:42Z</time>
      </trkpt>
      <trkpt lat="47.68207" lon="6.06804">
        <ele>256</ele>
        <time>2018-10-23T11:48:46Z</time>
      </trkpt>
      <trkpt lat="47.68205" lon="6.06798">
        <ele>257</ele>
        <time>2018-10-23T11:48:50Z</time>
      </trkpt>
      <trkpt lat="47.68201" lon="6.06793">
        <ele>257</ele>
        <time>2018-10-23T11:48:53Z</time>
      </trkpt>
      <trkpt lat="47.68197" lon="6.0679">
        <ele>258</ele>
        <time>2018-10-23T11:48:56Z</time>
      </trkpt>
      <trkpt lat="47.68193" lon="6.06786">
        <ele>258</ele>
        <time>2018-10-23T11:48:59Z</time>
      </trkpt>
      <trkpt lat="47.68188" lon="6.06782">
        <ele>259</ele>
        <time>2018-10-23T11:49:03Z</time>
      </trkpt>
      <trkpt lat="47.68184" lon="6.06778">
        <ele>259</ele>
        <time>2018-10-23T11:49:07Z</time>
      </trkpt>
      <trkpt lat="47.6818" lon="6.06772">
        <ele>260</ele>
        <time>2018-10-23T11:49:11Z</time>
      </trkpt>
      <trkpt lat="47.68176" lon="6.06766">
        <ele>262</ele>
        <time>2018-10-23T11:49:15Z</time>
      </trkpt>
      <trkpt lat="47.68172" lon="6.0676">
        <ele>263</ele>
        <time>2018-10-23T11:49:19Z</time>
      </trkpt>
      <trkpt lat="47.68169" lon="6.06756">
        <ele>265</ele>
        <time>2018-10-23T11:49:23Z</time>
      </trkpt>
      <trkpt lat="47.68166" lon="6.0675">
        <ele>267</ele>
        <time>2018-10-23T11:49:27Z</time>
      </trkpt>
      <trkpt lat="47.68163" lon="6.06744">
        <ele>268</ele>
        <time>2018-10-23T11:49:33Z</time>
      </trkpt>
      <trkpt lat="47.68161" lon="6.06737">
        <ele>269</ele>
        <time>2018-10-23T11:49:37Z</time>
      </trkpt>
      <trkpt lat="47.68159" lon="6.06729">
        <ele>269</ele>
        <time>2018-10-23T11:49:41Z</time>
      </trkpt>
      <trkpt lat="47.68156" lon="6.06723">
        <ele>270</ele>
        <time>2018-10-23T11:49:44Z</time>
      </trkpt>
      <trkpt lat="47.68154" lon="6.06716">
        <ele>270</ele>
        <time>2018-10-23T11:49:47Z</time>
      </trkpt>
      <trkpt lat="47.68151" lon="6.06709">
        <ele>270</ele>
        <time>2018-10-23T11:49:51Z</time>
      </trkpt>
      <trkpt lat="47.68149" lon="6.06702">
        <ele>270</ele>
        <time>2018-10-23T11:49:55Z</time>
      </trkpt>
      <trkpt lat="47.68147" lon="6.06694">
        <ele>270</ele>
        <time>2018-10-23T11:49:59Z</time>
      </trkpt>
      <trkpt lat="47.68145" lon="6.06688">
        <ele>270</ele>
        <time>2018-10-23T11:50:01Z</time>
      </trkpt>
      <trkpt lat="47.68143" lon="6.0668">
        <ele>270</ele>
        <time>2018-10-23T11:50:04Z</time>
      </trkpt>
      <trkpt lat="47.68141" lon="6.06672">
        <ele>270</ele>
        <time>2018-10-23T11:50:07Z</time>
      </trkpt>
      <trkpt lat="47.68138" lon="6.06666">
        <ele>268</ele>
        <time>2018-10-23T11:50:10Z</time>
      </trkpt>
      <trkpt lat="47.68136" lon="6.06659">
        <ele>268</ele>
        <time>2018-10-23T11:50:13Z</time>
      </trkpt>
      <trkpt lat="47.68132" lon="6.06651">
        <ele>268</ele>
        <time>2018-10-23T11:50:16Z</time>
      </trkpt>
      <trkpt lat="47.68129" lon="6.06646">
        <ele>268</ele>
        <time>2018-10-23T11:50:18Z</time>
      </trkpt>
      <trkpt lat="47.68126" lon="6.0664">
        <ele>268</ele>
        <time>2018-10-23T11:50:20Z</time>
      </trkpt>
      <trkpt lat="47.68123" lon="6.06632">
        <ele>268</ele>
        <time>2018-10-23T11:50:22Z</time>
      </trkpt>
      <trkpt lat="47.68119" lon="6.06624">
        <ele>268</ele>
        <time>2018-10-23T11:50:24Z</time>
      </trkpt>
      <trkpt lat="47.68113" lon="6.06614">
        <ele>268</ele>
        <time>2018-10-23T11:50:26Z</time>
      </trkpt>
      <trkpt lat="47.68108" lon="6.06605">
        <ele>268</ele>
        <time>2018-10-23T11:50:28Z</time>
      </trkpt>
      <trkpt lat="47.68103" lon="6.06597">
        <ele>269</ele>
        <time>2018-10-23T11:50:30Z</time>
      </trkpt>
      <trkpt lat="47.68097" lon="6.06589">
        <ele>269</ele>
        <time>2018-10-23T11:50:32Z</time>
      </trkpt>
      <trkpt lat="47.68092" lon="6.06584">
        <ele>269</ele>
        <time>2018-10-23T11:50:34Z</time>
      </trkpt>
      <trkpt lat="47.68088" lon="6.0658">
        <ele>269</ele>
        <time>2018-10-23T11:50:36Z</time>
      </trkpt>
      <trkpt lat="47.68084" lon="6.06574">
        <ele>268</ele>
        <time>2018-10-23T11:50:38Z</time>
      </trkpt>
      <trkpt lat="47.68081" lon="6.06569">
        <ele>272</ele>
        <time>2018-10-23T11:50:40Z</time>
      </trkpt>
      <trkpt lat="47.68077" lon="6.06563">
        <ele>272</ele>
        <time>2018-10-23T11:50:43Z</time>
      </trkpt>
      <trkpt lat="47.68074" lon="6.06556">
        <ele>273</ele>
        <time>2018-10-23T11:50:46Z</time>
      </trkpt>
      <trkpt lat="47.68071" lon="6.06549">
        <ele>273</ele>
        <time>2018-10-23T11:50:49Z</time>
      </trkpt>
      <trkpt lat="47.68068" lon="6.06542">
        <ele>273</ele>
        <time>2018-10-23T11:50:53Z</time>
      </trkpt>
      <trkpt lat="47.68065" lon="6.06537">
        <ele>273</ele>
        <time>2018-10-23T11:50:56Z</time>
      </trkpt>
      <trkpt lat="47.68062" lon="6.06531">
        <ele>273</ele>
        <time>2018-10-23T11:50:59Z</time>
      </trkpt>
      <trkpt lat="47.6806" lon="6.06524">
        <ele>273</ele>
        <time>2018-10-23T11:51:02Z</time>
      </trkpt>
      <trkpt lat="47.68058" lon="6.06517">
        <ele>273</ele>
        <time>2018-10-23T11:51:05Z</time>
      </trkpt>
      <trkpt lat="47.68056" lon="6.06511">
        <ele>273</ele>
        <time>2018-10-23T11:51:09Z</time>
      </trkpt>
      <trkpt lat="47.68053" lon="6.06504">
        <ele>273</ele>
        <time>2018-10-23T11:51:14Z</time>
      </trkpt>
      <trkpt lat="47.68049" lon="6.06497">
        <ele>273</ele>
        <time>2018-10-23T11:51:18Z</time>
      </trkpt>
      <trkpt lat="47.68047" lon="6.06491">
        <ele>273</ele>
        <time>2018-10-23T11:51:21Z</time>
      </trkpt>
      <trkpt lat="47.68045" lon="6.06484">
        <ele>273</ele>
        <time>2018-10-23T11:51:25Z</time>
      </trkpt>
      <trkpt lat="47.68043" lon="6.06477">
        <ele>273</ele>
        <time>2018-10-23T11:51:29Z</time>
      </trkpt>
      <trkpt lat="47.6804" lon="6.06472">
        <ele>274</ele>
        <time>2018-10-23T11:51:33Z</time>
      </trkpt>
      <trkpt lat="47.68036" lon="6.06467">
        <ele>274</ele>
        <time>2018-10-23T11:51:38Z</time>
      </trkpt>
      <trkpt lat="47.68034" lon="6.06461">
        <ele>274</ele>
        <time>2018-10-23T11:51:42Z</time>
      </trkpt>
      <trkpt lat="47.68033" lon="6.06455">
        <ele>274</ele>
        <time>2018-10-23T11:51:45Z</time>
      </trkpt>
      <trkpt lat="47.6803" lon="6.06448">
        <ele>274</ele>
        <time>2018-10-23T11:51:49Z</time>
      </trkpt>
      <trkpt lat="47.68027" lon="6.06442">
        <ele>274</ele>
        <time>2018-10-23T11:51:53Z</time>
      </trkpt>
      <trkpt lat="47.68024" lon="6.06436">
        <ele>275</ele>
        <time>2018-10-23T11:51:57Z</time>
      </trkpt>
      <trkpt lat="47.68021" lon="6.0643">
        <ele>275</ele>
        <time>2018-10-23T11:52:01Z</time>
      </trkpt>
      <trkpt lat="47.68017" lon="6.06424">
        <ele>276</ele>
        <time>2018-10-23T11:52:05Z</time>
      </trkpt>
      <trkpt lat="47.68014" lon="6.06418">
        <ele>276</ele>
        <time>2018-10-23T11:52:08Z</time>
      </trkpt>
      <trkpt lat="47.6801" lon="6.06411">
        <ele>276</ele>
        <time>2018-10-23T11:52:11Z</time>
      </trkpt>
      <trkpt lat="47.68006" lon="6.06404">
        <ele>275</ele>
        <time>2018-10-23T11:52:14Z</time>
      </trkpt>
      <trkpt lat="47.68002" lon="6.06396">
        <ele>274</ele>
        <time>2018-10-23T11:52:17Z</time>
      </trkpt>
      <trkpt lat="47.67997" lon="6.06389">
        <ele>277</ele>
        <time>2018-10-23T11:52:20Z</time>
      </trkpt>
      <trkpt lat="47.67994" lon="6.06384">
        <ele>277</ele>
        <time>2018-10-23T11:52:22Z</time>
      </trkpt>
      <trkpt lat="47.67989" lon="6.06377">
        <ele>276</ele>
        <time>2018-10-23T11:52:25Z</time>
      </trkpt>
      <trkpt lat="47.67986" lon="6.06372">
        <ele>276</ele>
        <time>2018-10-23T11:52:27Z</time>
      </trkpt>
      <trkpt lat="47.67981" lon="6.06365">
        <ele>276</ele>
        <time>2018-10-23T11:52:30Z</time>
      </trkpt>
      <trkpt lat="47.67976" lon="6.06358">
        <ele>276</ele>
        <time>2018-10-23T11:52:33Z</time>
      </trkpt>
      <trkpt lat="47.67972" lon="6.06353">
        <ele>276</ele>
        <time>2018-10-23T11:52:35Z</time>
      </trkpt>
      <trkpt lat="47.67968" lon="6.06345">
        <ele>276</ele>
        <time>2018-10-23T11:52:37Z</time>
      </trkpt>
      <trkpt lat="47.67963" lon="6.06338">
        <ele>275</ele>
        <time>2018-10-23T11:52:39Z</time>
      </trkpt>
      <trkpt lat="47.67957" lon="6.06331">
        <ele>272</ele>
        <time>2018-10-23T11:52:41Z</time>
      </trkpt>
      <trkpt lat="47.67952" lon="6.06326">
        <ele>272</ele>
        <time>2018-10-23T11:52:43Z</time>
      </trkpt>
      <trkpt lat="47.67944" lon="6.06322">
        <ele>272</ele>
        <time>2018-10-23T11:52:45Z</time>
      </trkpt>
      <trkpt lat="47.67938" lon="6.06318">
        <ele>272</ele>
        <time>2018-10-23T11:52:47Z</time>
      </trkpt>
      <trkpt lat="47.67931" lon="6.06315">
        <ele>272</ele>
        <time>2018-10-23T11:52:49Z</time>
      </trkpt>
      <trkpt lat="47.67925" lon="6.06313">
        <ele>272</ele>
        <time>2018-10-23T11:52:51Z</time>
      </trkpt>
      <trkpt lat="47.67918" lon="6.0631">
        <ele>272</ele>
        <time>2018-10-23T11:52:53Z</time>
      </trkpt>
      <trkpt lat="47.6791" lon="6.06306">
        <ele>274</ele>
        <time>2018-10-23T11:52:55Z</time>
      </trkpt>
      <trkpt lat="47.67903" lon="6.063">
        <ele>274</ele>
        <time>2018-10-23T11:52:57Z</time>
      </trkpt>
      <trkpt lat="47.67897" lon="6.06297">
        <ele>274</ele>
        <time>2018-10-23T11:52:59Z</time>
      </trkpt>
      <trkpt lat="47.67891" lon="6.06291">
        <ele>274</ele>
        <time>2018-10-23T11:53:02Z</time>
      </trkpt>
      <trkpt lat="47.67885" lon="6.06284">
        <ele>274</ele>
        <time>2018-10-23T11:53:04Z</time>
      </trkpt>
      <trkpt lat="47.67881" lon="6.0628">
        <ele>274</ele>
        <time>2018-10-23T11:53:05Z</time>
      </trkpt>
      <trkpt lat="47.67877" lon="6.06276">
        <ele>274</ele>
        <time>2018-10-23T11:53:06Z</time>
      </trkpt>
      <trkpt lat="47.67871" lon="6.06269">
        <ele>274</ele>
        <time>2018-10-23T11:53:08Z</time>
      </trkpt>
      <trkpt lat="47.67865" lon="6.06259">
        <ele>274</ele>
        <time>2018-10-23T11:53:10Z</time>
      </trkpt>
      <trkpt lat="47.67861" lon="6.06251">
        <ele>274</ele>
        <time>2018-10-23T11:53:11Z</time>
      </trkpt>
      <trkpt lat="47.67858" lon="6.06245">
        <ele>271</ele>
        <time>2018-10-23T11:53:12Z</time>
      </trkpt>
      <trkpt lat="47.67853" lon="6.06237">
        <ele>271</ele>
        <time>2018-10-23T11:53:14Z</time>
      </trkpt>
      <trkpt lat="47.67849" lon="6.06229">
        <ele>271</ele>
        <time>2018-10-23T11:53:16Z</time>
      </trkpt>
      <trkpt lat="47.67845" lon="6.06222">
        <ele>271</ele>
        <time>2018-10-23T11:53:18Z</time>
      </trkpt>
      <trkpt lat="47.67843" lon="6.06217">
        <ele>270</ele>
        <time>2018-10-23T11:53:20Z</time>
      </trkpt>
      <trkpt lat="47.67839" lon="6.06208">
        <ele>270</ele>
        <time>2018-10-23T11:53:23Z</time>
      </trkpt>
      <trkpt lat="47.67835" lon="6.06202">
        <ele>270</ele>
        <time>2018-10-23T11:53:25Z</time>
      </trkpt>
      <trkpt lat="47.67832" lon="6.06196">
        <ele>273</ele>
        <time>2018-10-23T11:53:28Z</time>
      </trkpt>
      <trkpt lat="47.67828" lon="6.06189">
        <ele>272</ele>
        <time>2018-10-23T11:53:31Z</time>
      </trkpt>
      <trkpt lat="47.67826" lon="6.06184">
        <ele>272</ele>
        <time>2018-10-23T11:53:33Z</time>
      </trkpt>
      <trkpt lat="47.67823" lon="6.06176">
        <ele>272</ele>
        <time>2018-10-23T11:53:35Z</time>
      </trkpt>
      <trkpt lat="47.67821" lon="6.06168">
        <ele>271</ele>
        <time>2018-10-23T11:53:37Z</time>
      </trkpt>
      <trkpt lat="47.6782" lon="6.06161">
        <ele>271</ele>
        <time>2018-10-23T11:53:39Z</time>
      </trkpt>
      <trkpt lat="47.67818" lon="6.06152">
        <ele>271</ele>
        <time>2018-10-23T11:53:42Z</time>
      </trkpt>
      <trkpt lat="47.67816" lon="6.06143">
        <ele>271</ele>
        <time>2018-10-23T11:53:45Z</time>
      </trkpt>
      <trkpt lat="47.67813" lon="6.06134">
        <ele>271</ele>
        <time>2018-10-23T11:53:48Z</time>
      </trkpt>
      <trkpt lat="47.67811" lon="6.06127">
        <ele>271</ele>
        <time>2018-10-23T11:53:50Z</time>
      </trkpt>
      <trkpt lat="47.67809" lon="6.06117">
        <ele>271</ele>
        <time>2018-10-23T11:53:53Z</time>
      </trkpt>
      <trkpt lat="47.67807" lon="6.0611">
        <ele>271</ele>
        <time>2018-10-23T11:53:55Z</time>
      </trkpt>
      <trkpt lat="47.67806" lon="6.06103">
        <ele>271</ele>
        <time>2018-10-23T11:53:57Z</time>
      </trkpt>
      <trkpt lat="47.67803" lon="6.06097">
        <ele>271</ele>
        <time>2018-10-23T11:54:00Z</time>
      </trkpt>
      <trkpt lat="47.67798" lon="6.06097">
        <ele>271</ele>
        <time>2018-10-23T11:54:04Z</time>
      </trkpt>
      <trkpt lat="47.67794" lon="6.06101">
        <ele>271</ele>
        <time>2018-10-23T11:54:09Z</time>
      </trkpt>
      <trkpt lat="47.6779" lon="6.06105">
        <ele>271</ele>
        <time>2018-10-23T11:54:13Z</time>
      </trkpt>
      <trkpt lat="47.67786" lon="6.06111">
        <ele>271</ele>
        <time>2018-10-23T11:54:17Z</time>
      </trkpt>
      <trkpt lat="47.67783" lon="6.06117">
        <ele>271</ele>
        <time>2018-10-23T11:54:21Z</time>
      </trkpt>
      <trkpt lat="47.67782" lon="6.06125">
        <ele>271</ele>
        <time>2018-10-23T11:54:25Z</time>
      </trkpt>
      <trkpt lat="47.6778" lon="6.06133">
        <ele>272</ele>
        <time>2018-10-23T11:54:29Z</time>
      </trkpt>
      <trkpt lat="47.67778" lon="6.06141">
        <ele>272</ele>
        <time>2018-10-23T11:54:33Z</time>
      </trkpt>
      <trkpt lat="47.67776" lon="6.06148">
        <ele>272</ele>
        <time>2018-10-23T11:54:36Z</time>
      </trkpt>
      <trkpt lat="47.67774" lon="6.06156">
        <ele>272</ele>
        <time>2018-10-23T11:54:39Z</time>
      </trkpt>
      <trkpt lat="47.67771" lon="6.06162">
        <ele>272</ele>
        <time>2018-10-23T11:54:42Z</time>
      </trkpt>
      <trkpt lat="47.67768" lon="6.06168">
        <ele>274</ele>
        <time>2018-10-23T11:54:45Z</time>
      </trkpt>
      <trkpt lat="47.67765" lon="6.06175">
        <ele>274</ele>
        <time>2018-10-23T11:54:49Z</time>
      </trkpt>
      <trkpt lat="47.67763" lon="6.06183">
        <ele>274</ele>
        <time>2018-10-23T11:54:53Z</time>
      </trkpt>
      <trkpt lat="47.6776" lon="6.06189">
        <ele>274</ele>
        <time>2018-10-23T11:54:56Z</time>
      </trkpt>
      <trkpt lat="47.67758" lon="6.06196">
        <ele>274</ele>
        <time>2018-10-23T11:54:59Z</time>
      </trkpt>
      <trkpt lat="47.67755" lon="6.06202">
        <ele>275</ele>
        <time>2018-10-23T11:55:02Z</time>
      </trkpt>
      <trkpt lat="47.67752" lon="6.06208">
        <ele>275</ele>
        <time>2018-10-23T11:55:05Z</time>
      </trkpt>
      <trkpt lat="47.67749" lon="6.06215">
        <ele>275</ele>
        <time>2018-10-23T11:55:08Z</time>
      </trkpt>
      <trkpt lat="47.67746" lon="6.06222">
        <ele>275</ele>
        <time>2018-10-23T11:55:11Z</time>
      </trkpt>
      <trkpt lat="47.67742" lon="6.06229">
        <ele>276</ele>
        <time>2018-10-23T11:55:14Z</time>
      </trkpt>
      <trkpt lat="47.67738" lon="6.06235">
        <ele>276</ele>
        <time>2018-10-23T11:55:17Z</time>
      </trkpt>
      <trkpt lat="47.67735" lon="6.0624">
        <ele>276</ele>
        <time>2018-10-23T11:55:20Z</time>
      </trkpt>
      <trkpt lat="47.67731" lon="6.06245">
        <ele>276</ele>
        <time>2018-10-23T11:55:23Z</time>
      </trkpt>
      <trkpt lat="47.67727" lon="6.06252">
        <ele>277</ele>
        <time>2018-10-23T11:55:26Z</time>
      </trkpt>
      <trkpt lat="47.67724" lon="6.06259">
        <ele>277</ele>
        <time>2018-10-23T11:55:29Z</time>
      </trkpt>
      <trkpt lat="47.67722" lon="6.06266">
        <ele>277</ele>
        <time>2018-10-23T11:55:32Z</time>
      </trkpt>
      <trkpt lat="47.67719" lon="6.06273">
        <ele>276</ele>
        <time>2018-10-23T11:55:36Z</time>
      </trkpt>
      <trkpt lat="47.67715" lon="6.06281">
        <ele>276</ele>
        <time>2018-10-23T11:55:39Z</time>
      </trkpt>
      <trkpt lat="47.67713" lon="6.06286">
        <ele>276</ele>
        <time>2018-10-23T11:55:41Z</time>
      </trkpt>
      <trkpt lat="47.6771" lon="6.06296">
        <ele>276</ele>
        <time>2018-10-23T11:55:43Z</time>
      </trkpt>
      <trkpt lat="47.67707" lon="6.06305">
        <ele>276</ele>
        <time>2018-10-23T11:55:45Z</time>
      </trkpt>
      <trkpt lat="47.67704" lon="6.06311">
        <ele>276</ele>
        <time>2018-10-23T11:55:47Z</time>
      </trkpt>
      <trkpt lat="47.67697" lon="6.06319">
        <ele>276</ele>
        <time>2018-10-23T11:55:50Z</time>
      </trkpt>
      <trkpt lat="47.67691" lon="6.06326">
        <ele>276</ele>
        <time>2018-10-23T11:55:52Z</time>
      </trkpt>
      <trkpt lat="47.67685" lon="6.06333">
        <ele>275</ele>
        <time>2018-10-23T11:55:54Z</time>
      </trkpt>
      <trkpt lat="47.67681" lon="6.06339">
        <ele>275</ele>
        <time>2018-10-23T11:55:56Z</time>
      </trkpt>
      <trkpt lat="47.67676" lon="6.06345">
        <ele>275</ele>
        <time>2018-10-23T11:55:58Z</time>
      </trkpt>
      <trkpt lat="47.67672" lon="6.06354">
        <ele>275</ele>
        <time>2018-10-23T11:56:00Z</time>
      </trkpt>
      <trkpt lat="47.67668" lon="6.06366">
        <ele>276</ele>
        <time>2018-10-23T11:56:02Z</time>
      </trkpt>
      <trkpt lat="47.67665" lon="6.06375">
        <ele>273</ele>
        <time>2018-10-23T11:56:04Z</time>
      </trkpt>
      <trkpt lat="47.67661" lon="6.06383">
        <ele>273</ele>
        <time>2018-10-23T11:56:06Z</time>
      </trkpt>
      <trkpt lat="47.67658" lon="6.06388">
        <ele>273</ele>
        <time>2018-10-23T11:56:08Z</time>
      </trkpt>
      <trkpt lat="47.67655" lon="6.06395">
        <ele>273</ele>
        <time>2018-10-23T11:56:10Z</time>
      </trkpt>
      <trkpt lat="47.67652" lon="6.06403">
        <ele>273</ele>
        <time>2018-10-23T11:56:12Z</time>
      </trkpt>
      <trkpt lat="47.67649" lon="6.0641">
        <ele>273</ele>
        <time>2018-10-23T11:56:14Z</time>
      </trkpt>
      <trkpt lat="47.67645" lon="6.06416">
        <ele>273</ele>
        <time>2018-10-23T11:56:16Z</time>
      </trkpt>
      <trkpt lat="47.6764" lon="6.06422">
        <ele>273</ele>
        <time>2018-10-23T11:56:18Z</time>
      </trkpt>
      <trkpt lat="47.67635" lon="6.0643">
        <ele>273</ele>
        <time>2018-10-23T11:56:20Z</time>
      </trkpt>
      <trkpt lat="47.67632" lon="6.06435">
        <ele>272</ele>
        <time>2018-10-23T11:56:21Z</time>
      </trkpt>
      <trkpt lat="47.67629" lon="6.06441">
        <ele>272</ele>
        <time>2018-10-23T11:56:22Z</time>
      </trkpt>
      <trkpt lat="47.67626" lon="6.06446">
        <ele>272</ele>
        <time>2018-10-23T11:56:23Z</time>
      </trkpt>
      <trkpt lat="47.67623" lon="6.06455">
        <ele>272</ele>
        <time>2018-10-23T11:56:25Z</time>
      </trkpt>
      <trkpt lat="47.6762" lon="6.06461">
        <ele>272</ele>
        <time>2018-10-23T11:56:26Z</time>
      </trkpt>
      <trkpt lat="47.67616" lon="6.06472">
        <ele>272</ele>
        <time>2018-10-23T11:56:28Z</time>
      </trkpt>
      <trkpt lat="47.67612" lon="6.06483">
        <ele>272</ele>
        <time>2018-10-23T11:56:30Z</time>
      </trkpt>
      <trkpt lat="47.67609" lon="6.06491">
        <ele>272</ele>
        <time>2018-10-23T11:56:32Z</time>
      </trkpt>
      <trkpt lat="47.67606" lon="6.06499">
        <ele>272</ele>
        <time>2018-10-23T11:56:34Z</time>
      </trkpt>
      <trkpt lat="47.67604" lon="6.06507">
        <ele>272</ele>
        <time>2018-10-23T11:56:36Z</time>
      </trkpt>
      <trkpt lat="47.67603" lon="6.06516">
        <ele>272</ele>
        <time>2018-10-23T11:56:38Z</time>
      </trkpt>
      <trkpt lat="47.67601" lon="6.06524">
        <ele>273</ele>
        <time>2018-10-23T11:56:40Z</time>
      </trkpt>
      <trkpt lat="47.67599" lon="6.06531">
        <ele>273</ele>
        <time>2018-10-23T11:56:42Z</time>
      </trkpt>
      <trkpt lat="47.67598" lon="6.06537">
        <ele>273</ele>
        <time>2018-10-23T11:56:44Z</time>
      </trkpt>
      <trkpt lat="47.67594" lon="6.06546">
        <ele>273</ele>
        <time>2018-10-23T11:56:47Z</time>
      </trkpt>
      <trkpt lat="47.67591" lon="6.06554">
        <ele>273</ele>
        <time>2018-10-23T11:56:50Z</time>
      </trkpt>
      <trkpt lat="47.67589" lon="6.06562">
        <ele>273</ele>
        <time>2018-10-23T11:56:53Z</time>
      </trkpt>
      <trkpt lat="47.67587" lon="6.06569">
        <ele>273</ele>
        <time>2018-10-23T11:56:55Z</time>
      </trkpt>
      <trkpt lat="47.67585" lon="6.06581">
        <ele>273</ele>
        <time>2018-10-23T11:56:57Z</time>
      </trkpt>
      <trkpt lat="47.67584" lon="6.06592">
        <ele>274</ele>
        <time>2018-10-23T11:56:59Z</time>
      </trkpt>
      <trkpt lat="47.67581" lon="6.06602">
        <ele>274</ele>
        <time>2018-10-23T11:57:01Z</time>
      </trkpt>
      <trkpt lat="47.67579" lon="6.06609">
        <ele>274</ele>
        <time>2018-10-23T11:57:03Z</time>
      </trkpt>
      <trkpt lat="47.67577" lon="6.06615">
        <ele>275</ele>
        <time>2018-10-23T11:57:05Z</time>
      </trkpt>
      <trkpt lat="47.67574" lon="6.06623">
        <ele>275</ele>
        <time>2018-10-23T11:57:08Z</time>
      </trkpt>
      <trkpt lat="47.67571" lon="6.06631">
        <ele>275</ele>
        <time>2018-10-23T11:57:11Z</time>
      </trkpt>
      <trkpt lat="47.67569" lon="6.06637">
        <ele>275</ele>
        <time>2018-10-23T11:57:13Z</time>
      </trkpt>
      <trkpt lat="47.67567" lon="6.06645">
        <ele>275</ele>
        <time>2018-10-23T11:57:15Z</time>
      </trkpt>
      <trkpt lat="47.67566" lon="6.06654">
        <ele>275</ele>
        <time>2018-10-23T11:57:18Z</time>
      </trkpt>
      <trkpt lat="47.67564" lon="6.06663">
        <ele>275</ele>
        <time>2018-10-23T11:57:21Z</time>
      </trkpt>
      <trkpt lat="47.67563" lon="6.06671">
        <ele>276</ele>
        <time>2018-10-23T11:57:25Z</time>
      </trkpt>
      <trkpt lat="47.67562" lon="6.06678">
        <ele>276</ele>
        <time>2018-10-23T11:57:28Z</time>
      </trkpt>
      <trkpt lat="47.67562" lon="6.06685">
        <ele>277</ele>
        <time>2018-10-23T11:57:31Z</time>
      </trkpt>
      <trkpt lat="47.67562" lon="6.06692">
        <ele>277</ele>
        <time>2018-10-23T11:57:35Z</time>
      </trkpt>
      <trkpt lat="47.67562" lon="6.067">
        <ele>277</ele>
        <time>2018-10-23T11:57:39Z</time>
      </trkpt>
      <trkpt lat="47.67562" lon="6.06707">
        <ele>277</ele>
        <time>2018-10-23T11:57:42Z</time>
      </trkpt>
      <trkpt lat="47.67562" lon="6.06715">
        <ele>278</ele>
        <time>2018-10-23T11:57:46Z</time>
      </trkpt>
      <trkpt lat="47.6756" lon="6.06723">
        <ele>278</ele>
        <time>2018-10-23T11:57:50Z</time>
      </trkpt>
      <trkpt lat="47.6756" lon="6.0673">
        <ele>278</ele>
        <time>2018-10-23T11:57:55Z</time>
      </trkpt>
      <trkpt lat="47.67558" lon="6.06737">
        <ele>278</ele>
        <time>2018-10-23T11:57:59Z</time>
      </trkpt>
      <trkpt lat="47.67557" lon="6.06743">
        <ele>278</ele>
        <time>2018-10-23T11:58:03Z</time>
      </trkpt>
      <trkpt lat="47.67556" lon="6.06751">
        <ele>280</ele>
        <time>2018-10-23T11:58:07Z</time>
      </trkpt>
      <trkpt lat="47.67554" lon="6.06759">
        <ele>280</ele>
        <time>2018-10-23T11:58:11Z</time>
      </trkpt>
      <trkpt lat="47.67554" lon="6.06767">
        <ele>280</ele>
        <time>2018-10-23T11:58:15Z</time>
      </trkpt>
      <trkpt lat="47.67554" lon="6.06776">
        <ele>280</ele>
        <time>2018-10-23T11:58:19Z</time>
      </trkpt>
      <trkpt lat="47.67553" lon="6.06783">
        <ele>280</ele>
        <time>2018-10-23T11:58:23Z</time>
      </trkpt>
      <trkpt lat="47.67551" lon="6.0679">
        <ele>280</ele>
        <time>2018-10-23T11:58:26Z</time>
      </trkpt>
      <trkpt lat="47.6755" lon="6.06797">
        <ele>280</ele>
        <time>2018-10-23T11:58:30Z</time>
      </trkpt>
      <trkpt lat="47.67547" lon="6.06804">
        <ele>280</ele>
        <time>2018-10-23T11:58:34Z</time>
      </trkpt>
      <trkpt lat="47.67546" lon="6.06811">
        <ele>281</ele>
        <time>2018-10-23T11:58:38Z</time>
      </trkpt>
      <trkpt lat="47.67544" lon="6.06818">
        <ele>281</ele>
        <time>2018-10-23T11:58:41Z</time>
      </trkpt>
      <trkpt lat="47.67543" lon="6.06825">
        <ele>281</ele>
        <time>2018-10-23T11:58:44Z</time>
      </trkpt>
      <trkpt lat="47.67542" lon="6.06833">
        <ele>281</ele>
        <time>2018-10-23T11:58:47Z</time>
      </trkpt>
      <trkpt lat="47.6754" lon="6.06841">
        <ele>282</ele>
        <time>2018-10-23T11:58:50Z</time>
      </trkpt>
      <trkpt lat="47.67539" lon="6.06847">
        <ele>282</ele>
        <time>2018-10-23T11:58:53Z</time>
      </trkpt>
      <trkpt lat="47.67537" lon="6.06856">
        <ele>282</ele>
        <time>2018-10-23T11:58:57Z</time>
      </trkpt>
      <trkpt lat="47.67536" lon="6.06864">
        <ele>283</ele>
        <time>2018-10-23T11:59:00Z</time>
      </trkpt>
      <trkpt lat="47.67534" lon="6.06873">
        <ele>283</ele>
        <time>2018-10-23T11:59:03Z</time>
      </trkpt>
      <trkpt lat="47.67532" lon="6.06881">
        <ele>283</ele>
        <time>2018-10-23T11:59:06Z</time>
      </trkpt>
      <trkpt lat="47.6753" lon="6.06888">
        <ele>283</ele>
        <time>2018-10-23T11:59:09Z</time>
      </trkpt>
      <trkpt lat="47.67529" lon="6.06896">
        <ele>283</ele>
        <time>2018-10-23T11:59:12Z</time>
      </trkpt>
      <trkpt lat="47.67527" lon="6.06906">
        <ele>283</ele>
        <time>2018-10-23T11:59:15Z</time>
      </trkpt>
      <trkpt lat="47.67525" lon="6.06914">
        <ele>283</ele>
        <time>2018-10-23T11:59:17Z</time>
      </trkpt>
      <trkpt lat="47.67524" lon="6.06924">
        <ele>283</ele>
        <time>2018-10-23T11:59:19Z</time>
      </trkpt>
      <trkpt lat="47.67523" lon="6.06933">
        <ele>283</ele>
        <time>2018-10-23T11:59:21Z</time>
      </trkpt>
      <trkpt lat="47.67521" lon="6.06942">
        <ele>283</ele>
        <time>2018-10-23T11:59:23Z</time>
      </trkpt>
      <trkpt lat="47.67518" lon="6.06955">
        <ele>283</ele>
        <time>2018-10-23T11:59:25Z</time>
      </trkpt>
      <trkpt lat="47.67517" lon="6.06966">
        <ele>283</ele>
        <time>2018-10-23T11:59:27Z</time>
      </trkpt>
      <trkpt lat="47.67515" lon="6.06976">
        <ele>283</ele>
        <time>2018-10-23T11:59:29Z</time>
      </trkpt>
      <trkpt lat="47.67513" lon="6.06986">
        <ele>282</ele>
        <time>2018-10-23T11:59:31Z</time>
      </trkpt>
      <trkpt lat="47.67511" lon="6.06996">
        <ele>282</ele>
        <time>2018-10-23T11:59:33Z</time>
      </trkpt>
      <trkpt lat="47.67508" lon="6.07004">
        <ele>281</ele>
        <time>2018-10-23T11:59:35Z</time>
      </trkpt>
      <trkpt lat="47.67507" lon="6.07013">
        <ele>281</ele>
        <time>2018-10-23T11:59:37Z</time>
      </trkpt>
      <trkpt lat="47.67506" lon="6.0702">
        <ele>281</ele>
        <time>2018-10-23T11:59:38Z</time>
      </trkpt>
      <trkpt lat="47.67503" lon="6.07033">
        <ele>281</ele>
        <time>2018-10-23T11:59:40Z</time>
      </trkpt>
      <trkpt lat="47.67501" lon="6.0704">
        <ele>281</ele>
        <time>2018-10-23T11:59:41Z</time>
      </trkpt>
      <trkpt lat="47.67499" lon="6.07047">
        <ele>280</ele>
        <time>2018-10-23T11:59:42Z</time>
      </trkpt>
      <trkpt lat="47.67496" lon="6.07059">
        <ele>280</ele>
        <time>2018-10-23T11:59:44Z</time>
      </trkpt>
      <trkpt lat="47.67493" lon="6.07069">
        <ele>279</ele>
        <time>2018-10-23T11:59:46Z</time>
      </trkpt>
      <trkpt lat="47.67491" lon="6.07081">
        <ele>279</ele>
        <time>2018-10-23T11:59:48Z</time>
      </trkpt>
      <trkpt lat="47.67489" lon="6.07092">
        <ele>278</ele>
        <time>2018-10-23T11:59:50Z</time>
      </trkpt>
      <trkpt lat="47.67487" lon="6.07102">
        <ele>277</ele>
        <time>2018-10-23T11:59:52Z</time>
      </trkpt>
      <trkpt lat="47.67485" lon="6.07112">
        <ele>277</ele>
        <time>2018-10-23T11:59:54Z</time>
      </trkpt>
      <trkpt lat="47.67483" lon="6.07122">
        <ele>276</ele>
        <time>2018-10-23T11:59:56Z</time>
      </trkpt>
      <trkpt lat="47.6748" lon="6.07133">
        <ele>276</ele>
        <time>2018-10-23T11:59:58Z</time>
      </trkpt>
      <trkpt lat="47.67478" lon="6.07142">
        <ele>276</ele>
        <time>2018-10-23T12:00:00Z</time>
      </trkpt>
      <trkpt lat="47.67476" lon="6.07151">
        <ele>275</ele>
        <time>2018-10-23T12:00:02Z</time>
      </trkpt>
      <trkpt lat="47.67474" lon="6.07159">
        <ele>275</ele>
        <time>2018-10-23T12:00:04Z</time>
      </trkpt>
      <trkpt lat="47.67471" lon="6.07171">
        <ele>273</ele>
        <time>2018-10-23T12:00:06Z</time>
      </trkpt>
      <trkpt lat="47.67468" lon="6.07182">
        <ele>273</ele>
        <time>2018-10-23T12:00:08Z</time>
      </trkpt>
      <trkpt lat="47.67466" lon="6.07195">
        <ele>273</ele>
        <time>2018-10-23T12:00:10Z</time>
      </trkpt>
      <trkpt lat="47.67464" lon="6.07204">
        <ele>273</ele>
        <time>2018-10-23T12:00:12Z</time>
      </trkpt>
      <trkpt lat="47.67462" lon="6.07212">
        <ele>273</ele>
        <time>2018-10-23T12:00:15Z</time>
      </trkpt>
      <trkpt lat="47.67461" lon="6.07218">
        <ele>273</ele>
        <time>2018-10-23T12:00:22Z</time>
      </trkpt>
      <trkpt lat="47.67461" lon="6.07226">
        <ele>273</ele>
        <time>2018-10-23T12:01:36Z</time>
      </trkpt>
      <trkpt lat="47.67457" lon="6.07232">
        <ele>273</ele>
        <time>2018-10-23T12:01:40Z</time>
      </trkpt>
      <trkpt lat="47.67453" lon="6.07243">
        <ele>272</ele>
        <time>2018-10-23T12:01:43Z</time>
      </trkpt>
      <trkpt lat="47.67451" lon="6.07249">
        <ele>272</ele>
        <time>2018-10-23T12:01:44Z</time>
      </trkpt>
      <trkpt lat="47.67448" lon="6.07256">
        <ele>271</ele>
        <time>2018-10-23T12:01:45Z</time>
      </trkpt>
      <trkpt lat="47.67445" lon="6.07268">
        <ele>271</ele>
        <time>2018-10-23T12:01:47Z</time>
      </trkpt>
      <trkpt lat="47.67444" lon="6.07277">
        <ele>271</ele>
        <time>2018-10-23T12:01:48Z</time>
      </trkpt>
      <trkpt lat="47.67439" lon="6.07298">
        <ele>271</ele>
        <time>2018-10-23T12:01:49Z</time>
      </trkpt>
      <trkpt lat="47.67436" lon="6.07308">
        <ele>270</ele>
        <time>2018-10-23T12:01:50Z</time>
      </trkpt>
      <trkpt lat="47.67434" lon="6.07319">
        <ele>270</ele>
        <time>2018-10-23T12:01:51Z</time>
      </trkpt>
      <trkpt lat="47.6743" lon="6.07329">
        <ele>269</ele>
        <time>2018-10-23T12:01:52Z</time>
      </trkpt>
      <trkpt lat="47.67427" lon="6.07341">
        <ele>269</ele>
        <time>2018-10-23T12:01:53Z</time>
      </trkpt>
      <trkpt lat="47.67423" lon="6.07357">
        <ele>269</ele>
        <time>2018-10-23T12:01:54Z</time>
      </trkpt>
      <trkpt lat="47.67419" lon="6.07373">
        <ele>268</ele>
        <time>2018-10-23T12:01:55Z</time>
      </trkpt>
      <trkpt lat="47.67414" lon="6.07388">
        <ele>267</ele>
        <time>2018-10-23T12:01:56Z</time>
      </trkpt>
      <trkpt lat="47.6741" lon="6.074">
        <ele>266</ele>
        <time>2018-10-23T12:01:57Z</time>
      </trkpt>
      <trkpt lat="47.67406" lon="6.07412">
        <ele>265</ele>
        <time>2018-10-23T12:01:58Z</time>
      </trkpt>
      <trkpt lat="47.67401" lon="6.07423">
        <ele>265</ele>
        <time>2018-10-23T12:01:59Z</time>
      </trkpt>
      <trkpt lat="47.67396" lon="6.07433">
        <ele>265</ele>
        <time>2018-10-23T12:02:00Z</time>
      </trkpt>
      <trkpt lat="47.67392" lon="6.07443">
        <ele>265</ele>
        <time>2018-10-23T12:02:01Z</time>
      </trkpt>
      <trkpt lat="47.67388" lon="6.07452">
        <ele>265</ele>
        <time>2018-10-23T12:02:02Z</time>
      </trkpt>
      <trkpt lat="47.67384" lon="6.0746">
        <ele>265</ele>
        <time>2018-10-23T12:02:03Z</time>
      </trkpt>
      <trkpt lat="47.67381" lon="6.07469">
        <ele>265</ele>
        <time>2018-10-23T12:02:04Z</time>
      </trkpt>
      <trkpt lat="47.67377" lon="6.07478">
        <ele>265</ele>
        <time>2018-10-23T12:02:05Z</time>
      </trkpt>
      <trkpt lat="47.67373" lon="6.07486">
        <ele>265</ele>
        <time>2018-10-23T12:02:06Z</time>
      </trkpt>
      <trkpt lat="47.67369" lon="6.07495">
        <ele>265</ele>
        <time>2018-10-23T12:02:07Z</time>
      </trkpt>
      <trkpt lat="47.67366" lon="6.07503">
        <ele>266</ele>
        <time>2018-10-23T12:02:08Z</time>
      </trkpt>
      <trkpt lat="47.67362" lon="6.07511">
        <ele>265</ele>
        <time>2018-10-23T12:02:09Z</time>
      </trkpt>
      <trkpt lat="47.67358" lon="6.07518">
        <ele>265</ele>
        <time>2018-10-23T12:02:10Z</time>
      </trkpt>
      <trkpt lat="47.67354" lon="6.07526">
        <ele>265</ele>
        <time>2018-10-23T12:02:11Z</time>
      </trkpt>
      <trkpt lat="47.67349" lon="6.07534">
        <ele>265</ele>
        <time>2018-10-23T12:02:12Z</time>
      </trkpt>
      <trkpt lat="47.67345" lon="6.07543">
        <ele>265</ele>
        <time>2018-10-23T12:02:13Z</time>
      </trkpt>
      <trkpt lat="47.67341" lon="6.07552">
        <ele>265</ele>
        <time>2018-10-23T12:02:14Z</time>
      </trkpt>
      <trkpt lat="47.67337" lon="6.07559">
        <ele>264</ele>
        <time>2018-10-23T12:02:15Z</time>
      </trkpt>
      <trkpt lat="47.67333" lon="6.07566">
        <ele>264</ele>
        <time>2018-10-23T12:02:16Z</time>
      </trkpt>
      <trkpt lat="47.67329" lon="6.07574">
        <ele>263</ele>
        <time>2018-10-23T12:02:17Z</time>
      </trkpt>
      <trkpt lat="47.67325" lon="6.07581">
        <ele>263</ele>
        <time>2018-10-23T12:02:18Z</time>
      </trkpt>
      <trkpt lat="47.67321" lon="6.07589">
        <ele>262</ele>
        <time>2018-10-23T12:02:19Z</time>
      </trkpt>
      <trkpt lat="47.67317" lon="6.07597">
        <ele>262</ele>
        <time>2018-10-23T12:02:20Z</time>
      </trkpt>
      <trkpt lat="47.67314" lon="6.07605">
        <ele>262</ele>
        <time>2018-10-23T12:02:21Z</time>
      </trkpt>
      <trkpt lat="47.6731" lon="6.07613">
        <ele>261</ele>
        <time>2018-10-23T12:02:22Z</time>
      </trkpt>
      <trkpt lat="47.67306" lon="6.07622">
        <ele>261</ele>
        <time>2018-10-23T12:02:23Z</time>
      </trkpt>
      <trkpt lat="47.67304" lon="6.0763">
        <ele>261</ele>
        <time>2018-10-23T12:02:24Z</time>
      </trkpt>
      <trkpt lat="47.67301" lon="6.07637">
        <ele>261</ele>
        <time>2018-10-23T12:02:25Z</time>
      </trkpt>
      <trkpt lat="47.67297" lon="6.07646">
        <ele>261</ele>
        <time>2018-10-23T12:02:26Z</time>
      </trkpt>
      <trkpt lat="47.67294" lon="6.07653">
        <ele>261</ele>
        <time>2018-10-23T12:02:27Z</time>
      </trkpt>
      <trkpt lat="47.6729" lon="6.07662">
        <ele>260</ele>
        <time>2018-10-23T12:02:28Z</time>
      </trkpt>
      <trkpt lat="47.67287" lon="6.07669">
        <ele>257</ele>
        <time>2018-10-23T12:02:29Z</time>
      </trkpt>
      <trkpt lat="47.67283" lon="6.07677">
        <ele>257</ele>
        <time>2018-10-23T12:02:30Z</time>
      </trkpt>
      <trkpt lat="47.6728" lon="6.07683">
        <ele>256</ele>
        <time>2018-10-23T12:02:31Z</time>
      </trkpt>
      <trkpt lat="47.67277" lon="6.0769">
        <ele>256</ele>
        <time>2018-10-23T12:02:32Z</time>
      </trkpt>
      <trkpt lat="47.67274" lon="6.07697">
        <ele>256</ele>
        <time>2018-10-23T12:02:33Z</time>
      </trkpt>
      <trkpt lat="47.6727" lon="6.07704">
        <ele>255</ele>
        <time>2018-10-23T12:02:34Z</time>
      </trkpt>
      <trkpt lat="47.67267" lon="6.07711">
        <ele>255</ele>
        <time>2018-10-23T12:02:35Z</time>
      </trkpt>
      <trkpt lat="47.67264" lon="6.07718">
        <ele>254</ele>
        <time>2018-10-23T12:02:36Z</time>
      </trkpt>
      <trkpt lat="47.67261" lon="6.07724">
        <ele>254</ele>
        <time>2018-10-23T12:02:37Z</time>
      </trkpt>
      <trkpt lat="47.67259" lon="6.0773">
        <ele>253</ele>
        <time>2018-10-23T12:02:38Z</time>
      </trkpt>
      <trkpt lat="47.67256" lon="6.07736">
        <ele>252</ele>
        <time>2018-10-23T12:02:39Z</time>
      </trkpt>
      <trkpt lat="47.67251" lon="6.07747">
        <ele>250</ele>
        <time>2018-10-23T12:02:41Z</time>
      </trkpt>
      <trkpt lat="47.67249" lon="6.07753">
        <ele>248</ele>
        <time>2018-10-23T12:02:42Z</time>
      </trkpt>
      <trkpt lat="47.67246" lon="6.07759">
        <ele>247</ele>
        <time>2018-10-23T12:02:43Z</time>
      </trkpt>
      <trkpt lat="47.67241" lon="6.07768">
        <ele>245</ele>
        <time>2018-10-23T12:02:45Z</time>
      </trkpt>
      <trkpt lat="47.67235" lon="6.07777">
        <ele>244</ele>
        <time>2018-10-23T12:02:47Z</time>
      </trkpt>
      <trkpt lat="47.67231" lon="6.07782">
        <ele>243</ele>
        <time>2018-10-23T12:02:48Z</time>
      </trkpt>
      <trkpt lat="47.67227" lon="6.07785">
        <ele>243</ele>
        <time>2018-10-23T12:02:49Z</time>
      </trkpt>
      <trkpt lat="47.67222" lon="6.07787">
        <ele>243</ele>
        <time>2018-10-23T12:02:50Z</time>
      </trkpt>
      <trkpt lat="47.67218" lon="6.0779">
        <ele>242</ele>
        <time>2018-10-23T12:02:51Z</time>
      </trkpt>
      <trkpt lat="47.67213" lon="6.07792">
        <ele>242</ele>
        <time>2018-10-23T12:02:52Z</time>
      </trkpt>
      <trkpt lat="47.67209" lon="6.07794">
        <ele>242</ele>
        <time>2018-10-23T12:02:53Z</time>
      </trkpt>
      <trkpt lat="47.67204" lon="6.07796">
        <ele>242</ele>
        <time>2018-10-23T12:02:54Z</time>
      </trkpt>
      <trkpt lat="47.67199" lon="6.07798">
        <ele>241</ele>
        <time>2018-10-23T12:02:55Z</time>
      </trkpt>
      <trkpt lat="47.67195" lon="6.078">
        <ele>241</ele>
        <time>2018-10-23T12:02:56Z</time>
      </trkpt>
      <trkpt lat="47.67187" lon="6.07805">
        <ele>241</ele>
        <time>2018-10-23T12:02:58Z</time>
      </trkpt>
      <trkpt lat="47.67179" lon="6.07809">
        <ele>240</ele>
        <time>2018-10-23T12:03:00Z</time>
      </trkpt>
      <trkpt lat="47.67171" lon="6.07813">
        <ele>240</ele>
        <time>2018-10-23T12:03:02Z</time>
      </trkpt>
      <trkpt lat="47.67163" lon="6.07816">
        <ele>238</ele>
        <time>2018-10-23T12:03:04Z</time>
      </trkpt>
      <trkpt lat="47.67155" lon="6.07818">
        <ele>238</ele>
        <time>2018-10-23T12:03:06Z</time>
      </trkpt>
      <trkpt lat="47.6715" lon="6.07819">
        <ele>238</ele>
        <time>2018-10-23T12:03:07Z</time>
      </trkpt>
      <trkpt lat="47.67145" lon="6.07819">
        <ele>238</ele>
        <time>2018-10-23T12:03:08Z</time>
      </trkpt>
      <trkpt lat="47.6714" lon="6.0782">
        <ele>238</ele>
        <time>2018-10-23T12:03:09Z</time>
      </trkpt>
      <trkpt lat="47.67135" lon="6.07821">
        <ele>238</ele>
        <time>2018-10-23T12:03:10Z</time>
      </trkpt>
      <trkpt lat="47.6713" lon="6.07821">
        <ele>238</ele>
        <time>2018-10-23T12:03:11Z</time>
      </trkpt>
      <trkpt lat="47.67125" lon="6.07823">
        <ele>238</ele>
        <time>2018-10-23T12:03:12Z</time>
      </trkpt>
      <trkpt lat="47.6712" lon="6.07824">
        <ele>238</ele>
        <time>2018-10-23T12:03:13Z</time>
      </trkpt>
      <trkpt lat="47.67114" lon="6.07826">
        <ele>238</ele>
        <time>2018-10-23T12:03:14Z</time>
      </trkpt>
      <trkpt lat="47.67109" lon="6.07827">
        <ele>237</ele>
        <time>2018-10-23T12:03:15Z</time>
      </trkpt>
      <trkpt lat="47.67104" lon="6.0783">
        <ele>237</ele>
        <time>2018-10-23T12:03:16Z</time>
      </trkpt>
      <trkpt lat="47.67099" lon="6.07832">
        <ele>237</ele>
        <time>2018-10-23T12:03:17Z</time>
      </trkpt>
      <trkpt lat="47.67094" lon="6.07834">
        <ele>234</ele>
        <time>2018-10-23T12:03:18Z</time>
      </trkpt>
      <trkpt lat="47.67089" lon="6.07837">
        <ele>235</ele>
        <time>2018-10-23T12:03:19Z</time>
      </trkpt>
      <trkpt lat="47.67085" lon="6.07841">
        <ele>235</ele>
        <time>2018-10-23T12:03:20Z</time>
      </trkpt>
      <trkpt lat="47.67081" lon="6.07844">
        <ele>233</ele>
        <time>2018-10-23T12:03:21Z</time>
      </trkpt>
      <trkpt lat="47.67076" lon="6.07849">
        <ele>233</ele>
        <time>2018-10-23T12:03:22Z</time>
      </trkpt>
      <trkpt lat="47.67072" lon="6.07853">
        <ele>232</ele>
        <time>2018-10-23T12:03:23Z</time>
      </trkpt>
      <trkpt lat="47.67067" lon="6.07859">
        <ele>232</ele>
        <time>2018-10-23T12:03:24Z</time>
      </trkpt>
      <trkpt lat="47.67063" lon="6.07867">
        <ele>231</ele>
        <time>2018-10-23T12:03:25Z</time>
      </trkpt>
      <trkpt lat="47.67059" lon="6.07876">
        <ele>231</ele>
        <time>2018-10-23T12:03:26Z</time>
      </trkpt>
      <trkpt lat="47.67055" lon="6.07884">
        <ele>231</ele>
        <time>2018-10-23T12:03:27Z</time>
      </trkpt>
      <trkpt lat="47.6705" lon="6.07891">
        <ele>230</ele>
        <time>2018-10-23T12:03:28Z</time>
      </trkpt>
      <trkpt lat="47.67046" lon="6.07899">
        <ele>230</ele>
        <time>2018-10-23T12:03:29Z</time>
      </trkpt>
      <trkpt lat="47.67043" lon="6.07905">
        <ele>230</ele>
        <time>2018-10-23T12:03:30Z</time>
      </trkpt>
      <trkpt lat="47.6704" lon="6.07911">
        <ele>230</ele>
        <time>2018-10-23T12:03:31Z</time>
      </trkpt>
      <trkpt lat="47.67036" lon="6.07916">
        <ele>230</ele>
        <time>2018-10-23T12:03:32Z</time>
      </trkpt>
      <trkpt lat="47.67032" lon="6.0792">
        <ele>228</ele>
        <time>2018-10-23T12:03:33Z</time>
      </trkpt>
      <trkpt lat="47.67028" lon="6.07922">
        <ele>227</ele>
        <time>2018-10-23T12:03:34Z</time>
      </trkpt>
      <trkpt lat="47.67021" lon="6.07923">
        <ele>227</ele>
        <time>2018-10-23T12:03:35Z</time>
      </trkpt>
      <trkpt lat="47.67013" lon="6.07921">
        <ele>227</ele>
        <time>2018-10-23T12:03:36Z</time>
      </trkpt>
      <trkpt lat="47.67007" lon="6.07918">
        <ele>227</ele>
        <time>2018-10-23T12:03:37Z</time>
      </trkpt>
      <trkpt lat="47.67" lon="6.07915">
        <ele>227</ele>
        <time>2018-10-23T12:03:38Z</time>
      </trkpt>
      <trkpt lat="47.66994" lon="6.07912">
        <ele>227</ele>
        <time>2018-10-23T12:03:39Z</time>
      </trkpt>
      <trkpt lat="47.66989" lon="6.0791">
        <ele>228</ele>
        <time>2018-10-23T12:03:40Z</time>
      </trkpt>
      <trkpt lat="47.66984" lon="6.07909">
        <ele>228</ele>
        <time>2018-10-23T12:03:41Z</time>
      </trkpt>
      <trkpt lat="47.66978" lon="6.0791">
        <ele>228</ele>
        <time>2018-10-23T12:03:42Z</time>
      </trkpt>
      <trkpt lat="47.66971" lon="6.07914">
        <ele>228</ele>
        <time>2018-10-23T12:03:43Z</time>
      </trkpt>
      <trkpt lat="47.66966" lon="6.07921">
        <ele>227</ele>
        <time>2018-10-23T12:03:44Z</time>
      </trkpt>
      <trkpt lat="47.66962" lon="6.0793">
        <ele>227</ele>
        <time>2018-10-23T12:03:45Z</time>
      </trkpt>
      <trkpt lat="47.66958" lon="6.07938">
        <ele>227</ele>
        <time>2018-10-23T12:03:46Z</time>
      </trkpt>
      <trkpt lat="47.66954" lon="6.07946">
        <ele>227</ele>
        <time>2018-10-23T12:03:47Z</time>
      </trkpt>
      <trkpt lat="47.66951" lon="6.07954">
        <ele>227</ele>
        <time>2018-10-23T12:03:48Z</time>
      </trkpt>
      <trkpt lat="47.66948" lon="6.07962">
        <ele>227</ele>
        <time>2018-10-23T12:03:49Z</time>
      </trkpt>
      <trkpt lat="47.66945" lon="6.07969">
        <ele>227</ele>
        <time>2018-10-23T12:03:50Z</time>
      </trkpt>
      <trkpt lat="47.66941" lon="6.07976">
        <ele>227</ele>
        <time>2018-10-23T12:03:51Z</time>
      </trkpt>
      <trkpt lat="47.66938" lon="6.07981">
        <ele>227</ele>
        <time>2018-10-23T12:03:52Z</time>
      </trkpt>
      <trkpt lat="47.66935" lon="6.07986">
        <ele>227</ele>
        <time>2018-10-23T12:03:53Z</time>
      </trkpt>
      <trkpt lat="47.66929" lon="6.07995">
        <ele>227</ele>
        <time>2018-10-23T12:03:55Z</time>
      </trkpt>
      <trkpt lat="47.66923" lon="6.08004">
        <ele>227</ele>
        <time>2018-10-23T12:03:57Z</time>
      </trkpt>
      <trkpt lat="47.66919" lon="6.08013">
        <ele>227</ele>
        <time>2018-10-23T12:03:59Z</time>
      </trkpt>
      <trkpt lat="47.66919" lon="6.08026">
        <ele>227</ele>
        <time>2018-10-23T12:04:01Z</time>
      </trkpt>
      <trkpt lat="47.6692" lon="6.08033">
        <ele>228</ele>
        <time>2018-10-23T12:04:02Z</time>
      </trkpt>
      <trkpt lat="47.66922" lon="6.08039">
        <ele>228</ele>
        <time>2018-10-23T12:04:03Z</time>
      </trkpt>
      <trkpt lat="47.66926" lon="6.08048">
        <ele>228</ele>
        <time>2018-10-23T12:04:05Z</time>
      </trkpt>
      <trkpt lat="47.66924" lon="6.08055">
        <ele>228</ele>
        <time>2018-10-23T12:04:07Z</time>
      </trkpt>
      <trkpt lat="47.66921" lon="6.0806">
        <ele>228</ele>
        <time>2018-10-23T12:04:09Z</time>
      </trkpt>
      <trkpt lat="47.66917" lon="6.08065">
        <ele>228</ele>
        <time>2018-10-23T12:04:11Z</time>
      </trkpt>
      <trkpt lat="47.66914" lon="6.0807">
        <ele>229</ele>
        <time>2018-10-23T12:04:13Z</time>
      </trkpt>
      <trkpt lat="47.6691" lon="6.08077">
        <ele>229</ele>
        <time>2018-10-23T12:04:16Z</time>
      </trkpt>
      <trkpt lat="47.66906" lon="6.08084">
        <ele>230</ele>
        <time>2018-10-23T12:04:19Z</time>
      </trkpt>
      <trkpt lat="47.66903" lon="6.08091">
        <ele>231</ele>
        <time>2018-10-23T12:04:22Z</time>
      </trkpt>
      <trkpt lat="47.66899" lon="6.08097">
        <ele>231</ele>
        <time>2018-10-23T12:04:25Z</time>
      </trkpt>
      <trkpt lat="47.66895" lon="6.08103">
        <ele>231</ele>
        <time>2018-10-23T12:04:28Z</time>
      </trkpt>
      <trkpt lat="47.66892" lon="6.08109">
        <ele>232</ele>
        <time>2018-10-23T12:04:31Z</time>
      </trkpt>
      <trkpt lat="47.66888" lon="6.08116">
        <ele>232</ele>
        <time>2018-10-23T12:04:34Z</time>
      </trkpt>
      <trkpt lat="47.66886" lon="6.08124">
        <ele>232</ele>
        <time>2018-10-23T12:04:38Z</time>
      </trkpt>
      <trkpt lat="47.66885" lon="6.08131">
        <ele>232</ele>
        <time>2018-10-23T12:04:41Z</time>
      </trkpt>
      <trkpt lat="47.66885" lon="6.08139">
        <ele>233</ele>
        <time>2018-10-23T12:04:45Z</time>
      </trkpt>
      <trkpt lat="47.66887" lon="6.08147">
        <ele>233</ele>
        <time>2018-10-23T12:04:49Z</time>
      </trkpt>
      <trkpt lat="47.66889" lon="6.08156">
        <ele>233</ele>
        <time>2018-10-23T12:04:52Z</time>
      </trkpt>
      <trkpt lat="47.66891" lon="6.08164">
        <ele>233</ele>
        <time>2018-10-23T12:04:55Z</time>
      </trkpt>
      <trkpt lat="47.66894" lon="6.0817">
        <ele>235</ele>
        <time>2018-10-23T12:04:58Z</time>
      </trkpt>
      <trkpt lat="47.66896" lon="6.08178">
        <ele>235</ele>
        <time>2018-10-23T12:05:01Z</time>
      </trkpt>
      <trkpt lat="47.669" lon="6.08186">
        <ele>235</ele>
        <time>2018-10-23T12:05:04Z</time>
      </trkpt>
      <trkpt lat="47.66902" lon="6.08192">
        <ele>235</ele>
        <time>2018-10-23T12:05:06Z</time>
      </trkpt>
      <trkpt lat="47.66905" lon="6.08198">
        <ele>235</ele>
        <time>2018-10-23T12:05:08Z</time>
      </trkpt>
      <trkpt lat="47.66909" lon="6.08205">
        <ele>235</ele>
        <time>2018-10-23T12:05:11Z</time>
      </trkpt>
      <trkpt lat="47.66912" lon="6.08213">
        <ele>235</ele>
        <time>2018-10-23T12:05:14Z</time>
      </trkpt>
      <trkpt lat="47.66914" lon="6.08219">
        <ele>235</ele>
        <time>2018-10-23T12:05:16Z</time>
      </trkpt>
      <trkpt lat="47.66916" lon="6.08227">
        <ele>235</ele>
        <time>2018-10-23T12:05:18Z</time>
      </trkpt>
      <trkpt lat="47.66919" lon="6.08243">
        <ele>233</ele>
        <time>2018-10-23T12:05:20Z</time>
      </trkpt>
      <trkpt lat="47.66919" lon="6.08255">
        <ele>234</ele>
        <time>2018-10-23T12:05:22Z</time>
      </trkpt>
      <trkpt lat="47.66917" lon="6.08267">
        <ele>234</ele>
        <time>2018-10-23T12:05:24Z</time>
      </trkpt>
      <trkpt lat="47.66912" lon="6.08278">
        <ele>237</ele>
        <time>2018-10-23T12:05:26Z</time>
      </trkpt>
      <trkpt lat="47.6691" lon="6.08284">
        <ele>237</ele>
        <time>2018-10-23T12:05:27Z</time>
      </trkpt>
      <trkpt lat="47.66907" lon="6.0829">
        <ele>238</ele>
        <time>2018-10-23T12:05:28Z</time>
      </trkpt>
      <trkpt lat="47.66904" lon="6.08296">
        <ele>238</ele>
        <time>2018-10-23T12:05:29Z</time>
      </trkpt>
      <trkpt lat="47.669" lon="6.08303">
        <ele>238</ele>
        <time>2018-10-23T12:05:30Z</time>
      </trkpt>
      <trkpt lat="47.66897" lon="6.0831">
        <ele>238</ele>
        <time>2018-10-23T12:05:31Z</time>
      </trkpt>
      <trkpt lat="47.66894" lon="6.08316">
        <ele>238</ele>
        <time>2018-10-23T12:05:32Z</time>
      </trkpt>
      <trkpt lat="47.66891" lon="6.08321">
        <ele>238</ele>
        <time>2018-10-23T12:05:33Z</time>
      </trkpt>
      <trkpt lat="47.66888" lon="6.08327">
        <ele>238</ele>
        <time>2018-10-23T12:05:34Z</time>
      </trkpt>
      <trkpt lat="47.66885" lon="6.08333">
        <ele>239</ele>
        <time>2018-10-23T12:05:35Z</time>
      </trkpt>
      <trkpt lat="47.66882" lon="6.08339">
        <ele>239</ele>
        <time>2018-10-23T12:05:36Z</time>
      </trkpt>
      <trkpt lat="47.66879" lon="6.08346">
        <ele>239</ele>
        <time>2018-10-23T12:05:37Z</time>
      </trkpt>
      <trkpt lat="47.66874" lon="6.08357">
        <ele>239</ele>
        <time>2018-10-23T12:05:39Z</time>
      </trkpt>
      <trkpt lat="47.66871" lon="6.08364">
        <ele>239</ele>
        <time>2018-10-23T12:05:40Z</time>
      </trkpt>
      <trkpt lat="47.66863" lon="6.08372">
        <ele>239</ele>
        <time>2018-10-23T12:05:42Z</time>
      </trkpt>
      <trkpt lat="47.66859" lon="6.08375">
        <ele>239</ele>
        <time>2018-10-23T12:05:43Z</time>
      </trkpt>
      <trkpt lat="47.66853" lon="6.08378">
        <ele>239</ele>
        <time>2018-10-23T12:05:44Z</time>
      </trkpt>
      <trkpt lat="47.66848" lon="6.08379">
        <ele>239</ele>
        <time>2018-10-23T12:05:45Z</time>
      </trkpt>
      <trkpt lat="47.66842" lon="6.08381">
        <ele>239</ele>
        <time>2018-10-23T12:05:46Z</time>
      </trkpt>
      <trkpt lat="47.66834" lon="6.08382">
        <ele>239</ele>
        <time>2018-10-23T12:05:47Z</time>
      </trkpt>
      <trkpt lat="47.66827" lon="6.08384">
        <ele>242</ele>
        <time>2018-10-23T12:05:48Z</time>
      </trkpt>
      <trkpt lat="47.6682" lon="6.08384">
        <ele>243</ele>
        <time>2018-10-23T12:05:49Z</time>
      </trkpt>
      <trkpt lat="47.66813" lon="6.08384">
        <ele>243</ele>
        <time>2018-10-23T12:05:50Z</time>
      </trkpt>
      <trkpt lat="47.66807" lon="6.08384">
        <ele>243</ele>
        <time>2018-10-23T12:05:51Z</time>
      </trkpt>
      <trkpt lat="47.66801" lon="6.08383">
        <ele>244</ele>
        <time>2018-10-23T12:05:52Z</time>
      </trkpt>
      <trkpt lat="47.66794" lon="6.08382">
        <ele>244</ele>
        <time>2018-10-23T12:05:53Z</time>
      </trkpt>
      <trkpt lat="47.66788" lon="6.08382">
        <ele>244</ele>
        <time>2018-10-23T12:05:54Z</time>
      </trkpt>
      <trkpt lat="47.66782" lon="6.08382">
        <ele>245</ele>
        <time>2018-10-23T12:05:55Z</time>
      </trkpt>
      <trkpt lat="47.66777" lon="6.08383">
        <ele>245</ele>
        <time>2018-10-23T12:05:56Z</time>
      </trkpt>
      <trkpt lat="47.66772" lon="6.08384">
        <ele>245</ele>
        <time>2018-10-23T12:05:57Z</time>
      </trkpt>
      <trkpt lat="47.66767" lon="6.08386">
        <ele>245</ele>
        <time>2018-10-23T12:05:58Z</time>
      </trkpt>
      <trkpt lat="47.66762" lon="6.08389">
        <ele>245</ele>
        <time>2018-10-23T12:05:59Z</time>
      </trkpt>
      <trkpt lat="47.66756" lon="6.08396">
        <ele>245</ele>
        <time>2018-10-23T12:06:01Z</time>
      </trkpt>
      <trkpt lat="47.66751" lon="6.084">
        <ele>245</ele>
        <time>2018-10-23T12:06:03Z</time>
      </trkpt>
      <trkpt lat="47.66746" lon="6.08406">
        <ele>247</ele>
        <time>2018-10-23T12:06:05Z</time>
      </trkpt>
      <trkpt lat="47.66741" lon="6.08413">
        <ele>247</ele>
        <time>2018-10-23T12:06:07Z</time>
      </trkpt>
      <trkpt lat="47.66736" lon="6.08421">
        <ele>245</ele>
        <time>2018-10-23T12:06:09Z</time>
      </trkpt>
      <trkpt lat="47.6673" lon="6.08432">
        <ele>246</ele>
        <time>2018-10-23T12:06:11Z</time>
      </trkpt>
      <trkpt lat="47.66727" lon="6.08439">
        <ele>246</ele>
        <time>2018-10-23T12:06:12Z</time>
      </trkpt>
      <trkpt lat="47.66724" lon="6.08444">
        <ele>246</ele>
        <time>2018-10-23T12:06:13Z</time>
      </trkpt>
      <trkpt lat="47.66721" lon="6.0845">
        <ele>246</ele>
        <time>2018-10-23T12:06:14Z</time>
      </trkpt>
      <trkpt lat="47.66719" lon="6.08456">
        <ele>246</ele>
        <time>2018-10-23T12:06:15Z</time>
      </trkpt>
      <trkpt lat="47.66716" lon="6.08462">
        <ele>246</ele>
        <time>2018-10-23T12:06:16Z</time>
      </trkpt>
      <trkpt lat="47.66714" lon="6.08468">
        <ele>245</ele>
        <time>2018-10-23T12:06:17Z</time>
      </trkpt>
      <trkpt lat="47.66711" lon="6.08473">
        <ele>245</ele>
        <time>2018-10-23T12:06:18Z</time>
      </trkpt>
      <trkpt lat="47.66706" lon="6.08483">
        <ele>245</ele>
        <time>2018-10-23T12:06:20Z</time>
      </trkpt>
      <trkpt lat="47.66701" lon="6.08494">
        <ele>245</ele>
        <time>2018-10-23T12:06:22Z</time>
      </trkpt>
      <trkpt lat="47.66697" lon="6.08502">
        <ele>241</ele>
        <time>2018-10-23T12:06:24Z</time>
      </trkpt>
      <trkpt lat="47.66694" lon="6.08511">
        <ele>241</ele>
        <time>2018-10-23T12:06:26Z</time>
      </trkpt>
      <trkpt lat="47.66691" lon="6.08518">
        <ele>241</ele>
        <time>2018-10-23T12:06:28Z</time>
      </trkpt>
      <trkpt lat="47.66688" lon="6.08526">
        <ele>241</ele>
        <time>2018-10-23T12:06:30Z</time>
      </trkpt>
      <trkpt lat="47.66686" lon="6.08535">
        <ele>240</ele>
        <time>2018-10-23T12:06:32Z</time>
      </trkpt>
      <trkpt lat="47.66683" lon="6.08544">
        <ele>240</ele>
        <time>2018-10-23T12:06:34Z</time>
      </trkpt>
      <trkpt lat="47.66681" lon="6.08553">
        <ele>239</ele>
        <time>2018-10-23T12:06:36Z</time>
      </trkpt>
      <trkpt lat="47.6668" lon="6.08564">
        <ele>238</ele>
        <time>2018-10-23T12:06:38Z</time>
      </trkpt>
      <trkpt lat="47.66679" lon="6.08575">
        <ele>237</ele>
        <time>2018-10-23T12:06:40Z</time>
      </trkpt>
      <trkpt lat="47.66679" lon="6.08588">
        <ele>235</ele>
        <time>2018-10-23T12:06:42Z</time>
      </trkpt>
      <trkpt lat="47.66679" lon="6.08599">
        <ele>235</ele>
        <time>2018-10-23T12:06:44Z</time>
      </trkpt>
      <trkpt lat="47.66679" lon="6.08611">
        <ele>234</ele>
        <time>2018-10-23T12:06:46Z</time>
      </trkpt>
      <trkpt lat="47.66681" lon="6.08623">
        <ele>233</ele>
        <time>2018-10-23T12:06:47Z</time>
      </trkpt>
      <trkpt lat="47.66684" lon="6.08635">
        <ele>233</ele>
        <time>2018-10-23T12:06:49Z</time>
      </trkpt>
      <trkpt lat="47.66687" lon="6.08645">
        <ele>232</ele>
        <time>2018-10-23T12:06:51Z</time>
      </trkpt>
      <trkpt lat="47.66688" lon="6.08652">
        <ele>232</ele>
        <time>2018-10-23T12:06:52Z</time>
      </trkpt>
      <trkpt lat="47.66689" lon="6.08659">
        <ele>232</ele>
        <time>2018-10-23T12:06:53Z</time>
      </trkpt>
      <trkpt lat="47.6669" lon="6.08666">
        <ele>232</ele>
        <time>2018-10-23T12:06:54Z</time>
      </trkpt>
      <trkpt lat="47.66691" lon="6.08672">
        <ele>230</ele>
        <time>2018-10-23T12:06:55Z</time>
      </trkpt>
      <trkpt lat="47.66694" lon="6.08685">
        <ele>230</ele>
        <time>2018-10-23T12:06:57Z</time>
      </trkpt>
      <trkpt lat="47.66696" lon="6.08698">
        <ele>230</ele>
        <time>2018-10-23T12:06:59Z</time>
      </trkpt>
      <trkpt lat="47.66699" lon="6.0871">
        <ele>230</ele>
        <time>2018-10-23T12:07:01Z</time>
      </trkpt>
      <trkpt lat="47.66701" lon="6.08722">
        <ele>229</ele>
        <time>2018-10-23T12:07:03Z</time>
      </trkpt>
      <trkpt lat="47.66704" lon="6.08734">
        <ele>229</ele>
        <time>2018-10-23T12:07:05Z</time>
      </trkpt>
      <trkpt lat="47.66706" lon="6.08745">
        <ele>229</ele>
        <time>2018-10-23T12:07:07Z</time>
      </trkpt>
      <trkpt lat="47.66708" lon="6.08756">
        <ele>228</ele>
        <time>2018-10-23T12:07:09Z</time>
      </trkpt>
      <trkpt lat="47.6671" lon="6.08767">
        <ele>228</ele>
        <time>2018-10-23T12:07:11Z</time>
      </trkpt>
      <trkpt lat="47.66713" lon="6.08778">
        <ele>228</ele>
        <time>2018-10-23T12:07:13Z</time>
      </trkpt>
      <trkpt lat="47.66715" lon="6.08789">
        <ele>228</ele>
        <time>2018-10-23T12:07:15Z</time>
      </trkpt>
      <trkpt lat="47.66718" lon="6.08798">
        <ele>228</ele>
        <time>2018-10-23T12:07:17Z</time>
      </trkpt>
      <trkpt lat="47.66722" lon="6.08807">
        <ele>228</ele>
        <time>2018-10-23T12:07:19Z</time>
      </trkpt>
      <trkpt lat="47.66725" lon="6.08816">
        <ele>228</ele>
        <time>2018-10-23T12:07:21Z</time>
      </trkpt>
      <trkpt lat="47.66729" lon="6.08825">
        <ele>228</ele>
        <time>2018-10-23T12:07:23Z</time>
      </trkpt>
      <trkpt lat="47.66734" lon="6.08833">
        <ele>228</ele>
        <time>2018-10-23T12:07:25Z</time>
      </trkpt>
      <trkpt lat="47.66738" lon="6.08842">
        <ele>228</ele>
        <time>2018-10-23T12:07:27Z</time>
      </trkpt>
      <trkpt lat="47.66742" lon="6.0885">
        <ele>228</ele>
        <time>2018-10-23T12:07:29Z</time>
      </trkpt>
      <trkpt lat="47.66745" lon="6.08856">
        <ele>228</ele>
        <time>2018-10-23T12:07:31Z</time>
      </trkpt>
      <trkpt lat="47.66748" lon="6.08863">
        <ele>228</ele>
        <time>2018-10-23T12:07:33Z</time>
      </trkpt>
      <trkpt lat="47.6675" lon="6.08873">
        <ele>228</ele>
        <time>2018-10-23T12:07:35Z</time>
      </trkpt>
      <trkpt lat="47.66749" lon="6.08884">
        <ele>228</ele>
        <time>2018-10-23T12:07:37Z</time>
      </trkpt>
      <trkpt lat="47.66746" lon="6.08892">
        <ele>228</ele>
        <time>2018-10-23T12:07:39Z</time>
      </trkpt>
      <trkpt lat="47.66743" lon="6.08903">
        <ele>227</ele>
        <time>2018-10-23T12:07:41Z</time>
      </trkpt>
      <trkpt lat="47.66739" lon="6.08913">
        <ele>227</ele>
        <time>2018-10-23T12:07:43Z</time>
      </trkpt>
      <trkpt lat="47.66736" lon="6.08922">
        <ele>227</ele>
        <time>2018-10-23T12:07:45Z</time>
      </trkpt>
      <trkpt lat="47.66733" lon="6.08932">
        <ele>227</ele>
        <time>2018-10-23T12:07:47Z</time>
      </trkpt>
      <trkpt lat="47.66729" lon="6.08942">
        <ele>228</ele>
        <time>2018-10-23T12:07:49Z</time>
      </trkpt>
      <trkpt lat="47.66726" lon="6.08951">
        <ele>228</ele>
        <time>2018-10-23T12:07:51Z</time>
      </trkpt>
      <trkpt lat="47.66721" lon="6.08967">
        <ele>228</ele>
        <time>2018-10-23T12:07:53Z</time>
      </trkpt>
      <trkpt lat="47.66718" lon="6.08977">
        <ele>228</ele>
        <time>2018-10-23T12:07:55Z</time>
      </trkpt>
      <trkpt lat="47.66715" lon="6.08987">
        <ele>228</ele>
        <time>2018-10-23T12:07:57Z</time>
      </trkpt>
      <trkpt lat="47.66712" lon="6.08997">
        <ele>228</ele>
        <time>2018-10-23T12:07:59Z</time>
      </trkpt>
      <trkpt lat="47.66708" lon="6.09006">
        <ele>228</ele>
        <time>2018-10-23T12:08:01Z</time>
      </trkpt>
      <trkpt lat="47.66703" lon="6.09014">
        <ele>229</ele>
        <time>2018-10-23T12:08:03Z</time>
      </trkpt>
      <trkpt lat="47.66697" lon="6.09019">
        <ele>229</ele>
        <time>2018-10-23T12:08:05Z</time>
      </trkpt>
      <trkpt lat="47.66691" lon="6.09024">
        <ele>229</ele>
        <time>2018-10-23T12:08:07Z</time>
      </trkpt>
      <trkpt lat="47.66686" lon="6.09029">
        <ele>229</ele>
        <time>2018-10-23T12:08:09Z</time>
      </trkpt>
      <trkpt lat="47.6668" lon="6.09037">
        <ele>229</ele>
        <time>2018-10-23T12:08:11Z</time>
      </trkpt>
      <trkpt lat="47.66673" lon="6.09044">
        <ele>229</ele>
        <time>2018-10-23T12:08:13Z</time>
      </trkpt>
      <trkpt lat="47.66669" lon="6.09048">
        <ele>229</ele>
        <time>2018-10-23T12:08:14Z</time>
      </trkpt>
      <trkpt lat="47.66665" lon="6.09051">
        <ele>230</ele>
        <time>2018-10-23T12:08:15Z</time>
      </trkpt>
      <trkpt lat="47.66661" lon="6.09055">
        <ele>230</ele>
        <time>2018-10-23T12:08:16Z</time>
      </trkpt>
      <trkpt lat="47.66657" lon="6.09057">
        <ele>230</ele>
        <time>2018-10-23T12:08:17Z</time>
      </trkpt>
      <trkpt lat="47.66652" lon="6.09059">
        <ele>230</ele>
        <time>2018-10-23T12:08:18Z</time>
      </trkpt>
      <trkpt lat="47.66647" lon="6.0906">
        <ele>230</ele>
        <time>2018-10-23T12:08:19Z</time>
      </trkpt>
      <trkpt lat="47.66643" lon="6.0906">
        <ele>230</ele>
        <time>2018-10-23T12:08:20Z</time>
      </trkpt>
      <trkpt lat="47.66638" lon="6.09059">
        <ele>230</ele>
        <time>2018-10-23T12:08:21Z</time>
      </trkpt>
      <trkpt lat="47.66633" lon="6.09057">
        <ele>230</ele>
        <time>2018-10-23T12:08:22Z</time>
      </trkpt>
      <trkpt lat="47.66629" lon="6.09055">
        <ele>230</ele>
        <time>2018-10-23T12:08:23Z</time>
      </trkpt>
      <trkpt lat="47.66624" lon="6.09054">
        <ele>230</ele>
        <time>2018-10-23T12:08:24Z</time>
      </trkpt>
      <trkpt lat="47.66616" lon="6.09051">
        <ele>230</ele>
        <time>2018-10-23T12:08:26Z</time>
      </trkpt>
      <trkpt lat="47.66607" lon="6.09049">
        <ele>229</ele>
        <time>2018-10-23T12:08:28Z</time>
      </trkpt>
      <trkpt lat="47.66599" lon="6.09047">
        <ele>229</ele>
        <time>2018-10-23T12:08:30Z</time>
      </trkpt>
      <trkpt lat="47.66592" lon="6.09045">
        <ele>229</ele>
        <time>2018-10-23T12:08:32Z</time>
      </trkpt>
      <trkpt lat="47.66584" lon="6.09044">
        <ele>229</ele>
        <time>2018-10-23T12:08:34Z</time>
      </trkpt>
      <trkpt lat="47.66577" lon="6.09042">
        <ele>230</ele>
        <time>2018-10-23T12:08:36Z</time>
      </trkpt>
      <trkpt lat="47.66569" lon="6.0904">
        <ele>230</ele>
        <time>2018-10-23T12:08:38Z</time>
      </trkpt>
      <trkpt lat="47.66562" lon="6.09038">
        <ele>230</ele>
        <time>2018-10-23T12:08:40Z</time>
      </trkpt>
      <trkpt lat="47.66554" lon="6.09036">
        <ele>230</ele>
        <time>2018-10-23T12:08:42Z</time>
      </trkpt>
      <trkpt lat="47.66547" lon="6.09034">
        <ele>230</ele>
        <time>2018-10-23T12:08:44Z</time>
      </trkpt>
      <trkpt lat="47.66539" lon="6.09033">
        <ele>230</ele>
        <time>2018-10-23T12:08:46Z</time>
      </trkpt>
      <trkpt lat="47.66531" lon="6.09032">
        <ele>230</ele>
        <time>2018-10-23T12:08:48Z</time>
      </trkpt>
      <trkpt lat="47.66524" lon="6.09032">
        <ele>230</ele>
        <time>2018-10-23T12:08:50Z</time>
      </trkpt>
      <trkpt lat="47.66516" lon="6.09032">
        <ele>230</ele>
        <time>2018-10-23T12:08:52Z</time>
      </trkpt>
      <trkpt lat="47.66509" lon="6.09032">
        <ele>230</ele>
        <time>2018-10-23T12:08:54Z</time>
      </trkpt>
      <trkpt lat="47.66501" lon="6.09033">
        <ele>230</ele>
        <time>2018-10-23T12:08:56Z</time>
      </trkpt>
      <trkpt lat="47.66494" lon="6.09033">
        <ele>231</ele>
        <time>2018-10-23T12:08:58Z</time>
      </trkpt>
      <trkpt lat="47.66487" lon="6.09034">
        <ele>231</ele>
        <time>2018-10-23T12:09:00Z</time>
      </trkpt>
      <trkpt lat="47.6648" lon="6.09035">
        <ele>231</ele>
        <time>2018-10-23T12:09:02Z</time>
      </trkpt>
      <trkpt lat="47.66473" lon="6.09035">
        <ele>231</ele>
        <time>2018-10-23T12:09:04Z</time>
      </trkpt>
      <trkpt lat="47.66465" lon="6.09035">
        <ele>231</ele>
        <time>2018-10-23T12:09:06Z</time>
      </trkpt>
      <trkpt lat="47.66457" lon="6.09035">
        <ele>231</ele>
        <time>2018-10-23T12:09:08Z</time>
      </trkpt>
      <trkpt lat="47.66448" lon="6.09036">
        <ele>231</ele>
        <time>2018-10-23T12:09:10Z</time>
      </trkpt>
      <trkpt lat="47.66443" lon="6.09036">
        <ele>231</ele>
        <time>2018-10-23T12:09:11Z</time>
      </trkpt>
      <trkpt lat="47.66439" lon="6.09036">
        <ele>231</ele>
        <time>2018-10-23T12:09:12Z</time>
      </trkpt>
      <trkpt lat="47.66434" lon="6.09037">
        <ele>231</ele>
        <time>2018-10-23T12:09:13Z</time>
      </trkpt>
      <trkpt lat="47.6643" lon="6.09037">
        <ele>231</ele>
        <time>2018-10-23T12:09:14Z</time>
      </trkpt>
      <trkpt lat="47.66425" lon="6.09037">
        <ele>231</ele>
        <time>2018-10-23T12:09:15Z</time>
      </trkpt>
      <trkpt lat="47.66417" lon="6.09039">
        <ele>231</ele>
        <time>2018-10-23T12:09:17Z</time>
      </trkpt>
      <trkpt lat="47.66409" lon="6.09045">
        <ele>231</ele>
        <time>2018-10-23T12:09:19Z</time>
      </trkpt>
      <trkpt lat="47.66403" lon="6.09054">
        <ele>231</ele>
        <time>2018-10-23T12:09:21Z</time>
      </trkpt>
      <trkpt lat="47.66401" lon="6.09065">
        <ele>231</ele>
        <time>2018-10-23T12:09:23Z</time>
      </trkpt>
      <trkpt lat="47.664" lon="6.09076">
        <ele>231</ele>
        <time>2018-10-23T12:09:25Z</time>
      </trkpt>
      <trkpt lat="47.66399" lon="6.09086">
        <ele>231</ele>
        <time>2018-10-23T12:09:27Z</time>
      </trkpt>
      <trkpt lat="47.66399" lon="6.09094">
        <ele>231</ele>
        <time>2018-10-23T12:09:29Z</time>
      </trkpt>
      <trkpt lat="47.664" lon="6.09101">
        <ele>231</ele>
        <time>2018-10-23T12:09:31Z</time>
      </trkpt>
      <trkpt lat="47.664" lon="6.09109">
        <ele>231</ele>
        <time>2018-10-23T12:09:33Z</time>
      </trkpt>
      <trkpt lat="47.664" lon="6.09116">
        <ele>231</ele>
        <time>2018-10-23T12:09:35Z</time>
      </trkpt>
      <trkpt lat="47.664" lon="6.09123">
        <ele>231</ele>
        <time>2018-10-23T12:09:37Z</time>
      </trkpt>
      <trkpt lat="47.66401" lon="6.0913">
        <ele>232</ele>
        <time>2018-10-23T12:09:39Z</time>
      </trkpt>
      <trkpt lat="47.66401" lon="6.09137">
        <ele>232</ele>
        <time>2018-10-23T12:09:41Z</time>
      </trkpt>
      <trkpt lat="47.66401" lon="6.09147">
        <ele>232</ele>
        <time>2018-10-23T12:09:44Z</time>
      </trkpt>
      <trkpt lat="47.66402" lon="6.09154">
        <ele>232</ele>
        <time>2018-10-23T12:09:46Z</time>
      </trkpt>
      <trkpt lat="47.66402" lon="6.09161">
        <ele>232</ele>
        <time>2018-10-23T12:09:48Z</time>
      </trkpt>
      <trkpt lat="47.66402" lon="6.09169">
        <ele>233</ele>
        <time>2018-10-23T12:09:50Z</time>
      </trkpt>
      <trkpt lat="47.66402" lon="6.09176">
        <ele>233</ele>
        <time>2018-10-23T12:09:52Z</time>
      </trkpt>
      <trkpt lat="47.66402" lon="6.09183">
        <ele>233</ele>
        <time>2018-10-23T12:09:54Z</time>
      </trkpt>
      <trkpt lat="47.66402" lon="6.09192">
        <ele>233</ele>
        <time>2018-10-23T12:09:57Z</time>
      </trkpt>
      <trkpt lat="47.66403" lon="6.09202">
        <ele>233</ele>
        <time>2018-10-23T12:10:00Z</time>
      </trkpt>
      <trkpt lat="47.66404" lon="6.0921">
        <ele>234</ele>
        <time>2018-10-23T12:10:03Z</time>
      </trkpt>
      <trkpt lat="47.66404" lon="6.09219">
        <ele>234</ele>
        <time>2018-10-23T12:10:06Z</time>
      </trkpt>
      <trkpt lat="47.66404" lon="6.09226">
        <ele>234</ele>
        <time>2018-10-23T12:10:08Z</time>
      </trkpt>
      <trkpt lat="47.66405" lon="6.09234">
        <ele>234</ele>
        <time>2018-10-23T12:10:11Z</time>
      </trkpt>
      <trkpt lat="47.66406" lon="6.09244">
        <ele>235</ele>
        <time>2018-10-23T12:10:14Z</time>
      </trkpt>
      <trkpt lat="47.66407" lon="6.09254">
        <ele>236</ele>
        <time>2018-10-23T12:10:17Z</time>
      </trkpt>
      <trkpt lat="47.66408" lon="6.09261">
        <ele>236</ele>
        <time>2018-10-23T12:10:19Z</time>
      </trkpt>
      <trkpt lat="47.66409" lon="6.09268">
        <ele>236</ele>
        <time>2018-10-23T12:10:21Z</time>
      </trkpt>
      <trkpt lat="47.6641" lon="6.09277">
        <ele>236</ele>
        <time>2018-10-23T12:10:24Z</time>
      </trkpt>
      <trkpt lat="47.66412" lon="6.09286">
        <ele>236</ele>
        <time>2018-10-23T12:10:27Z</time>
      </trkpt>
      <trkpt lat="47.66414" lon="6.09296">
        <ele>236</ele>
        <time>2018-10-23T12:10:30Z</time>
      </trkpt>
      <trkpt lat="47.66416" lon="6.09304">
        <ele>237</ele>
        <time>2018-10-23T12:10:33Z</time>
      </trkpt>
      <trkpt lat="47.66418" lon="6.09312">
        <ele>238</ele>
        <time>2018-10-23T12:10:36Z</time>
      </trkpt>
      <trkpt lat="47.6642" lon="6.0932">
        <ele>238</ele>
        <time>2018-10-23T12:10:39Z</time>
      </trkpt>
      <trkpt lat="47.66422" lon="6.09329">
        <ele>238</ele>
        <time>2018-10-23T12:10:42Z</time>
      </trkpt>
      <trkpt lat="47.66424" lon="6.09336">
        <ele>239</ele>
        <time>2018-10-23T12:10:45Z</time>
      </trkpt>
      <trkpt lat="47.66426" lon="6.09344">
        <ele>239</ele>
        <time>2018-10-23T12:10:48Z</time>
      </trkpt>
      <trkpt lat="47.66427" lon="6.09351">
        <ele>239</ele>
        <time>2018-10-23T12:10:51Z</time>
      </trkpt>
      <trkpt lat="47.6643" lon="6.09359">
        <ele>240</ele>
        <time>2018-10-23T12:10:55Z</time>
      </trkpt>
      <trkpt lat="47.66431" lon="6.09367">
        <ele>240</ele>
        <time>2018-10-23T12:10:59Z</time>
      </trkpt>
      <trkpt lat="47.66433" lon="6.09375">
        <ele>240</ele>
        <time>2018-10-23T12:11:03Z</time>
      </trkpt>
      <trkpt lat="47.66435" lon="6.09382">
        <ele>241</ele>
        <time>2018-10-23T12:11:07Z</time>
      </trkpt>
      <trkpt lat="47.66438" lon="6.09388">
        <ele>241</ele>
        <time>2018-10-23T12:11:11Z</time>
      </trkpt>
      <trkpt lat="47.6644" lon="6.09395">
        <ele>241</ele>
        <time>2018-10-23T12:11:15Z</time>
      </trkpt>
      <trkpt lat="47.66441" lon="6.09402">
        <ele>241</ele>
        <time>2018-10-23T12:11:19Z</time>
      </trkpt>
      <trkpt lat="47.66443" lon="6.09408">
        <ele>241</ele>
        <time>2018-10-23T12:11:23Z</time>
      </trkpt>
      <trkpt lat="47.66445" lon="6.09416">
        <ele>241</ele>
        <time>2018-10-23T12:11:28Z</time>
      </trkpt>
      <trkpt lat="47.66447" lon="6.09424">
        <ele>242</ele>
        <time>2018-10-23T12:11:32Z</time>
      </trkpt>
      <trkpt lat="47.66448" lon="6.09432">
        <ele>242</ele>
        <time>2018-10-23T12:11:36Z</time>
      </trkpt>
      <trkpt lat="47.66449" lon="6.0944">
        <ele>242</ele>
        <time>2018-10-23T12:11:40Z</time>
      </trkpt>
      <trkpt lat="47.66448" lon="6.09447">
        <ele>242</ele>
        <time>2018-10-23T12:11:43Z</time>
      </trkpt>
      <trkpt lat="47.66447" lon="6.09455">
        <ele>242</ele>
        <time>2018-10-23T12:11:47Z</time>
      </trkpt>
      <trkpt lat="47.66448" lon="6.09463">
        <ele>242</ele>
        <time>2018-10-23T12:11:51Z</time>
      </trkpt>
      <trkpt lat="47.66448" lon="6.0947">
        <ele>242</ele>
        <time>2018-10-23T12:11:54Z</time>
      </trkpt>
      <trkpt lat="47.66448" lon="6.09479">
        <ele>242</ele>
        <time>2018-10-23T12:11:58Z</time>
      </trkpt>
      <trkpt lat="47.66448" lon="6.09487">
        <ele>243</ele>
        <time>2018-10-23T12:12:02Z</time>
      </trkpt>
      <trkpt lat="47.66448" lon="6.09495">
        <ele>243</ele>
        <time>2018-10-23T12:12:05Z</time>
      </trkpt>
      <trkpt lat="47.66448" lon="6.09505">
        <ele>243</ele>
        <time>2018-10-23T12:12:08Z</time>
      </trkpt>
      <trkpt lat="47.66448" lon="6.09513">
        <ele>243</ele>
        <time>2018-10-23T12:12:10Z</time>
      </trkpt>
      <trkpt lat="47.66448" lon="6.09521">
        <ele>242</ele>
        <time>2018-10-23T12:12:12Z</time>
      </trkpt>
      <trkpt lat="47.66448" lon="6.09529">
        <ele>242</ele>
        <time>2018-10-23T12:12:14Z</time>
      </trkpt>
      <trkpt lat="47.66447" lon="6.0954">
        <ele>242</ele>
        <time>2018-10-23T12:12:16Z</time>
      </trkpt>
      <trkpt lat="47.66446" lon="6.09551">
        <ele>242</ele>
        <time>2018-10-23T12:12:18Z</time>
      </trkpt>
      <trkpt lat="47.66445" lon="6.09562">
        <ele>242</ele>
        <time>2018-10-23T12:12:20Z</time>
      </trkpt>
      <trkpt lat="47.66443" lon="6.09577">
        <ele>242</ele>
        <time>2018-10-23T12:12:22Z</time>
      </trkpt>
      <trkpt lat="47.66441" lon="6.0959">
        <ele>241</ele>
        <time>2018-10-23T12:12:23Z</time>
      </trkpt>
      <trkpt lat="47.66439" lon="6.09597">
        <ele>241</ele>
        <time>2018-10-23T12:12:24Z</time>
      </trkpt>
      <trkpt lat="47.66437" lon="6.09607">
        <ele>241</ele>
        <time>2018-10-23T12:12:25Z</time>
      </trkpt>
      <trkpt lat="47.66435" lon="6.09616">
        <ele>241</ele>
        <time>2018-10-23T12:12:26Z</time>
      </trkpt>
      <trkpt lat="47.66432" lon="6.09627">
        <ele>240</ele>
        <time>2018-10-23T12:12:27Z</time>
      </trkpt>
      <trkpt lat="47.6643" lon="6.09637">
        <ele>240</ele>
        <time>2018-10-23T12:12:28Z</time>
      </trkpt>
      <trkpt lat="47.66427" lon="6.09648">
        <ele>240</ele>
        <time>2018-10-23T12:12:29Z</time>
      </trkpt>
      <trkpt lat="47.66424" lon="6.0966">
        <ele>239</ele>
        <time>2018-10-23T12:12:30Z</time>
      </trkpt>
      <trkpt lat="47.66421" lon="6.09671">
        <ele>238</ele>
        <time>2018-10-23T12:12:31Z</time>
      </trkpt>
      <trkpt lat="47.66418" lon="6.09682">
        <ele>237</ele>
        <time>2018-10-23T12:12:32Z</time>
      </trkpt>
      <trkpt lat="47.66416" lon="6.09693">
        <ele>236</ele>
        <time>2018-10-23T12:12:33Z</time>
      </trkpt>
      <trkpt lat="47.66413" lon="6.09704">
        <ele>236</ele>
        <time>2018-10-23T12:12:34Z</time>
      </trkpt>
      <trkpt lat="47.6641" lon="6.09715">
        <ele>236</ele>
        <time>2018-10-23T12:12:35Z</time>
      </trkpt>
      <trkpt lat="47.66408" lon="6.09726">
        <ele>235</ele>
        <time>2018-10-23T12:12:36Z</time>
      </trkpt>
      <trkpt lat="47.66407" lon="6.09738">
        <ele>234</ele>
        <time>2018-10-23T12:12:37Z</time>
      </trkpt>
      <trkpt lat="47.66406" lon="6.09749">
        <ele>234</ele>
        <time>2018-10-23T12:12:38Z</time>
      </trkpt>
      <trkpt lat="47.66407" lon="6.0976">
        <ele>234</ele>
        <time>2018-10-23T12:12:39Z</time>
      </trkpt>
      <trkpt lat="47.66408" lon="6.0977">
        <ele>234</ele>
        <time>2018-10-23T12:12:40Z</time>
      </trkpt>
      <trkpt lat="47.66409" lon="6.0978">
        <ele>235</ele>
        <time>2018-10-23T12:12:41Z</time>
      </trkpt>
      <trkpt lat="47.6641" lon="6.09789">
        <ele>235</ele>
        <time>2018-10-23T12:12:42Z</time>
      </trkpt>
      <trkpt lat="47.66412" lon="6.09798">
        <ele>235</ele>
        <time>2018-10-23T12:12:43Z</time>
      </trkpt>
      <trkpt lat="47.66413" lon="6.09806">
        <ele>235</ele>
        <time>2018-10-23T12:12:44Z</time>
      </trkpt>
      <trkpt lat="47.66416" lon="6.09814">
        <ele>235</ele>
        <time>2018-10-23T12:12:45Z</time>
      </trkpt>
      <trkpt lat="47.66418" lon="6.09821">
        <ele>235</ele>
        <time>2018-10-23T12:12:46Z</time>
      </trkpt>
      <trkpt lat="47.6642" lon="6.09828">
        <ele>235</ele>
        <time>2018-10-23T12:12:47Z</time>
      </trkpt>
      <trkpt lat="47.66423" lon="6.09833">
        <ele>235</ele>
        <time>2018-10-23T12:12:48Z</time>
      </trkpt>
      <trkpt lat="47.66428" lon="6.09843">
        <ele>236</ele>
        <time>2018-10-23T12:12:50Z</time>
      </trkpt>
      <trkpt lat="47.66431" lon="6.09851">
        <ele>236</ele>
        <time>2018-10-23T12:12:52Z</time>
      </trkpt>
      <trkpt lat="47.66433" lon="6.09857">
        <ele>236</ele>
        <time>2018-10-23T12:12:54Z</time>
      </trkpt>
      <trkpt lat="47.66436" lon="6.09864">
        <ele>237</ele>
        <time>2018-10-23T12:12:56Z</time>
      </trkpt>
      <trkpt lat="47.66438" lon="6.09871">
        <ele>237</ele>
        <time>2018-10-23T12:12:58Z</time>
      </trkpt>
      <trkpt lat="47.66439" lon="6.09877">
        <ele>237</ele>
        <time>2018-10-23T12:13:00Z</time>
      </trkpt>
      <trkpt lat="47.66439" lon="6.09885">
        <ele>237</ele>
        <time>2018-10-23T12:13:02Z</time>
      </trkpt>
      <trkpt lat="47.66439" lon="6.09893">
        <ele>237</ele>
        <time>2018-10-23T12:13:05Z</time>
      </trkpt>
      <trkpt lat="47.66439" lon="6.09902">
        <ele>237</ele>
        <time>2018-10-23T12:13:08Z</time>
      </trkpt>
      <trkpt lat="47.66439" lon="6.09911">
        <ele>238</ele>
        <time>2018-10-23T12:13:11Z</time>
      </trkpt>
      <trkpt lat="47.66439" lon="6.09921">
        <ele>239</ele>
        <time>2018-10-23T12:13:14Z</time>
      </trkpt>
      <trkpt lat="47.66439" lon="6.0993">
        <ele>239</ele>
        <time>2018-10-23T12:13:17Z</time>
      </trkpt>
      <trkpt lat="47.6644" lon="6.09939">
        <ele>240</ele>
        <time>2018-10-23T12:13:20Z</time>
      </trkpt>
      <trkpt lat="47.6644" lon="6.09948">
        <ele>240</ele>
        <time>2018-10-23T12:13:23Z</time>
      </trkpt>
      <trkpt lat="47.66441" lon="6.09957">
        <ele>240</ele>
        <time>2018-10-23T12:13:26Z</time>
      </trkpt>
      <trkpt lat="47.66441" lon="6.09966">
        <ele>240</ele>
        <time>2018-10-23T12:13:29Z</time>
      </trkpt>
      <trkpt lat="47.66442" lon="6.09974">
        <ele>240</ele>
        <time>2018-10-23T12:13:32Z</time>
      </trkpt>
      <trkpt lat="47.66442" lon="6.09984">
        <ele>241</ele>
        <time>2018-10-23T12:13:35Z</time>
      </trkpt>
      <trkpt lat="47.66442" lon="6.09994">
        <ele>241</ele>
        <time>2018-10-23T12:13:38Z</time>
      </trkpt>
      <trkpt lat="47.66441" lon="6.10002">
        <ele>242</ele>
        <time>2018-10-23T12:13:41Z</time>
      </trkpt>
      <trkpt lat="47.66441" lon="6.10011">
        <ele>242</ele>
        <time>2018-10-23T12:13:44Z</time>
      </trkpt>
      <trkpt lat="47.66441" lon="6.1002">
        <ele>242</ele>
        <time>2018-10-23T12:13:47Z</time>
      </trkpt>
      <trkpt lat="47.66441" lon="6.10028">
        <ele>242</ele>
        <time>2018-10-23T12:13:50Z</time>
      </trkpt>
      <trkpt lat="47.6644" lon="6.10038">
        <ele>242</ele>
        <time>2018-10-23T12:13:53Z</time>
      </trkpt>
      <trkpt lat="47.66439" lon="6.10046">
        <ele>242</ele>
        <time>2018-10-23T12:13:55Z</time>
      </trkpt>
      <trkpt lat="47.66438" lon="6.10052">
        <ele>242</ele>
        <time>2018-10-23T12:13:57Z</time>
      </trkpt>
      <trkpt lat="47.66436" lon="6.10062">
        <ele>242</ele>
        <time>2018-10-23T12:14:00Z</time>
      </trkpt>
      <trkpt lat="47.66434" lon="6.10072">
        <ele>242</ele>
        <time>2018-10-23T12:14:03Z</time>
      </trkpt>
      <trkpt lat="47.66433" lon="6.1008">
        <ele>242</ele>
        <time>2018-10-23T12:14:05Z</time>
      </trkpt>
      <trkpt lat="47.66432" lon="6.10087">
        <ele>242</ele>
        <time>2018-10-23T12:14:07Z</time>
      </trkpt>
      <trkpt lat="47.6643" lon="6.10094">
        <ele>242</ele>
        <time>2018-10-23T12:14:09Z</time>
      </trkpt>
      <trkpt lat="47.66429" lon="6.10102">
        <ele>242</ele>
        <time>2018-10-23T12:14:11Z</time>
      </trkpt>
      <trkpt lat="47.66427" lon="6.10111">
        <ele>242</ele>
        <time>2018-10-23T12:14:13Z</time>
      </trkpt>
      <trkpt lat="47.66425" lon="6.1012">
        <ele>243</ele>
        <time>2018-10-23T12:14:15Z</time>
      </trkpt>
      <trkpt lat="47.66422" lon="6.10128">
        <ele>243</ele>
        <time>2018-10-23T12:14:17Z</time>
      </trkpt>
      <trkpt lat="47.66419" lon="6.10136">
        <ele>243</ele>
        <time>2018-10-23T12:14:19Z</time>
      </trkpt>
      <trkpt lat="47.66416" lon="6.10145">
        <ele>243</ele>
        <time>2018-10-23T12:14:21Z</time>
      </trkpt>
      <trkpt lat="47.66413" lon="6.10154">
        <ele>243</ele>
        <time>2018-10-23T12:14:23Z</time>
      </trkpt>
      <trkpt lat="47.6641" lon="6.10161">
        <ele>243</ele>
        <time>2018-10-23T12:14:25Z</time>
      </trkpt>
      <trkpt lat="47.66407" lon="6.1017">
        <ele>244</ele>
        <time>2018-10-23T12:14:27Z</time>
      </trkpt>
      <trkpt lat="47.66405" lon="6.10177">
        <ele>244</ele>
        <time>2018-10-23T12:14:29Z</time>
      </trkpt>
      <trkpt lat="47.66403" lon="6.10184">
        <ele>244</ele>
        <time>2018-10-23T12:14:31Z</time>
      </trkpt>
      <trkpt lat="47.66402" lon="6.10195">
        <ele>245</ele>
        <time>2018-10-23T12:14:33Z</time>
      </trkpt>
      <trkpt lat="47.66401" lon="6.10203">
        <ele>245</ele>
        <time>2018-10-23T12:14:35Z</time>
      </trkpt>
      <trkpt lat="47.66399" lon="6.10213">
        <ele>245</ele>
        <time>2018-10-23T12:14:37Z</time>
      </trkpt>
      <trkpt lat="47.66398" lon="6.10221">
        <ele>246</ele>
        <time>2018-10-23T12:14:39Z</time>
      </trkpt>
      <trkpt lat="47.66396" lon="6.1023">
        <ele>246</ele>
        <time>2018-10-23T12:14:41Z</time>
      </trkpt>
      <trkpt lat="47.66393" lon="6.10238">
        <ele>246</ele>
        <time>2018-10-23T12:14:43Z</time>
      </trkpt>
      <trkpt lat="47.6639" lon="6.10245">
        <ele>246</ele>
        <time>2018-10-23T12:14:45Z</time>
      </trkpt>
      <trkpt lat="47.66385" lon="6.10249">
        <ele>246</ele>
        <time>2018-10-23T12:14:47Z</time>
      </trkpt>
      <trkpt lat="47.6638" lon="6.10253">
        <ele>249</ele>
        <time>2018-10-23T12:14:49Z</time>
      </trkpt>
      <trkpt lat="47.66374" lon="6.10255">
        <ele>249</ele>
        <time>2018-10-23T12:14:51Z</time>
      </trkpt>
      <trkpt lat="47.66369" lon="6.10258">
        <ele>249</ele>
        <time>2018-10-23T12:14:53Z</time>
      </trkpt>
      <trkpt lat="47.66363" lon="6.10261">
        <ele>248</ele>
        <time>2018-10-23T12:14:55Z</time>
      </trkpt>
      <trkpt lat="47.66357" lon="6.10264">
        <ele>248</ele>
        <time>2018-10-23T12:14:57Z</time>
      </trkpt>
      <trkpt lat="47.6635" lon="6.10267">
        <ele>248</ele>
        <time>2018-10-23T12:14:59Z</time>
      </trkpt>
      <trkpt lat="47.66344" lon="6.10271">
        <ele>248</ele>
        <time>2018-10-23T12:15:01Z</time>
      </trkpt>
      <trkpt lat="47.66339" lon="6.10274">
        <ele>248</ele>
        <time>2018-10-23T12:15:03Z</time>
      </trkpt>
      <trkpt lat="47.66333" lon="6.10277">
        <ele>247</ele>
        <time>2018-10-23T12:15:05Z</time>
      </trkpt>
      <trkpt lat="47.66327" lon="6.10281">
        <ele>247</ele>
        <time>2018-10-23T12:15:07Z</time>
      </trkpt>
      <trkpt lat="47.66321" lon="6.10285">
        <ele>247</ele>
        <time>2018-10-23T12:15:09Z</time>
      </trkpt>
      <trkpt lat="47.66316" lon="6.10288">
        <ele>247</ele>
        <time>2018-10-23T12:15:11Z</time>
      </trkpt>
      <trkpt lat="47.6631" lon="6.10292">
        <ele>248</ele>
        <time>2018-10-23T12:15:13Z</time>
      </trkpt>
      <trkpt lat="47.66303" lon="6.10297">
        <ele>248</ele>
        <time>2018-10-23T12:15:15Z</time>
      </trkpt>
      <trkpt lat="47.66299" lon="6.103">
        <ele>248</ele>
        <time>2018-10-23T12:15:16Z</time>
      </trkpt>
      <trkpt lat="47.66292" lon="6.10306">
        <ele>248</ele>
        <time>2018-10-23T12:15:18Z</time>
      </trkpt>
      <trkpt lat="47.66284" lon="6.10312">
        <ele>248</ele>
        <time>2018-10-23T12:15:20Z</time>
      </trkpt>
      <trkpt lat="47.66275" lon="6.10319">
        <ele>248</ele>
        <time>2018-10-23T12:15:22Z</time>
      </trkpt>
      <trkpt lat="47.66268" lon="6.10324">
        <ele>248</ele>
        <time>2018-10-23T12:15:24Z</time>
      </trkpt>
      <trkpt lat="47.66261" lon="6.1033">
        <ele>248</ele>
        <time>2018-10-23T12:15:26Z</time>
      </trkpt>
      <trkpt lat="47.66254" lon="6.10336">
        <ele>249</ele>
        <time>2018-10-23T12:15:28Z</time>
      </trkpt>
      <trkpt lat="47.66246" lon="6.10342">
        <ele>249</ele>
        <time>2018-10-23T12:15:30Z</time>
      </trkpt>
      <trkpt lat="47.66239" lon="6.10348">
        <ele>250</ele>
        <time>2018-10-23T12:15:32Z</time>
      </trkpt>
      <trkpt lat="47.66232" lon="6.10354">
        <ele>250</ele>
        <time>2018-10-23T12:15:34Z</time>
      </trkpt>
      <trkpt lat="47.66226" lon="6.10361">
        <ele>251</ele>
        <time>2018-10-23T12:15:36Z</time>
      </trkpt>
      <trkpt lat="47.66219" lon="6.10367">
        <ele>251</ele>
        <time>2018-10-23T12:15:38Z</time>
      </trkpt>
      <trkpt lat="47.66213" lon="6.10372">
        <ele>251</ele>
        <time>2018-10-23T12:15:40Z</time>
      </trkpt>
      <trkpt lat="47.66206" lon="6.10378">
        <ele>251</ele>
        <time>2018-10-23T12:15:42Z</time>
      </trkpt>
      <trkpt lat="47.66199" lon="6.10381">
        <ele>251</ele>
        <time>2018-10-23T12:15:44Z</time>
      </trkpt>
      <trkpt lat="47.66191" lon="6.10383">
        <ele>251</ele>
        <time>2018-10-23T12:15:46Z</time>
      </trkpt>
      <trkpt lat="47.66184" lon="6.10381">
        <ele>251</ele>
        <time>2018-10-23T12:15:48Z</time>
      </trkpt>
      <trkpt lat="47.66178" lon="6.10381">
        <ele>252</ele>
        <time>2018-10-23T12:15:50Z</time>
      </trkpt>
      <trkpt lat="47.66172" lon="6.10383">
        <ele>252</ele>
        <time>2018-10-23T12:15:53Z</time>
      </trkpt>
      <trkpt lat="47.66166" lon="6.10385">
        <ele>252</ele>
        <time>2018-10-23T12:15:56Z</time>
      </trkpt>
      <trkpt lat="47.66161" lon="6.10388">
        <ele>252</ele>
        <time>2018-10-23T12:15:59Z</time>
      </trkpt>
      <trkpt lat="47.66155" lon="6.10392">
        <ele>253</ele>
        <time>2018-10-23T12:16:02Z</time>
      </trkpt>
      <trkpt lat="47.66149" lon="6.10396">
        <ele>253</ele>
        <time>2018-10-23T12:16:05Z</time>
      </trkpt>
      <trkpt lat="47.66144" lon="6.10399">
        <ele>253</ele>
        <time>2018-10-23T12:16:08Z</time>
      </trkpt>
      <trkpt lat="47.6614" lon="6.10403">
        <ele>253</ele>
        <time>2018-10-23T12:16:10Z</time>
      </trkpt>
      <trkpt lat="47.66136" lon="6.10406">
        <ele>253</ele>
        <time>2018-10-23T12:16:12Z</time>
      </trkpt>
      <trkpt lat="47.66131" lon="6.1041">
        <ele>253</ele>
        <time>2018-10-23T12:16:14Z</time>
      </trkpt>
      <trkpt lat="47.66126" lon="6.10413">
        <ele>253</ele>
        <time>2018-10-23T12:16:16Z</time>
      </trkpt>
      <trkpt lat="47.66121" lon="6.10413">
        <ele>253</ele>
        <time>2018-10-23T12:16:18Z</time>
      </trkpt>
      <trkpt lat="47.66114" lon="6.1041">
        <ele>253</ele>
        <time>2018-10-23T12:16:20Z</time>
      </trkpt>
      <trkpt lat="47.66108" lon="6.10404">
        <ele>253</ele>
        <time>2018-10-23T12:16:22Z</time>
      </trkpt>
      <trkpt lat="47.66104" lon="6.10396">
        <ele>253</ele>
        <time>2018-10-23T12:16:24Z</time>
      </trkpt>
      <trkpt lat="47.66099" lon="6.10388">
        <ele>253</ele>
        <time>2018-10-23T12:16:26Z</time>
      </trkpt>
      <trkpt lat="47.66095" lon="6.10379">
        <ele>253</ele>
        <time>2018-10-23T12:16:28Z</time>
      </trkpt>
      <trkpt lat="47.6609" lon="6.10374">
        <ele>253</ele>
        <time>2018-10-23T12:16:30Z</time>
      </trkpt>
      <trkpt lat="47.66085" lon="6.10373">
        <ele>253</ele>
        <time>2018-10-23T12:16:32Z</time>
      </trkpt>
      <trkpt lat="47.6608" lon="6.10374">
        <ele>253</ele>
        <time>2018-10-23T12:16:34Z</time>
      </trkpt>
      <trkpt lat="47.66075" lon="6.10378">
        <ele>253</ele>
        <time>2018-10-23T12:16:37Z</time>
      </trkpt>
      <trkpt lat="47.66073" lon="6.10386">
        <ele>253</ele>
        <time>2018-10-23T12:16:40Z</time>
      </trkpt>
      <trkpt lat="47.66075" lon="6.10394">
        <ele>254</ele>
        <time>2018-10-23T12:16:43Z</time>
      </trkpt>
      <trkpt lat="47.66077" lon="6.104">
        <ele>254</ele>
        <time>2018-10-23T12:16:45Z</time>
      </trkpt>
      <trkpt lat="47.6608" lon="6.10407">
        <ele>254</ele>
        <time>2018-10-23T12:16:48Z</time>
      </trkpt>
      <trkpt lat="47.66085" lon="6.10414">
        <ele>255</ele>
        <time>2018-10-23T12:16:51Z</time>
      </trkpt>
      <trkpt lat="47.66088" lon="6.10419">
        <ele>255</ele>
        <time>2018-10-23T12:16:53Z</time>
      </trkpt>
      <trkpt lat="47.66091" lon="6.10425">
        <ele>255</ele>
        <time>2018-10-23T12:16:55Z</time>
      </trkpt>
      <trkpt lat="47.66094" lon="6.10432">
        <ele>254</ele>
        <time>2018-10-23T12:16:57Z</time>
      </trkpt>
      <trkpt lat="47.66097" lon="6.10438">
        <ele>254</ele>
        <time>2018-10-23T12:16:59Z</time>
      </trkpt>
      <trkpt lat="47.66099" lon="6.10445">
        <ele>254</ele>
        <time>2018-10-23T12:17:01Z</time>
      </trkpt>
      <trkpt lat="47.66101" lon="6.10451">
        <ele>254</ele>
        <time>2018-10-23T12:17:03Z</time>
      </trkpt>
      <trkpt lat="47.66103" lon="6.10459">
        <ele>254</ele>
        <time>2018-10-23T12:17:05Z</time>
      </trkpt>
      <trkpt lat="47.66104" lon="6.10468">
        <ele>254</ele>
        <time>2018-10-23T12:17:07Z</time>
      </trkpt>
      <trkpt lat="47.66104" lon="6.10479">
        <ele>254</ele>
        <time>2018-10-23T12:17:09Z</time>
      </trkpt>
      <trkpt lat="47.66102" lon="6.10491">
        <ele>254</ele>
        <time>2018-10-23T12:17:11Z</time>
      </trkpt>
      <trkpt lat="47.661" lon="6.10498">
        <ele>254</ele>
        <time>2018-10-23T12:17:12Z</time>
      </trkpt>
      <trkpt lat="47.66094" lon="6.10513">
        <ele>254</ele>
        <time>2018-10-23T12:17:13Z</time>
      </trkpt>
      <trkpt lat="47.66091" lon="6.1052">
        <ele>254</ele>
        <time>2018-10-23T12:17:14Z</time>
      </trkpt>
      <trkpt lat="47.66086" lon="6.10526">
        <ele>253</ele>
        <time>2018-10-23T12:17:15Z</time>
      </trkpt>
      <trkpt lat="47.66081" lon="6.10532">
        <ele>255</ele>
        <time>2018-10-23T12:17:16Z</time>
      </trkpt>
      <trkpt lat="47.66077" lon="6.10539">
        <ele>255</ele>
        <time>2018-10-23T12:17:17Z</time>
      </trkpt>
      <trkpt lat="47.66072" lon="6.10546">
        <ele>255</ele>
        <time>2018-10-23T12:17:18Z</time>
      </trkpt>
      <trkpt lat="47.66068" lon="6.10553">
        <ele>254</ele>
        <time>2018-10-23T12:17:19Z</time>
      </trkpt>
      <trkpt lat="47.66063" lon="6.10559">
        <ele>254</ele>
        <time>2018-10-23T12:17:20Z</time>
      </trkpt>
      <trkpt lat="47.66059" lon="6.10565">
        <ele>254</ele>
        <time>2018-10-23T12:17:21Z</time>
      </trkpt>
      <trkpt lat="47.66054" lon="6.10571">
        <ele>254</ele>
        <time>2018-10-23T12:17:22Z</time>
      </trkpt>
      <trkpt lat="47.6605" lon="6.10577">
        <ele>255</ele>
        <time>2018-10-23T12:17:23Z</time>
      </trkpt>
      <trkpt lat="47.66045" lon="6.10584">
        <ele>253</ele>
        <time>2018-10-23T12:17:24Z</time>
      </trkpt>
      <trkpt lat="47.66041" lon="6.1059">
        <ele>254</ele>
        <time>2018-10-23T12:17:25Z</time>
      </trkpt>
      <trkpt lat="47.66036" lon="6.10596">
        <ele>254</ele>
        <time>2018-10-23T12:17:26Z</time>
      </trkpt>
      <trkpt lat="47.66031" lon="6.10603">
        <ele>254</ele>
        <time>2018-10-23T12:17:27Z</time>
      </trkpt>
      <trkpt lat="47.66027" lon="6.10609">
        <ele>254</ele>
        <time>2018-10-23T12:17:28Z</time>
      </trkpt>
      <trkpt lat="47.66022" lon="6.10615">
        <ele>254</ele>
        <time>2018-10-23T12:17:29Z</time>
      </trkpt>
      <trkpt lat="47.66018" lon="6.10621">
        <ele>254</ele>
        <time>2018-10-23T12:17:30Z</time>
      </trkpt>
      <trkpt lat="47.66013" lon="6.10627">
        <ele>253</ele>
        <time>2018-10-23T12:17:31Z</time>
      </trkpt>
      <trkpt lat="47.66009" lon="6.10633">
        <ele>253</ele>
        <time>2018-10-23T12:17:32Z</time>
      </trkpt>
      <trkpt lat="47.66005" lon="6.10639">
        <ele>253</ele>
        <time>2018-10-23T12:17:33Z</time>
      </trkpt>
      <trkpt lat="47.66" lon="6.10645">
        <ele>252</ele>
        <time>2018-10-23T12:17:34Z</time>
      </trkpt>
      <trkpt lat="47.65996" lon="6.10651">
        <ele>252</ele>
        <time>2018-10-23T12:17:35Z</time>
      </trkpt>
      <trkpt lat="47.65992" lon="6.10657">
        <ele>251</ele>
        <time>2018-10-23T12:17:36Z</time>
      </trkpt>
      <trkpt lat="47.65988" lon="6.10662">
        <ele>251</ele>
        <time>2018-10-23T12:17:37Z</time>
      </trkpt>
      <trkpt lat="47.65984" lon="6.10668">
        <ele>249</ele>
        <time>2018-10-23T12:17:38Z</time>
      </trkpt>
      <trkpt lat="47.6598" lon="6.10674">
        <ele>249</ele>
        <time>2018-10-23T12:17:39Z</time>
      </trkpt>
      <trkpt lat="47.65975" lon="6.10681">
        <ele>249</ele>
        <time>2018-10-23T12:17:40Z</time>
      </trkpt>
      <trkpt lat="47.65971" lon="6.10687">
        <ele>248</ele>
        <time>2018-10-23T12:17:41Z</time>
      </trkpt>
      <trkpt lat="47.65967" lon="6.10693">
        <ele>248</ele>
        <time>2018-10-23T12:17:42Z</time>
      </trkpt>
      <trkpt lat="47.65962" lon="6.107">
        <ele>248</ele>
        <time>2018-10-23T12:17:43Z</time>
      </trkpt>
      <trkpt lat="47.65958" lon="6.10707">
        <ele>248</ele>
        <time>2018-10-23T12:17:44Z</time>
      </trkpt>
      <trkpt lat="47.65954" lon="6.10713">
        <ele>248</ele>
        <time>2018-10-23T12:17:45Z</time>
      </trkpt>
      <trkpt lat="47.65949" lon="6.10721">
        <ele>247</ele>
        <time>2018-10-23T12:17:46Z</time>
      </trkpt>
      <trkpt lat="47.65945" lon="6.10729">
        <ele>247</ele>
        <time>2018-10-23T12:17:47Z</time>
      </trkpt>
      <trkpt lat="47.6594" lon="6.10736">
        <ele>246</ele>
        <time>2018-10-23T12:17:48Z</time>
      </trkpt>
      <trkpt lat="47.65934" lon="6.10744">
        <ele>246</ele>
        <time>2018-10-23T12:17:49Z</time>
      </trkpt>
      <trkpt lat="47.65928" lon="6.10752">
        <ele>245</ele>
        <time>2018-10-23T12:17:50Z</time>
      </trkpt>
      <trkpt lat="47.65922" lon="6.10761">
        <ele>245</ele>
        <time>2018-10-23T12:17:51Z</time>
      </trkpt>
      <trkpt lat="47.65916" lon="6.10769">
        <ele>242</ele>
        <time>2018-10-23T12:17:52Z</time>
      </trkpt>
      <trkpt lat="47.6591" lon="6.10777">
        <ele>241</ele>
        <time>2018-10-23T12:17:53Z</time>
      </trkpt>
      <trkpt lat="47.65904" lon="6.10786">
        <ele>241</ele>
        <time>2018-10-23T12:17:54Z</time>
      </trkpt>
      <trkpt lat="47.65899" lon="6.10794">
        <ele>241</ele>
        <time>2018-10-23T12:17:55Z</time>
      </trkpt>
      <trkpt lat="47.65892" lon="6.10802">
        <ele>241</ele>
        <time>2018-10-23T12:17:56Z</time>
      </trkpt>
      <trkpt lat="47.65886" lon="6.1081">
        <ele>240</ele>
        <time>2018-10-23T12:17:57Z</time>
      </trkpt>
      <trkpt lat="47.6588" lon="6.10818">
        <ele>240</ele>
        <time>2018-10-23T12:17:58Z</time>
      </trkpt>
      <trkpt lat="47.65874" lon="6.10826">
        <ele>240</ele>
        <time>2018-10-23T12:17:59Z</time>
      </trkpt>
      <trkpt lat="47.65869" lon="6.10834">
        <ele>240</ele>
        <time>2018-10-23T12:18:00Z</time>
      </trkpt>
      <trkpt lat="47.65864" lon="6.10841">
        <ele>240</ele>
        <time>2018-10-23T12:18:01Z</time>
      </trkpt>
      <trkpt lat="47.65859" lon="6.10848">
        <ele>239</ele>
        <time>2018-10-23T12:18:02Z</time>
      </trkpt>
      <trkpt lat="47.65853" lon="6.10854">
        <ele>239</ele>
        <time>2018-10-23T12:18:03Z</time>
      </trkpt>
      <trkpt lat="47.65848" lon="6.10861">
        <ele>239</ele>
        <time>2018-10-23T12:18:04Z</time>
      </trkpt>
      <trkpt lat="47.65843" lon="6.10867">
        <ele>239</ele>
        <time>2018-10-23T12:18:05Z</time>
      </trkpt>
      <trkpt lat="47.65839" lon="6.10874">
        <ele>239</ele>
        <time>2018-10-23T12:18:06Z</time>
      </trkpt>
      <trkpt lat="47.65834" lon="6.10881">
        <ele>239</ele>
        <time>2018-10-23T12:18:07Z</time>
      </trkpt>
      <trkpt lat="47.65829" lon="6.10888">
        <ele>236</ele>
        <time>2018-10-23T12:18:08Z</time>
      </trkpt>
      <trkpt lat="47.65825" lon="6.10894">
        <ele>236</ele>
        <time>2018-10-23T12:18:09Z</time>
      </trkpt>
      <trkpt lat="47.6582" lon="6.109">
        <ele>236</ele>
        <time>2018-10-23T12:18:10Z</time>
      </trkpt>
      <trkpt lat="47.65816" lon="6.10906">
        <ele>236</ele>
        <time>2018-10-23T12:18:11Z</time>
      </trkpt>
      <trkpt lat="47.65811" lon="6.10913">
        <ele>236</ele>
        <time>2018-10-23T12:18:12Z</time>
      </trkpt>
      <trkpt lat="47.65807" lon="6.10918">
        <ele>237</ele>
        <time>2018-10-23T12:18:13Z</time>
      </trkpt>
      <trkpt lat="47.65803" lon="6.10924">
        <ele>237</ele>
        <time>2018-10-23T12:18:14Z</time>
      </trkpt>
      <trkpt lat="47.65799" lon="6.1093">
        <ele>237</ele>
        <time>2018-10-23T12:18:15Z</time>
      </trkpt>
      <trkpt lat="47.65795" lon="6.10935">
        <ele>237</ele>
        <time>2018-10-23T12:18:16Z</time>
      </trkpt>
      <trkpt lat="47.65791" lon="6.1094">
        <ele>237</ele>
        <time>2018-10-23T12:18:17Z</time>
      </trkpt>
      <trkpt lat="47.65787" lon="6.10945">
        <ele>237</ele>
        <time>2018-10-23T12:18:18Z</time>
      </trkpt>
      <trkpt lat="47.65784" lon="6.1095">
        <ele>237</ele>
        <time>2018-10-23T12:18:19Z</time>
      </trkpt>
      <trkpt lat="47.65781" lon="6.10955">
        <ele>237</ele>
        <time>2018-10-23T12:18:20Z</time>
      </trkpt>
      <trkpt lat="47.65774" lon="6.10964">
        <ele>237</ele>
        <time>2018-10-23T12:18:22Z</time>
      </trkpt>
      <trkpt lat="47.65771" lon="6.10968">
        <ele>237</ele>
        <time>2018-10-23T12:18:23Z</time>
      </trkpt>
      <trkpt lat="47.65765" lon="6.10977">
        <ele>237</ele>
        <time>2018-10-23T12:18:25Z</time>
      </trkpt>
      <trkpt lat="47.65759" lon="6.10986">
        <ele>236</ele>
        <time>2018-10-23T12:18:27Z</time>
      </trkpt>
      <trkpt lat="47.65753" lon="6.10993">
        <ele>236</ele>
        <time>2018-10-23T12:18:29Z</time>
      </trkpt>
      <trkpt lat="47.65747" lon="6.11">
        <ele>236</ele>
        <time>2018-10-23T12:18:31Z</time>
      </trkpt>
      <trkpt lat="47.65742" lon="6.11008">
        <ele>236</ele>
        <time>2018-10-23T12:18:33Z</time>
      </trkpt>
      <trkpt lat="47.65737" lon="6.11013">
        <ele>235</ele>
        <time>2018-10-23T12:18:35Z</time>
      </trkpt>
      <trkpt lat="47.65733" lon="6.1102">
        <ele>235</ele>
        <time>2018-10-23T12:18:37Z</time>
      </trkpt>
      <trkpt lat="47.65729" lon="6.11025">
        <ele>235</ele>
        <time>2018-10-23T12:18:39Z</time>
      </trkpt>
      <trkpt lat="47.65725" lon="6.1103">
        <ele>235</ele>
        <time>2018-10-23T12:18:41Z</time>
      </trkpt>
      <trkpt lat="47.65719" lon="6.11032">
        <ele>235</ele>
        <time>2018-10-23T12:18:44Z</time>
      </trkpt>
      <trkpt lat="47.65714" lon="6.1103">
        <ele>235</ele>
        <time>2018-10-23T12:18:47Z</time>
      </trkpt>
      <trkpt lat="47.65709" lon="6.11024">
        <ele>235</ele>
        <time>2018-10-23T12:18:50Z</time>
      </trkpt>
      <trkpt lat="47.65704" lon="6.11017">
        <ele>234</ele>
        <time>2018-10-23T12:18:52Z</time>
      </trkpt>
      <trkpt lat="47.65698" lon="6.11009">
        <ele>234</ele>
        <time>2018-10-23T12:18:54Z</time>
      </trkpt>
      <trkpt lat="47.65692" lon="6.11005">
        <ele>234</ele>
        <time>2018-10-23T12:18:55Z</time>
      </trkpt>
      <trkpt lat="47.65687" lon="6.11001">
        <ele>233</ele>
        <time>2018-10-23T12:18:56Z</time>
      </trkpt>
      <trkpt lat="47.65675" lon="6.10993">
        <ele>231</ele>
        <time>2018-10-23T12:18:57Z</time>
      </trkpt>
      <trkpt lat="47.65669" lon="6.10991">
        <ele>231</ele>
        <time>2018-10-23T12:18:58Z</time>
      </trkpt>
      <trkpt lat="47.65663" lon="6.1099">
        <ele>231</ele>
        <time>2018-10-23T12:18:59Z</time>
      </trkpt>
      <trkpt lat="47.65658" lon="6.10988">
        <ele>231</ele>
        <time>2018-10-23T12:19:00Z</time>
      </trkpt>
      <trkpt lat="47.65652" lon="6.10986">
        <ele>230</ele>
        <time>2018-10-23T12:19:01Z</time>
      </trkpt>
      <trkpt lat="47.65647" lon="6.10985">
        <ele>230</ele>
        <time>2018-10-23T12:19:02Z</time>
      </trkpt>
      <trkpt lat="47.65642" lon="6.10984">
        <ele>230</ele>
        <time>2018-10-23T12:19:03Z</time>
      </trkpt>
      <trkpt lat="47.65637" lon="6.10983">
        <ele>230</ele>
        <time>2018-10-23T12:19:04Z</time>
      </trkpt>
      <trkpt lat="47.65633" lon="6.10983">
        <ele>230</ele>
        <time>2018-10-23T12:19:05Z</time>
      </trkpt>
      <trkpt lat="47.65624" lon="6.10981">
        <ele>230</ele>
        <time>2018-10-23T12:19:07Z</time>
      </trkpt>
      <trkpt lat="47.65617" lon="6.10981">
        <ele>230</ele>
        <time>2018-10-23T12:19:09Z</time>
      </trkpt>
      <trkpt lat="47.65609" lon="6.1098">
        <ele>230</ele>
        <time>2018-10-23T12:19:11Z</time>
      </trkpt>
      <trkpt lat="47.65604" lon="6.10981">
        <ele>230</ele>
        <time>2018-10-23T12:19:13Z</time>
      </trkpt>
      <trkpt lat="47.65599" lon="6.10983">
        <ele>230</ele>
        <time>2018-10-23T12:19:15Z</time>
      </trkpt>
      <trkpt lat="47.65593" lon="6.10985">
        <ele>230</ele>
        <time>2018-10-23T12:19:17Z</time>
      </trkpt>
      <trkpt lat="47.65587" lon="6.10985">
        <ele>230</ele>
        <time>2018-10-23T12:19:20Z</time>
      </trkpt>
      <trkpt lat="47.65582" lon="6.10983">
        <ele>229</ele>
        <time>2018-10-23T12:19:23Z</time>
      </trkpt>
      <trkpt lat="47.65577" lon="6.1098">
        <ele>229</ele>
        <time>2018-10-23T12:19:26Z</time>
      </trkpt>
      <trkpt lat="47.65572" lon="6.10976">
        <ele>229</ele>
        <time>2018-10-23T12:19:29Z</time>
      </trkpt>
      <trkpt lat="47.65565" lon="6.10973">
        <ele>229</ele>
        <time>2018-10-23T12:19:32Z</time>
      </trkpt>
      <trkpt lat="47.65559" lon="6.10971">
        <ele>229</ele>
        <time>2018-10-23T12:19:35Z</time>
      </trkpt>
      <trkpt lat="47.65553" lon="6.1097">
        <ele>229</ele>
        <time>2018-10-23T12:19:37Z</time>
      </trkpt>
      <trkpt lat="47.65547" lon="6.10969">
        <ele>229</ele>
        <time>2018-10-23T12:19:39Z</time>
      </trkpt>
      <trkpt lat="47.65542" lon="6.10968">
        <ele>229</ele>
        <time>2018-10-23T12:19:41Z</time>
      </trkpt>
      <trkpt lat="47.65537" lon="6.10967">
        <ele>228</ele>
        <time>2018-10-23T12:19:43Z</time>
      </trkpt>
      <trkpt lat="47.65533" lon="6.10964">
        <ele>228</ele>
        <time>2018-10-23T12:19:45Z</time>
      </trkpt>
      <trkpt lat="47.65528" lon="6.10961">
        <ele>228</ele>
        <time>2018-10-23T12:19:48Z</time>
      </trkpt>
      <trkpt lat="47.65523" lon="6.10958">
        <ele>228</ele>
        <time>2018-10-23T12:20:53Z</time>
      </trkpt>
      <trkpt lat="47.65528" lon="6.10957">
        <ele>228</ele>
        <time>2018-10-23T12:21:33Z</time>
      </trkpt>
      <trkpt lat="47.65523" lon="6.1096">
        <ele>228</ele>
        <time>2018-10-23T12:22:44Z</time>
      </trkpt>
      <trkpt lat="47.65517" lon="6.10962">
        <ele>228</ele>
        <time>2018-10-23T12:22:47Z</time>
      </trkpt>
      <trkpt lat="47.65512" lon="6.10966">
        <ele>228</ele>
        <time>2018-10-23T12:22:50Z</time>
      </trkpt>
      <trkpt lat="47.65506" lon="6.10968">
        <ele>228</ele>
        <time>2018-10-23T12:22:53Z</time>
      </trkpt>
      <trkpt lat="47.65501" lon="6.10965">
        <ele>228</ele>
        <time>2018-10-23T12:22:56Z</time>
      </trkpt>
      <trkpt lat="47.65496" lon="6.10964">
        <ele>226</ele>
        <time>2018-10-23T12:22:59Z</time>
      </trkpt>
      <trkpt lat="47.65492" lon="6.10968">
        <ele>226</ele>
        <time>2018-10-23T12:23:02Z</time>
      </trkpt>
      <trkpt lat="47.65488" lon="6.10973">
        <ele>226</ele>
        <time>2018-10-23T12:23:05Z</time>
      </trkpt>
      <trkpt lat="47.65485" lon="6.10979">
        <ele>226</ele>
        <time>2018-10-23T12:23:09Z</time>
      </trkpt>
      <trkpt lat="47.65481" lon="6.10984">
        <ele>226</ele>
        <time>2018-10-23T12:23:12Z</time>
      </trkpt>
      <trkpt lat="47.65477" lon="6.10993">
        <ele>226</ele>
        <time>2018-10-23T12:23:15Z</time>
      </trkpt>
      <trkpt lat="47.65475" lon="6.11002">
        <ele>228</ele>
        <time>2018-10-23T12:23:18Z</time>
      </trkpt>
      <trkpt lat="47.65474" lon="6.11009">
        <ele>228</ele>
        <time>2018-10-23T12:23:20Z</time>
      </trkpt>
      <trkpt lat="47.65473" lon="6.11015">
        <ele>228</ele>
        <time>2018-10-23T12:23:22Z</time>
      </trkpt>
      <trkpt lat="47.65471" lon="6.11024">
        <ele>228</ele>
        <time>2018-10-23T12:23:25Z</time>
      </trkpt>
      <trkpt lat="47.65468" lon="6.11032">
        <ele>228</ele>
        <time>2018-10-23T12:23:28Z</time>
      </trkpt>
      <trkpt lat="47.65465" lon="6.11037">
        <ele>228</ele>
        <time>2018-10-23T12:23:30Z</time>
      </trkpt>
      <trkpt lat="47.65463" lon="6.11042">
        <ele>228</ele>
        <time>2018-10-23T12:23:32Z</time>
      </trkpt>
      <trkpt lat="47.65459" lon="6.11048">
        <ele>228</ele>
        <time>2018-10-23T12:23:34Z</time>
      </trkpt>
      <trkpt lat="47.65455" lon="6.11054">
        <ele>228</ele>
        <time>2018-10-23T12:23:37Z</time>
      </trkpt>
      <trkpt lat="47.6545" lon="6.11061">
        <ele>228</ele>
        <time>2018-10-23T12:23:40Z</time>
      </trkpt>
      <trkpt lat="47.65446" lon="6.11065">
        <ele>228</ele>
        <time>2018-10-23T12:23:42Z</time>
      </trkpt>
      <trkpt lat="47.65442" lon="6.11069">
        <ele>228</ele>
        <time>2018-10-23T12:23:44Z</time>
      </trkpt>
      <trkpt lat="47.65437" lon="6.11072">
        <ele>228</ele>
        <time>2018-10-23T12:23:46Z</time>
      </trkpt>
      <trkpt lat="47.65433" lon="6.11075">
        <ele>228</ele>
        <time>2018-10-23T12:23:48Z</time>
      </trkpt>
      <trkpt lat="47.65429" lon="6.11078">
        <ele>229</ele>
        <time>2018-10-23T12:23:50Z</time>
      </trkpt>
      <trkpt lat="47.65425" lon="6.11081">
        <ele>229</ele>
        <time>2018-10-23T12:23:52Z</time>
      </trkpt>
      <trkpt lat="47.65419" lon="6.11086">
        <ele>229</ele>
        <time>2018-10-23T12:23:55Z</time>
      </trkpt>
      <trkpt lat="47.65415" lon="6.11089">
        <ele>229</ele>
        <time>2018-10-23T12:23:57Z</time>
      </trkpt>
      <trkpt lat="47.65411" lon="6.11093">
        <ele>229</ele>
        <time>2018-10-23T12:23:59Z</time>
      </trkpt>
      <trkpt lat="47.65407" lon="6.11097">
        <ele>230</ele>
        <time>2018-10-23T12:24:01Z</time>
      </trkpt>
      <trkpt lat="47.65403" lon="6.11101">
        <ele>230</ele>
        <time>2018-10-23T12:24:03Z</time>
      </trkpt>
      <trkpt lat="47.65398" lon="6.11105">
        <ele>230</ele>
        <time>2018-10-23T12:24:05Z</time>
      </trkpt>
      <trkpt lat="47.65395" lon="6.1111">
        <ele>230</ele>
        <time>2018-10-23T12:24:07Z</time>
      </trkpt>
      <trkpt lat="47.65391" lon="6.11115">
        <ele>230</ele>
        <time>2018-10-23T12:24:09Z</time>
      </trkpt>
      <trkpt lat="47.65387" lon="6.1112">
        <ele>230</ele>
        <time>2018-10-23T12:24:11Z</time>
      </trkpt>
      <trkpt lat="47.65383" lon="6.11125">
        <ele>230</ele>
        <time>2018-10-23T12:24:13Z</time>
      </trkpt>
      <trkpt lat="47.65379" lon="6.1113">
        <ele>230</ele>
        <time>2018-10-23T12:24:15Z</time>
      </trkpt>
      <trkpt lat="47.65375" lon="6.11135">
        <ele>230</ele>
        <time>2018-10-23T12:24:17Z</time>
      </trkpt>
      <trkpt lat="47.65371" lon="6.11142">
        <ele>230</ele>
        <time>2018-10-23T12:24:19Z</time>
      </trkpt>
      <trkpt lat="47.65366" lon="6.11149">
        <ele>230</ele>
        <time>2018-10-23T12:24:21Z</time>
      </trkpt>
      <trkpt lat="47.6536" lon="6.11156">
        <ele>230</ele>
        <time>2018-10-23T12:24:23Z</time>
      </trkpt>
      <trkpt lat="47.65355" lon="6.11163">
        <ele>230</ele>
        <time>2018-10-23T12:24:25Z</time>
      </trkpt>
      <trkpt lat="47.6535" lon="6.11169">
        <ele>231</ele>
        <time>2018-10-23T12:24:27Z</time>
      </trkpt>
      <trkpt lat="47.65345" lon="6.11176">
        <ele>231</ele>
        <time>2018-10-23T12:24:29Z</time>
      </trkpt>
      <trkpt lat="47.65341" lon="6.11183">
        <ele>231</ele>
        <time>2018-10-23T12:24:31Z</time>
      </trkpt>
      <trkpt lat="47.65336" lon="6.11191">
        <ele>232</ele>
        <time>2018-10-23T12:24:33Z</time>
      </trkpt>
      <trkpt lat="47.65333" lon="6.11199">
        <ele>230</ele>
        <time>2018-10-23T12:24:35Z</time>
      </trkpt>
      <trkpt lat="47.65329" lon="6.11207">
        <ele>230</ele>
        <time>2018-10-23T12:24:37Z</time>
      </trkpt>
      <trkpt lat="47.65325" lon="6.11216">
        <ele>230</ele>
        <time>2018-10-23T12:24:39Z</time>
      </trkpt>
      <trkpt lat="47.65322" lon="6.11222">
        <ele>230</ele>
        <time>2018-10-23T12:24:40Z</time>
      </trkpt>
      <trkpt lat="47.65317" lon="6.11232">
        <ele>230</ele>
        <time>2018-10-23T12:24:42Z</time>
      </trkpt>
      <trkpt lat="47.65313" lon="6.11242">
        <ele>230</ele>
        <time>2018-10-23T12:24:44Z</time>
      </trkpt>
      <trkpt lat="47.65309" lon="6.11253">
        <ele>230</ele>
        <time>2018-10-23T12:24:45Z</time>
      </trkpt>
      <trkpt lat="47.65304" lon="6.11264">
        <ele>230</ele>
        <time>2018-10-23T12:24:47Z</time>
      </trkpt>
      <trkpt lat="47.65302" lon="6.11271">
        <ele>230</ele>
        <time>2018-10-23T12:24:48Z</time>
      </trkpt>
      <trkpt lat="47.653" lon="6.11277">
        <ele>229</ele>
        <time>2018-10-23T12:24:49Z</time>
      </trkpt>
      <trkpt lat="47.65297" lon="6.11284">
        <ele>229</ele>
        <time>2018-10-23T12:24:50Z</time>
      </trkpt>
      <trkpt lat="47.65294" lon="6.11292">
        <ele>229</ele>
        <time>2018-10-23T12:24:51Z</time>
      </trkpt>
      <trkpt lat="47.65292" lon="6.11299">
        <ele>229</ele>
        <time>2018-10-23T12:24:52Z</time>
      </trkpt>
      <trkpt lat="47.65289" lon="6.11308">
        <ele>229</ele>
        <time>2018-10-23T12:24:53Z</time>
      </trkpt>
      <trkpt lat="47.65287" lon="6.11316">
        <ele>229</ele>
        <time>2018-10-23T12:24:54Z</time>
      </trkpt>
      <trkpt lat="47.65285" lon="6.11325">
        <ele>229</ele>
        <time>2018-10-23T12:24:55Z</time>
      </trkpt>
      <trkpt lat="47.65282" lon="6.11334">
        <ele>228</ele>
        <time>2018-10-23T12:24:56Z</time>
      </trkpt>
      <trkpt lat="47.65279" lon="6.11343">
        <ele>228</ele>
        <time>2018-10-23T12:24:57Z</time>
      </trkpt>
      <trkpt lat="47.65277" lon="6.11352">
        <ele>228</ele>
        <time>2018-10-23T12:24:58Z</time>
      </trkpt>
      <trkpt lat="47.65274" lon="6.11361">
        <ele>228</ele>
        <time>2018-10-23T12:24:59Z</time>
      </trkpt>
      <trkpt lat="47.65272" lon="6.1137">
        <ele>228</ele>
        <time>2018-10-23T12:25:00Z</time>
      </trkpt>
      <trkpt lat="47.65269" lon="6.11378">
        <ele>228</ele>
        <time>2018-10-23T12:25:01Z</time>
      </trkpt>
      <trkpt lat="47.65267" lon="6.11387">
        <ele>228</ele>
        <time>2018-10-23T12:25:02Z</time>
      </trkpt>
      <trkpt lat="47.65265" lon="6.11394">
        <ele>227</ele>
        <time>2018-10-23T12:25:03Z</time>
      </trkpt>
      <trkpt lat="47.65262" lon="6.11402">
        <ele>227</ele>
        <time>2018-10-23T12:25:04Z</time>
      </trkpt>
      <trkpt lat="47.6526" lon="6.11409">
        <ele>226</ele>
        <time>2018-10-23T12:25:05Z</time>
      </trkpt>
      <trkpt lat="47.65257" lon="6.11416">
        <ele>226</ele>
        <time>2018-10-23T12:25:06Z</time>
      </trkpt>
      <trkpt lat="47.65254" lon="6.11423">
        <ele>226</ele>
        <time>2018-10-23T12:25:07Z</time>
      </trkpt>
      <trkpt lat="47.65251" lon="6.11429">
        <ele>226</ele>
        <time>2018-10-23T12:25:08Z</time>
      </trkpt>
      <trkpt lat="47.65248" lon="6.11436">
        <ele>225</ele>
        <time>2018-10-23T12:25:09Z</time>
      </trkpt>
      <trkpt lat="47.65245" lon="6.11442">
        <ele>225</ele>
        <time>2018-10-23T12:25:10Z</time>
      </trkpt>
      <trkpt lat="47.65242" lon="6.11448">
        <ele>225</ele>
        <time>2018-10-23T12:25:11Z</time>
      </trkpt>
      <trkpt lat="47.65238" lon="6.11455">
        <ele>225</ele>
        <time>2018-10-23T12:25:12Z</time>
      </trkpt>
      <trkpt lat="47.65235" lon="6.1146">
        <ele>225</ele>
        <time>2018-10-23T12:25:13Z</time>
      </trkpt>
      <trkpt lat="47.65231" lon="6.11465">
        <ele>225</ele>
        <time>2018-10-23T12:25:14Z</time>
      </trkpt>
      <trkpt lat="47.65226" lon="6.11469">
        <ele>225</ele>
        <time>2018-10-23T12:25:15Z</time>
      </trkpt>
      <trkpt lat="47.65222" lon="6.11473">
        <ele>224</ele>
        <time>2018-10-23T12:25:16Z</time>
      </trkpt>
      <trkpt lat="47.65217" lon="6.11477">
        <ele>224</ele>
        <time>2018-10-23T12:25:17Z</time>
      </trkpt>
      <trkpt lat="47.65212" lon="6.11481">
        <ele>224</ele>
        <time>2018-10-23T12:25:18Z</time>
      </trkpt>
      <trkpt lat="47.65207" lon="6.11484">
        <ele>224</ele>
        <time>2018-10-23T12:25:19Z</time>
      </trkpt>
      <trkpt lat="47.65201" lon="6.11488">
        <ele>224</ele>
        <time>2018-10-23T12:25:20Z</time>
      </trkpt>
      <trkpt lat="47.65196" lon="6.11491">
        <ele>224</ele>
        <time>2018-10-23T12:25:21Z</time>
      </trkpt>
      <trkpt lat="47.65191" lon="6.11494">
        <ele>224</ele>
        <time>2018-10-23T12:25:22Z</time>
      </trkpt>
      <trkpt lat="47.65186" lon="6.11496">
        <ele>223</ele>
        <time>2018-10-23T12:25:23Z</time>
      </trkpt>
      <trkpt lat="47.65181" lon="6.11499">
        <ele>223</ele>
        <time>2018-10-23T12:25:24Z</time>
      </trkpt>
      <trkpt lat="47.65176" lon="6.11501">
        <ele>223</ele>
        <time>2018-10-23T12:25:25Z</time>
      </trkpt>
      <trkpt lat="47.65171" lon="6.11503">
        <ele>223</ele>
        <time>2018-10-23T12:25:26Z</time>
      </trkpt>
      <trkpt lat="47.65166" lon="6.11506">
        <ele>222</ele>
        <time>2018-10-23T12:25:27Z</time>
      </trkpt>
      <trkpt lat="47.65161" lon="6.1151">
        <ele>222</ele>
        <time>2018-10-23T12:25:28Z</time>
      </trkpt>
      <trkpt lat="47.65157" lon="6.11513">
        <ele>222</ele>
        <time>2018-10-23T12:25:29Z</time>
      </trkpt>
      <trkpt lat="47.65152" lon="6.11516">
        <ele>222</ele>
        <time>2018-10-23T12:25:30Z</time>
      </trkpt>
      <trkpt lat="47.65148" lon="6.1152">
        <ele>222</ele>
        <time>2018-10-23T12:25:31Z</time>
      </trkpt>
      <trkpt lat="47.65144" lon="6.11524">
        <ele>222</ele>
        <time>2018-10-23T12:25:32Z</time>
      </trkpt>
      <trkpt lat="47.65137" lon="6.1153">
        <ele>222</ele>
        <time>2018-10-23T12:25:34Z</time>
      </trkpt>
      <trkpt lat="47.65132" lon="6.11532">
        <ele>222</ele>
        <time>2018-10-23T12:25:36Z</time>
      </trkpt>
      <trkpt lat="47.65127" lon="6.11532">
        <ele>222</ele>
        <time>2018-10-23T12:26:37Z</time>
      </trkpt>
      <trkpt lat="47.65127" lon="6.11539">
        <ele>222</ele>
        <time>2018-10-23T12:26:42Z</time>
      </trkpt>
      <trkpt lat="47.65128" lon="6.11547">
        <ele>222</ele>
        <time>2018-10-23T12:26:44Z</time>
      </trkpt>
      <trkpt lat="47.65129" lon="6.11555">
        <ele>222</ele>
        <time>2018-10-23T12:26:46Z</time>
      </trkpt>
      <trkpt lat="47.6513" lon="6.11565">
        <ele>222</ele>
        <time>2018-10-23T12:26:48Z</time>
      </trkpt>
      <trkpt lat="47.65132" lon="6.11577">
        <ele>222</ele>
        <time>2018-10-23T12:26:50Z</time>
      </trkpt>
      <trkpt lat="47.65134" lon="6.11588">
        <ele>223</ele>
        <time>2018-10-23T12:26:52Z</time>
      </trkpt>
      <trkpt lat="47.65135" lon="6.11596">
        <ele>223</ele>
        <time>2018-10-23T12:26:54Z</time>
      </trkpt>
      <trkpt lat="47.65136" lon="6.11604">
        <ele>223</ele>
        <time>2018-10-23T12:26:56Z</time>
      </trkpt>
      <trkpt lat="47.65136" lon="6.11614">
        <ele>223</ele>
        <time>2018-10-23T12:26:58Z</time>
      </trkpt>
      <trkpt lat="47.65134" lon="6.11624">
        <ele>223</ele>
        <time>2018-10-23T12:27:00Z</time>
      </trkpt>
      <trkpt lat="47.6513" lon="6.11634">
        <ele>223</ele>
        <time>2018-10-23T12:27:02Z</time>
      </trkpt>
      <trkpt lat="47.65127" lon="6.11642">
        <ele>223</ele>
        <time>2018-10-23T12:27:04Z</time>
      </trkpt>
      <trkpt lat="47.65125" lon="6.11651">
        <ele>223</ele>
        <time>2018-10-23T12:27:06Z</time>
      </trkpt>
      <trkpt lat="47.65122" lon="6.11661">
        <ele>223</ele>
        <time>2018-10-23T12:27:08Z</time>
      </trkpt>
      <trkpt lat="47.65121" lon="6.11669">
        <ele>223</ele>
        <time>2018-10-23T12:27:10Z</time>
      </trkpt>
      <trkpt lat="47.65119" lon="6.11677">
        <ele>223</ele>
        <time>2018-10-23T12:27:12Z</time>
      </trkpt>
      <trkpt lat="47.65118" lon="6.11686">
        <ele>223</ele>
        <time>2018-10-23T12:27:14Z</time>
      </trkpt>
      <trkpt lat="47.65117" lon="6.11695">
        <ele>223</ele>
        <time>2018-10-23T12:27:16Z</time>
      </trkpt>
      <trkpt lat="47.65118" lon="6.11705">
        <ele>223</ele>
        <time>2018-10-23T12:27:18Z</time>
      </trkpt>
      <trkpt lat="47.65118" lon="6.11716">
        <ele>223</ele>
        <time>2018-10-23T12:27:19Z</time>
      </trkpt>
      <trkpt lat="47.65119" lon="6.11727">
        <ele>223</ele>
        <time>2018-10-23T12:27:21Z</time>
      </trkpt>
      <trkpt lat="47.6512" lon="6.11739">
        <ele>223</ele>
        <time>2018-10-23T12:27:23Z</time>
      </trkpt>
      <trkpt lat="47.65122" lon="6.1175">
        <ele>223</ele>
        <time>2018-10-23T12:27:25Z</time>
      </trkpt>
      <trkpt lat="47.65123" lon="6.11762">
        <ele>223</ele>
        <time>2018-10-23T12:27:27Z</time>
      </trkpt>
      <trkpt lat="47.65124" lon="6.11775">
        <ele>223</ele>
        <time>2018-10-23T12:27:29Z</time>
      </trkpt>
      <trkpt lat="47.65125" lon="6.11787">
        <ele>223</ele>
        <time>2018-10-23T12:27:31Z</time>
      </trkpt>
      <trkpt lat="47.65124" lon="6.11801">
        <ele>222</ele>
        <time>2018-10-23T12:27:33Z</time>
      </trkpt>
      <trkpt lat="47.65124" lon="6.11808">
        <ele>222</ele>
        <time>2018-10-23T12:27:34Z</time>
      </trkpt>
      <trkpt lat="47.65123" lon="6.11815">
        <ele>222</ele>
        <time>2018-10-23T12:27:35Z</time>
      </trkpt>
      <trkpt lat="47.65123" lon="6.11821">
        <ele>222</ele>
        <time>2018-10-23T12:27:36Z</time>
      </trkpt>
      <trkpt lat="47.65122" lon="6.11828">
        <ele>222</ele>
        <time>2018-10-23T12:27:37Z</time>
      </trkpt>
      <trkpt lat="47.6512" lon="6.11835">
        <ele>221</ele>
        <time>2018-10-23T12:27:38Z</time>
      </trkpt>
      <trkpt lat="47.65118" lon="6.11842">
        <ele>221</ele>
        <time>2018-10-23T12:27:39Z</time>
      </trkpt>
      <trkpt lat="47.65116" lon="6.11848">
        <ele>221</ele>
        <time>2018-10-23T12:27:40Z</time>
      </trkpt>
      <trkpt lat="47.65114" lon="6.11855">
        <ele>221</ele>
        <time>2018-10-23T12:27:41Z</time>
      </trkpt>
      <trkpt lat="47.65111" lon="6.11861">
        <ele>221</ele>
        <time>2018-10-23T12:27:42Z</time>
      </trkpt>
      <trkpt lat="47.65108" lon="6.11867">
        <ele>221</ele>
        <time>2018-10-23T12:27:43Z</time>
      </trkpt>
      <trkpt lat="47.65105" lon="6.11873">
        <ele>221</ele>
        <time>2018-10-23T12:27:44Z</time>
      </trkpt>
      <trkpt lat="47.65101" lon="6.11879">
        <ele>221</ele>
        <time>2018-10-23T12:27:45Z</time>
      </trkpt>
      <trkpt lat="47.65097" lon="6.11884">
        <ele>221</ele>
        <time>2018-10-23T12:27:46Z</time>
      </trkpt>
      <trkpt lat="47.65094" lon="6.1189">
        <ele>221</ele>
        <time>2018-10-23T12:27:47Z</time>
      </trkpt>
      <trkpt lat="47.6509" lon="6.11895">
        <ele>220</ele>
        <time>2018-10-23T12:27:48Z</time>
      </trkpt>
      <trkpt lat="47.65086" lon="6.11901">
        <ele>220</ele>
        <time>2018-10-23T12:27:49Z</time>
      </trkpt>
      <trkpt lat="47.65083" lon="6.11907">
        <ele>219</ele>
        <time>2018-10-23T12:27:50Z</time>
      </trkpt>
      <trkpt lat="47.65079" lon="6.11914">
        <ele>219</ele>
        <time>2018-10-23T12:27:51Z</time>
      </trkpt>
      <trkpt lat="47.65075" lon="6.1192">
        <ele>219</ele>
        <time>2018-10-23T12:27:52Z</time>
      </trkpt>
      <trkpt lat="47.65072" lon="6.11927">
        <ele>219</ele>
        <time>2018-10-23T12:27:53Z</time>
      </trkpt>
      <trkpt lat="47.65068" lon="6.11933">
        <ele>219</ele>
        <time>2018-10-23T12:27:54Z</time>
      </trkpt>
      <trkpt lat="47.65064" lon="6.1194">
        <ele>219</ele>
        <time>2018-10-23T12:27:55Z</time>
      </trkpt>
      <trkpt lat="47.6506" lon="6.11946">
        <ele>219</ele>
        <time>2018-10-23T12:27:56Z</time>
      </trkpt>
      <trkpt lat="47.65056" lon="6.11953">
        <ele>218</ele>
        <time>2018-10-23T12:27:57Z</time>
      </trkpt>
      <trkpt lat="47.65052" lon="6.1196">
        <ele>218</ele>
        <time>2018-10-23T12:27:58Z</time>
      </trkpt>
      <trkpt lat="47.65048" lon="6.11967">
        <ele>218</ele>
        <time>2018-10-23T12:27:59Z</time>
      </trkpt>
      <trkpt lat="47.65044" lon="6.11974">
        <ele>218</ele>
        <time>2018-10-23T12:28:00Z</time>
      </trkpt>
      <trkpt lat="47.6504" lon="6.11981">
        <ele>218</ele>
        <time>2018-10-23T12:28:01Z</time>
      </trkpt>
      <trkpt lat="47.65036" lon="6.11988">
        <ele>218</ele>
        <time>2018-10-23T12:28:02Z</time>
      </trkpt>
      <trkpt lat="47.65032" lon="6.11996">
        <ele>218</ele>
        <time>2018-10-23T12:28:03Z</time>
      </trkpt>
      <trkpt lat="47.65029" lon="6.12002">
        <ele>218</ele>
        <time>2018-10-23T12:28:04Z</time>
      </trkpt>
      <trkpt lat="47.65025" lon="6.12009">
        <ele>218</ele>
        <time>2018-10-23T12:28:05Z</time>
      </trkpt>
      <trkpt lat="47.65021" lon="6.12015">
        <ele>218</ele>
        <time>2018-10-23T12:28:06Z</time>
      </trkpt>
      <trkpt lat="47.65017" lon="6.12021">
        <ele>218</ele>
        <time>2018-10-23T12:28:07Z</time>
      </trkpt>
      <trkpt lat="47.65013" lon="6.12028">
        <ele>217</ele>
        <time>2018-10-23T12:28:08Z</time>
      </trkpt>
      <trkpt lat="47.6501" lon="6.12034">
        <ele>217</ele>
        <time>2018-10-23T12:28:09Z</time>
      </trkpt>
      <trkpt lat="47.65006" lon="6.1204">
        <ele>217</ele>
        <time>2018-10-23T12:28:10Z</time>
      </trkpt>
      <trkpt lat="47.65003" lon="6.12047">
        <ele>217</ele>
        <time>2018-10-23T12:28:11Z</time>
      </trkpt>
      <trkpt lat="47.64999" lon="6.12053">
        <ele>217</ele>
        <time>2018-10-23T12:28:12Z</time>
      </trkpt>
      <trkpt lat="47.64995" lon="6.12059">
        <ele>217</ele>
        <time>2018-10-23T12:28:13Z</time>
      </trkpt>
      <trkpt lat="47.64992" lon="6.12066">
        <ele>217</ele>
        <time>2018-10-23T12:28:14Z</time>
      </trkpt>
      <trkpt lat="47.64988" lon="6.12072">
        <ele>217</ele>
        <time>2018-10-23T12:28:15Z</time>
      </trkpt>
      <trkpt lat="47.64984" lon="6.12079">
        <ele>217</ele>
        <time>2018-10-23T12:28:16Z</time>
      </trkpt>
      <trkpt lat="47.64981" lon="6.12086">
        <ele>216</ele>
        <time>2018-10-23T12:28:17Z</time>
      </trkpt>
      <trkpt lat="47.64977" lon="6.12092">
        <ele>216</ele>
        <time>2018-10-23T12:28:18Z</time>
      </trkpt>
      <trkpt lat="47.64973" lon="6.12098">
        <ele>216</ele>
        <time>2018-10-23T12:28:19Z</time>
      </trkpt>
      <trkpt lat="47.64969" lon="6.12104">
        <ele>216</ele>
        <time>2018-10-23T12:28:20Z</time>
      </trkpt>
      <trkpt lat="47.64965" lon="6.1211">
        <ele>216</ele>
        <time>2018-10-23T12:28:21Z</time>
      </trkpt>
      <trkpt lat="47.64962" lon="6.12117">
        <ele>216</ele>
        <time>2018-10-23T12:28:22Z</time>
      </trkpt>
      <trkpt lat="47.64958" lon="6.12123">
        <ele>216</ele>
        <time>2018-10-23T12:28:23Z</time>
      </trkpt>
      <trkpt lat="47.64955" lon="6.1213">
        <ele>216</ele>
        <time>2018-10-23T12:28:24Z</time>
      </trkpt>
      <trkpt lat="47.64951" lon="6.12136">
        <ele>216</ele>
        <time>2018-10-23T12:28:25Z</time>
      </trkpt>
      <trkpt lat="47.64948" lon="6.12143">
        <ele>216</ele>
        <time>2018-10-23T12:28:26Z</time>
      </trkpt>
      <trkpt lat="47.64945" lon="6.12149">
        <ele>216</ele>
        <time>2018-10-23T12:28:27Z</time>
      </trkpt>
      <trkpt lat="47.64942" lon="6.12155">
        <ele>216</ele>
        <time>2018-10-23T12:28:28Z</time>
      </trkpt>
      <trkpt lat="47.64939" lon="6.12161">
        <ele>216</ele>
        <time>2018-10-23T12:28:29Z</time>
      </trkpt>
      <trkpt lat="47.64936" lon="6.12168">
        <ele>215</ele>
        <time>2018-10-23T12:28:30Z</time>
      </trkpt>
      <trkpt lat="47.64934" lon="6.12174">
        <ele>215</ele>
        <time>2018-10-23T12:28:31Z</time>
      </trkpt>
      <trkpt lat="47.64931" lon="6.1218">
        <ele>215</ele>
        <time>2018-10-23T12:28:32Z</time>
      </trkpt>
      <trkpt lat="47.64928" lon="6.12186">
        <ele>215</ele>
        <time>2018-10-23T12:28:33Z</time>
      </trkpt>
      <trkpt lat="47.64925" lon="6.12192">
        <ele>215</ele>
        <time>2018-10-23T12:28:34Z</time>
      </trkpt>
      <trkpt lat="47.64922" lon="6.12199">
        <ele>215</ele>
        <time>2018-10-23T12:28:35Z</time>
      </trkpt>
      <trkpt lat="47.64919" lon="6.12205">
        <ele>215</ele>
        <time>2018-10-23T12:28:36Z</time>
      </trkpt>
      <trkpt lat="47.64916" lon="6.12211">
        <ele>215</ele>
        <time>2018-10-23T12:28:37Z</time>
      </trkpt>
      <trkpt lat="47.64913" lon="6.12217">
        <ele>215</ele>
        <time>2018-10-23T12:28:38Z</time>
      </trkpt>
      <trkpt lat="47.64908" lon="6.12222">
        <ele>215</ele>
        <time>2018-10-23T12:28:39Z</time>
      </trkpt>
      <trkpt lat="47.64903" lon="6.12225">
        <ele>215</ele>
        <time>2018-10-23T12:28:40Z</time>
      </trkpt>
      <trkpt lat="47.64898" lon="6.12224">
        <ele>215</ele>
        <time>2018-10-23T12:28:41Z</time>
      </trkpt>
      <trkpt lat="47.64893" lon="6.12222">
        <ele>215</ele>
        <time>2018-10-23T12:28:42Z</time>
      </trkpt>
      <trkpt lat="47.64888" lon="6.12219">
        <ele>215</ele>
        <time>2018-10-23T12:28:43Z</time>
      </trkpt>
      <trkpt lat="47.64882" lon="6.12218">
        <ele>215</ele>
        <time>2018-10-23T12:28:44Z</time>
      </trkpt>
      <trkpt lat="47.64877" lon="6.12218">
        <ele>214</ele>
        <time>2018-10-23T12:28:45Z</time>
      </trkpt>
      <trkpt lat="47.64872" lon="6.12221">
        <ele>214</ele>
        <time>2018-10-23T12:28:46Z</time>
      </trkpt>
      <trkpt lat="47.64868" lon="6.12226">
        <ele>214</ele>
        <time>2018-10-23T12:28:47Z</time>
      </trkpt>
      <trkpt lat="47.64864" lon="6.12232">
        <ele>214</ele>
        <time>2018-10-23T12:28:48Z</time>
      </trkpt>
      <trkpt lat="47.64862" lon="6.12239">
        <ele>214</ele>
        <time>2018-10-23T12:28:49Z</time>
      </trkpt>
      <trkpt lat="47.64859" lon="6.12246">
        <ele>214</ele>
        <time>2018-10-23T12:28:50Z</time>
      </trkpt>
      <trkpt lat="47.64857" lon="6.12253">
        <ele>214</ele>
        <time>2018-10-23T12:28:51Z</time>
      </trkpt>
      <trkpt lat="47.64855" lon="6.1226">
        <ele>214</ele>
        <time>2018-10-23T12:28:52Z</time>
      </trkpt>
      <trkpt lat="47.64852" lon="6.12267">
        <ele>214</ele>
        <time>2018-10-23T12:28:53Z</time>
      </trkpt>
      <trkpt lat="47.6485" lon="6.12274">
        <ele>214</ele>
        <time>2018-10-23T12:28:54Z</time>
      </trkpt>
      <trkpt lat="47.64847" lon="6.12281">
        <ele>214</ele>
        <time>2018-10-23T12:28:55Z</time>
      </trkpt>
      <trkpt lat="47.64845" lon="6.12288">
        <ele>214</ele>
        <time>2018-10-23T12:28:56Z</time>
      </trkpt>
      <trkpt lat="47.64843" lon="6.12295">
        <ele>214</ele>
        <time>2018-10-23T12:28:57Z</time>
      </trkpt>
      <trkpt lat="47.64841" lon="6.12303">
        <ele>214</ele>
        <time>2018-10-23T12:28:58Z</time>
      </trkpt>
      <trkpt lat="47.64842" lon="6.1231">
        <ele>214</ele>
        <time>2018-10-23T12:28:59Z</time>
      </trkpt>
      <trkpt lat="47.64844" lon="6.12316">
        <ele>214</ele>
        <time>2018-10-23T12:29:00Z</time>
      </trkpt>
      <trkpt lat="47.64852" lon="6.12323">
        <ele>214</ele>
        <time>2018-10-23T12:29:02Z</time>
      </trkpt>
      <trkpt lat="47.64859" lon="6.12331">
        <ele>214</ele>
        <time>2018-10-23T12:29:04Z</time>
      </trkpt>
      <trkpt lat="47.64862" lon="6.12343">
        <ele>215</ele>
        <time>2018-10-23T12:29:06Z</time>
      </trkpt>
      <trkpt lat="47.6486" lon="6.12355">
        <ele>215</ele>
        <time>2018-10-23T12:29:08Z</time>
      </trkpt>
      <trkpt lat="47.64857" lon="6.12367">
        <ele>215</ele>
        <time>2018-10-23T12:29:10Z</time>
      </trkpt>
      <trkpt lat="47.64853" lon="6.1238">
        <ele>215</ele>
        <time>2018-10-23T12:29:12Z</time>
      </trkpt>
      <trkpt lat="47.6485" lon="6.12391">
        <ele>215</ele>
        <time>2018-10-23T12:29:14Z</time>
      </trkpt>
      <trkpt lat="47.64847" lon="6.124">
        <ele>216</ele>
        <time>2018-10-23T12:29:16Z</time>
      </trkpt>
      <trkpt lat="47.64844" lon="6.12409">
        <ele>216</ele>
        <time>2018-10-23T12:29:18Z</time>
      </trkpt>
      <trkpt lat="47.64842" lon="6.12418">
        <ele>216</ele>
        <time>2018-10-23T12:29:20Z</time>
      </trkpt>
      <trkpt lat="47.6484" lon="6.12425">
        <ele>216</ele>
        <time>2018-10-23T12:29:22Z</time>
      </trkpt>
      <trkpt lat="47.64837" lon="6.12433">
        <ele>216</ele>
        <time>2018-10-23T12:29:25Z</time>
      </trkpt>
      <trkpt lat="47.64835" lon="6.1244">
        <ele>216</ele>
        <time>2018-10-23T12:29:27Z</time>
      </trkpt>
      <trkpt lat="47.64832" lon="6.12446">
        <ele>216</ele>
        <time>2018-10-23T12:29:29Z</time>
      </trkpt>
      <trkpt lat="47.64829" lon="6.12453">
        <ele>216</ele>
        <time>2018-10-23T12:29:31Z</time>
      </trkpt>
      <trkpt lat="47.64827" lon="6.12459">
        <ele>217</ele>
        <time>2018-10-23T12:29:33Z</time>
      </trkpt>
      <trkpt lat="47.64824" lon="6.12467">
        <ele>217</ele>
        <time>2018-10-23T12:29:35Z</time>
      </trkpt>
      <trkpt lat="47.64822" lon="6.12473">
        <ele>217</ele>
        <time>2018-10-23T12:29:37Z</time>
      </trkpt>
      <trkpt lat="47.64819" lon="6.12481">
        <ele>217</ele>
        <time>2018-10-23T12:29:39Z</time>
      </trkpt>
      <trkpt lat="47.64816" lon="6.12488">
        <ele>217</ele>
        <time>2018-10-23T12:29:41Z</time>
      </trkpt>
      <trkpt lat="47.64811" lon="6.12493">
        <ele>217</ele>
        <time>2018-10-23T12:29:43Z</time>
      </trkpt>
      <trkpt lat="47.64806" lon="6.12495">
        <ele>217</ele>
        <time>2018-10-23T12:29:45Z</time>
      </trkpt>
      <trkpt lat="47.64799" lon="6.12494">
        <ele>217</ele>
        <time>2018-10-23T12:29:47Z</time>
      </trkpt>
      <trkpt lat="47.64794" lon="6.12491">
        <ele>217</ele>
        <time>2018-10-23T12:29:49Z</time>
      </trkpt>
      <trkpt lat="47.64789" lon="6.12489">
        <ele>217</ele>
        <time>2018-10-23T12:29:50Z</time>
      </trkpt>
      <trkpt lat="47.64782" lon="6.12485">
        <ele>217</ele>
        <time>2018-10-23T12:29:52Z</time>
      </trkpt>
      <trkpt lat="47.64775" lon="6.1248">
        <ele>217</ele>
        <time>2018-10-23T12:29:54Z</time>
      </trkpt>
      <trkpt lat="47.64769" lon="6.12477">
        <ele>217</ele>
        <time>2018-10-23T12:29:56Z</time>
      </trkpt>
      <trkpt lat="47.64764" lon="6.12476">
        <ele>217</ele>
        <time>2018-10-23T12:29:58Z</time>
      </trkpt>
      <trkpt lat="47.6476" lon="6.12479">
        <ele>217</ele>
        <time>2018-10-23T12:30:00Z</time>
      </trkpt>
      <trkpt lat="47.64755" lon="6.12483">
        <ele>217</ele>
        <time>2018-10-23T12:30:02Z</time>
      </trkpt>
      <trkpt lat="47.64752" lon="6.1249">
        <ele>217</ele>
        <time>2018-10-23T12:30:04Z</time>
      </trkpt>
      <trkpt lat="47.64751" lon="6.12498">
        <ele>217</ele>
        <time>2018-10-23T12:30:06Z</time>
      </trkpt>
      <trkpt lat="47.64753" lon="6.12506">
        <ele>217</ele>
        <time>2018-10-23T12:30:08Z</time>
      </trkpt>
      <trkpt lat="47.64757" lon="6.12512">
        <ele>217</ele>
        <time>2018-10-23T12:30:10Z</time>
      </trkpt>
      <trkpt lat="47.64762" lon="6.12517">
        <ele>217</ele>
        <time>2018-10-23T12:30:12Z</time>
      </trkpt>
      <trkpt lat="47.64767" lon="6.1252">
        <ele>217</ele>
        <time>2018-10-23T12:30:14Z</time>
      </trkpt>
      <trkpt lat="47.64771" lon="6.12522">
        <ele>218</ele>
        <time>2018-10-23T12:30:16Z</time>
      </trkpt>
      <trkpt lat="47.64776" lon="6.12523">
        <ele>218</ele>
        <time>2018-10-23T12:30:19Z</time>
      </trkpt>
      <trkpt lat="47.64781" lon="6.12525">
        <ele>218</ele>
        <time>2018-10-23T12:31:42Z</time>
      </trkpt>
      <trkpt lat="47.64784" lon="6.12531">
        <ele>218</ele>
        <time>2018-10-23T12:31:46Z</time>
      </trkpt>
      <trkpt lat="47.64788" lon="6.12538">
        <ele>218</ele>
        <time>2018-10-23T12:31:49Z</time>
      </trkpt>
      <trkpt lat="47.6479" lon="6.12547">
        <ele>218</ele>
        <time>2018-10-23T12:31:52Z</time>
      </trkpt>
      <trkpt lat="47.64792" lon="6.12555">
        <ele>218</ele>
        <time>2018-10-23T12:31:54Z</time>
      </trkpt>
      <trkpt lat="47.64793" lon="6.12562">
        <ele>218</ele>
        <time>2018-10-23T12:31:56Z</time>
      </trkpt>
      <trkpt lat="47.64793" lon="6.12569">
        <ele>218</ele>
        <time>2018-10-23T12:31:58Z</time>
      </trkpt>
      <trkpt lat="47.64792" lon="6.12577">
        <ele>218</ele>
        <time>2018-10-23T12:32:00Z</time>
      </trkpt>
      <trkpt lat="47.64791" lon="6.12586">
        <ele>218</ele>
        <time>2018-10-23T12:32:03Z</time>
      </trkpt>
      <trkpt lat="47.64789" lon="6.12593">
        <ele>218</ele>
        <time>2018-10-23T12:32:06Z</time>
      </trkpt>
      <trkpt lat="47.64786" lon="6.12601">
        <ele>218</ele>
        <time>2018-10-23T12:32:09Z</time>
      </trkpt>
      <trkpt lat="47.64784" lon="6.12609">
        <ele>218</ele>
        <time>2018-10-23T12:32:12Z</time>
      </trkpt>
      <trkpt lat="47.64782" lon="6.12617">
        <ele>218</ele>
        <time>2018-10-23T12:32:15Z</time>
      </trkpt>
      <trkpt lat="47.64782" lon="6.12626">
        <ele>218</ele>
        <time>2018-10-23T12:32:19Z</time>
      </trkpt>
      <trkpt lat="47.6478" lon="6.12632">
        <ele>218</ele>
        <time>2018-10-23T12:32:32Z</time>
      </trkpt>
      <trkpt lat="47.64778" lon="6.12639">
        <ele>218</ele>
        <time>2018-10-23T12:33:17Z</time>
      </trkpt>
      <trkpt lat="47.64775" lon="6.12647">
        <ele>218</ele>
        <time>2018-10-23T12:33:22Z</time>
      </trkpt>
      <trkpt lat="47.64772" lon="6.12656">
        <ele>218</ele>
        <time>2018-10-23T12:33:25Z</time>
      </trkpt>
      <trkpt lat="47.64771" lon="6.12662">
        <ele>218</ele>
        <time>2018-10-23T12:33:27Z</time>
      </trkpt>
      <trkpt lat="47.64769" lon="6.12669">
        <ele>218</ele>
        <time>2018-10-23T12:33:29Z</time>
      </trkpt>
      <trkpt lat="47.64767" lon="6.12677">
        <ele>218</ele>
        <time>2018-10-23T12:33:31Z</time>
      </trkpt>
      <trkpt lat="47.64766" lon="6.12686">
        <ele>218</ele>
        <time>2018-10-23T12:33:33Z</time>
      </trkpt>
      <trkpt lat="47.64764" lon="6.12695">
        <ele>218</ele>
        <time>2018-10-23T12:33:35Z</time>
      </trkpt>
      <trkpt lat="47.64762" lon="6.12703">
        <ele>218</ele>
        <time>2018-10-23T12:33:37Z</time>
      </trkpt>
      <trkpt lat="47.6476" lon="6.12711">
        <ele>217</ele>
        <time>2018-10-23T12:33:39Z</time>
      </trkpt>
      <trkpt lat="47.64759" lon="6.1272">
        <ele>217</ele>
        <time>2018-10-23T12:33:41Z</time>
      </trkpt>
      <trkpt lat="47.64758" lon="6.12729">
        <ele>217</ele>
        <time>2018-10-23T12:33:43Z</time>
      </trkpt>
      <trkpt lat="47.64756" lon="6.12738">
        <ele>217</ele>
        <time>2018-10-23T12:33:45Z</time>
      </trkpt>
      <trkpt lat="47.64755" lon="6.12747">
        <ele>217</ele>
        <time>2018-10-23T12:33:47Z</time>
      </trkpt>
      <trkpt lat="47.64754" lon="6.12758">
        <ele>217</ele>
        <time>2018-10-23T12:33:48Z</time>
      </trkpt>
      <trkpt lat="47.64753" lon="6.1277">
        <ele>217</ele>
        <time>2018-10-23T12:33:50Z</time>
      </trkpt>
      <trkpt lat="47.64751" lon="6.12782">
        <ele>217</ele>
        <time>2018-10-23T12:33:52Z</time>
      </trkpt>
      <trkpt lat="47.64751" lon="6.12795">
        <ele>216</ele>
        <time>2018-10-23T12:33:54Z</time>
      </trkpt>
      <trkpt lat="47.6475" lon="6.12802">
        <ele>216</ele>
        <time>2018-10-23T12:33:55Z</time>
      </trkpt>
      <trkpt lat="47.64749" lon="6.12809">
        <ele>216</ele>
        <time>2018-10-23T12:33:56Z</time>
      </trkpt>
      <trkpt lat="47.64748" lon="6.12816">
        <ele>216</ele>
        <time>2018-10-23T12:33:57Z</time>
      </trkpt>
      <trkpt lat="47.64748" lon="6.12823">
        <ele>216</ele>
        <time>2018-10-23T12:33:58Z</time>
      </trkpt>
      <trkpt lat="47.64747" lon="6.1283">
        <ele>216</ele>
        <time>2018-10-23T12:33:59Z</time>
      </trkpt>
      <trkpt lat="47.64747" lon="6.12841">
        <ele>216</ele>
        <time>2018-10-23T12:34:01Z</time>
      </trkpt>
      <trkpt lat="47.64747" lon="6.1285">
        <ele>216</ele>
        <time>2018-10-23T12:34:04Z</time>
      </trkpt>
      <trkpt lat="47.64746" lon="6.12857">
        <ele>216</ele>
        <time>2018-10-23T12:34:19Z</time>
      </trkpt>
      <trkpt lat="47.64744" lon="6.12864">
        <ele>216</ele>
        <time>2018-10-23T12:34:23Z</time>
      </trkpt>
      <trkpt lat="47.64742" lon="6.12871">
        <ele>216</ele>
        <time>2018-10-23T12:34:25Z</time>
      </trkpt>
      <trkpt lat="47.64738" lon="6.12878">
        <ele>215</ele>
        <time>2018-10-23T12:34:27Z</time>
      </trkpt>
      <trkpt lat="47.64733" lon="6.12883">
        <ele>215</ele>
        <time>2018-10-23T12:34:29Z</time>
      </trkpt>
      <trkpt lat="47.64727" lon="6.12888">
        <ele>215</ele>
        <time>2018-10-23T12:34:31Z</time>
      </trkpt>
      <trkpt lat="47.64721" lon="6.12892">
        <ele>215</ele>
        <time>2018-10-23T12:34:33Z</time>
      </trkpt>
      <trkpt lat="47.64714" lon="6.12897">
        <ele>215</ele>
        <time>2018-10-23T12:34:35Z</time>
      </trkpt>
      <trkpt lat="47.64707" lon="6.12901">
        <ele>215</ele>
        <time>2018-10-23T12:34:37Z</time>
      </trkpt>
      <trkpt lat="47.647" lon="6.12906">
        <ele>215</ele>
        <time>2018-10-23T12:34:39Z</time>
      </trkpt>
      <trkpt lat="47.64694" lon="6.1291">
        <ele>215</ele>
        <time>2018-10-23T12:34:41Z</time>
      </trkpt>
      <trkpt lat="47.64688" lon="6.12913">
        <ele>215</ele>
        <time>2018-10-23T12:34:43Z</time>
      </trkpt>
      <trkpt lat="47.64681" lon="6.12918">
        <ele>215</ele>
        <time>2018-10-23T12:34:45Z</time>
      </trkpt>
      <trkpt lat="47.64674" lon="6.12922">
        <ele>215</ele>
        <time>2018-10-23T12:34:47Z</time>
      </trkpt>
      <trkpt lat="47.6467" lon="6.12925">
        <ele>215</ele>
        <time>2018-10-23T12:34:48Z</time>
      </trkpt>
      <trkpt lat="47.64663" lon="6.1293">
        <ele>214</ele>
        <time>2018-10-23T12:34:50Z</time>
      </trkpt>
      <trkpt lat="47.64656" lon="6.12934">
        <ele>214</ele>
        <time>2018-10-23T12:34:52Z</time>
      </trkpt>
      <trkpt lat="47.64649" lon="6.12938">
        <ele>214</ele>
        <time>2018-10-23T12:34:53Z</time>
      </trkpt>
      <trkpt lat="47.64642" lon="6.12943">
        <ele>214</ele>
        <time>2018-10-23T12:34:55Z</time>
      </trkpt>
      <trkpt lat="47.64634" lon="6.12947">
        <ele>213</ele>
        <time>2018-10-23T12:34:57Z</time>
      </trkpt>
      <trkpt lat="47.64626" lon="6.12952">
        <ele>213</ele>
        <time>2018-10-23T12:34:59Z</time>
      </trkpt>
      <trkpt lat="47.64619" lon="6.12957">
        <ele>213</ele>
        <time>2018-10-23T12:35:01Z</time>
      </trkpt>
      <trkpt lat="47.64611" lon="6.12962">
        <ele>213</ele>
        <time>2018-10-23T12:35:03Z</time>
      </trkpt>
      <trkpt lat="47.64603" lon="6.12967">
        <ele>213</ele>
        <time>2018-10-23T12:35:05Z</time>
      </trkpt>
      <trkpt lat="47.64596" lon="6.12972">
        <ele>213</ele>
        <time>2018-10-23T12:35:07Z</time>
      </trkpt>
      <trkpt lat="47.64589" lon="6.12977">
        <ele>213</ele>
        <time>2018-10-23T12:35:09Z</time>
      </trkpt>
      <trkpt lat="47.64583" lon="6.12981">
        <ele>213</ele>
        <time>2018-10-23T12:35:11Z</time>
      </trkpt>
      <trkpt lat="47.64576" lon="6.12985">
        <ele>213</ele>
        <time>2018-10-23T12:35:13Z</time>
      </trkpt>
      <trkpt lat="47.64569" lon="6.12987">
        <ele>213</ele>
        <time>2018-10-23T12:35:15Z</time>
      </trkpt>
      <trkpt lat="47.64562" lon="6.12987">
        <ele>213</ele>
        <time>2018-10-23T12:35:17Z</time>
      </trkpt>
      <trkpt lat="47.64554" lon="6.12983">
        <ele>213</ele>
        <time>2018-10-23T12:35:19Z</time>
      </trkpt>
      <trkpt lat="47.64549" lon="6.12977">
        <ele>213</ele>
        <time>2018-10-23T12:35:20Z</time>
      </trkpt>
      <trkpt lat="47.64545" lon="6.12972">
        <ele>213</ele>
        <time>2018-10-23T12:35:21Z</time>
      </trkpt>
      <trkpt lat="47.64541" lon="6.12967">
        <ele>213</ele>
        <time>2018-10-23T12:35:22Z</time>
      </trkpt>
      <trkpt lat="47.64537" lon="6.12963">
        <ele>213</ele>
        <time>2018-10-23T12:35:23Z</time>
      </trkpt>
      <trkpt lat="47.64529" lon="6.12957">
        <ele>212</ele>
        <time>2018-10-23T12:35:25Z</time>
      </trkpt>
      <trkpt lat="47.64521" lon="6.12954">
        <ele>212</ele>
        <time>2018-10-23T12:35:27Z</time>
      </trkpt>
      <trkpt lat="47.64513" lon="6.12952">
        <ele>212</ele>
        <time>2018-10-23T12:35:29Z</time>
      </trkpt>
      <trkpt lat="47.64506" lon="6.12948">
        <ele>212</ele>
        <time>2018-10-23T12:35:31Z</time>
      </trkpt>
      <trkpt lat="47.64499" lon="6.12944">
        <ele>212</ele>
        <time>2018-10-23T12:35:33Z</time>
      </trkpt>
      <trkpt lat="47.64491" lon="6.12939">
        <ele>212</ele>
        <time>2018-10-23T12:35:35Z</time>
      </trkpt>
      <trkpt lat="47.64485" lon="6.12933">
        <ele>212</ele>
        <time>2018-10-23T12:35:37Z</time>
      </trkpt>
      <trkpt lat="47.64479" lon="6.12926">
        <ele>212</ele>
        <time>2018-10-23T12:35:39Z</time>
      </trkpt>
      <trkpt lat="47.64473" lon="6.12918">
        <ele>212</ele>
        <time>2018-10-23T12:35:41Z</time>
      </trkpt>
      <trkpt lat="47.64466" lon="6.12914">
        <ele>211</ele>
        <time>2018-10-23T12:35:43Z</time>
      </trkpt>
      <trkpt lat="47.6446" lon="6.12917">
        <ele>211</ele>
        <time>2018-10-23T12:35:45Z</time>
      </trkpt>
      <trkpt lat="47.64454" lon="6.1292">
        <ele>212</ele>
        <time>2018-10-23T12:35:47Z</time>
      </trkpt>
      <trkpt lat="47.64446" lon="6.12923">
        <ele>212</ele>
        <time>2018-10-23T12:35:49Z</time>
      </trkpt>
      <trkpt lat="47.64438" lon="6.12926">
        <ele>212</ele>
        <time>2018-10-23T12:35:51Z</time>
      </trkpt>
      <trkpt lat="47.6443" lon="6.12929">
        <ele>212</ele>
        <time>2018-10-23T12:35:53Z</time>
      </trkpt>
      <trkpt lat="47.64422" lon="6.12932">
        <ele>212</ele>
        <time>2018-10-23T12:35:55Z</time>
      </trkpt>
      <trkpt lat="47.64415" lon="6.12935">
        <ele>212</ele>
        <time>2018-10-23T12:35:57Z</time>
      </trkpt>
      <trkpt lat="47.64407" lon="6.12937">
        <ele>212</ele>
        <time>2018-10-23T12:35:59Z</time>
      </trkpt>
      <trkpt lat="47.644" lon="6.1294">
        <ele>212</ele>
        <time>2018-10-23T12:36:01Z</time>
      </trkpt>
      <trkpt lat="47.64392" lon="6.12942">
        <ele>212</ele>
        <time>2018-10-23T12:36:03Z</time>
      </trkpt>
      <trkpt lat="47.64385" lon="6.12944">
        <ele>213</ele>
        <time>2018-10-23T12:36:05Z</time>
      </trkpt>
      <trkpt lat="47.64376" lon="6.12947">
        <ele>213</ele>
        <time>2018-10-23T12:36:07Z</time>
      </trkpt>
      <trkpt lat="47.64368" lon="6.12949">
        <ele>213</ele>
        <time>2018-10-23T12:36:09Z</time>
      </trkpt>
      <trkpt lat="47.6436" lon="6.12952">
        <ele>213</ele>
        <time>2018-10-23T12:36:11Z</time>
      </trkpt>
      <trkpt lat="47.64352" lon="6.12954">
        <ele>213</ele>
        <time>2018-10-23T12:36:13Z</time>
      </trkpt>
      <trkpt lat="47.64344" lon="6.12956">
        <ele>213</ele>
        <time>2018-10-23T12:36:15Z</time>
      </trkpt>
      <trkpt lat="47.64337" lon="6.12959">
        <ele>213</ele>
        <time>2018-10-23T12:36:17Z</time>
      </trkpt>
      <trkpt lat="47.64329" lon="6.12961">
        <ele>213</ele>
        <time>2018-10-23T12:36:19Z</time>
      </trkpt>
      <trkpt lat="47.6432" lon="6.12963">
        <ele>213</ele>
        <time>2018-10-23T12:36:21Z</time>
      </trkpt>
      <trkpt lat="47.64312" lon="6.12966">
        <ele>213</ele>
        <time>2018-10-23T12:36:23Z</time>
      </trkpt>
      <trkpt lat="47.64305" lon="6.12968">
        <ele>213</ele>
        <time>2018-10-23T12:36:25Z</time>
      </trkpt>
      <trkpt lat="47.64297" lon="6.1297">
        <ele>213</ele>
        <time>2018-10-23T12:36:27Z</time>
      </trkpt>
      <trkpt lat="47.64289" lon="6.12972">
        <ele>213</ele>
        <time>2018-10-23T12:36:29Z</time>
      </trkpt>
      <trkpt lat="47.64282" lon="6.12974">
        <ele>213</ele>
        <time>2018-10-23T12:36:31Z</time>
      </trkpt>
      <trkpt lat="47.64274" lon="6.12976">
        <ele>213</ele>
        <time>2018-10-23T12:36:33Z</time>
      </trkpt>
      <trkpt lat="47.64267" lon="6.12978">
        <ele>213</ele>
        <time>2018-10-23T12:36:35Z</time>
      </trkpt>
      <trkpt lat="47.6426" lon="6.1298">
        <ele>214</ele>
        <time>2018-10-23T12:36:37Z</time>
      </trkpt>
      <trkpt lat="47.64253" lon="6.12983">
        <ele>214</ele>
        <time>2018-10-23T12:36:39Z</time>
      </trkpt>
      <trkpt lat="47.64245" lon="6.12985">
        <ele>213</ele>
        <time>2018-10-23T12:36:41Z</time>
      </trkpt>
      <trkpt lat="47.64238" lon="6.12987">
        <ele>213</ele>
        <time>2018-10-23T12:36:43Z</time>
      </trkpt>
      <trkpt lat="47.6423" lon="6.12989">
        <ele>213</ele>
        <time>2018-10-23T12:36:45Z</time>
      </trkpt>
      <trkpt lat="47.64223" lon="6.12991">
        <ele>213</ele>
        <time>2018-10-23T12:36:47Z</time>
      </trkpt>
      <trkpt lat="47.64215" lon="6.12993">
        <ele>212</ele>
        <time>2018-10-23T12:36:49Z</time>
      </trkpt>
      <trkpt lat="47.64208" lon="6.12995">
        <ele>212</ele>
        <time>2018-10-23T12:36:51Z</time>
      </trkpt>
      <trkpt lat="47.642" lon="6.12998">
        <ele>212</ele>
        <time>2018-10-23T12:36:53Z</time>
      </trkpt>
      <trkpt lat="47.64192" lon="6.13">
        <ele>212</ele>
        <time>2018-10-23T12:36:55Z</time>
      </trkpt>
      <trkpt lat="47.64183" lon="6.13002">
        <ele>212</ele>
        <time>2018-10-23T12:36:57Z</time>
      </trkpt>
      <trkpt lat="47.64176" lon="6.13004">
        <ele>212</ele>
        <time>2018-10-23T12:36:59Z</time>
      </trkpt>
      <trkpt lat="47.64169" lon="6.13006">
        <ele>212</ele>
        <time>2018-10-23T12:37:01Z</time>
      </trkpt>
      <trkpt lat="47.64161" lon="6.13009">
        <ele>212</ele>
        <time>2018-10-23T12:37:03Z</time>
      </trkpt>
      <trkpt lat="47.64153" lon="6.13011">
        <ele>212</ele>
        <time>2018-10-23T12:37:05Z</time>
      </trkpt>
      <trkpt lat="47.64146" lon="6.13013">
        <ele>212</ele>
        <time>2018-10-23T12:37:07Z</time>
      </trkpt>
      <trkpt lat="47.64139" lon="6.13015">
        <ele>212</ele>
        <time>2018-10-23T12:37:09Z</time>
      </trkpt>
      <trkpt lat="47.64132" lon="6.13017">
        <ele>212</ele>
        <time>2018-10-23T12:37:11Z</time>
      </trkpt>
      <trkpt lat="47.64124" lon="6.1302">
        <ele>212</ele>
        <time>2018-10-23T12:37:13Z</time>
      </trkpt>
      <trkpt lat="47.64117" lon="6.13022">
        <ele>212</ele>
        <time>2018-10-23T12:37:15Z</time>
      </trkpt>
      <trkpt lat="47.6411" lon="6.13024">
        <ele>212</ele>
        <time>2018-10-23T12:37:17Z</time>
      </trkpt>
      <trkpt lat="47.64102" lon="6.13027">
        <ele>212</ele>
        <time>2018-10-23T12:37:19Z</time>
      </trkpt>
      <trkpt lat="47.64094" lon="6.13029">
        <ele>211</ele>
        <time>2018-10-23T12:37:21Z</time>
      </trkpt>
      <trkpt lat="47.64086" lon="6.13031">
        <ele>211</ele>
        <time>2018-10-23T12:37:23Z</time>
      </trkpt>
      <trkpt lat="47.64078" lon="6.13033">
        <ele>212</ele>
        <time>2018-10-23T12:37:25Z</time>
      </trkpt>
      <trkpt lat="47.6407" lon="6.13036">
        <ele>212</ele>
        <time>2018-10-23T12:37:27Z</time>
      </trkpt>
      <trkpt lat="47.64062" lon="6.13038">
        <ele>212</ele>
        <time>2018-10-23T12:37:29Z</time>
      </trkpt>
      <trkpt lat="47.64054" lon="6.1304">
        <ele>212</ele>
        <time>2018-10-23T12:37:31Z</time>
      </trkpt>
      <trkpt lat="47.64046" lon="6.13042">
        <ele>212</ele>
        <time>2018-10-23T12:37:33Z</time>
      </trkpt>
      <trkpt lat="47.64039" lon="6.13043">
        <ele>213</ele>
        <time>2018-10-23T12:37:35Z</time>
      </trkpt>
      <trkpt lat="47.64032" lon="6.13045">
        <ele>213</ele>
        <time>2018-10-23T12:37:37Z</time>
      </trkpt>
      <trkpt lat="47.64024" lon="6.13047">
        <ele>213</ele>
        <time>2018-10-23T12:37:39Z</time>
      </trkpt>
      <trkpt lat="47.64017" lon="6.13049">
        <ele>213</ele>
        <time>2018-10-23T12:37:41Z</time>
      </trkpt>
      <trkpt lat="47.64009" lon="6.1305">
        <ele>213</ele>
        <time>2018-10-23T12:37:43Z</time>
      </trkpt>
      <trkpt lat="47.64002" lon="6.13053">
        <ele>213</ele>
        <time>2018-10-23T12:37:45Z</time>
      </trkpt>
      <trkpt lat="47.63994" lon="6.13054">
        <ele>214</ele>
        <time>2018-10-23T12:37:47Z</time>
      </trkpt>
      <trkpt lat="47.63986" lon="6.13056">
        <ele>214</ele>
        <time>2018-10-23T12:37:49Z</time>
      </trkpt>
      <trkpt lat="47.63978" lon="6.13059">
        <ele>214</ele>
        <time>2018-10-23T12:37:51Z</time>
      </trkpt>
      <trkpt lat="47.6397" lon="6.13062">
        <ele>214</ele>
        <time>2018-10-23T12:37:53Z</time>
      </trkpt>
      <trkpt lat="47.63963" lon="6.13064">
        <ele>214</ele>
        <time>2018-10-23T12:37:55Z</time>
      </trkpt>
      <trkpt lat="47.63956" lon="6.13065">
        <ele>214</ele>
        <time>2018-10-23T12:37:57Z</time>
      </trkpt>
      <trkpt lat="47.63948" lon="6.13067">
        <ele>214</ele>
        <time>2018-10-23T12:37:59Z</time>
      </trkpt>
      <trkpt lat="47.63942" lon="6.13069">
        <ele>214</ele>
        <time>2018-10-23T12:38:01Z</time>
      </trkpt>
      <trkpt lat="47.63937" lon="6.13071">
        <ele>214</ele>
        <time>2018-10-23T12:38:03Z</time>
      </trkpt>
      <trkpt lat="47.6393" lon="6.13069">
        <ele>214</ele>
        <time>2018-10-23T12:38:06Z</time>
      </trkpt>
      <trkpt lat="47.63926" lon="6.13063">
        <ele>214</ele>
        <time>2018-10-23T12:38:08Z</time>
      </trkpt>
      <trkpt lat="47.63924" lon="6.13056">
        <ele>214</ele>
        <time>2018-10-23T12:38:10Z</time>
      </trkpt>
      <trkpt lat="47.63922" lon="6.13048">
        <ele>213</ele>
        <time>2018-10-23T12:38:12Z</time>
      </trkpt>
      <trkpt lat="47.63921" lon="6.13037">
        <ele>213</ele>
        <time>2018-10-23T12:38:14Z</time>
      </trkpt>
      <trkpt lat="47.63921" lon="6.13028">
        <ele>213</ele>
        <time>2018-10-23T12:38:16Z</time>
      </trkpt>
      <trkpt lat="47.6392" lon="6.13018">
        <ele>213</ele>
        <time>2018-10-23T12:38:18Z</time>
      </trkpt>
      <trkpt lat="47.63919" lon="6.13008">
        <ele>212</ele>
        <time>2018-10-23T12:38:20Z</time>
      </trkpt>
      <trkpt lat="47.63918" lon="6.12998">
        <ele>212</ele>
        <time>2018-10-23T12:38:22Z</time>
      </trkpt>
      <trkpt lat="47.63917" lon="6.12988">
        <ele>212</ele>
        <time>2018-10-23T12:38:24Z</time>
      </trkpt>
      <trkpt lat="47.63916" lon="6.12977">
        <ele>212</ele>
        <time>2018-10-23T12:38:26Z</time>
      </trkpt>
      <trkpt lat="47.63915" lon="6.12968">
        <ele>212</ele>
        <time>2018-10-23T12:38:27Z</time>
      </trkpt>
      <trkpt lat="47.63915" lon="6.12959">
        <ele>212</ele>
        <time>2018-10-23T12:38:29Z</time>
      </trkpt>
      <trkpt lat="47.63913" lon="6.12948">
        <ele>212</ele>
        <time>2018-10-23T12:38:31Z</time>
      </trkpt>
      <trkpt lat="47.63912" lon="6.12937">
        <ele>212</ele>
        <time>2018-10-23T12:38:33Z</time>
      </trkpt>
      <trkpt lat="47.63911" lon="6.12926">
        <ele>212</ele>
        <time>2018-10-23T12:38:34Z</time>
      </trkpt>
      <trkpt lat="47.6391" lon="6.12919">
        <ele>212</ele>
        <time>2018-10-23T12:38:36Z</time>
      </trkpt>
      <trkpt lat="47.63909" lon="6.12911">
        <ele>212</ele>
        <time>2018-10-23T12:38:38Z</time>
      </trkpt>
      <trkpt lat="47.63908" lon="6.12901">
        <ele>212</ele>
        <time>2018-10-23T12:38:40Z</time>
      </trkpt>
      <trkpt lat="47.63907" lon="6.12892">
        <ele>212</ele>
        <time>2018-10-23T12:38:42Z</time>
      </trkpt>
      <trkpt lat="47.63906" lon="6.12883">
        <ele>212</ele>
        <time>2018-10-23T12:38:44Z</time>
      </trkpt>
      <trkpt lat="47.63905" lon="6.12874">
        <ele>212</ele>
        <time>2018-10-23T12:38:46Z</time>
      </trkpt>
      <trkpt lat="47.63904" lon="6.12865">
        <ele>212</ele>
        <time>2018-10-23T12:38:48Z</time>
      </trkpt>
      <trkpt lat="47.63904" lon="6.12855">
        <ele>212</ele>
        <time>2018-10-23T12:38:50Z</time>
      </trkpt>
      <trkpt lat="47.63903" lon="6.12846">
        <ele>212</ele>
        <time>2018-10-23T12:38:52Z</time>
      </trkpt>
      <trkpt lat="47.63902" lon="6.12837">
        <ele>212</ele>
        <time>2018-10-23T12:38:54Z</time>
      </trkpt>
      <trkpt lat="47.63901" lon="6.12827">
        <ele>212</ele>
        <time>2018-10-23T12:38:56Z</time>
      </trkpt>
      <trkpt lat="47.63901" lon="6.12817">
        <ele>212</ele>
        <time>2018-10-23T12:38:58Z</time>
      </trkpt>
      <trkpt lat="47.639" lon="6.12808">
        <ele>211</ele>
        <time>2018-10-23T12:39:00Z</time>
      </trkpt>
      <trkpt lat="47.63899" lon="6.12799">
        <ele>211</ele>
        <time>2018-10-23T12:39:02Z</time>
      </trkpt>
      <trkpt lat="47.63899" lon="6.1279">
        <ele>211</ele>
        <time>2018-10-23T12:39:04Z</time>
      </trkpt>
      <trkpt lat="47.63898" lon="6.1278">
        <ele>211</ele>
        <time>2018-10-23T12:39:06Z</time>
      </trkpt>
      <trkpt lat="47.63897" lon="6.12771">
        <ele>211</ele>
        <time>2018-10-23T12:39:08Z</time>
      </trkpt>
      <trkpt lat="47.63894" lon="6.12763">
        <ele>211</ele>
        <time>2018-10-23T12:39:10Z</time>
      </trkpt>
      <trkpt lat="47.63888" lon="6.12759">
        <ele>211</ele>
        <time>2018-10-23T12:39:12Z</time>
      </trkpt>
      <trkpt lat="47.63882" lon="6.12759">
        <ele>211</ele>
        <time>2018-10-23T12:39:14Z</time>
      </trkpt>
      <trkpt lat="47.63876" lon="6.1276">
        <ele>211</ele>
        <time>2018-10-23T12:39:16Z</time>
      </trkpt>
      <trkpt lat="47.63869" lon="6.12761">
        <ele>211</ele>
        <time>2018-10-23T12:39:18Z</time>
      </trkpt>
      <trkpt lat="47.63862" lon="6.12763">
        <ele>211</ele>
        <time>2018-10-23T12:39:20Z</time>
      </trkpt>
      <trkpt lat="47.63855" lon="6.12765">
        <ele>211</ele>
        <time>2018-10-23T12:39:22Z</time>
      </trkpt>
      <trkpt lat="47.63849" lon="6.12765">
        <ele>211</ele>
        <time>2018-10-23T12:39:24Z</time>
      </trkpt>
      <trkpt lat="47.63842" lon="6.12765">
        <ele>211</ele>
        <time>2018-10-23T12:39:26Z</time>
      </trkpt>
      <trkpt lat="47.63835" lon="6.12767">
        <ele>211</ele>
        <time>2018-10-23T12:39:28Z</time>
      </trkpt>
      <trkpt lat="47.63828" lon="6.12768">
        <ele>211</ele>
        <time>2018-10-23T12:39:30Z</time>
      </trkpt>
      <trkpt lat="47.63821" lon="6.12769">
        <ele>211</ele>
        <time>2018-10-23T12:39:32Z</time>
      </trkpt>
      <trkpt lat="47.63815" lon="6.1277">
        <ele>211</ele>
        <time>2018-10-23T12:39:34Z</time>
      </trkpt>
      <trkpt lat="47.63808" lon="6.12771">
        <ele>211</ele>
        <time>2018-10-23T12:39:36Z</time>
      </trkpt>
      <trkpt lat="47.63801" lon="6.12772">
        <ele>211</ele>
        <time>2018-10-23T12:39:38Z</time>
      </trkpt>
      <trkpt lat="47.63794" lon="6.12774">
        <ele>211</ele>
        <time>2018-10-23T12:39:40Z</time>
      </trkpt>
      <trkpt lat="47.63788" lon="6.12776">
        <ele>211</ele>
        <time>2018-10-23T12:39:42Z</time>
      </trkpt>
      <trkpt lat="47.63781" lon="6.12777">
        <ele>211</ele>
        <time>2018-10-23T12:39:44Z</time>
      </trkpt>
      <trkpt lat="47.63775" lon="6.12778">
        <ele>211</ele>
        <time>2018-10-23T12:39:46Z</time>
      </trkpt>
      <trkpt lat="47.63768" lon="6.12778">
        <ele>211</ele>
        <time>2018-10-23T12:39:48Z</time>
      </trkpt>
      <trkpt lat="47.6376" lon="6.1278">
        <ele>211</ele>
        <time>2018-10-23T12:39:50Z</time>
      </trkpt>
      <trkpt lat="47.63754" lon="6.12782">
        <ele>211</ele>
        <time>2018-10-23T12:39:52Z</time>
      </trkpt>
      <trkpt lat="47.63746" lon="6.12783">
        <ele>212</ele>
        <time>2018-10-23T12:39:54Z</time>
      </trkpt>
      <trkpt lat="47.63739" lon="6.12784">
        <ele>212</ele>
        <time>2018-10-23T12:39:56Z</time>
      </trkpt>
      <trkpt lat="47.63732" lon="6.12784">
        <ele>212</ele>
        <time>2018-10-23T12:39:58Z</time>
      </trkpt>
      <trkpt lat="47.63724" lon="6.12785">
        <ele>212</ele>
        <time>2018-10-23T12:40:00Z</time>
      </trkpt>
      <trkpt lat="47.63717" lon="6.12786">
        <ele>212</ele>
        <time>2018-10-23T12:40:02Z</time>
      </trkpt>
      <trkpt lat="47.63711" lon="6.12788">
        <ele>212</ele>
        <time>2018-10-23T12:40:04Z</time>
      </trkpt>
      <trkpt lat="47.63704" lon="6.12789">
        <ele>212</ele>
        <time>2018-10-23T12:40:06Z</time>
      </trkpt>
      <trkpt lat="47.63698" lon="6.12791">
        <ele>212</ele>
        <time>2018-10-23T12:40:08Z</time>
      </trkpt>
      <trkpt lat="47.63692" lon="6.12791">
        <ele>212</ele>
        <time>2018-10-23T12:40:10Z</time>
      </trkpt>
      <trkpt lat="47.63685" lon="6.12792">
        <ele>212</ele>
        <time>2018-10-23T12:40:12Z</time>
      </trkpt>
      <trkpt lat="47.63679" lon="6.12794">
        <ele>212</ele>
        <time>2018-10-23T12:40:14Z</time>
      </trkpt>
      <trkpt lat="47.63672" lon="6.12795">
        <ele>213</ele>
        <time>2018-10-23T12:40:16Z</time>
      </trkpt>
      <trkpt lat="47.63666" lon="6.12796">
        <ele>213</ele>
        <time>2018-10-23T12:40:18Z</time>
      </trkpt>
      <trkpt lat="47.63659" lon="6.12798">
        <ele>213</ele>
        <time>2018-10-23T12:40:20Z</time>
      </trkpt>
      <trkpt lat="47.63653" lon="6.12798">
        <ele>213</ele>
        <time>2018-10-23T12:40:22Z</time>
      </trkpt>
      <trkpt lat="47.63646" lon="6.12799">
        <ele>213</ele>
        <time>2018-10-23T12:40:24Z</time>
      </trkpt>
      <trkpt lat="47.63639" lon="6.128">
        <ele>213</ele>
        <time>2018-10-23T12:40:26Z</time>
      </trkpt>
      <trkpt lat="47.63632" lon="6.128">
        <ele>213</ele>
        <time>2018-10-23T12:40:28Z</time>
      </trkpt>
      <trkpt lat="47.63626" lon="6.12801">
        <ele>213</ele>
        <time>2018-10-23T12:40:30Z</time>
      </trkpt>
      <trkpt lat="47.63619" lon="6.12801">
        <ele>213</ele>
        <time>2018-10-23T12:40:32Z</time>
      </trkpt>
      <trkpt lat="47.63612" lon="6.12802">
        <ele>213</ele>
        <time>2018-10-23T12:40:34Z</time>
      </trkpt>
      <trkpt lat="47.63605" lon="6.12803">
        <ele>213</ele>
        <time>2018-10-23T12:40:36Z</time>
      </trkpt>
      <trkpt lat="47.63598" lon="6.12805">
        <ele>213</ele>
        <time>2018-10-23T12:40:38Z</time>
      </trkpt>
      <trkpt lat="47.63589" lon="6.12806">
        <ele>213</ele>
        <time>2018-10-23T12:40:39Z</time>
      </trkpt>
      <trkpt lat="47.63584" lon="6.12808">
        <ele>213</ele>
        <time>2018-10-23T12:40:40Z</time>
      </trkpt>
      <trkpt lat="47.63579" lon="6.1281">
        <ele>213</ele>
        <time>2018-10-23T12:40:41Z</time>
      </trkpt>
      <trkpt lat="47.63575" lon="6.12815">
        <ele>213</ele>
        <time>2018-10-23T12:40:42Z</time>
      </trkpt>
      <trkpt lat="47.63571" lon="6.12821">
        <ele>213</ele>
        <time>2018-10-23T12:40:43Z</time>
      </trkpt>
      <trkpt lat="47.63569" lon="6.12827">
        <ele>213</ele>
        <time>2018-10-23T12:40:44Z</time>
      </trkpt>
      <trkpt lat="47.63568" lon="6.12834">
        <ele>213</ele>
        <time>2018-10-23T12:40:45Z</time>
      </trkpt>
      <trkpt lat="47.63566" lon="6.12841">
        <ele>213</ele>
        <time>2018-10-23T12:40:46Z</time>
      </trkpt>
      <trkpt lat="47.63564" lon="6.12848">
        <ele>213</ele>
        <time>2018-10-23T12:40:47Z</time>
      </trkpt>
      <trkpt lat="47.63563" lon="6.12856">
        <ele>214</ele>
        <time>2018-10-23T12:40:48Z</time>
      </trkpt>
      <trkpt lat="47.63561" lon="6.12864">
        <ele>214</ele>
        <time>2018-10-23T12:40:49Z</time>
      </trkpt>
      <trkpt lat="47.63559" lon="6.12872">
        <ele>214</ele>
        <time>2018-10-23T12:40:50Z</time>
      </trkpt>
      <trkpt lat="47.63557" lon="6.1288">
        <ele>214</ele>
        <time>2018-10-23T12:40:51Z</time>
      </trkpt>
      <trkpt lat="47.63555" lon="6.12887">
        <ele>214</ele>
        <time>2018-10-23T12:40:52Z</time>
      </trkpt>
      <trkpt lat="47.63553" lon="6.12894">
        <ele>214</ele>
        <time>2018-10-23T12:40:53Z</time>
      </trkpt>
      <trkpt lat="47.63552" lon="6.12901">
        <ele>214</ele>
        <time>2018-10-23T12:40:54Z</time>
      </trkpt>
      <trkpt lat="47.6355" lon="6.12908">
        <ele>214</ele>
        <time>2018-10-23T12:40:55Z</time>
      </trkpt>
      <trkpt lat="47.63547" lon="6.1292">
        <ele>215</ele>
        <time>2018-10-23T12:40:57Z</time>
      </trkpt>
      <trkpt lat="47.63545" lon="6.12932">
        <ele>215</ele>
        <time>2018-10-23T12:40:59Z</time>
      </trkpt>
      <trkpt lat="47.63542" lon="6.12943">
        <ele>215</ele>
        <time>2018-10-23T12:41:01Z</time>
      </trkpt>
      <trkpt lat="47.63537" lon="6.12953">
        <ele>215</ele>
        <time>2018-10-23T12:41:03Z</time>
      </trkpt>
      <trkpt lat="47.63532" lon="6.12962">
        <ele>215</ele>
        <time>2018-10-23T12:41:05Z</time>
      </trkpt>
      <trkpt lat="47.63526" lon="6.12969">
        <ele>215</ele>
        <time>2018-10-23T12:41:07Z</time>
      </trkpt>
      <trkpt lat="47.63519" lon="6.12977">
        <ele>215</ele>
        <time>2018-10-23T12:41:09Z</time>
      </trkpt>
      <trkpt lat="47.63512" lon="6.12984">
        <ele>215</ele>
        <time>2018-10-23T12:41:11Z</time>
      </trkpt>
      <trkpt lat="47.63505" lon="6.1299">
        <ele>216</ele>
        <time>2018-10-23T12:41:13Z</time>
      </trkpt>
      <trkpt lat="47.63497" lon="6.12997">
        <ele>216</ele>
        <time>2018-10-23T12:41:15Z</time>
      </trkpt>
      <trkpt lat="47.6349" lon="6.13003">
        <ele>215</ele>
        <time>2018-10-23T12:41:17Z</time>
      </trkpt>
      <trkpt lat="47.63483" lon="6.13009">
        <ele>215</ele>
        <time>2018-10-23T12:41:19Z</time>
      </trkpt>
      <trkpt lat="47.63475" lon="6.13015">
        <ele>215</ele>
        <time>2018-10-23T12:41:21Z</time>
      </trkpt>
      <trkpt lat="47.63468" lon="6.13021">
        <ele>215</ele>
        <time>2018-10-23T12:41:23Z</time>
      </trkpt>
      <trkpt lat="47.63461" lon="6.13025">
        <ele>214</ele>
        <time>2018-10-23T12:41:25Z</time>
      </trkpt>
      <trkpt lat="47.63454" lon="6.1303">
        <ele>214</ele>
        <time>2018-10-23T12:41:27Z</time>
      </trkpt>
      <trkpt lat="47.63448" lon="6.13033">
        <ele>214</ele>
        <time>2018-10-23T12:41:29Z</time>
      </trkpt>
      <trkpt lat="47.6344" lon="6.13036">
        <ele>214</ele>
        <time>2018-10-23T12:41:31Z</time>
      </trkpt>
      <trkpt lat="47.63433" lon="6.13037">
        <ele>214</ele>
        <time>2018-10-23T12:41:33Z</time>
      </trkpt>
      <trkpt lat="47.63426" lon="6.13038">
        <ele>214</ele>
        <time>2018-10-23T12:41:35Z</time>
      </trkpt>
      <trkpt lat="47.63419" lon="6.1304">
        <ele>214</ele>
        <time>2018-10-23T12:41:37Z</time>
      </trkpt>
      <trkpt lat="47.63411" lon="6.13041">
        <ele>213</ele>
        <time>2018-10-23T12:41:39Z</time>
      </trkpt>
      <trkpt lat="47.63404" lon="6.13042">
        <ele>212</ele>
        <time>2018-10-23T12:41:41Z</time>
      </trkpt>
      <trkpt lat="47.63397" lon="6.13044">
        <ele>212</ele>
        <time>2018-10-23T12:41:43Z</time>
      </trkpt>
      <trkpt lat="47.6339" lon="6.13047">
        <ele>212</ele>
        <time>2018-10-23T12:41:45Z</time>
      </trkpt>
      <trkpt lat="47.63384" lon="6.13051">
        <ele>212</ele>
        <time>2018-10-23T12:41:47Z</time>
      </trkpt>
      <trkpt lat="47.63377" lon="6.13055">
        <ele>212</ele>
        <time>2018-10-23T12:41:49Z</time>
      </trkpt>
      <trkpt lat="47.63372" lon="6.13058">
        <ele>212</ele>
        <time>2018-10-23T12:41:51Z</time>
      </trkpt>
      <trkpt lat="47.63364" lon="6.13063">
        <ele>212</ele>
        <time>2018-10-23T12:41:53Z</time>
      </trkpt>
      <trkpt lat="47.63357" lon="6.13067">
        <ele>212</ele>
        <time>2018-10-23T12:41:56Z</time>
      </trkpt>
      <trkpt lat="47.63351" lon="6.13071">
        <ele>212</ele>
        <time>2018-10-23T12:41:58Z</time>
      </trkpt>
      <trkpt lat="47.63344" lon="6.13075">
        <ele>212</ele>
        <time>2018-10-23T12:42:00Z</time>
      </trkpt>
      <trkpt lat="47.63337" lon="6.1308">
        <ele>212</ele>
        <time>2018-10-23T12:42:02Z</time>
      </trkpt>
      <trkpt lat="47.63332" lon="6.13085">
        <ele>212</ele>
        <time>2018-10-23T12:42:04Z</time>
      </trkpt>
      <trkpt lat="47.63326" lon="6.1309">
        <ele>212</ele>
        <time>2018-10-23T12:42:06Z</time>
      </trkpt>
      <trkpt lat="47.63319" lon="6.13095">
        <ele>212</ele>
        <time>2018-10-23T12:42:08Z</time>
      </trkpt>
      <trkpt lat="47.63314" lon="6.131">
        <ele>213</ele>
        <time>2018-10-23T12:42:10Z</time>
      </trkpt>
      <trkpt lat="47.63308" lon="6.13105">
        <ele>213</ele>
        <time>2018-10-23T12:42:12Z</time>
      </trkpt>
      <trkpt lat="47.63303" lon="6.1311">
        <ele>213</ele>
        <time>2018-10-23T12:42:14Z</time>
      </trkpt>
      <trkpt lat="47.63297" lon="6.13112">
        <ele>213</ele>
        <time>2018-10-23T12:42:16Z</time>
      </trkpt>
      <trkpt lat="47.63293" lon="6.13108">
        <ele>213</ele>
        <time>2018-10-23T12:42:18Z</time>
      </trkpt>
      <trkpt lat="47.63291" lon="6.13101">
        <ele>213</ele>
        <time>2018-10-23T12:42:20Z</time>
      </trkpt>
      <trkpt lat="47.63288" lon="6.13094">
        <ele>213</ele>
        <time>2018-10-23T12:42:22Z</time>
      </trkpt>
      <trkpt lat="47.63286" lon="6.13086">
        <ele>213</ele>
        <time>2018-10-23T12:42:24Z</time>
      </trkpt>
      <trkpt lat="47.63284" lon="6.13079">
        <ele>213</ele>
        <time>2018-10-23T12:42:26Z</time>
      </trkpt>
      <trkpt lat="47.63282" lon="6.13072">
        <ele>213</ele>
        <time>2018-10-23T12:42:28Z</time>
      </trkpt>
      <trkpt lat="47.63279" lon="6.13065">
        <ele>214</ele>
        <time>2018-10-23T12:42:30Z</time>
      </trkpt>
      <trkpt lat="47.63274" lon="6.1306">
        <ele>214</ele>
        <time>2018-10-23T12:42:32Z</time>
      </trkpt>
      <trkpt lat="47.63268" lon="6.13056">
        <ele>214</ele>
        <time>2018-10-23T12:42:34Z</time>
      </trkpt>
      <trkpt lat="47.63261" lon="6.13054">
        <ele>214</ele>
        <time>2018-10-23T12:42:36Z</time>
      </trkpt>
      <trkpt lat="47.63254" lon="6.13055">
        <ele>214</ele>
        <time>2018-10-23T12:42:38Z</time>
      </trkpt>
      <trkpt lat="47.63247" lon="6.13057">
        <ele>215</ele>
        <time>2018-10-23T12:42:40Z</time>
      </trkpt>
      <trkpt lat="47.63241" lon="6.13061">
        <ele>215</ele>
        <time>2018-10-23T12:42:42Z</time>
      </trkpt>
      <trkpt lat="47.63236" lon="6.13064">
        <ele>215</ele>
        <time>2018-10-23T12:42:44Z</time>
      </trkpt>
      <trkpt lat="47.6323" lon="6.13066">
        <ele>215</ele>
        <time>2018-10-23T12:42:46Z</time>
      </trkpt>
      <trkpt lat="47.63224" lon="6.13063">
        <ele>215</ele>
        <time>2018-10-23T12:42:48Z</time>
      </trkpt>
      <trkpt lat="47.6322" lon="6.13055">
        <ele>215</ele>
        <time>2018-10-23T12:42:50Z</time>
      </trkpt>
      <trkpt lat="47.63216" lon="6.13046">
        <ele>215</ele>
        <time>2018-10-23T12:42:52Z</time>
      </trkpt>
      <trkpt lat="47.63216" lon="6.13036">
        <ele>215</ele>
        <time>2018-10-23T12:42:54Z</time>
      </trkpt>
      <trkpt lat="47.63219" lon="6.13027">
        <ele>215</ele>
        <time>2018-10-23T12:42:56Z</time>
      </trkpt>
      <trkpt lat="47.63224" lon="6.1302">
        <ele>215</ele>
        <time>2018-10-23T12:42:58Z</time>
      </trkpt>
      <trkpt lat="47.6323" lon="6.13013">
        <ele>215</ele>
        <time>2018-10-23T12:43:00Z</time>
      </trkpt>
      <trkpt lat="47.63235" lon="6.13006">
        <ele>215</ele>
        <time>2018-10-23T12:43:02Z</time>
      </trkpt>
      <trkpt lat="47.63241" lon="6.12997">
        <ele>215</ele>
        <time>2018-10-23T12:43:04Z</time>
      </trkpt>
      <trkpt lat="47.63244" lon="6.12987">
        <ele>215</ele>
        <time>2018-10-23T12:43:06Z</time>
      </trkpt>
      <trkpt lat="47.63247" lon="6.12978">
        <ele>215</ele>
        <time>2018-10-23T12:43:08Z</time>
      </trkpt>
      <trkpt lat="47.63249" lon="6.12969">
        <ele>215</ele>
        <time>2018-10-23T12:43:10Z</time>
      </trkpt>
      <trkpt lat="47.63251" lon="6.12958">
        <ele>215</ele>
        <time>2018-10-23T12:43:12Z</time>
      </trkpt>
      <trkpt lat="47.63251" lon="6.12948">
        <ele>215</ele>
        <time>2018-10-23T12:43:14Z</time>
      </trkpt>
      <trkpt lat="47.63251" lon="6.1294">
        <ele>215</ele>
        <time>2018-10-23T12:43:16Z</time>
      </trkpt>
      <trkpt lat="47.63251" lon="6.1293">
        <ele>216</ele>
        <time>2018-10-23T12:43:18Z</time>
      </trkpt>
      <trkpt lat="47.6325" lon="6.12919">
        <ele>216</ele>
        <time>2018-10-23T12:43:20Z</time>
      </trkpt>
      <trkpt lat="47.63248" lon="6.12908">
        <ele>216</ele>
        <time>2018-10-23T12:43:22Z</time>
      </trkpt>
      <trkpt lat="47.63245" lon="6.12899">
        <ele>215</ele>
        <time>2018-10-23T12:43:24Z</time>
      </trkpt>
      <trkpt lat="47.63242" lon="6.12893">
        <ele>215</ele>
        <time>2018-10-23T12:43:25Z</time>
      </trkpt>
      <trkpt lat="47.63238" lon="6.12888">
        <ele>215</ele>
        <time>2018-10-23T12:43:27Z</time>
      </trkpt>
      <trkpt lat="47.63232" lon="6.12882">
        <ele>215</ele>
        <time>2018-10-23T12:43:29Z</time>
      </trkpt>
      <trkpt lat="47.63224" lon="6.12877">
        <ele>215</ele>
        <time>2018-10-23T12:43:31Z</time>
      </trkpt>
      <trkpt lat="47.63218" lon="6.12874">
        <ele>215</ele>
        <time>2018-10-23T12:43:33Z</time>
      </trkpt>
      <trkpt lat="47.63212" lon="6.1287">
        <ele>215</ele>
        <time>2018-10-23T12:43:35Z</time>
      </trkpt>
      <trkpt lat="47.63206" lon="6.12864">
        <ele>215</ele>
        <time>2018-10-23T12:43:37Z</time>
      </trkpt>
      <trkpt lat="47.632" lon="6.12858">
        <ele>215</ele>
        <time>2018-10-23T12:43:39Z</time>
      </trkpt>
      <trkpt lat="47.63195" lon="6.12851">
        <ele>215</ele>
        <time>2018-10-23T12:43:41Z</time>
      </trkpt>
      <trkpt lat="47.6319" lon="6.12843">
        <ele>214</ele>
        <time>2018-10-23T12:43:43Z</time>
      </trkpt>
      <trkpt lat="47.63186" lon="6.12833">
        <ele>214</ele>
        <time>2018-10-23T12:43:45Z</time>
      </trkpt>
      <trkpt lat="47.63183" lon="6.12823">
        <ele>214</ele>
        <time>2018-10-23T12:43:47Z</time>
      </trkpt>
      <trkpt lat="47.6318" lon="6.12811">
        <ele>214</ele>
        <time>2018-10-23T12:43:49Z</time>
      </trkpt>
      <trkpt lat="47.63179" lon="6.12799">
        <ele>214</ele>
        <time>2018-10-23T12:43:51Z</time>
      </trkpt>
      <trkpt lat="47.63178" lon="6.12786">
        <ele>214</ele>
        <time>2018-10-23T12:43:52Z</time>
      </trkpt>
      <trkpt lat="47.63178" lon="6.12779">
        <ele>215</ele>
        <time>2018-10-23T12:43:53Z</time>
      </trkpt>
      <trkpt lat="47.6318" lon="6.12767">
        <ele>215</ele>
        <time>2018-10-23T12:43:55Z</time>
      </trkpt>
      <trkpt lat="47.63184" lon="6.12757">
        <ele>215</ele>
        <time>2018-10-23T12:43:57Z</time>
      </trkpt>
      <trkpt lat="47.63189" lon="6.12748">
        <ele>215</ele>
        <time>2018-10-23T12:43:59Z</time>
      </trkpt>
      <trkpt lat="47.63194" lon="6.12738">
        <ele>215</ele>
        <time>2018-10-23T12:44:01Z</time>
      </trkpt>
      <trkpt lat="47.632" lon="6.12729">
        <ele>215</ele>
        <time>2018-10-23T12:44:03Z</time>
      </trkpt>
      <trkpt lat="47.63206" lon="6.12721">
        <ele>214</ele>
        <time>2018-10-23T12:44:05Z</time>
      </trkpt>
      <trkpt lat="47.63212" lon="6.12713">
        <ele>214</ele>
        <time>2018-10-23T12:44:07Z</time>
      </trkpt>
      <trkpt lat="47.63217" lon="6.12705">
        <ele>214</ele>
        <time>2018-10-23T12:44:09Z</time>
      </trkpt>
      <trkpt lat="47.63222" lon="6.12698">
        <ele>214</ele>
        <time>2018-10-23T12:44:11Z</time>
      </trkpt>
      <trkpt lat="47.63227" lon="6.12689">
        <ele>214</ele>
        <time>2018-10-23T12:44:13Z</time>
      </trkpt>
      <trkpt lat="47.63231" lon="6.1268">
        <ele>214</ele>
        <time>2018-10-23T12:44:15Z</time>
      </trkpt>
      <trkpt lat="47.63235" lon="6.12671">
        <ele>214</ele>
        <time>2018-10-23T12:44:17Z</time>
      </trkpt>
      <trkpt lat="47.63239" lon="6.12662">
        <ele>214</ele>
        <time>2018-10-23T12:44:19Z</time>
      </trkpt>
      <trkpt lat="47.63243" lon="6.12652">
        <ele>214</ele>
        <time>2018-10-23T12:44:21Z</time>
      </trkpt>
      <trkpt lat="47.63245" lon="6.12642">
        <ele>214</ele>
        <time>2018-10-23T12:44:23Z</time>
      </trkpt>
      <trkpt lat="47.63247" lon="6.12634">
        <ele>214</ele>
        <time>2018-10-23T12:44:25Z</time>
      </trkpt>
      <trkpt lat="47.63248" lon="6.12627">
        <ele>214</ele>
        <time>2018-10-23T12:44:27Z</time>
      </trkpt>
      <trkpt lat="47.6325" lon="6.12617">
        <ele>214</ele>
        <time>2018-10-23T12:44:29Z</time>
      </trkpt>
      <trkpt lat="47.63251" lon="6.12607">
        <ele>214</ele>
        <time>2018-10-23T12:44:31Z</time>
      </trkpt>
      <trkpt lat="47.63253" lon="6.12596">
        <ele>215</ele>
        <time>2018-10-23T12:44:33Z</time>
      </trkpt>
      <trkpt lat="47.63254" lon="6.12584">
        <ele>215</ele>
        <time>2018-10-23T12:44:35Z</time>
      </trkpt>
      <trkpt lat="47.63255" lon="6.12573">
        <ele>215</ele>
        <time>2018-10-23T12:44:37Z</time>
      </trkpt>
      <trkpt lat="47.63256" lon="6.12562">
        <ele>214</ele>
        <time>2018-10-23T12:44:39Z</time>
      </trkpt>
      <trkpt lat="47.63257" lon="6.1255">
        <ele>214</ele>
        <time>2018-10-23T12:44:41Z</time>
      </trkpt>
      <trkpt lat="47.63258" lon="6.12539">
        <ele>214</ele>
        <time>2018-10-23T12:44:43Z</time>
      </trkpt>
      <trkpt lat="47.63259" lon="6.12527">
        <ele>214</ele>
        <time>2018-10-23T12:44:45Z</time>
      </trkpt>
      <trkpt lat="47.6326" lon="6.12515">
        <ele>214</ele>
        <time>2018-10-23T12:44:47Z</time>
      </trkpt>
      <trkpt lat="47.63262" lon="6.12503">
        <ele>215</ele>
        <time>2018-10-23T12:44:49Z</time>
      </trkpt>
      <trkpt lat="47.63264" lon="6.12496">
        <ele>215</ele>
        <time>2018-10-23T12:44:50Z</time>
      </trkpt>
      <trkpt lat="47.63266" lon="6.12487">
        <ele>215</ele>
        <time>2018-10-23T12:44:52Z</time>
      </trkpt>
      <trkpt lat="47.63269" lon="6.12477">
        <ele>215</ele>
        <time>2018-10-23T12:44:54Z</time>
      </trkpt>
      <trkpt lat="47.63273" lon="6.12462">
        <ele>216</ele>
        <time>2018-10-23T12:44:56Z</time>
      </trkpt>
      <trkpt lat="47.63276" lon="6.12451">
        <ele>216</ele>
        <time>2018-10-23T12:44:58Z</time>
      </trkpt>
      <trkpt lat="47.6328" lon="6.1244">
        <ele>216</ele>
        <time>2018-10-23T12:45:00Z</time>
      </trkpt>
      <trkpt lat="47.63283" lon="6.12431">
        <ele>216</ele>
        <time>2018-10-23T12:45:02Z</time>
      </trkpt>
      <trkpt lat="47.63287" lon="6.12422">
        <ele>216</ele>
        <time>2018-10-23T12:45:04Z</time>
      </trkpt>
      <trkpt lat="47.63291" lon="6.12412">
        <ele>215</ele>
        <time>2018-10-23T12:45:06Z</time>
      </trkpt>
      <trkpt lat="47.63294" lon="6.12404">
        <ele>215</ele>
        <time>2018-10-23T12:45:08Z</time>
      </trkpt>
      <trkpt lat="47.63298" lon="6.12396">
        <ele>215</ele>
        <time>2018-10-23T12:45:10Z</time>
      </trkpt>
      <trkpt lat="47.63301" lon="6.12389">
        <ele>214</ele>
        <time>2018-10-23T12:45:12Z</time>
      </trkpt>
      <trkpt lat="47.63305" lon="6.12381">
        <ele>214</ele>
        <time>2018-10-23T12:45:14Z</time>
      </trkpt>
      <trkpt lat="47.63309" lon="6.12373">
        <ele>214</ele>
        <time>2018-10-23T12:45:16Z</time>
      </trkpt>
      <trkpt lat="47.63315" lon="6.12366">
        <ele>214</ele>
        <time>2018-10-23T12:45:18Z</time>
      </trkpt>
      <trkpt lat="47.63321" lon="6.12361">
        <ele>213</ele>
        <time>2018-10-23T12:45:20Z</time>
      </trkpt>
      <trkpt lat="47.63329" lon="6.12355">
        <ele>213</ele>
        <time>2018-10-23T12:45:22Z</time>
      </trkpt>
      <trkpt lat="47.63334" lon="6.12353">
        <ele>213</ele>
        <time>2018-10-23T12:45:24Z</time>
      </trkpt>
      <trkpt lat="47.63341" lon="6.1235">
        <ele>213</ele>
        <time>2018-10-23T12:45:26Z</time>
      </trkpt>
      <trkpt lat="47.63348" lon="6.12348">
        <ele>213</ele>
        <time>2018-10-23T12:45:28Z</time>
      </trkpt>
      <trkpt lat="47.63354" lon="6.12346">
        <ele>214</ele>
        <time>2018-10-23T12:45:30Z</time>
      </trkpt>
      <trkpt lat="47.63361" lon="6.12344">
        <ele>214</ele>
        <time>2018-10-23T12:45:32Z</time>
      </trkpt>
      <trkpt lat="47.63367" lon="6.12343">
        <ele>214</ele>
        <time>2018-10-23T12:45:34Z</time>
      </trkpt>
      <trkpt lat="47.63374" lon="6.12342">
        <ele>214</ele>
        <time>2018-10-23T12:45:36Z</time>
      </trkpt>
      <trkpt lat="47.63381" lon="6.1234">
        <ele>215</ele>
        <time>2018-10-23T12:45:38Z</time>
      </trkpt>
      <trkpt lat="47.63388" lon="6.12339">
        <ele>215</ele>
        <time>2018-10-23T12:45:40Z</time>
      </trkpt>
      <trkpt lat="47.63395" lon="6.12338">
        <ele>215</ele>
        <time>2018-10-23T12:45:42Z</time>
      </trkpt>
      <trkpt lat="47.63402" lon="6.12337">
        <ele>215</ele>
        <time>2018-10-23T12:45:44Z</time>
      </trkpt>
      <trkpt lat="47.63408" lon="6.12336">
        <ele>215</ele>
        <time>2018-10-23T12:45:46Z</time>
      </trkpt>
      <trkpt lat="47.63415" lon="6.12335">
        <ele>216</ele>
        <time>2018-10-23T12:45:48Z</time>
      </trkpt>
      <trkpt lat="47.63422" lon="6.12334">
        <ele>216</ele>
        <time>2018-10-23T12:45:50Z</time>
      </trkpt>
      <trkpt lat="47.63429" lon="6.12333">
        <ele>215</ele>
        <time>2018-10-23T12:45:52Z</time>
      </trkpt>
      <trkpt lat="47.63436" lon="6.12332">
        <ele>215</ele>
        <time>2018-10-23T12:45:54Z</time>
      </trkpt>
      <trkpt lat="47.63443" lon="6.12332">
        <ele>214</ele>
        <time>2018-10-23T12:45:56Z</time>
      </trkpt>
      <trkpt lat="47.6345" lon="6.12331">
        <ele>214</ele>
        <time>2018-10-23T12:45:58Z</time>
      </trkpt>
      <trkpt lat="47.63457" lon="6.12331">
        <ele>214</ele>
        <time>2018-10-23T12:46:00Z</time>
      </trkpt>
      <trkpt lat="47.63464" lon="6.12332">
        <ele>214</ele>
        <time>2018-10-23T12:46:02Z</time>
      </trkpt>
      <trkpt lat="47.63471" lon="6.12332">
        <ele>214</ele>
        <time>2018-10-23T12:46:04Z</time>
      </trkpt>
      <trkpt lat="47.63478" lon="6.12333">
        <ele>214</ele>
        <time>2018-10-23T12:46:06Z</time>
      </trkpt>
      <trkpt lat="47.63485" lon="6.12333">
        <ele>215</ele>
        <time>2018-10-23T12:46:08Z</time>
      </trkpt>
      <trkpt lat="47.63491" lon="6.12334">
        <ele>216</ele>
        <time>2018-10-23T12:46:10Z</time>
      </trkpt>
      <trkpt lat="47.63498" lon="6.12334">
        <ele>216</ele>
        <time>2018-10-23T12:46:12Z</time>
      </trkpt>
      <trkpt lat="47.63505" lon="6.12334">
        <ele>216</ele>
        <time>2018-10-23T12:46:14Z</time>
      </trkpt>
      <trkpt lat="47.63513" lon="6.12333">
        <ele>215</ele>
        <time>2018-10-23T12:46:16Z</time>
      </trkpt>
      <trkpt lat="47.6352" lon="6.12332">
        <ele>214</ele>
        <time>2018-10-23T12:46:18Z</time>
      </trkpt>
      <trkpt lat="47.63526" lon="6.1233">
        <ele>214</ele>
        <time>2018-10-23T12:46:20Z</time>
      </trkpt>
      <trkpt lat="47.63533" lon="6.12328">
        <ele>213</ele>
        <time>2018-10-23T12:46:22Z</time>
      </trkpt>
      <trkpt lat="47.6354" lon="6.12324">
        <ele>213</ele>
        <time>2018-10-23T12:46:24Z</time>
      </trkpt>
      <trkpt lat="47.63547" lon="6.12319">
        <ele>213</ele>
        <time>2018-10-23T12:46:26Z</time>
      </trkpt>
      <trkpt lat="47.63554" lon="6.12315">
        <ele>213</ele>
        <time>2018-10-23T12:46:28Z</time>
      </trkpt>
      <trkpt lat="47.63561" lon="6.12309">
        <ele>212</ele>
        <time>2018-10-23T12:46:30Z</time>
      </trkpt>
      <trkpt lat="47.63568" lon="6.12304">
        <ele>212</ele>
        <time>2018-10-23T12:46:32Z</time>
      </trkpt>
      <trkpt lat="47.63575" lon="6.12299">
        <ele>212</ele>
        <time>2018-10-23T12:46:34Z</time>
      </trkpt>
      <trkpt lat="47.63583" lon="6.12295">
        <ele>212</ele>
        <time>2018-10-23T12:46:35Z</time>
      </trkpt>
      <trkpt lat="47.6359" lon="6.12291">
        <ele>212</ele>
        <time>2018-10-23T12:46:37Z</time>
      </trkpt>
      <trkpt lat="47.63598" lon="6.12288">
        <ele>212</ele>
        <time>2018-10-23T12:46:39Z</time>
      </trkpt>
      <trkpt lat="47.63606" lon="6.12285">
        <ele>212</ele>
        <time>2018-10-23T12:46:41Z</time>
      </trkpt>
      <trkpt lat="47.63614" lon="6.12284">
        <ele>212</ele>
        <time>2018-10-23T12:46:43Z</time>
      </trkpt>
      <trkpt lat="47.63621" lon="6.12282">
        <ele>212</ele>
        <time>2018-10-23T12:46:45Z</time>
      </trkpt>
      <trkpt lat="47.63629" lon="6.12282">
        <ele>212</ele>
        <time>2018-10-23T12:46:47Z</time>
      </trkpt>
      <trkpt lat="47.63637" lon="6.12282">
        <ele>212</ele>
        <time>2018-10-23T12:46:49Z</time>
      </trkpt>
      <trkpt lat="47.63644" lon="6.12283">
        <ele>212</ele>
        <time>2018-10-23T12:46:51Z</time>
      </trkpt>
      <trkpt lat="47.63651" lon="6.12284">
        <ele>212</ele>
        <time>2018-10-23T12:46:53Z</time>
      </trkpt>
      <trkpt lat="47.6366" lon="6.12284">
        <ele>212</ele>
        <time>2018-10-23T12:46:55Z</time>
      </trkpt>
      <trkpt lat="47.63668" lon="6.12285">
        <ele>212</ele>
        <time>2018-10-23T12:46:57Z</time>
      </trkpt>
      <trkpt lat="47.63676" lon="6.12286">
        <ele>212</ele>
        <time>2018-10-23T12:46:59Z</time>
      </trkpt>
      <trkpt lat="47.63684" lon="6.12287">
        <ele>212</ele>
        <time>2018-10-23T12:47:01Z</time>
      </trkpt>
      <trkpt lat="47.63692" lon="6.12288">
        <ele>212</ele>
        <time>2018-10-23T12:47:03Z</time>
      </trkpt>
      <trkpt lat="47.63699" lon="6.12286">
        <ele>212</ele>
        <time>2018-10-23T12:47:05Z</time>
      </trkpt>
      <trkpt lat="47.63707" lon="6.12285">
        <ele>212</ele>
        <time>2018-10-23T12:47:07Z</time>
      </trkpt>
      <trkpt lat="47.63715" lon="6.12285">
        <ele>212</ele>
        <time>2018-10-23T12:47:09Z</time>
      </trkpt>
      <trkpt lat="47.63723" lon="6.12286">
        <ele>212</ele>
        <time>2018-10-23T12:47:11Z</time>
      </trkpt>
      <trkpt lat="47.63731" lon="6.12285">
        <ele>212</ele>
        <time>2018-10-23T12:47:13Z</time>
      </trkpt>
      <trkpt lat="47.63739" lon="6.12283">
        <ele>212</ele>
        <time>2018-10-23T12:47:15Z</time>
      </trkpt>
      <trkpt lat="47.63747" lon="6.12282">
        <ele>212</ele>
        <time>2018-10-23T12:47:17Z</time>
      </trkpt>
      <trkpt lat="47.63754" lon="6.12281">
        <ele>211</ele>
        <time>2018-10-23T12:47:19Z</time>
      </trkpt>
      <trkpt lat="47.63762" lon="6.12279">
        <ele>211</ele>
        <time>2018-10-23T12:47:21Z</time>
      </trkpt>
      <trkpt lat="47.63769" lon="6.12276">
        <ele>211</ele>
        <time>2018-10-23T12:47:23Z</time>
      </trkpt>
      <trkpt lat="47.63776" lon="6.12274">
        <ele>211</ele>
        <time>2018-10-23T12:47:25Z</time>
      </trkpt>
      <trkpt lat="47.63783" lon="6.12272">
        <ele>211</ele>
        <time>2018-10-23T12:47:27Z</time>
      </trkpt>
      <trkpt lat="47.6379" lon="6.1227">
        <ele>211</ele>
        <time>2018-10-23T12:47:29Z</time>
      </trkpt>
      <trkpt lat="47.63795" lon="6.12268">
        <ele>212</ele>
        <time>2018-10-23T12:47:31Z</time>
      </trkpt>
      <trkpt lat="47.63801" lon="6.12266">
        <ele>212</ele>
        <time>2018-10-23T12:47:33Z</time>
      </trkpt>
      <trkpt lat="47.63808" lon="6.12264">
        <ele>212</ele>
        <time>2018-10-23T12:47:35Z</time>
      </trkpt>
      <trkpt lat="47.63816" lon="6.12262">
        <ele>212</ele>
        <time>2018-10-23T12:47:37Z</time>
      </trkpt>
      <trkpt lat="47.63823" lon="6.12259">
        <ele>212</ele>
        <time>2018-10-23T12:47:39Z</time>
      </trkpt>
      <trkpt lat="47.6383" lon="6.12257">
        <ele>212</ele>
        <time>2018-10-23T12:47:41Z</time>
      </trkpt>
      <trkpt lat="47.63837" lon="6.12254">
        <ele>212</ele>
        <time>2018-10-23T12:47:43Z</time>
      </trkpt>
      <trkpt lat="47.63845" lon="6.12251">
        <ele>212</ele>
        <time>2018-10-23T12:47:44Z</time>
      </trkpt>
      <trkpt lat="47.63853" lon="6.12248">
        <ele>212</ele>
        <time>2018-10-23T12:47:46Z</time>
      </trkpt>
      <trkpt lat="47.63861" lon="6.12245">
        <ele>212</ele>
        <time>2018-10-23T12:47:48Z</time>
      </trkpt>
      <trkpt lat="47.63868" lon="6.12241">
        <ele>212</ele>
        <time>2018-10-23T12:47:50Z</time>
      </trkpt>
      <trkpt lat="47.63876" lon="6.12238">
        <ele>212</ele>
        <time>2018-10-23T12:47:52Z</time>
      </trkpt>
      <trkpt lat="47.63883" lon="6.12234">
        <ele>212</ele>
        <time>2018-10-23T12:47:54Z</time>
      </trkpt>
      <trkpt lat="47.63891" lon="6.1223">
        <ele>212</ele>
        <time>2018-10-23T12:47:56Z</time>
      </trkpt>
      <trkpt lat="47.63898" lon="6.12225">
        <ele>212</ele>
        <time>2018-10-23T12:47:58Z</time>
      </trkpt>
      <trkpt lat="47.63905" lon="6.1222">
        <ele>212</ele>
        <time>2018-10-23T12:48:00Z</time>
      </trkpt>
      <trkpt lat="47.63912" lon="6.12214">
        <ele>212</ele>
        <time>2018-10-23T12:48:02Z</time>
      </trkpt>
      <trkpt lat="47.63919" lon="6.12205">
        <ele>213</ele>
        <time>2018-10-23T12:48:04Z</time>
      </trkpt>
      <trkpt lat="47.63925" lon="6.12197">
        <ele>213</ele>
        <time>2018-10-23T12:48:06Z</time>
      </trkpt>
      <trkpt lat="47.63931" lon="6.12189">
        <ele>213</ele>
        <time>2018-10-23T12:48:08Z</time>
      </trkpt>
      <trkpt lat="47.63936" lon="6.12181">
        <ele>213</ele>
        <time>2018-10-23T12:48:10Z</time>
      </trkpt>
      <trkpt lat="47.63941" lon="6.12173">
        <ele>213</ele>
        <time>2018-10-23T12:48:12Z</time>
      </trkpt>
      <trkpt lat="47.63946" lon="6.12165">
        <ele>212</ele>
        <time>2018-10-23T12:48:14Z</time>
      </trkpt>
      <trkpt lat="47.63951" lon="6.12156">
        <ele>212</ele>
        <time>2018-10-23T12:48:16Z</time>
      </trkpt>
      <trkpt lat="47.63955" lon="6.12147">
        <ele>212</ele>
        <time>2018-10-23T12:48:18Z</time>
      </trkpt>
      <trkpt lat="47.63959" lon="6.12138">
        <ele>212</ele>
        <time>2018-10-23T12:48:20Z</time>
      </trkpt>
      <trkpt lat="47.63963" lon="6.12129">
        <ele>212</ele>
        <time>2018-10-23T12:48:22Z</time>
      </trkpt>
      <trkpt lat="47.63967" lon="6.1212">
        <ele>212</ele>
        <time>2018-10-23T12:48:24Z</time>
      </trkpt>
      <trkpt lat="47.6397" lon="6.1211">
        <ele>212</ele>
        <time>2018-10-23T12:48:26Z</time>
      </trkpt>
      <trkpt lat="47.63973" lon="6.121">
        <ele>212</ele>
        <time>2018-10-23T12:48:28Z</time>
      </trkpt>
      <trkpt lat="47.63976" lon="6.12088">
        <ele>212</ele>
        <time>2018-10-23T12:48:30Z</time>
      </trkpt>
      <trkpt lat="47.63979" lon="6.12077">
        <ele>211</ele>
        <time>2018-10-23T12:48:32Z</time>
      </trkpt>
      <trkpt lat="47.63981" lon="6.12066">
        <ele>211</ele>
        <time>2018-10-23T12:48:34Z</time>
      </trkpt>
      <trkpt lat="47.63983" lon="6.12055">
        <ele>211</ele>
        <time>2018-10-23T12:48:36Z</time>
      </trkpt>
      <trkpt lat="47.63984" lon="6.12044">
        <ele>211</ele>
        <time>2018-10-23T12:48:38Z</time>
      </trkpt>
      <trkpt lat="47.63986" lon="6.12033">
        <ele>211</ele>
        <time>2018-10-23T12:48:40Z</time>
      </trkpt>
      <trkpt lat="47.63987" lon="6.12022">
        <ele>211</ele>
        <time>2018-10-23T12:48:42Z</time>
      </trkpt>
      <trkpt lat="47.63987" lon="6.1201">
        <ele>212</ele>
        <time>2018-10-23T12:48:44Z</time>
      </trkpt>
      <trkpt lat="47.63988" lon="6.11999">
        <ele>212</ele>
        <time>2018-10-23T12:48:46Z</time>
      </trkpt>
      <trkpt lat="47.63988" lon="6.11988">
        <ele>212</ele>
        <time>2018-10-23T12:48:48Z</time>
      </trkpt>
      <trkpt lat="47.63988" lon="6.11976">
        <ele>212</ele>
        <time>2018-10-23T12:48:50Z</time>
      </trkpt>
      <trkpt lat="47.63987" lon="6.11965">
        <ele>212</ele>
        <time>2018-10-23T12:48:52Z</time>
      </trkpt>
      <trkpt lat="47.63986" lon="6.11953">
        <ele>212</ele>
        <time>2018-10-23T12:48:54Z</time>
      </trkpt>
      <trkpt lat="47.63985" lon="6.11941">
        <ele>212</ele>
        <time>2018-10-23T12:48:56Z</time>
      </trkpt>
      <trkpt lat="47.63983" lon="6.1193">
        <ele>212</ele>
        <time>2018-10-23T12:48:58Z</time>
      </trkpt>
      <trkpt lat="47.6398" lon="6.11919">
        <ele>212</ele>
        <time>2018-10-23T12:49:00Z</time>
      </trkpt>
      <trkpt lat="47.63977" lon="6.11908">
        <ele>212</ele>
        <time>2018-10-23T12:49:02Z</time>
      </trkpt>
      <trkpt lat="47.63975" lon="6.11897">
        <ele>212</ele>
        <time>2018-10-23T12:49:04Z</time>
      </trkpt>
      <trkpt lat="47.63971" lon="6.11885">
        <ele>212</ele>
        <time>2018-10-23T12:49:06Z</time>
      </trkpt>
      <trkpt lat="47.63968" lon="6.11873">
        <ele>212</ele>
        <time>2018-10-23T12:49:08Z</time>
      </trkpt>
      <trkpt lat="47.63965" lon="6.11861">
        <ele>212</ele>
        <time>2018-10-23T12:49:10Z</time>
      </trkpt>
      <trkpt lat="47.63961" lon="6.1185">
        <ele>212</ele>
        <time>2018-10-23T12:49:12Z</time>
      </trkpt>
      <trkpt lat="47.63957" lon="6.11839">
        <ele>211</ele>
        <time>2018-10-23T12:49:14Z</time>
      </trkpt>
      <trkpt lat="47.63953" lon="6.11828">
        <ele>212</ele>
        <time>2018-10-23T12:49:16Z</time>
      </trkpt>
      <trkpt lat="47.63949" lon="6.11817">
        <ele>212</ele>
        <time>2018-10-23T12:49:18Z</time>
      </trkpt>
      <trkpt lat="47.63944" lon="6.11808">
        <ele>212</ele>
        <time>2018-10-23T12:49:20Z</time>
      </trkpt>
      <trkpt lat="47.63939" lon="6.11798">
        <ele>212</ele>
        <time>2018-10-23T12:49:22Z</time>
      </trkpt>
      <trkpt lat="47.63935" lon="6.11788">
        <ele>212</ele>
        <time>2018-10-23T12:49:24Z</time>
      </trkpt>
      <trkpt lat="47.6393" lon="6.11779">
        <ele>213</ele>
        <time>2018-10-23T12:49:26Z</time>
      </trkpt>
      <trkpt lat="47.63925" lon="6.11769">
        <ele>213</ele>
        <time>2018-10-23T12:49:28Z</time>
      </trkpt>
      <trkpt lat="47.6392" lon="6.1176">
        <ele>214</ele>
        <time>2018-10-23T12:49:30Z</time>
      </trkpt>
      <trkpt lat="47.63916" lon="6.1175">
        <ele>215</ele>
        <time>2018-10-23T12:49:32Z</time>
      </trkpt>
      <trkpt lat="47.63911" lon="6.11741">
        <ele>214</ele>
        <time>2018-10-23T12:49:34Z</time>
      </trkpt>
      <trkpt lat="47.63907" lon="6.11732">
        <ele>213</ele>
        <time>2018-10-23T12:49:36Z</time>
      </trkpt>
      <trkpt lat="47.63903" lon="6.11723">
        <ele>213</ele>
        <time>2018-10-23T12:49:38Z</time>
      </trkpt>
      <trkpt lat="47.63899" lon="6.11714">
        <ele>213</ele>
        <time>2018-10-23T12:49:40Z</time>
      </trkpt>
      <trkpt lat="47.63895" lon="6.11705">
        <ele>212</ele>
        <time>2018-10-23T12:49:42Z</time>
      </trkpt>
      <trkpt lat="47.6389" lon="6.11695">
        <ele>212</ele>
        <time>2018-10-23T12:49:44Z</time>
      </trkpt>
      <trkpt lat="47.63886" lon="6.11685">
        <ele>212</ele>
        <time>2018-10-23T12:49:46Z</time>
      </trkpt>
      <trkpt lat="47.63882" lon="6.11676">
        <ele>212</ele>
        <time>2018-10-23T12:49:48Z</time>
      </trkpt>
      <trkpt lat="47.63878" lon="6.11666">
        <ele>212</ele>
        <time>2018-10-23T12:49:50Z</time>
      </trkpt>
      <trkpt lat="47.63874" lon="6.11656">
        <ele>212</ele>
        <time>2018-10-23T12:49:52Z</time>
      </trkpt>
      <trkpt lat="47.6387" lon="6.11646">
        <ele>212</ele>
        <time>2018-10-23T12:49:54Z</time>
      </trkpt>
      <trkpt lat="47.63867" lon="6.11636">
        <ele>212</ele>
        <time>2018-10-23T12:49:56Z</time>
      </trkpt>
      <trkpt lat="47.63863" lon="6.11626">
        <ele>212</ele>
        <time>2018-10-23T12:49:58Z</time>
      </trkpt>
      <trkpt lat="47.63859" lon="6.11616">
        <ele>212</ele>
        <time>2018-10-23T12:50:00Z</time>
      </trkpt>
      <trkpt lat="47.63855" lon="6.11605">
        <ele>212</ele>
        <time>2018-10-23T12:50:02Z</time>
      </trkpt>
      <trkpt lat="47.63851" lon="6.11594">
        <ele>212</ele>
        <time>2018-10-23T12:50:04Z</time>
      </trkpt>
      <trkpt lat="47.63846" lon="6.11584">
        <ele>212</ele>
        <time>2018-10-23T12:50:06Z</time>
      </trkpt>
      <trkpt lat="47.63841" lon="6.11574">
        <ele>212</ele>
        <time>2018-10-23T12:50:08Z</time>
      </trkpt>
      <trkpt lat="47.63837" lon="6.11564">
        <ele>213</ele>
        <time>2018-10-23T12:50:10Z</time>
      </trkpt>
      <trkpt lat="47.63833" lon="6.11555">
        <ele>212</ele>
        <time>2018-10-23T12:50:12Z</time>
      </trkpt>
      <trkpt lat="47.6383" lon="6.11545">
        <ele>212</ele>
        <time>2018-10-23T12:50:14Z</time>
      </trkpt>
      <trkpt lat="47.63828" lon="6.11536">
        <ele>213</ele>
        <time>2018-10-23T12:50:16Z</time>
      </trkpt>
      <trkpt lat="47.63826" lon="6.11528">
        <ele>213</ele>
        <time>2018-10-23T12:50:18Z</time>
      </trkpt>
      <trkpt lat="47.63823" lon="6.11523">
        <ele>213</ele>
        <time>2018-10-23T12:50:59Z</time>
      </trkpt>
      <trkpt lat="47.63827" lon="6.11518">
        <ele>213</ele>
        <time>2018-10-23T12:52:54Z</time>
      </trkpt>
      <trkpt lat="47.63831" lon="6.11514">
        <ele>214</ele>
        <time>2018-10-23T12:52:56Z</time>
      </trkpt>
      <trkpt lat="47.63836" lon="6.11508">
        <ele>214</ele>
        <time>2018-10-23T12:52:58Z</time>
      </trkpt>
      <trkpt lat="47.63841" lon="6.11502">
        <ele>214</ele>
        <time>2018-10-23T12:53:00Z</time>
      </trkpt>
      <trkpt lat="47.63847" lon="6.11498">
        <ele>214</ele>
        <time>2018-10-23T12:53:02Z</time>
      </trkpt>
      <trkpt lat="47.63851" lon="6.11493">
        <ele>214</ele>
        <time>2018-10-23T12:53:04Z</time>
      </trkpt>
      <trkpt lat="47.63856" lon="6.11488">
        <ele>214</ele>
        <time>2018-10-23T12:53:06Z</time>
      </trkpt>
      <trkpt lat="47.63861" lon="6.11482">
        <ele>213</ele>
        <time>2018-10-23T12:53:08Z</time>
      </trkpt>
      <trkpt lat="47.63866" lon="6.11476">
        <ele>213</ele>
        <time>2018-10-23T12:53:10Z</time>
      </trkpt>
      <trkpt lat="47.63872" lon="6.11469">
        <ele>213</ele>
        <time>2018-10-23T12:53:12Z</time>
      </trkpt>
      <trkpt lat="47.63876" lon="6.11463">
        <ele>213</ele>
        <time>2018-10-23T12:53:14Z</time>
      </trkpt>
      <trkpt lat="47.63881" lon="6.11457">
        <ele>213</ele>
        <time>2018-10-23T12:53:16Z</time>
      </trkpt>
      <trkpt lat="47.63886" lon="6.1145">
        <ele>213</ele>
        <time>2018-10-23T12:53:18Z</time>
      </trkpt>
      <trkpt lat="47.6389" lon="6.11442">
        <ele>213</ele>
        <time>2018-10-23T12:53:20Z</time>
      </trkpt>
      <trkpt lat="47.63894" lon="6.11434">
        <ele>213</ele>
        <time>2018-10-23T12:53:22Z</time>
      </trkpt>
      <trkpt lat="47.63898" lon="6.11424">
        <ele>213</ele>
        <time>2018-10-23T12:53:24Z</time>
      </trkpt>
      <trkpt lat="47.63902" lon="6.11414">
        <ele>213</ele>
        <time>2018-10-23T12:53:26Z</time>
      </trkpt>
      <trkpt lat="47.63904" lon="6.11408">
        <ele>213</ele>
        <time>2018-10-23T12:53:27Z</time>
      </trkpt>
      <trkpt lat="47.63908" lon="6.11399">
        <ele>213</ele>
        <time>2018-10-23T12:53:29Z</time>
      </trkpt>
      <trkpt lat="47.63911" lon="6.11389">
        <ele>213</ele>
        <time>2018-10-23T12:53:31Z</time>
      </trkpt>
      <trkpt lat="47.63914" lon="6.1138">
        <ele>213</ele>
        <time>2018-10-23T12:53:33Z</time>
      </trkpt>
      <trkpt lat="47.63917" lon="6.11371">
        <ele>213</ele>
        <time>2018-10-23T12:53:35Z</time>
      </trkpt>
      <trkpt lat="47.6392" lon="6.11362">
        <ele>213</ele>
        <time>2018-10-23T12:53:37Z</time>
      </trkpt>
      <trkpt lat="47.63922" lon="6.11352">
        <ele>214</ele>
        <time>2018-10-23T12:53:39Z</time>
      </trkpt>
      <trkpt lat="47.63924" lon="6.11341">
        <ele>214</ele>
        <time>2018-10-23T12:53:41Z</time>
      </trkpt>
      <trkpt lat="47.63925" lon="6.1133">
        <ele>214</ele>
        <time>2018-10-23T12:53:43Z</time>
      </trkpt>
      <trkpt lat="47.63926" lon="6.11319">
        <ele>213</ele>
        <time>2018-10-23T12:53:45Z</time>
      </trkpt>
      <trkpt lat="47.63925" lon="6.11308">
        <ele>213</ele>
        <time>2018-10-23T12:53:47Z</time>
      </trkpt>
      <trkpt lat="47.63925" lon="6.11298">
        <ele>212</ele>
        <time>2018-10-23T12:53:49Z</time>
      </trkpt>
      <trkpt lat="47.63925" lon="6.11286">
        <ele>212</ele>
        <time>2018-10-23T12:53:51Z</time>
      </trkpt>
      <trkpt lat="47.63924" lon="6.11276">
        <ele>212</ele>
        <time>2018-10-23T12:53:53Z</time>
      </trkpt>
      <trkpt lat="47.63923" lon="6.11267">
        <ele>212</ele>
        <time>2018-10-23T12:53:55Z</time>
      </trkpt>
      <trkpt lat="47.63921" lon="6.11256">
        <ele>212</ele>
        <time>2018-10-23T12:53:57Z</time>
      </trkpt>
      <trkpt lat="47.63919" lon="6.11239">
        <ele>212</ele>
        <time>2018-10-23T12:53:59Z</time>
      </trkpt>
      <trkpt lat="47.63918" lon="6.11228">
        <ele>212</ele>
        <time>2018-10-23T12:54:01Z</time>
      </trkpt>
      <trkpt lat="47.63917" lon="6.11217">
        <ele>211</ele>
        <time>2018-10-23T12:54:03Z</time>
      </trkpt>
      <trkpt lat="47.63916" lon="6.11206">
        <ele>211</ele>
        <time>2018-10-23T12:54:05Z</time>
      </trkpt>
      <trkpt lat="47.63915" lon="6.11195">
        <ele>211</ele>
        <time>2018-10-23T12:54:07Z</time>
      </trkpt>
      <trkpt lat="47.63914" lon="6.11183">
        <ele>211</ele>
        <time>2018-10-23T12:54:09Z</time>
      </trkpt>
      <trkpt lat="47.63913" lon="6.1117">
        <ele>211</ele>
        <time>2018-10-23T12:54:11Z</time>
      </trkpt>
      <trkpt lat="47.63913" lon="6.11159">
        <ele>211</ele>
        <time>2018-10-23T12:54:13Z</time>
      </trkpt>
      <trkpt lat="47.63914" lon="6.11148">
        <ele>211</ele>
        <time>2018-10-23T12:54:15Z</time>
      </trkpt>
      <trkpt lat="47.63913" lon="6.11137">
        <ele>212</ele>
        <time>2018-10-23T12:54:17Z</time>
      </trkpt>
      <trkpt lat="47.63913" lon="6.11127">
        <ele>212</ele>
        <time>2018-10-23T12:54:19Z</time>
      </trkpt>
      <trkpt lat="47.63912" lon="6.11116">
        <ele>212</ele>
        <time>2018-10-23T12:54:21Z</time>
      </trkpt>
      <trkpt lat="47.63912" lon="6.11103">
        <ele>213</ele>
        <time>2018-10-23T12:54:23Z</time>
      </trkpt>
      <trkpt lat="47.63913" lon="6.11091">
        <ele>214</ele>
        <time>2018-10-23T12:54:25Z</time>
      </trkpt>
      <trkpt lat="47.63913" lon="6.1108">
        <ele>214</ele>
        <time>2018-10-23T12:54:27Z</time>
      </trkpt>
      <trkpt lat="47.63914" lon="6.11069">
        <ele>214</ele>
        <time>2018-10-23T12:54:29Z</time>
      </trkpt>
      <trkpt lat="47.63915" lon="6.11058">
        <ele>213</ele>
        <time>2018-10-23T12:54:31Z</time>
      </trkpt>
      <trkpt lat="47.63917" lon="6.11047">
        <ele>213</ele>
        <time>2018-10-23T12:54:33Z</time>
      </trkpt>
      <trkpt lat="47.6392" lon="6.11036">
        <ele>213</ele>
        <time>2018-10-23T12:54:35Z</time>
      </trkpt>
      <trkpt lat="47.63922" lon="6.11025">
        <ele>213</ele>
        <time>2018-10-23T12:54:37Z</time>
      </trkpt>
      <trkpt lat="47.63925" lon="6.11013">
        <ele>213</ele>
        <time>2018-10-23T12:54:39Z</time>
      </trkpt>
      <trkpt lat="47.63927" lon="6.11001">
        <ele>213</ele>
        <time>2018-10-23T12:54:41Z</time>
      </trkpt>
      <trkpt lat="47.63931" lon="6.1099">
        <ele>213</ele>
        <time>2018-10-23T12:54:43Z</time>
      </trkpt>
      <trkpt lat="47.63933" lon="6.10979">
        <ele>212</ele>
        <time>2018-10-23T12:54:45Z</time>
      </trkpt>
      <trkpt lat="47.63936" lon="6.10968">
        <ele>212</ele>
        <time>2018-10-23T12:54:47Z</time>
      </trkpt>
      <trkpt lat="47.63939" lon="6.10958">
        <ele>212</ele>
        <time>2018-10-23T12:54:49Z</time>
      </trkpt>
      <trkpt lat="47.63941" lon="6.10947">
        <ele>212</ele>
        <time>2018-10-23T12:54:51Z</time>
      </trkpt>
      <trkpt lat="47.63944" lon="6.10937">
        <ele>212</ele>
        <time>2018-10-23T12:54:53Z</time>
      </trkpt>
      <trkpt lat="47.63947" lon="6.10927">
        <ele>212</ele>
        <time>2018-10-23T12:54:55Z</time>
      </trkpt>
      <trkpt lat="47.63949" lon="6.10916">
        <ele>212</ele>
        <time>2018-10-23T12:54:57Z</time>
      </trkpt>
      <trkpt lat="47.6395" lon="6.10906">
        <ele>212</ele>
        <time>2018-10-23T12:54:59Z</time>
      </trkpt>
      <trkpt lat="47.63951" lon="6.10895">
        <ele>212</ele>
        <time>2018-10-23T12:55:01Z</time>
      </trkpt>
      <trkpt lat="47.6395" lon="6.10884">
        <ele>212</ele>
        <time>2018-10-23T12:55:03Z</time>
      </trkpt>
      <trkpt lat="47.63948" lon="6.10874">
        <ele>212</ele>
        <time>2018-10-23T12:55:05Z</time>
      </trkpt>
      <trkpt lat="47.63946" lon="6.10862">
        <ele>212</ele>
        <time>2018-10-23T12:55:07Z</time>
      </trkpt>
      <trkpt lat="47.63943" lon="6.10852">
        <ele>211</ele>
        <time>2018-10-23T12:55:09Z</time>
      </trkpt>
      <trkpt lat="47.6394" lon="6.10842">
        <ele>211</ele>
        <time>2018-10-23T12:55:11Z</time>
      </trkpt>
      <trkpt lat="47.63938" lon="6.10833">
        <ele>211</ele>
        <time>2018-10-23T12:55:13Z</time>
      </trkpt>
      <trkpt lat="47.63935" lon="6.10823">
        <ele>211</ele>
        <time>2018-10-23T12:55:15Z</time>
      </trkpt>
      <trkpt lat="47.63931" lon="6.10815">
        <ele>212</ele>
        <time>2018-10-23T12:55:17Z</time>
      </trkpt>
      <trkpt lat="47.63926" lon="6.10806">
        <ele>212</ele>
        <time>2018-10-23T12:55:19Z</time>
      </trkpt>
      <trkpt lat="47.63921" lon="6.10799">
        <ele>212</ele>
        <time>2018-10-23T12:55:21Z</time>
      </trkpt>
      <trkpt lat="47.63915" lon="6.10792">
        <ele>212</ele>
        <time>2018-10-23T12:55:23Z</time>
      </trkpt>
      <trkpt lat="47.63908" lon="6.10787">
        <ele>212</ele>
        <time>2018-10-23T12:55:25Z</time>
      </trkpt>
      <trkpt lat="47.63901" lon="6.10782">
        <ele>213</ele>
        <time>2018-10-23T12:55:27Z</time>
      </trkpt>
      <trkpt lat="47.63893" lon="6.10779">
        <ele>213</ele>
        <time>2018-10-23T12:55:29Z</time>
      </trkpt>
      <trkpt lat="47.63885" lon="6.10775">
        <ele>213</ele>
        <time>2018-10-23T12:55:31Z</time>
      </trkpt>
      <trkpt lat="47.63878" lon="6.10772">
        <ele>213</ele>
        <time>2018-10-23T12:55:33Z</time>
      </trkpt>
      <trkpt lat="47.6387" lon="6.10769">
        <ele>213</ele>
        <time>2018-10-23T12:55:35Z</time>
      </trkpt>
      <trkpt lat="47.63861" lon="6.10769">
        <ele>213</ele>
        <time>2018-10-23T12:55:37Z</time>
      </trkpt>
      <trkpt lat="47.63853" lon="6.10772">
        <ele>213</ele>
        <time>2018-10-23T12:55:39Z</time>
      </trkpt>
      <trkpt lat="47.63846" lon="6.10778">
        <ele>213</ele>
        <time>2018-10-23T12:55:41Z</time>
      </trkpt>
      <trkpt lat="47.63839" lon="6.10784">
        <ele>213</ele>
        <time>2018-10-23T12:55:43Z</time>
      </trkpt>
      <trkpt lat="47.63832" lon="6.10789">
        <ele>213</ele>
        <time>2018-10-23T12:55:45Z</time>
      </trkpt>
      <trkpt lat="47.63825" lon="6.10791">
        <ele>213</ele>
        <time>2018-10-23T12:55:47Z</time>
      </trkpt>
      <trkpt lat="47.63818" lon="6.10794">
        <ele>212</ele>
        <time>2018-10-23T12:55:49Z</time>
      </trkpt>
      <trkpt lat="47.6381" lon="6.10796">
        <ele>212</ele>
        <time>2018-10-23T12:55:51Z</time>
      </trkpt>
      <trkpt lat="47.63803" lon="6.10796">
        <ele>212</ele>
        <time>2018-10-23T12:55:53Z</time>
      </trkpt>
      <trkpt lat="47.63796" lon="6.10793">
        <ele>212</ele>
        <time>2018-10-23T12:55:55Z</time>
      </trkpt>
      <trkpt lat="47.63789" lon="6.10787">
        <ele>212</ele>
        <time>2018-10-23T12:55:57Z</time>
      </trkpt>
      <trkpt lat="47.63784" lon="6.10779">
        <ele>212</ele>
        <time>2018-10-23T12:55:59Z</time>
      </trkpt>
      <trkpt lat="47.63779" lon="6.10778">
        <ele>212</ele>
        <time>2018-10-23T12:56:01Z</time>
      </trkpt>
      <trkpt lat="47.63774" lon="6.10778">
        <ele>212</ele>
        <time>2018-10-23T12:56:03Z</time>
      </trkpt>
      <trkpt lat="47.6377" lon="6.10774">
        <ele>212</ele>
        <time>2018-10-23T12:56:05Z</time>
      </trkpt>
      <trkpt lat="47.63766" lon="6.10769">
        <ele>212</ele>
        <time>2018-10-23T12:56:07Z</time>
      </trkpt>
      <trkpt lat="47.6376" lon="6.10762">
        <ele>213</ele>
        <time>2018-10-23T12:56:09Z</time>
      </trkpt>
      <trkpt lat="47.63755" lon="6.1076">
        <ele>213</ele>
        <time>2018-10-23T12:56:11Z</time>
      </trkpt>
      <trkpt lat="47.63749" lon="6.10758">
        <ele>213</ele>
        <time>2018-10-23T12:56:13Z</time>
      </trkpt>
      <trkpt lat="47.63743" lon="6.10755">
        <ele>213</ele>
        <time>2018-10-23T12:56:15Z</time>
      </trkpt>
      <trkpt lat="47.63737" lon="6.10752">
        <ele>212</ele>
        <time>2018-10-23T12:56:17Z</time>
      </trkpt>
      <trkpt lat="47.63732" lon="6.10749">
        <ele>214</ele>
        <time>2018-10-23T12:56:19Z</time>
      </trkpt>
      <trkpt lat="47.63726" lon="6.10747">
        <ele>214</ele>
        <time>2018-10-23T12:56:21Z</time>
      </trkpt>
      <trkpt lat="47.6372" lon="6.10744">
        <ele>214</ele>
        <time>2018-10-23T12:56:23Z</time>
      </trkpt>
      <trkpt lat="47.63713" lon="6.10742">
        <ele>214</ele>
        <time>2018-10-23T12:56:25Z</time>
      </trkpt>
      <trkpt lat="47.63705" lon="6.10739">
        <ele>214</ele>
        <time>2018-10-23T12:56:27Z</time>
      </trkpt>
      <trkpt lat="47.63699" lon="6.10738">
        <ele>214</ele>
        <time>2018-10-23T12:56:29Z</time>
      </trkpt>
      <trkpt lat="47.63693" lon="6.10736">
        <ele>214</ele>
        <time>2018-10-23T12:56:31Z</time>
      </trkpt>
      <trkpt lat="47.63686" lon="6.10734">
        <ele>214</ele>
        <time>2018-10-23T12:56:33Z</time>
      </trkpt>
      <trkpt lat="47.6368" lon="6.10732">
        <ele>214</ele>
        <time>2018-10-23T12:56:35Z</time>
      </trkpt>
      <trkpt lat="47.63673" lon="6.1073">
        <ele>214</ele>
        <time>2018-10-23T12:56:37Z</time>
      </trkpt>
      <trkpt lat="47.63667" lon="6.10729">
        <ele>214</ele>
        <time>2018-10-23T12:56:38Z</time>
      </trkpt>
      <trkpt lat="47.6366" lon="6.10727">
        <ele>213</ele>
        <time>2018-10-23T12:56:41Z</time>
      </trkpt>
      <trkpt lat="47.63653" lon="6.10725">
        <ele>213</ele>
        <time>2018-10-23T12:56:43Z</time>
      </trkpt>
      <trkpt lat="47.63644" lon="6.10723">
        <ele>213</ele>
        <time>2018-10-23T12:56:45Z</time>
      </trkpt>
      <trkpt lat="47.63636" lon="6.10721">
        <ele>213</ele>
        <time>2018-10-23T12:56:46Z</time>
      </trkpt>
      <trkpt lat="47.63629" lon="6.10719">
        <ele>213</ele>
        <time>2018-10-23T12:56:48Z</time>
      </trkpt>
      <trkpt lat="47.63621" lon="6.10716">
        <ele>213</ele>
        <time>2018-10-23T12:56:50Z</time>
      </trkpt>
      <trkpt lat="47.63613" lon="6.10714">
        <ele>212</ele>
        <time>2018-10-23T12:56:52Z</time>
      </trkpt>
      <trkpt lat="47.63605" lon="6.10712">
        <ele>212</ele>
        <time>2018-10-23T12:56:54Z</time>
      </trkpt>
      <trkpt lat="47.63598" lon="6.1071">
        <ele>212</ele>
        <time>2018-10-23T12:56:56Z</time>
      </trkpt>
      <trkpt lat="47.6359" lon="6.10708">
        <ele>212</ele>
        <time>2018-10-23T12:56:57Z</time>
      </trkpt>
      <trkpt lat="47.63583" lon="6.10706">
        <ele>212</ele>
        <time>2018-10-23T12:56:59Z</time>
      </trkpt>
      <trkpt lat="47.63575" lon="6.10704">
        <ele>212</ele>
        <time>2018-10-23T12:57:01Z</time>
      </trkpt>
      <trkpt lat="47.63568" lon="6.10702">
        <ele>212</ele>
        <time>2018-10-23T12:57:03Z</time>
      </trkpt>
      <trkpt lat="47.63561" lon="6.107">
        <ele>212</ele>
        <time>2018-10-23T12:57:05Z</time>
      </trkpt>
      <trkpt lat="47.63554" lon="6.10698">
        <ele>212</ele>
        <time>2018-10-23T12:57:07Z</time>
      </trkpt>
      <trkpt lat="47.63547" lon="6.10696">
        <ele>212</ele>
        <time>2018-10-23T12:57:09Z</time>
      </trkpt>
      <trkpt lat="47.6354" lon="6.10694">
        <ele>212</ele>
        <time>2018-10-23T12:57:11Z</time>
      </trkpt>
      <trkpt lat="47.63533" lon="6.10692">
        <ele>212</ele>
        <time>2018-10-23T12:57:13Z</time>
      </trkpt>
      <trkpt lat="47.63528" lon="6.10691">
        <ele>212</ele>
        <time>2018-10-23T12:57:15Z</time>
      </trkpt>
      <trkpt lat="47.63522" lon="6.1069">
        <ele>212</ele>
        <time>2018-10-23T12:57:17Z</time>
      </trkpt>
      <trkpt lat="47.63516" lon="6.10688">
        <ele>212</ele>
        <time>2018-10-23T12:57:19Z</time>
      </trkpt>
      <trkpt lat="47.6351" lon="6.10686">
        <ele>213</ele>
        <time>2018-10-23T12:57:21Z</time>
      </trkpt>
      <trkpt lat="47.63502" lon="6.10684">
        <ele>213</ele>
        <time>2018-10-23T12:57:23Z</time>
      </trkpt>
      <trkpt lat="47.63494" lon="6.10683">
        <ele>213</ele>
        <time>2018-10-23T12:57:25Z</time>
      </trkpt>
      <trkpt lat="47.63488" lon="6.1068">
        <ele>213</ele>
        <time>2018-10-23T12:57:27Z</time>
      </trkpt>
      <trkpt lat="47.63482" lon="6.10675">
        <ele>213</ele>
        <time>2018-10-23T12:57:29Z</time>
      </trkpt>
      <trkpt lat="47.63476" lon="6.10669">
        <ele>213</ele>
        <time>2018-10-23T12:57:31Z</time>
      </trkpt>
      <trkpt lat="47.6347" lon="6.10664">
        <ele>214</ele>
        <time>2018-10-23T12:57:33Z</time>
      </trkpt>
      <trkpt lat="47.63458" lon="6.10659">
        <ele>214</ele>
        <time>2018-10-23T12:57:35Z</time>
      </trkpt>
      <trkpt lat="47.6345" lon="6.10657">
        <ele>213</ele>
        <time>2018-10-23T12:57:37Z</time>
      </trkpt>
      <trkpt lat="47.63441" lon="6.10655">
        <ele>213</ele>
        <time>2018-10-23T12:57:39Z</time>
      </trkpt>
      <trkpt lat="47.63433" lon="6.10653">
        <ele>213</ele>
        <time>2018-10-23T12:57:41Z</time>
      </trkpt>
      <trkpt lat="47.63426" lon="6.10652">
        <ele>213</ele>
        <time>2018-10-23T12:57:43Z</time>
      </trkpt>
      <trkpt lat="47.63419" lon="6.10651">
        <ele>213</ele>
        <time>2018-10-23T12:57:45Z</time>
      </trkpt>
      <trkpt lat="47.63413" lon="6.1065">
        <ele>213</ele>
        <time>2018-10-23T12:57:47Z</time>
      </trkpt>
      <trkpt lat="47.63408" lon="6.10649">
        <ele>214</ele>
        <time>2018-10-23T12:57:49Z</time>
      </trkpt>
      <trkpt lat="47.63403" lon="6.10647">
        <ele>214</ele>
        <time>2018-10-23T12:57:51Z</time>
      </trkpt>
      <trkpt lat="47.63397" lon="6.10645">
        <ele>214</ele>
        <time>2018-10-23T12:57:53Z</time>
      </trkpt>
      <trkpt lat="47.63392" lon="6.10641">
        <ele>214</ele>
        <time>2018-10-23T12:57:56Z</time>
      </trkpt>
      <trkpt lat="47.63388" lon="6.10635">
        <ele>214</ele>
        <time>2018-10-23T12:58:00Z</time>
      </trkpt>
      <trkpt lat="47.63388" lon="6.10626">
        <ele>214</ele>
        <time>2018-10-23T12:58:03Z</time>
      </trkpt>
      <trkpt lat="47.6339" lon="6.10619">
        <ele>214</ele>
        <time>2018-10-23T12:58:05Z</time>
      </trkpt>
      <trkpt lat="47.63391" lon="6.10608">
        <ele>214</ele>
        <time>2018-10-23T12:58:07Z</time>
      </trkpt>
      <trkpt lat="47.63392" lon="6.10598">
        <ele>214</ele>
        <time>2018-10-23T12:58:09Z</time>
      </trkpt>
      <trkpt lat="47.63393" lon="6.10587">
        <ele>214</ele>
        <time>2018-10-23T12:58:11Z</time>
      </trkpt>
      <trkpt lat="47.63393" lon="6.10575">
        <ele>214</ele>
        <time>2018-10-23T12:58:13Z</time>
      </trkpt>
      <trkpt lat="47.63394" lon="6.10566">
        <ele>214</ele>
        <time>2018-10-23T12:58:15Z</time>
      </trkpt>
      <trkpt lat="47.63394" lon="6.10556">
        <ele>214</ele>
        <time>2018-10-23T12:58:17Z</time>
      </trkpt>
      <trkpt lat="47.63394" lon="6.10547">
        <ele>214</ele>
        <time>2018-10-23T12:58:19Z</time>
      </trkpt>
      <trkpt lat="47.63395" lon="6.10538">
        <ele>214</ele>
        <time>2018-10-23T12:58:21Z</time>
      </trkpt>
      <trkpt lat="47.63395" lon="6.10529">
        <ele>214</ele>
        <time>2018-10-23T12:58:23Z</time>
      </trkpt>
      <trkpt lat="47.63395" lon="6.1052">
        <ele>214</ele>
        <time>2018-10-23T12:58:25Z</time>
      </trkpt>
      <trkpt lat="47.63396" lon="6.10511">
        <ele>214</ele>
        <time>2018-10-23T12:58:27Z</time>
      </trkpt>
      <trkpt lat="47.63396" lon="6.10502">
        <ele>214</ele>
        <time>2018-10-23T12:58:29Z</time>
      </trkpt>
      <trkpt lat="47.63396" lon="6.10494">
        <ele>214</ele>
        <time>2018-10-23T12:58:31Z</time>
      </trkpt>
      <trkpt lat="47.63396" lon="6.10485">
        <ele>214</ele>
        <time>2018-10-23T12:58:33Z</time>
      </trkpt>
      <trkpt lat="47.63395" lon="6.10476">
        <ele>214</ele>
        <time>2018-10-23T12:58:35Z</time>
      </trkpt>
      <trkpt lat="47.63394" lon="6.10467">
        <ele>214</ele>
        <time>2018-10-23T12:58:37Z</time>
      </trkpt>
      <trkpt lat="47.63391" lon="6.10458">
        <ele>214</ele>
        <time>2018-10-23T12:58:39Z</time>
      </trkpt>
      <trkpt lat="47.63387" lon="6.10449">
        <ele>214</ele>
        <time>2018-10-23T12:58:41Z</time>
      </trkpt>
      <trkpt lat="47.63382" lon="6.10441">
        <ele>214</ele>
        <time>2018-10-23T12:58:43Z</time>
      </trkpt>
      <trkpt lat="47.63377" lon="6.10433">
        <ele>214</ele>
        <time>2018-10-23T12:58:45Z</time>
      </trkpt>
      <trkpt lat="47.63371" lon="6.10425">
        <ele>214</ele>
        <time>2018-10-23T12:58:47Z</time>
      </trkpt>
      <trkpt lat="47.63367" lon="6.10417">
        <ele>215</ele>
        <time>2018-10-23T12:58:49Z</time>
      </trkpt>
      <trkpt lat="47.63364" lon="6.10407">
        <ele>215</ele>
        <time>2018-10-23T12:58:51Z</time>
      </trkpt>
      <trkpt lat="47.63362" lon="6.10397">
        <ele>215</ele>
        <time>2018-10-23T12:58:53Z</time>
      </trkpt>
      <trkpt lat="47.63362" lon="6.10387">
        <ele>215</ele>
        <time>2018-10-23T12:58:55Z</time>
      </trkpt>
      <trkpt lat="47.63364" lon="6.10378">
        <ele>215</ele>
        <time>2018-10-23T12:58:57Z</time>
      </trkpt>
      <trkpt lat="47.63366" lon="6.10368">
        <ele>215</ele>
        <time>2018-10-23T12:58:59Z</time>
      </trkpt>
      <trkpt lat="47.6337" lon="6.1036">
        <ele>215</ele>
        <time>2018-10-23T12:59:01Z</time>
      </trkpt>
      <trkpt lat="47.63374" lon="6.10352">
        <ele>215</ele>
        <time>2018-10-23T12:59:03Z</time>
      </trkpt>
      <trkpt lat="47.63379" lon="6.10343">
        <ele>215</ele>
        <time>2018-10-23T12:59:05Z</time>
      </trkpt>
      <trkpt lat="47.63383" lon="6.10335">
        <ele>215</ele>
        <time>2018-10-23T12:59:07Z</time>
      </trkpt>
      <trkpt lat="47.63387" lon="6.10326">
        <ele>216</ele>
        <time>2018-10-23T12:59:09Z</time>
      </trkpt>
      <trkpt lat="47.63392" lon="6.10316">
        <ele>216</ele>
        <time>2018-10-23T12:59:11Z</time>
      </trkpt>
      <trkpt lat="47.63399" lon="6.10302">
        <ele>216</ele>
        <time>2018-10-23T12:59:13Z</time>
      </trkpt>
      <trkpt lat="47.63404" lon="6.10293">
        <ele>216</ele>
        <time>2018-10-23T12:59:15Z</time>
      </trkpt>
      <trkpt lat="47.63408" lon="6.10285">
        <ele>216</ele>
        <time>2018-10-23T12:59:17Z</time>
      </trkpt>
      <trkpt lat="47.63412" lon="6.10277">
        <ele>216</ele>
        <time>2018-10-23T12:59:19Z</time>
      </trkpt>
      <trkpt lat="47.63415" lon="6.10271">
        <ele>216</ele>
        <time>2018-10-23T12:59:21Z</time>
      </trkpt>
      <trkpt lat="47.63419" lon="6.10264">
        <ele>216</ele>
        <time>2018-10-23T12:59:23Z</time>
      </trkpt>
      <trkpt lat="47.63422" lon="6.10256">
        <ele>216</ele>
        <time>2018-10-23T12:59:25Z</time>
      </trkpt>
      <trkpt lat="47.63426" lon="6.10249">
        <ele>216</ele>
        <time>2018-10-23T12:59:27Z</time>
      </trkpt>
      <trkpt lat="47.63429" lon="6.10242">
        <ele>216</ele>
        <time>2018-10-23T12:59:29Z</time>
      </trkpt>
      <trkpt lat="47.63432" lon="6.10234">
        <ele>215</ele>
        <time>2018-10-23T12:59:31Z</time>
      </trkpt>
      <trkpt lat="47.63431" lon="6.10227">
        <ele>215</ele>
        <time>2018-10-23T12:59:33Z</time>
      </trkpt>
      <trkpt lat="47.63429" lon="6.1022">
        <ele>215</ele>
        <time>2018-10-23T12:59:35Z</time>
      </trkpt>
      <trkpt lat="47.63424" lon="6.10215">
        <ele>215</ele>
        <time>2018-10-23T12:59:37Z</time>
      </trkpt>
      <trkpt lat="47.63419" lon="6.10211">
        <ele>215</ele>
        <time>2018-10-23T12:59:39Z</time>
      </trkpt>
      <trkpt lat="47.63414" lon="6.10207">
        <ele>216</ele>
        <time>2018-10-23T12:59:41Z</time>
      </trkpt>
      <trkpt lat="47.63409" lon="6.10203">
        <ele>216</ele>
        <time>2018-10-23T12:59:43Z</time>
      </trkpt>
      <trkpt lat="47.63404" lon="6.10198">
        <ele>216</ele>
        <time>2018-10-23T12:59:45Z</time>
      </trkpt>
      <trkpt lat="47.63399" lon="6.10194">
        <ele>216</ele>
        <time>2018-10-23T12:59:47Z</time>
      </trkpt>
      <trkpt lat="47.63393" lon="6.10191">
        <ele>216</ele>
        <time>2018-10-23T12:59:49Z</time>
      </trkpt>
      <trkpt lat="47.63387" lon="6.10187">
        <ele>216</ele>
        <time>2018-10-23T12:59:51Z</time>
      </trkpt>
      <trkpt lat="47.63381" lon="6.10183">
        <ele>216</ele>
        <time>2018-10-23T12:59:53Z</time>
      </trkpt>
      <trkpt lat="47.63376" lon="6.10179">
        <ele>216</ele>
        <time>2018-10-23T12:59:55Z</time>
      </trkpt>
      <trkpt lat="47.6338" lon="6.10175">
        <ele>216</ele>
        <time>2018-10-23T12:59:59Z</time>
      </trkpt>
      <trkpt lat="47.63386" lon="6.10178">
        <ele>216</ele>
        <time>2018-10-23T13:00:01Z</time>
      </trkpt>
      <trkpt lat="47.63395" lon="6.10175">
        <ele>216</ele>
        <time>2018-10-23T13:00:03Z</time>
      </trkpt>
      <trkpt lat="47.63399" lon="6.10172">
        <ele>216</ele>
        <time>2018-10-23T13:00:04Z</time>
      </trkpt>
      <trkpt lat="47.63405" lon="6.10164">
        <ele>216</ele>
        <time>2018-10-23T13:00:06Z</time>
      </trkpt>
      <trkpt lat="47.63411" lon="6.10156">
        <ele>216</ele>
        <time>2018-10-23T13:00:08Z</time>
      </trkpt>
      <trkpt lat="47.63414" lon="6.1015">
        <ele>216</ele>
        <time>2018-10-23T13:00:09Z</time>
      </trkpt>
      <trkpt lat="47.63419" lon="6.10141">
        <ele>215</ele>
        <time>2018-10-23T13:00:10Z</time>
      </trkpt>
      <trkpt lat="47.63424" lon="6.10131">
        <ele>215</ele>
        <time>2018-10-23T13:00:12Z</time>
      </trkpt>
      <trkpt lat="47.63429" lon="6.10121">
        <ele>215</ele>
        <time>2018-10-23T13:00:14Z</time>
      </trkpt>
      <trkpt lat="47.63435" lon="6.10112">
        <ele>215</ele>
        <time>2018-10-23T13:00:16Z</time>
      </trkpt>
      <trkpt lat="47.6344" lon="6.10104">
        <ele>215</ele>
        <time>2018-10-23T13:00:18Z</time>
      </trkpt>
      <trkpt lat="47.63445" lon="6.10097">
        <ele>215</ele>
        <time>2018-10-23T13:00:20Z</time>
      </trkpt>
      <trkpt lat="47.6345" lon="6.10089">
        <ele>215</ele>
        <time>2018-10-23T13:00:22Z</time>
      </trkpt>
      <trkpt lat="47.63455" lon="6.10082">
        <ele>214</ele>
        <time>2018-10-23T13:00:24Z</time>
      </trkpt>
      <trkpt lat="47.6346" lon="6.10074">
        <ele>214</ele>
        <time>2018-10-23T13:00:26Z</time>
      </trkpt>
      <trkpt lat="47.63464" lon="6.10065">
        <ele>214</ele>
        <time>2018-10-23T13:00:28Z</time>
      </trkpt>
      <trkpt lat="47.63469" lon="6.10057">
        <ele>214</ele>
        <time>2018-10-23T13:00:30Z</time>
      </trkpt>
      <trkpt lat="47.63473" lon="6.10048">
        <ele>214</ele>
        <time>2018-10-23T13:00:32Z</time>
      </trkpt>
      <trkpt lat="47.63477" lon="6.10038">
        <ele>214</ele>
        <time>2018-10-23T13:00:34Z</time>
      </trkpt>
      <trkpt lat="47.63481" lon="6.10029">
        <ele>214</ele>
        <time>2018-10-23T13:00:36Z</time>
      </trkpt>
      <trkpt lat="47.63485" lon="6.10019">
        <ele>214</ele>
        <time>2018-10-23T13:00:38Z</time>
      </trkpt>
      <trkpt lat="47.63488" lon="6.10008">
        <ele>214</ele>
        <time>2018-10-23T13:00:40Z</time>
      </trkpt>
      <trkpt lat="47.63492" lon="6.09997">
        <ele>213</ele>
        <time>2018-10-23T13:00:42Z</time>
      </trkpt>
      <trkpt lat="47.63496" lon="6.09986">
        <ele>213</ele>
        <time>2018-10-23T13:00:44Z</time>
      </trkpt>
      <trkpt lat="47.635" lon="6.09973">
        <ele>213</ele>
        <time>2018-10-23T13:00:46Z</time>
      </trkpt>
      <trkpt lat="47.63502" lon="6.09967">
        <ele>212</ele>
        <time>2018-10-23T13:00:47Z</time>
      </trkpt>
      <trkpt lat="47.63503" lon="6.0996">
        <ele>212</ele>
        <time>2018-10-23T13:00:48Z</time>
      </trkpt>
      <trkpt lat="47.63505" lon="6.09954">
        <ele>212</ele>
        <time>2018-10-23T13:00:49Z</time>
      </trkpt>
      <trkpt lat="47.63507" lon="6.09947">
        <ele>212</ele>
        <time>2018-10-23T13:00:50Z</time>
      </trkpt>
      <trkpt lat="47.63509" lon="6.0994">
        <ele>212</ele>
        <time>2018-10-23T13:00:51Z</time>
      </trkpt>
      <trkpt lat="47.6351" lon="6.09934">
        <ele>212</ele>
        <time>2018-10-23T13:00:52Z</time>
      </trkpt>
      <trkpt lat="47.63512" lon="6.09927">
        <ele>212</ele>
        <time>2018-10-23T13:00:53Z</time>
      </trkpt>
      <trkpt lat="47.63514" lon="6.0992">
        <ele>212</ele>
        <time>2018-10-23T13:00:54Z</time>
      </trkpt>
      <trkpt lat="47.63515" lon="6.09913">
        <ele>212</ele>
        <time>2018-10-23T13:00:55Z</time>
      </trkpt>
      <trkpt lat="47.63517" lon="6.09906">
        <ele>212</ele>
        <time>2018-10-23T13:00:56Z</time>
      </trkpt>
      <trkpt lat="47.63518" lon="6.099">
        <ele>212</ele>
        <time>2018-10-23T13:00:57Z</time>
      </trkpt>
      <trkpt lat="47.6352" lon="6.09893">
        <ele>212</ele>
        <time>2018-10-23T13:00:58Z</time>
      </trkpt>
      <trkpt lat="47.63521" lon="6.09887">
        <ele>212</ele>
        <time>2018-10-23T13:00:59Z</time>
      </trkpt>
      <trkpt lat="47.63524" lon="6.09874">
        <ele>212</ele>
        <time>2018-10-23T13:01:01Z</time>
      </trkpt>
      <trkpt lat="47.63527" lon="6.09862">
        <ele>212</ele>
        <time>2018-10-23T13:01:03Z</time>
      </trkpt>
      <trkpt lat="47.6353" lon="6.09849">
        <ele>212</ele>
        <time>2018-10-23T13:01:05Z</time>
      </trkpt>
      <trkpt lat="47.63533" lon="6.09837">
        <ele>212</ele>
        <time>2018-10-23T13:01:07Z</time>
      </trkpt>
      <trkpt lat="47.63534" lon="6.09831">
        <ele>211</ele>
        <time>2018-10-23T13:01:08Z</time>
      </trkpt>
      <trkpt lat="47.63536" lon="6.09824">
        <ele>211</ele>
        <time>2018-10-23T13:01:09Z</time>
      </trkpt>
      <trkpt lat="47.63538" lon="6.09817">
        <ele>211</ele>
        <time>2018-10-23T13:01:10Z</time>
      </trkpt>
      <trkpt lat="47.63539" lon="6.0981">
        <ele>211</ele>
        <time>2018-10-23T13:01:11Z</time>
      </trkpt>
      <trkpt lat="47.6354" lon="6.09803">
        <ele>211</ele>
        <time>2018-10-23T13:01:12Z</time>
      </trkpt>
      <trkpt lat="47.63542" lon="6.09795">
        <ele>211</ele>
        <time>2018-10-23T13:01:13Z</time>
      </trkpt>
      <trkpt lat="47.63543" lon="6.09788">
        <ele>211</ele>
        <time>2018-10-23T13:01:14Z</time>
      </trkpt>
      <trkpt lat="47.63544" lon="6.0978">
        <ele>211</ele>
        <time>2018-10-23T13:01:15Z</time>
      </trkpt>
      <trkpt lat="47.63545" lon="6.09772">
        <ele>211</ele>
        <time>2018-10-23T13:01:16Z</time>
      </trkpt>
      <trkpt lat="47.63546" lon="6.09765">
        <ele>211</ele>
        <time>2018-10-23T13:01:17Z</time>
      </trkpt>
      <trkpt lat="47.63547" lon="6.09757">
        <ele>211</ele>
        <time>2018-10-23T13:01:18Z</time>
      </trkpt>
      <trkpt lat="47.63548" lon="6.09749">
        <ele>211</ele>
        <time>2018-10-23T13:01:19Z</time>
      </trkpt>
      <trkpt lat="47.63549" lon="6.09742">
        <ele>211</ele>
        <time>2018-10-23T13:01:20Z</time>
      </trkpt>
      <trkpt lat="47.6355" lon="6.09734">
        <ele>211</ele>
        <time>2018-10-23T13:01:21Z</time>
      </trkpt>
      <trkpt lat="47.6355" lon="6.09727">
        <ele>211</ele>
        <time>2018-10-23T13:01:22Z</time>
      </trkpt>
      <trkpt lat="47.63551" lon="6.09719">
        <ele>211</ele>
        <time>2018-10-23T13:01:23Z</time>
      </trkpt>
      <trkpt lat="47.63552" lon="6.09712">
        <ele>211</ele>
        <time>2018-10-23T13:01:24Z</time>
      </trkpt>
      <trkpt lat="47.63552" lon="6.09705">
        <ele>211</ele>
        <time>2018-10-23T13:01:25Z</time>
      </trkpt>
      <trkpt lat="47.63553" lon="6.09698">
        <ele>211</ele>
        <time>2018-10-23T13:01:26Z</time>
      </trkpt>
      <trkpt lat="47.63553" lon="6.09691">
        <ele>211</ele>
        <time>2018-10-23T13:01:27Z</time>
      </trkpt>
      <trkpt lat="47.63554" lon="6.09683">
        <ele>211</ele>
        <time>2018-10-23T13:01:28Z</time>
      </trkpt>
      <trkpt lat="47.63554" lon="6.09676">
        <ele>211</ele>
        <time>2018-10-23T13:01:29Z</time>
      </trkpt>
      <trkpt lat="47.63555" lon="6.09669">
        <ele>211</ele>
        <time>2018-10-23T13:01:30Z</time>
      </trkpt>
      <trkpt lat="47.63556" lon="6.09662">
        <ele>211</ele>
        <time>2018-10-23T13:01:31Z</time>
      </trkpt>
      <trkpt lat="47.63557" lon="6.09655">
        <ele>211</ele>
        <time>2018-10-23T13:01:32Z</time>
      </trkpt>
      <trkpt lat="47.63558" lon="6.09648">
        <ele>211</ele>
        <time>2018-10-23T13:01:33Z</time>
      </trkpt>
      <trkpt lat="47.63558" lon="6.0964">
        <ele>211</ele>
        <time>2018-10-23T13:01:34Z</time>
      </trkpt>
      <trkpt lat="47.63559" lon="6.09633">
        <ele>211</ele>
        <time>2018-10-23T13:01:35Z</time>
      </trkpt>
      <trkpt lat="47.63559" lon="6.09626">
        <ele>211</ele>
        <time>2018-10-23T13:01:36Z</time>
      </trkpt>
      <trkpt lat="47.63559" lon="6.09618">
        <ele>211</ele>
        <time>2018-10-23T13:01:37Z</time>
      </trkpt>
      <trkpt lat="47.6356" lon="6.09611">
        <ele>212</ele>
        <time>2018-10-23T13:01:38Z</time>
      </trkpt>
      <trkpt lat="47.6356" lon="6.09603">
        <ele>212</ele>
        <time>2018-10-23T13:01:39Z</time>
      </trkpt>
      <trkpt lat="47.6356" lon="6.09596">
        <ele>212</ele>
        <time>2018-10-23T13:01:40Z</time>
      </trkpt>
      <trkpt lat="47.63561" lon="6.09588">
        <ele>212</ele>
        <time>2018-10-23T13:01:41Z</time>
      </trkpt>
      <trkpt lat="47.63561" lon="6.09581">
        <ele>212</ele>
        <time>2018-10-23T13:01:42Z</time>
      </trkpt>
      <trkpt lat="47.63561" lon="6.09573">
        <ele>212</ele>
        <time>2018-10-23T13:01:43Z</time>
      </trkpt>
      <trkpt lat="47.63562" lon="6.09566">
        <ele>212</ele>
        <time>2018-10-23T13:01:44Z</time>
      </trkpt>
      <trkpt lat="47.63562" lon="6.09558">
        <ele>212</ele>
        <time>2018-10-23T13:01:45Z</time>
      </trkpt>
      <trkpt lat="47.63562" lon="6.09551">
        <ele>212</ele>
        <time>2018-10-23T13:01:46Z</time>
      </trkpt>
      <trkpt lat="47.63562" lon="6.09543">
        <ele>212</ele>
        <time>2018-10-23T13:01:47Z</time>
      </trkpt>
      <trkpt lat="47.63563" lon="6.09536">
        <ele>212</ele>
        <time>2018-10-23T13:01:48Z</time>
      </trkpt>
      <trkpt lat="47.63563" lon="6.09528">
        <ele>212</ele>
        <time>2018-10-23T13:01:49Z</time>
      </trkpt>
      <trkpt lat="47.63563" lon="6.0952">
        <ele>212</ele>
        <time>2018-10-23T13:01:50Z</time>
      </trkpt>
      <trkpt lat="47.63563" lon="6.09513">
        <ele>213</ele>
        <time>2018-10-23T13:01:51Z</time>
      </trkpt>
      <trkpt lat="47.63563" lon="6.09505">
        <ele>213</ele>
        <time>2018-10-23T13:01:52Z</time>
      </trkpt>
      <trkpt lat="47.63562" lon="6.09498">
        <ele>212</ele>
        <time>2018-10-23T13:01:53Z</time>
      </trkpt>
      <trkpt lat="47.63563" lon="6.0949">
        <ele>212</ele>
        <time>2018-10-23T13:01:54Z</time>
      </trkpt>
      <trkpt lat="47.63562" lon="6.09483">
        <ele>212</ele>
        <time>2018-10-23T13:01:55Z</time>
      </trkpt>
      <trkpt lat="47.63562" lon="6.09475">
        <ele>212</ele>
        <time>2018-10-23T13:01:56Z</time>
      </trkpt>
      <trkpt lat="47.63562" lon="6.09468">
        <ele>212</ele>
        <time>2018-10-23T13:01:57Z</time>
      </trkpt>
      <trkpt lat="47.63562" lon="6.09461">
        <ele>212</ele>
        <time>2018-10-23T13:01:58Z</time>
      </trkpt>
      <trkpt lat="47.63562" lon="6.09454">
        <ele>212</ele>
        <time>2018-10-23T13:01:59Z</time>
      </trkpt>
      <trkpt lat="47.63561" lon="6.09447">
        <ele>212</ele>
        <time>2018-10-23T13:02:00Z</time>
      </trkpt>
      <trkpt lat="47.63561" lon="6.09441">
        <ele>212</ele>
        <time>2018-10-23T13:02:01Z</time>
      </trkpt>
      <trkpt lat="47.6356" lon="6.09433">
        <ele>212</ele>
        <time>2018-10-23T13:02:02Z</time>
      </trkpt>
      <trkpt lat="47.6356" lon="6.09426">
        <ele>211</ele>
        <time>2018-10-23T13:02:03Z</time>
      </trkpt>
      <trkpt lat="47.63559" lon="6.09419">
        <ele>211</ele>
        <time>2018-10-23T13:02:04Z</time>
      </trkpt>
      <trkpt lat="47.63558" lon="6.09411">
        <ele>211</ele>
        <time>2018-10-23T13:02:05Z</time>
      </trkpt>
      <trkpt lat="47.63557" lon="6.09404">
        <ele>211</ele>
        <time>2018-10-23T13:02:06Z</time>
      </trkpt>
      <trkpt lat="47.63556" lon="6.09397">
        <ele>211</ele>
        <time>2018-10-23T13:02:07Z</time>
      </trkpt>
      <trkpt lat="47.63556" lon="6.0939">
        <ele>211</ele>
        <time>2018-10-23T13:02:08Z</time>
      </trkpt>
      <trkpt lat="47.63555" lon="6.09383">
        <ele>211</ele>
        <time>2018-10-23T13:02:09Z</time>
      </trkpt>
      <trkpt lat="47.63554" lon="6.09376">
        <ele>211</ele>
        <time>2018-10-23T13:02:10Z</time>
      </trkpt>
      <trkpt lat="47.63551" lon="6.09364">
        <ele>211</ele>
        <time>2018-10-23T13:02:12Z</time>
      </trkpt>
      <trkpt lat="47.6355" lon="6.09351">
        <ele>211</ele>
        <time>2018-10-23T13:02:14Z</time>
      </trkpt>
      <trkpt lat="47.63549" lon="6.09344">
        <ele>211</ele>
        <time>2018-10-23T13:02:15Z</time>
      </trkpt>
      <trkpt lat="47.63547" lon="6.09331">
        <ele>210</ele>
        <time>2018-10-23T13:02:17Z</time>
      </trkpt>
      <trkpt lat="47.63545" lon="6.09325">
        <ele>210</ele>
        <time>2018-10-23T13:02:18Z</time>
      </trkpt>
      <trkpt lat="47.63544" lon="6.09318">
        <ele>210</ele>
        <time>2018-10-23T13:02:19Z</time>
      </trkpt>
      <trkpt lat="47.63542" lon="6.09311">
        <ele>210</ele>
        <time>2018-10-23T13:02:20Z</time>
      </trkpt>
      <trkpt lat="47.63541" lon="6.09304">
        <ele>210</ele>
        <time>2018-10-23T13:02:21Z</time>
      </trkpt>
      <trkpt lat="47.6354" lon="6.09297">
        <ele>210</ele>
        <time>2018-10-23T13:02:22Z</time>
      </trkpt>
      <trkpt lat="47.63538" lon="6.0929">
        <ele>210</ele>
        <time>2018-10-23T13:02:23Z</time>
      </trkpt>
      <trkpt lat="47.63537" lon="6.09283">
        <ele>210</ele>
        <time>2018-10-23T13:02:24Z</time>
      </trkpt>
      <trkpt lat="47.63536" lon="6.09276">
        <ele>210</ele>
        <time>2018-10-23T13:02:25Z</time>
      </trkpt>
      <trkpt lat="47.63534" lon="6.09269">
        <ele>210</ele>
        <time>2018-10-23T13:02:26Z</time>
      </trkpt>
      <trkpt lat="47.63531" lon="6.09257">
        <ele>210</ele>
        <time>2018-10-23T13:02:28Z</time>
      </trkpt>
      <trkpt lat="47.63528" lon="6.09245">
        <ele>210</ele>
        <time>2018-10-23T13:02:30Z</time>
      </trkpt>
      <trkpt lat="47.63526" lon="6.09234">
        <ele>210</ele>
        <time>2018-10-23T13:02:32Z</time>
      </trkpt>
      <trkpt lat="47.63526" lon="6.09225">
        <ele>210</ele>
        <time>2018-10-23T13:02:34Z</time>
      </trkpt>
      <trkpt lat="47.63524" lon="6.09218">
        <ele>210</ele>
        <time>2018-10-23T13:02:36Z</time>
      </trkpt>
      <trkpt lat="47.63521" lon="6.0921">
        <ele>210</ele>
        <time>2018-10-23T13:02:38Z</time>
      </trkpt>
      <trkpt lat="47.6352" lon="6.09201">
        <ele>210</ele>
        <time>2018-10-23T13:02:40Z</time>
      </trkpt>
      <trkpt lat="47.63518" lon="6.09191">
        <ele>210</ele>
        <time>2018-10-23T13:02:43Z</time>
      </trkpt>
      <trkpt lat="47.63518" lon="6.09184">
        <ele>211</ele>
        <time>2018-10-23T13:02:45Z</time>
      </trkpt>
      <trkpt lat="47.63516" lon="6.09175">
        <ele>211</ele>
        <time>2018-10-23T13:02:48Z</time>
      </trkpt>
      <trkpt lat="47.63514" lon="6.09168">
        <ele>211</ele>
        <time>2018-10-23T13:02:50Z</time>
      </trkpt>
      <trkpt lat="47.63513" lon="6.0916">
        <ele>211</ele>
        <time>2018-10-23T13:02:52Z</time>
      </trkpt>
      <trkpt lat="47.63511" lon="6.09151">
        <ele>211</ele>
        <time>2018-10-23T13:02:54Z</time>
      </trkpt>
      <trkpt lat="47.63509" lon="6.0914">
        <ele>211</ele>
        <time>2018-10-23T13:02:56Z</time>
      </trkpt>
      <trkpt lat="47.63508" lon="6.09129">
        <ele>211</ele>
        <time>2018-10-23T13:02:58Z</time>
      </trkpt>
      <trkpt lat="47.63506" lon="6.09123">
        <ele>211</ele>
        <time>2018-10-23T13:02:59Z</time>
      </trkpt>
      <trkpt lat="47.63504" lon="6.09113">
        <ele>211</ele>
        <time>2018-10-23T13:03:01Z</time>
      </trkpt>
      <trkpt lat="47.63502" lon="6.09102">
        <ele>211</ele>
        <time>2018-10-23T13:03:03Z</time>
      </trkpt>
      <trkpt lat="47.635" lon="6.09091">
        <ele>211</ele>
        <time>2018-10-23T13:03:05Z</time>
      </trkpt>
      <trkpt lat="47.63499" lon="6.09079">
        <ele>212</ele>
        <time>2018-10-23T13:03:07Z</time>
      </trkpt>
      <trkpt lat="47.63497" lon="6.09068">
        <ele>213</ele>
        <time>2018-10-23T13:03:09Z</time>
      </trkpt>
      <trkpt lat="47.63495" lon="6.09059">
        <ele>213</ele>
        <time>2018-10-23T13:03:11Z</time>
      </trkpt>
      <trkpt lat="47.63493" lon="6.09047">
        <ele>213</ele>
        <time>2018-10-23T13:03:13Z</time>
      </trkpt>
      <trkpt lat="47.63492" lon="6.09037">
        <ele>214</ele>
        <time>2018-10-23T13:03:15Z</time>
      </trkpt>
      <trkpt lat="47.6349" lon="6.09027">
        <ele>213</ele>
        <time>2018-10-23T13:03:17Z</time>
      </trkpt>
      <trkpt lat="47.63488" lon="6.09016">
        <ele>213</ele>
        <time>2018-10-23T13:03:19Z</time>
      </trkpt>
      <trkpt lat="47.63485" lon="6.09003">
        <ele>213</ele>
        <time>2018-10-23T13:03:21Z</time>
      </trkpt>
      <trkpt lat="47.63483" lon="6.08991">
        <ele>214</ele>
        <time>2018-10-23T13:03:23Z</time>
      </trkpt>
      <trkpt lat="47.63481" lon="6.08985">
        <ele>214</ele>
        <time>2018-10-23T13:03:24Z</time>
      </trkpt>
      <trkpt lat="47.63479" lon="6.08973">
        <ele>214</ele>
        <time>2018-10-23T13:03:26Z</time>
      </trkpt>
      <trkpt lat="47.63477" lon="6.08962">
        <ele>215</ele>
        <time>2018-10-23T13:03:28Z</time>
      </trkpt>
      <trkpt lat="47.63475" lon="6.08951">
        <ele>215</ele>
        <time>2018-10-23T13:03:30Z</time>
      </trkpt>
      <trkpt lat="47.63473" lon="6.08939">
        <ele>215</ele>
        <time>2018-10-23T13:03:32Z</time>
      </trkpt>
      <trkpt lat="47.63471" lon="6.08928">
        <ele>215</ele>
        <time>2018-10-23T13:03:34Z</time>
      </trkpt>
      <trkpt lat="47.63469" lon="6.08919">
        <ele>215</ele>
        <time>2018-10-23T13:03:35Z</time>
      </trkpt>
      <trkpt lat="47.63468" lon="6.08908">
        <ele>215</ele>
        <time>2018-10-23T13:03:37Z</time>
      </trkpt>
      <trkpt lat="47.63466" lon="6.08898">
        <ele>215</ele>
        <time>2018-10-23T13:03:39Z</time>
      </trkpt>
      <trkpt lat="47.63464" lon="6.08888">
        <ele>216</ele>
        <time>2018-10-23T13:03:41Z</time>
      </trkpt>
      <trkpt lat="47.63462" lon="6.08877">
        <ele>216</ele>
        <time>2018-10-23T13:03:43Z</time>
      </trkpt>
      <trkpt lat="47.6346" lon="6.08867">
        <ele>216</ele>
        <time>2018-10-23T13:03:45Z</time>
      </trkpt>
      <trkpt lat="47.63458" lon="6.08857">
        <ele>216</ele>
        <time>2018-10-23T13:03:47Z</time>
      </trkpt>
      <trkpt lat="47.63456" lon="6.0885">
        <ele>216</ele>
        <time>2018-10-23T13:03:49Z</time>
      </trkpt>
      <trkpt lat="47.63454" lon="6.0884">
        <ele>216</ele>
        <time>2018-10-23T13:03:51Z</time>
      </trkpt>
      <trkpt lat="47.63452" lon="6.08825">
        <ele>216</ele>
        <time>2018-10-23T13:03:53Z</time>
      </trkpt>
      <trkpt lat="47.6345" lon="6.08815">
        <ele>216</ele>
        <time>2018-10-23T13:03:55Z</time>
      </trkpt>
      <trkpt lat="47.63447" lon="6.08802">
        <ele>216</ele>
        <time>2018-10-23T13:03:57Z</time>
      </trkpt>
      <trkpt lat="47.63445" lon="6.08791">
        <ele>216</ele>
        <time>2018-10-23T13:03:59Z</time>
      </trkpt>
      <trkpt lat="47.63443" lon="6.0878">
        <ele>216</ele>
        <time>2018-10-23T13:04:01Z</time>
      </trkpt>
      <trkpt lat="47.63441" lon="6.08772">
        <ele>217</ele>
        <time>2018-10-23T13:04:03Z</time>
      </trkpt>
      <trkpt lat="47.63439" lon="6.08762">
        <ele>217</ele>
        <time>2018-10-23T13:04:05Z</time>
      </trkpt>
      <trkpt lat="47.63437" lon="6.08753">
        <ele>217</ele>
        <time>2018-10-23T13:04:07Z</time>
      </trkpt>
      <trkpt lat="47.63435" lon="6.08742">
        <ele>217</ele>
        <time>2018-10-23T13:04:09Z</time>
      </trkpt>
      <trkpt lat="47.63433" lon="6.0873">
        <ele>217</ele>
        <time>2018-10-23T13:04:11Z</time>
      </trkpt>
      <trkpt lat="47.63431" lon="6.08717">
        <ele>217</ele>
        <time>2018-10-23T13:04:13Z</time>
      </trkpt>
      <trkpt lat="47.6343" lon="6.08706">
        <ele>217</ele>
        <time>2018-10-23T13:04:15Z</time>
      </trkpt>
      <trkpt lat="47.63428" lon="6.08695">
        <ele>217</ele>
        <time>2018-10-23T13:04:17Z</time>
      </trkpt>
      <trkpt lat="47.63427" lon="6.08686">
        <ele>217</ele>
        <time>2018-10-23T13:04:19Z</time>
      </trkpt>
      <trkpt lat="47.63425" lon="6.08676">
        <ele>218</ele>
        <time>2018-10-23T13:04:21Z</time>
      </trkpt>
      <trkpt lat="47.63423" lon="6.08666">
        <ele>218</ele>
        <time>2018-10-23T13:04:23Z</time>
      </trkpt>
      <trkpt lat="47.6342" lon="6.08655">
        <ele>217</ele>
        <time>2018-10-23T13:04:25Z</time>
      </trkpt>
      <trkpt lat="47.63417" lon="6.08644">
        <ele>217</ele>
        <time>2018-10-23T13:04:27Z</time>
      </trkpt>
      <trkpt lat="47.63415" lon="6.08633">
        <ele>220</ele>
        <time>2018-10-23T13:04:29Z</time>
      </trkpt>
      <trkpt lat="47.63413" lon="6.08622">
        <ele>220</ele>
        <time>2018-10-23T13:04:31Z</time>
      </trkpt>
      <trkpt lat="47.63412" lon="6.08614">
        <ele>219</ele>
        <time>2018-10-23T13:04:33Z</time>
      </trkpt>
      <trkpt lat="47.63409" lon="6.08603">
        <ele>219</ele>
        <time>2018-10-23T13:04:35Z</time>
      </trkpt>
      <trkpt lat="47.63407" lon="6.08593">
        <ele>218</ele>
        <time>2018-10-23T13:04:37Z</time>
      </trkpt>
      <trkpt lat="47.63405" lon="6.08583">
        <ele>217</ele>
        <time>2018-10-23T13:04:39Z</time>
      </trkpt>
      <trkpt lat="47.63404" lon="6.08575">
        <ele>217</ele>
        <time>2018-10-23T13:04:41Z</time>
      </trkpt>
      <trkpt lat="47.63402" lon="6.08568">
        <ele>217</ele>
        <time>2018-10-23T13:04:42Z</time>
      </trkpt>
      <trkpt lat="47.634" lon="6.0856">
        <ele>217</ele>
        <time>2018-10-23T13:04:44Z</time>
      </trkpt>
      <trkpt lat="47.63399" lon="6.08554">
        <ele>217</ele>
        <time>2018-10-23T13:04:45Z</time>
      </trkpt>
      <trkpt lat="47.63397" lon="6.0854">
        <ele>217</ele>
        <time>2018-10-23T13:04:47Z</time>
      </trkpt>
      <trkpt lat="47.63396" lon="6.08533">
        <ele>217</ele>
        <time>2018-10-23T13:04:48Z</time>
      </trkpt>
      <trkpt lat="47.63394" lon="6.0852">
        <ele>216</ele>
        <time>2018-10-23T13:04:50Z</time>
      </trkpt>
      <trkpt lat="47.63392" lon="6.0851">
        <ele>216</ele>
        <time>2018-10-23T13:04:52Z</time>
      </trkpt>
      <trkpt lat="47.6339" lon="6.08499">
        <ele>214</ele>
        <time>2018-10-23T13:04:54Z</time>
      </trkpt>
      <trkpt lat="47.63388" lon="6.08487">
        <ele>215</ele>
        <time>2018-10-23T13:04:56Z</time>
      </trkpt>
      <trkpt lat="47.63385" lon="6.08474">
        <ele>215</ele>
        <time>2018-10-23T13:04:57Z</time>
      </trkpt>
      <trkpt lat="47.63383" lon="6.08467">
        <ele>215</ele>
        <time>2018-10-23T13:04:58Z</time>
      </trkpt>
      <trkpt lat="47.63381" lon="6.08454">
        <ele>214</ele>
        <time>2018-10-23T13:05:00Z</time>
      </trkpt>
      <trkpt lat="47.6338" lon="6.08443">
        <ele>214</ele>
        <time>2018-10-23T13:05:02Z</time>
      </trkpt>
      <trkpt lat="47.63378" lon="6.08432">
        <ele>214</ele>
        <time>2018-10-23T13:05:04Z</time>
      </trkpt>
      <trkpt lat="47.63374" lon="6.0842">
        <ele>214</ele>
        <time>2018-10-23T13:05:06Z</time>
      </trkpt>
      <trkpt lat="47.63371" lon="6.08408">
        <ele>213</ele>
        <time>2018-10-23T13:05:08Z</time>
      </trkpt>
      <trkpt lat="47.6337" lon="6.08401">
        <ele>214</ele>
        <time>2018-10-23T13:05:09Z</time>
      </trkpt>
      <trkpt lat="47.63369" lon="6.08394">
        <ele>214</ele>
        <time>2018-10-23T13:05:10Z</time>
      </trkpt>
      <trkpt lat="47.63366" lon="6.08382">
        <ele>214</ele>
        <time>2018-10-23T13:05:12Z</time>
      </trkpt>
      <trkpt lat="47.63364" lon="6.08375">
        <ele>214</ele>
        <time>2018-10-23T13:05:13Z</time>
      </trkpt>
      <trkpt lat="47.63361" lon="6.08364">
        <ele>214</ele>
        <time>2018-10-23T13:05:15Z</time>
      </trkpt>
      <trkpt lat="47.63359" lon="6.08353">
        <ele>214</ele>
        <time>2018-10-23T13:05:17Z</time>
      </trkpt>
      <trkpt lat="47.63356" lon="6.08342">
        <ele>214</ele>
        <time>2018-10-23T13:05:19Z</time>
      </trkpt>
      <trkpt lat="47.63353" lon="6.08332">
        <ele>214</ele>
        <time>2018-10-23T13:05:21Z</time>
      </trkpt>
      <trkpt lat="47.6335" lon="6.0832">
        <ele>214</ele>
        <time>2018-10-23T13:05:23Z</time>
      </trkpt>
      <trkpt lat="47.63348" lon="6.08312">
        <ele>214</ele>
        <time>2018-10-23T13:05:24Z</time>
      </trkpt>
      <trkpt lat="47.63346" lon="6.08306">
        <ele>213</ele>
        <time>2018-10-23T13:05:25Z</time>
      </trkpt>
      <trkpt lat="47.63344" lon="6.08299">
        <ele>213</ele>
        <time>2018-10-23T13:05:26Z</time>
      </trkpt>
      <trkpt lat="47.63342" lon="6.08292">
        <ele>213</ele>
        <time>2018-10-23T13:05:27Z</time>
      </trkpt>
      <trkpt lat="47.6334" lon="6.08286">
        <ele>213</ele>
        <time>2018-10-23T13:05:28Z</time>
      </trkpt>
      <trkpt lat="47.63338" lon="6.08279">
        <ele>213</ele>
        <time>2018-10-23T13:05:29Z</time>
      </trkpt>
      <trkpt lat="47.63336" lon="6.08272">
        <ele>213</ele>
        <time>2018-10-23T13:05:30Z</time>
      </trkpt>
      <trkpt lat="47.63333" lon="6.08265">
        <ele>215</ele>
        <time>2018-10-23T13:05:31Z</time>
      </trkpt>
      <trkpt lat="47.63331" lon="6.08258">
        <ele>215</ele>
        <time>2018-10-23T13:05:32Z</time>
      </trkpt>
      <trkpt lat="47.63327" lon="6.08246">
        <ele>215</ele>
        <time>2018-10-23T13:05:34Z</time>
      </trkpt>
      <trkpt lat="47.63325" lon="6.08239">
        <ele>215</ele>
        <time>2018-10-23T13:05:35Z</time>
      </trkpt>
      <trkpt lat="47.63322" lon="6.08232">
        <ele>216</ele>
        <time>2018-10-23T13:05:36Z</time>
      </trkpt>
      <trkpt lat="47.63318" lon="6.08221">
        <ele>216</ele>
        <time>2018-10-23T13:05:38Z</time>
      </trkpt>
      <trkpt lat="47.63316" lon="6.08215">
        <ele>216</ele>
        <time>2018-10-23T13:05:39Z</time>
      </trkpt>
      <trkpt lat="47.63312" lon="6.08206">
        <ele>217</ele>
        <time>2018-10-23T13:05:41Z</time>
      </trkpt>
      <trkpt lat="47.63309" lon="6.08196">
        <ele>217</ele>
        <time>2018-10-23T13:05:43Z</time>
      </trkpt>
      <trkpt lat="47.63305" lon="6.08185">
        <ele>217</ele>
        <time>2018-10-23T13:05:45Z</time>
      </trkpt>
      <trkpt lat="47.633" lon="6.08174">
        <ele>217</ele>
        <time>2018-10-23T13:05:47Z</time>
      </trkpt>
      <trkpt lat="47.63298" lon="6.08168">
        <ele>217</ele>
        <time>2018-10-23T13:05:48Z</time>
      </trkpt>
      <trkpt lat="47.63296" lon="6.08162">
        <ele>217</ele>
        <time>2018-10-23T13:05:49Z</time>
      </trkpt>
      <trkpt lat="47.63293" lon="6.08155">
        <ele>217</ele>
        <time>2018-10-23T13:05:50Z</time>
      </trkpt>
      <trkpt lat="47.63291" lon="6.08149">
        <ele>217</ele>
        <time>2018-10-23T13:05:51Z</time>
      </trkpt>
      <trkpt lat="47.63288" lon="6.08142">
        <ele>217</ele>
        <time>2018-10-23T13:05:52Z</time>
      </trkpt>
      <trkpt lat="47.63285" lon="6.08136">
        <ele>217</ele>
        <time>2018-10-23T13:05:53Z</time>
      </trkpt>
      <trkpt lat="47.6328" lon="6.08125">
        <ele>217</ele>
        <time>2018-10-23T13:05:55Z</time>
      </trkpt>
      <trkpt lat="47.63277" lon="6.08119">
        <ele>217</ele>
        <time>2018-10-23T13:05:56Z</time>
      </trkpt>
      <trkpt lat="47.63274" lon="6.08114">
        <ele>217</ele>
        <time>2018-10-23T13:05:57Z</time>
      </trkpt>
      <trkpt lat="47.6327" lon="6.08104">
        <ele>217</ele>
        <time>2018-10-23T13:05:59Z</time>
      </trkpt>
      <trkpt lat="47.63267" lon="6.08094">
        <ele>217</ele>
        <time>2018-10-23T13:06:01Z</time>
      </trkpt>
      <trkpt lat="47.63262" lon="6.08084">
        <ele>217</ele>
        <time>2018-10-23T13:06:03Z</time>
      </trkpt>
      <trkpt lat="47.63259" lon="6.08078">
        <ele>216</ele>
        <time>2018-10-23T13:06:04Z</time>
      </trkpt>
      <trkpt lat="47.63254" lon="6.08066">
        <ele>215</ele>
        <time>2018-10-23T13:06:06Z</time>
      </trkpt>
      <trkpt lat="47.63251" lon="6.0806">
        <ele>215</ele>
        <time>2018-10-23T13:06:07Z</time>
      </trkpt>
      <trkpt lat="47.63246" lon="6.08048">
        <ele>218</ele>
        <time>2018-10-23T13:06:09Z</time>
      </trkpt>
      <trkpt lat="47.63241" lon="6.08038">
        <ele>218</ele>
        <time>2018-10-23T13:06:11Z</time>
      </trkpt>
      <trkpt lat="47.63235" lon="6.08028">
        <ele>218</ele>
        <time>2018-10-23T13:06:13Z</time>
      </trkpt>
      <trkpt lat="47.63232" lon="6.08023">
        <ele>217</ele>
        <time>2018-10-23T13:06:14Z</time>
      </trkpt>
      <trkpt lat="47.63227" lon="6.08013">
        <ele>217</ele>
        <time>2018-10-23T13:06:16Z</time>
      </trkpt>
      <trkpt lat="47.63222" lon="6.08004">
        <ele>217</ele>
        <time>2018-10-23T13:06:18Z</time>
      </trkpt>
      <trkpt lat="47.63217" lon="6.07994">
        <ele>215</ele>
        <time>2018-10-23T13:06:20Z</time>
      </trkpt>
      <trkpt lat="47.63211" lon="6.07985">
        <ele>216</ele>
        <time>2018-10-23T13:06:22Z</time>
      </trkpt>
      <trkpt lat="47.63206" lon="6.07975">
        <ele>216</ele>
        <time>2018-10-23T13:06:24Z</time>
      </trkpt>
      <trkpt lat="47.63201" lon="6.07965">
        <ele>216</ele>
        <time>2018-10-23T13:06:26Z</time>
      </trkpt>
      <trkpt lat="47.63195" lon="6.07955">
        <ele>216</ele>
        <time>2018-10-23T13:06:28Z</time>
      </trkpt>
      <trkpt lat="47.63192" lon="6.07951">
        <ele>216</ele>
        <time>2018-10-23T13:06:29Z</time>
      </trkpt>
      <trkpt lat="47.63186" lon="6.07942">
        <ele>216</ele>
        <time>2018-10-23T13:06:31Z</time>
      </trkpt>
      <trkpt lat="47.6318" lon="6.07932">
        <ele>216</ele>
        <time>2018-10-23T13:06:33Z</time>
      </trkpt>
      <trkpt lat="47.63175" lon="6.07923">
        <ele>216</ele>
        <time>2018-10-23T13:06:35Z</time>
      </trkpt>
      <trkpt lat="47.6317" lon="6.07915">
        <ele>216</ele>
        <time>2018-10-23T13:06:37Z</time>
      </trkpt>
      <trkpt lat="47.63164" lon="6.07906">
        <ele>217</ele>
        <time>2018-10-23T13:06:39Z</time>
      </trkpt>
      <trkpt lat="47.63158" lon="6.07897">
        <ele>217</ele>
        <time>2018-10-23T13:06:41Z</time>
      </trkpt>
      <trkpt lat="47.63153" lon="6.07889">
        <ele>217</ele>
        <time>2018-10-23T13:06:43Z</time>
      </trkpt>
      <trkpt lat="47.63147" lon="6.07881">
        <ele>217</ele>
        <time>2018-10-23T13:06:45Z</time>
      </trkpt>
      <trkpt lat="47.63141" lon="6.07873">
        <ele>217</ele>
        <time>2018-10-23T13:06:47Z</time>
      </trkpt>
      <trkpt lat="47.63136" lon="6.07865">
        <ele>217</ele>
        <time>2018-10-23T13:06:49Z</time>
      </trkpt>
      <trkpt lat="47.6313" lon="6.07857">
        <ele>217</ele>
        <time>2018-10-23T13:06:51Z</time>
      </trkpt>
      <trkpt lat="47.63124" lon="6.07848">
        <ele>218</ele>
        <time>2018-10-23T13:06:53Z</time>
      </trkpt>
      <trkpt lat="47.63118" lon="6.07839">
        <ele>218</ele>
        <time>2018-10-23T13:06:55Z</time>
      </trkpt>
      <trkpt lat="47.63115" lon="6.07834">
        <ele>218</ele>
        <time>2018-10-23T13:06:56Z</time>
      </trkpt>
      <trkpt lat="47.63111" lon="6.07829">
        <ele>217</ele>
        <time>2018-10-23T13:06:57Z</time>
      </trkpt>
      <trkpt lat="47.63108" lon="6.07824">
        <ele>217</ele>
        <time>2018-10-23T13:06:58Z</time>
      </trkpt>
      <trkpt lat="47.63105" lon="6.07818">
        <ele>217</ele>
        <time>2018-10-23T13:06:59Z</time>
      </trkpt>
      <trkpt lat="47.63101" lon="6.07813">
        <ele>217</ele>
        <time>2018-10-23T13:07:00Z</time>
      </trkpt>
      <trkpt lat="47.63098" lon="6.07808">
        <ele>217</ele>
        <time>2018-10-23T13:07:01Z</time>
      </trkpt>
      <trkpt lat="47.63094" lon="6.07803">
        <ele>217</ele>
        <time>2018-10-23T13:07:02Z</time>
      </trkpt>
      <trkpt lat="47.63091" lon="6.07797">
        <ele>216</ele>
        <time>2018-10-23T13:07:03Z</time>
      </trkpt>
      <trkpt lat="47.63088" lon="6.07792">
        <ele>216</ele>
        <time>2018-10-23T13:07:04Z</time>
      </trkpt>
      <trkpt lat="47.63085" lon="6.07787">
        <ele>216</ele>
        <time>2018-10-23T13:07:05Z</time>
      </trkpt>
      <trkpt lat="47.63081" lon="6.07781">
        <ele>219</ele>
        <time>2018-10-23T13:07:06Z</time>
      </trkpt>
      <trkpt lat="47.63077" lon="6.07775">
        <ele>219</ele>
        <time>2018-10-23T13:07:07Z</time>
      </trkpt>
      <trkpt lat="47.63073" lon="6.07769">
        <ele>219</ele>
        <time>2018-10-23T13:07:08Z</time>
      </trkpt>
      <trkpt lat="47.63069" lon="6.07763">
        <ele>219</ele>
        <time>2018-10-23T13:07:09Z</time>
      </trkpt>
      <trkpt lat="47.63065" lon="6.07758">
        <ele>219</ele>
        <time>2018-10-23T13:07:10Z</time>
      </trkpt>
      <trkpt lat="47.63061" lon="6.07752">
        <ele>219</ele>
        <time>2018-10-23T13:07:11Z</time>
      </trkpt>
      <trkpt lat="47.63057" lon="6.07746">
        <ele>217</ele>
        <time>2018-10-23T13:07:12Z</time>
      </trkpt>
      <trkpt lat="47.63053" lon="6.0774">
        <ele>217</ele>
        <time>2018-10-23T13:07:13Z</time>
      </trkpt>
      <trkpt lat="47.63049" lon="6.07734">
        <ele>217</ele>
        <time>2018-10-23T13:07:14Z</time>
      </trkpt>
      <trkpt lat="47.63046" lon="6.07729">
        <ele>217</ele>
        <time>2018-10-23T13:07:15Z</time>
      </trkpt>
      <trkpt lat="47.63042" lon="6.07723">
        <ele>218</ele>
        <time>2018-10-23T13:07:16Z</time>
      </trkpt>
      <trkpt lat="47.63036" lon="6.07716">
        <ele>218</ele>
        <time>2018-10-23T13:07:18Z</time>
      </trkpt>
      <trkpt lat="47.63029" lon="6.07707">
        <ele>218</ele>
        <time>2018-10-23T13:07:20Z</time>
      </trkpt>
      <trkpt lat="47.63025" lon="6.07702">
        <ele>218</ele>
        <time>2018-10-23T13:07:21Z</time>
      </trkpt>
      <trkpt lat="47.63021" lon="6.07696">
        <ele>218</ele>
        <time>2018-10-23T13:07:22Z</time>
      </trkpt>
      <trkpt lat="47.63018" lon="6.07688">
        <ele>218</ele>
        <time>2018-10-23T13:07:23Z</time>
      </trkpt>
      <trkpt lat="47.63014" lon="6.07681">
        <ele>218</ele>
        <time>2018-10-23T13:07:24Z</time>
      </trkpt>
      <trkpt lat="47.6301" lon="6.07674">
        <ele>218</ele>
        <time>2018-10-23T13:07:25Z</time>
      </trkpt>
      <trkpt lat="47.63006" lon="6.07668">
        <ele>218</ele>
        <time>2018-10-23T13:07:26Z</time>
      </trkpt>
      <trkpt lat="47.63003" lon="6.07662">
        <ele>217</ele>
        <time>2018-10-23T13:07:27Z</time>
      </trkpt>
      <trkpt lat="47.62999" lon="6.07657">
        <ele>218</ele>
        <time>2018-10-23T13:07:28Z</time>
      </trkpt>
      <trkpt lat="47.62995" lon="6.07652">
        <ele>219</ele>
        <time>2018-10-23T13:07:29Z</time>
      </trkpt>
      <trkpt lat="47.62992" lon="6.07646">
        <ele>219</ele>
        <time>2018-10-23T13:07:30Z</time>
      </trkpt>
      <trkpt lat="47.62989" lon="6.07641">
        <ele>219</ele>
        <time>2018-10-23T13:07:31Z</time>
      </trkpt>
      <trkpt lat="47.62986" lon="6.07636">
        <ele>219</ele>
        <time>2018-10-23T13:07:32Z</time>
      </trkpt>
      <trkpt lat="47.62982" lon="6.0763">
        <ele>219</ele>
        <time>2018-10-23T13:07:33Z</time>
      </trkpt>
      <trkpt lat="47.62979" lon="6.07625">
        <ele>219</ele>
        <time>2018-10-23T13:07:34Z</time>
      </trkpt>
      <trkpt lat="47.62975" lon="6.0762">
        <ele>219</ele>
        <time>2018-10-23T13:07:35Z</time>
      </trkpt>
      <trkpt lat="47.62972" lon="6.07614">
        <ele>219</ele>
        <time>2018-10-23T13:07:36Z</time>
      </trkpt>
      <trkpt lat="47.62968" lon="6.07609">
        <ele>219</ele>
        <time>2018-10-23T13:07:37Z</time>
      </trkpt>
      <trkpt lat="47.62964" lon="6.07604">
        <ele>219</ele>
        <time>2018-10-23T13:07:38Z</time>
      </trkpt>
      <trkpt lat="47.6296" lon="6.07598">
        <ele>219</ele>
        <time>2018-10-23T13:07:39Z</time>
      </trkpt>
      <trkpt lat="47.62956" lon="6.07592">
        <ele>219</ele>
        <time>2018-10-23T13:07:40Z</time>
      </trkpt>
      <trkpt lat="47.62953" lon="6.07587">
        <ele>219</ele>
        <time>2018-10-23T13:07:41Z</time>
      </trkpt>
      <trkpt lat="47.62949" lon="6.07583">
        <ele>217</ele>
        <time>2018-10-23T13:07:42Z</time>
      </trkpt>
      <trkpt lat="47.62945" lon="6.07578">
        <ele>217</ele>
        <time>2018-10-23T13:07:43Z</time>
      </trkpt>
      <trkpt lat="47.62942" lon="6.07573">
        <ele>217</ele>
        <time>2018-10-23T13:07:44Z</time>
      </trkpt>
      <trkpt lat="47.62935" lon="6.07564">
        <ele>217</ele>
        <time>2018-10-23T13:07:46Z</time>
      </trkpt>
      <trkpt lat="47.62929" lon="6.07557">
        <ele>217</ele>
        <time>2018-10-23T13:07:48Z</time>
      </trkpt>
      <trkpt lat="47.62925" lon="6.07553">
        <ele>217</ele>
        <time>2018-10-23T13:07:49Z</time>
      </trkpt>
      <trkpt lat="47.62922" lon="6.07548">
        <ele>217</ele>
        <time>2018-10-23T13:07:50Z</time>
      </trkpt>
      <trkpt lat="47.62918" lon="6.07542">
        <ele>216</ele>
        <time>2018-10-23T13:07:51Z</time>
      </trkpt>
      <trkpt lat="47.62914" lon="6.07536">
        <ele>218</ele>
        <time>2018-10-23T13:07:52Z</time>
      </trkpt>
      <trkpt lat="47.62911" lon="6.0753">
        <ele>218</ele>
        <time>2018-10-23T13:07:53Z</time>
      </trkpt>
      <trkpt lat="47.62907" lon="6.07523">
        <ele>218</ele>
        <time>2018-10-23T13:07:54Z</time>
      </trkpt>
      <trkpt lat="47.62904" lon="6.07518">
        <ele>217</ele>
        <time>2018-10-23T13:07:55Z</time>
      </trkpt>
      <trkpt lat="47.629" lon="6.07512">
        <ele>217</ele>
        <time>2018-10-23T13:07:56Z</time>
      </trkpt>
      <trkpt lat="47.62897" lon="6.07506">
        <ele>217</ele>
        <time>2018-10-23T13:07:57Z</time>
      </trkpt>
      <trkpt lat="47.62893" lon="6.07501">
        <ele>217</ele>
        <time>2018-10-23T13:07:58Z</time>
      </trkpt>
      <trkpt lat="47.6289" lon="6.07495">
        <ele>215</ele>
        <time>2018-10-23T13:07:59Z</time>
      </trkpt>
      <trkpt lat="47.62886" lon="6.0749">
        <ele>215</ele>
        <time>2018-10-23T13:08:00Z</time>
      </trkpt>
      <trkpt lat="47.62883" lon="6.07485">
        <ele>215</ele>
        <time>2018-10-23T13:08:01Z</time>
      </trkpt>
      <trkpt lat="47.6288" lon="6.0748">
        <ele>215</ele>
        <time>2018-10-23T13:08:02Z</time>
      </trkpt>
      <trkpt lat="47.62876" lon="6.07475">
        <ele>215</ele>
        <time>2018-10-23T13:08:03Z</time>
      </trkpt>
      <trkpt lat="47.62873" lon="6.07469">
        <ele>215</ele>
        <time>2018-10-23T13:08:04Z</time>
      </trkpt>
      <trkpt lat="47.62869" lon="6.07464">
        <ele>215</ele>
        <time>2018-10-23T13:08:05Z</time>
      </trkpt>
      <trkpt lat="47.62863" lon="6.07455">
        <ele>215</ele>
        <time>2018-10-23T13:08:07Z</time>
      </trkpt>
      <trkpt lat="47.62857" lon="6.07446">
        <ele>215</ele>
        <time>2018-10-23T13:08:09Z</time>
      </trkpt>
      <trkpt lat="47.62851" lon="6.07439">
        <ele>214</ele>
        <time>2018-10-23T13:08:11Z</time>
      </trkpt>
      <trkpt lat="47.62845" lon="6.07431">
        <ele>214</ele>
        <time>2018-10-23T13:08:13Z</time>
      </trkpt>
      <trkpt lat="47.62839" lon="6.07423">
        <ele>214</ele>
        <time>2018-10-23T13:08:15Z</time>
      </trkpt>
      <trkpt lat="47.62835" lon="6.07417">
        <ele>214</ele>
        <time>2018-10-23T13:08:16Z</time>
      </trkpt>
      <trkpt lat="47.62831" lon="6.0741">
        <ele>214</ele>
        <time>2018-10-23T13:08:17Z</time>
      </trkpt>
      <trkpt lat="47.62827" lon="6.07405">
        <ele>214</ele>
        <time>2018-10-23T13:08:18Z</time>
      </trkpt>
      <trkpt lat="47.62824" lon="6.074">
        <ele>214</ele>
        <time>2018-10-23T13:08:19Z</time>
      </trkpt>
      <trkpt lat="47.62821" lon="6.07395">
        <ele>214</ele>
        <time>2018-10-23T13:08:20Z</time>
      </trkpt>
      <trkpt lat="47.62817" lon="6.07389">
        <ele>214</ele>
        <time>2018-10-23T13:08:21Z</time>
      </trkpt>
      <trkpt lat="47.62811" lon="6.07379">
        <ele>214</ele>
        <time>2018-10-23T13:08:23Z</time>
      </trkpt>
      <trkpt lat="47.62807" lon="6.07374">
        <ele>214</ele>
        <time>2018-10-23T13:08:24Z</time>
      </trkpt>
      <trkpt lat="47.62801" lon="6.07364">
        <ele>213</ele>
        <time>2018-10-23T13:08:26Z</time>
      </trkpt>
      <trkpt lat="47.62798" lon="6.07359">
        <ele>213</ele>
        <time>2018-10-23T13:08:27Z</time>
      </trkpt>
      <trkpt lat="47.62792" lon="6.0735">
        <ele>213</ele>
        <time>2018-10-23T13:08:29Z</time>
      </trkpt>
      <trkpt lat="47.62785" lon="6.07341">
        <ele>213</ele>
        <time>2018-10-23T13:08:31Z</time>
      </trkpt>
      <trkpt lat="47.62779" lon="6.07332">
        <ele>212</ele>
        <time>2018-10-23T13:08:33Z</time>
      </trkpt>
      <trkpt lat="47.62776" lon="6.07327">
        <ele>212</ele>
        <time>2018-10-23T13:08:34Z</time>
      </trkpt>
      <trkpt lat="47.6277" lon="6.07317">
        <ele>212</ele>
        <time>2018-10-23T13:08:36Z</time>
      </trkpt>
      <trkpt lat="47.62767" lon="6.07312">
        <ele>212</ele>
        <time>2018-10-23T13:08:37Z</time>
      </trkpt>
      <trkpt lat="47.62764" lon="6.07308">
        <ele>212</ele>
        <time>2018-10-23T13:08:38Z</time>
      </trkpt>
      <trkpt lat="47.62758" lon="6.07299">
        <ele>212</ele>
        <time>2018-10-23T13:08:40Z</time>
      </trkpt>
      <trkpt lat="47.62752" lon="6.0729">
        <ele>212</ele>
        <time>2018-10-23T13:08:42Z</time>
      </trkpt>
      <trkpt lat="47.62745" lon="6.07281">
        <ele>213</ele>
        <time>2018-10-23T13:08:44Z</time>
      </trkpt>
      <trkpt lat="47.62739" lon="6.07272">
        <ele>213</ele>
        <time>2018-10-23T13:08:46Z</time>
      </trkpt>
      <trkpt lat="47.62733" lon="6.07264">
        <ele>213</ele>
        <time>2018-10-23T13:08:48Z</time>
      </trkpt>
      <trkpt lat="47.62728" lon="6.07256">
        <ele>213</ele>
        <time>2018-10-23T13:08:50Z</time>
      </trkpt>
      <trkpt lat="47.62722" lon="6.07248">
        <ele>212</ele>
        <time>2018-10-23T13:08:52Z</time>
      </trkpt>
      <trkpt lat="47.62716" lon="6.0724">
        <ele>212</ele>
        <time>2018-10-23T13:08:54Z</time>
      </trkpt>
      <trkpt lat="47.62711" lon="6.07232">
        <ele>213</ele>
        <time>2018-10-23T13:08:56Z</time>
      </trkpt>
      <trkpt lat="47.62706" lon="6.07224">
        <ele>213</ele>
        <time>2018-10-23T13:08:58Z</time>
      </trkpt>
      <trkpt lat="47.62701" lon="6.07217">
        <ele>213</ele>
        <time>2018-10-23T13:09:00Z</time>
      </trkpt>
      <trkpt lat="47.62696" lon="6.07209">
        <ele>213</ele>
        <time>2018-10-23T13:09:02Z</time>
      </trkpt>
      <trkpt lat="47.62692" lon="6.07202">
        <ele>213</ele>
        <time>2018-10-23T13:09:04Z</time>
      </trkpt>
      <trkpt lat="47.6269" lon="6.07193">
        <ele>213</ele>
        <time>2018-10-23T13:09:07Z</time>
      </trkpt>
      <trkpt lat="47.62689" lon="6.07182">
        <ele>212</ele>
        <time>2018-10-23T13:09:09Z</time>
      </trkpt>
      <trkpt lat="47.62688" lon="6.07173">
        <ele>212</ele>
        <time>2018-10-23T13:09:11Z</time>
      </trkpt>
      <trkpt lat="47.62686" lon="6.07161">
        <ele>211</ele>
        <time>2018-10-23T13:09:13Z</time>
      </trkpt>
      <trkpt lat="47.62685" lon="6.07151">
        <ele>211</ele>
        <time>2018-10-23T13:09:14Z</time>
      </trkpt>
      <trkpt lat="47.62683" lon="6.07138">
        <ele>211</ele>
        <time>2018-10-23T13:09:16Z</time>
      </trkpt>
      <trkpt lat="47.62683" lon="6.07131">
        <ele>211</ele>
        <time>2018-10-23T13:09:17Z</time>
      </trkpt>
      <trkpt lat="47.62682" lon="6.07124">
        <ele>210</ele>
        <time>2018-10-23T13:09:18Z</time>
      </trkpt>
      <trkpt lat="47.62681" lon="6.07117">
        <ele>210</ele>
        <time>2018-10-23T13:09:19Z</time>
      </trkpt>
      <trkpt lat="47.62679" lon="6.0711">
        <ele>210</ele>
        <time>2018-10-23T13:09:20Z</time>
      </trkpt>
      <trkpt lat="47.62677" lon="6.07104">
        <ele>210</ele>
        <time>2018-10-23T13:09:21Z</time>
      </trkpt>
      <trkpt lat="47.62674" lon="6.07098">
        <ele>210</ele>
        <time>2018-10-23T13:09:22Z</time>
      </trkpt>
      <trkpt lat="47.62672" lon="6.07093">
        <ele>210</ele>
        <time>2018-10-23T13:09:23Z</time>
      </trkpt>
      <trkpt lat="47.62668" lon="6.07088">
        <ele>209</ele>
        <time>2018-10-23T13:09:24Z</time>
      </trkpt>
      <trkpt lat="47.62664" lon="6.07084">
        <ele>209</ele>
        <time>2018-10-23T13:09:25Z</time>
      </trkpt>
      <trkpt lat="47.62661" lon="6.07075">
        <ele>210</ele>
        <time>2018-10-23T13:09:27Z</time>
      </trkpt>
      <trkpt lat="47.62659" lon="6.07067">
        <ele>210</ele>
        <time>2018-10-23T13:09:29Z</time>
      </trkpt>
      <trkpt lat="47.62662" lon="6.0706">
        <ele>210</ele>
        <time>2018-10-23T13:09:31Z</time>
      </trkpt>
      <trkpt lat="47.62665" lon="6.07051">
        <ele>210</ele>
        <time>2018-10-23T13:09:34Z</time>
      </trkpt>
      <trkpt lat="47.62666" lon="6.07042">
        <ele>210</ele>
        <time>2018-10-23T13:09:36Z</time>
      </trkpt>
      <trkpt lat="47.62663" lon="6.07033">
        <ele>210</ele>
        <time>2018-10-23T13:09:38Z</time>
      </trkpt>
      <trkpt lat="47.62661" lon="6.07023">
        <ele>210</ele>
        <time>2018-10-23T13:09:40Z</time>
      </trkpt>
      <trkpt lat="47.62659" lon="6.07016">
        <ele>209</ele>
        <time>2018-10-23T13:09:41Z</time>
      </trkpt>
      <trkpt lat="47.62655" lon="6.07007">
        <ele>209</ele>
        <time>2018-10-23T13:09:42Z</time>
      </trkpt>
      <trkpt lat="47.62652" lon="6.06996">
        <ele>209</ele>
        <time>2018-10-23T13:09:44Z</time>
      </trkpt>
      <trkpt lat="47.62648" lon="6.06985">
        <ele>209</ele>
        <time>2018-10-23T13:09:46Z</time>
      </trkpt>
      <trkpt lat="47.62644" lon="6.06973">
        <ele>210</ele>
        <time>2018-10-23T13:09:48Z</time>
      </trkpt>
      <trkpt lat="47.62642" lon="6.06967">
        <ele>210</ele>
        <time>2018-10-23T13:09:49Z</time>
      </trkpt>
      <trkpt lat="47.62638" lon="6.06955">
        <ele>210</ele>
        <time>2018-10-23T13:09:51Z</time>
      </trkpt>
      <trkpt lat="47.62635" lon="6.06943">
        <ele>210</ele>
        <time>2018-10-23T13:09:53Z</time>
      </trkpt>
      <trkpt lat="47.62632" lon="6.06932">
        <ele>210</ele>
        <time>2018-10-23T13:09:55Z</time>
      </trkpt>
      <trkpt lat="47.6263" lon="6.06921">
        <ele>210</ele>
        <time>2018-10-23T13:09:57Z</time>
      </trkpt>
      <trkpt lat="47.62628" lon="6.06908">
        <ele>209</ele>
        <time>2018-10-23T13:09:59Z</time>
      </trkpt>
      <trkpt lat="47.62626" lon="6.06896">
        <ele>209</ele>
        <time>2018-10-23T13:10:01Z</time>
      </trkpt>
      <trkpt lat="47.62625" lon="6.06884">
        <ele>209</ele>
        <time>2018-10-23T13:10:03Z</time>
      </trkpt>
      <trkpt lat="47.62625" lon="6.06871">
        <ele>210</ele>
        <time>2018-10-23T13:10:05Z</time>
      </trkpt>
      <trkpt lat="47.62624" lon="6.06858">
        <ele>210</ele>
        <time>2018-10-23T13:10:07Z</time>
      </trkpt>
      <trkpt lat="47.62623" lon="6.06846">
        <ele>210</ele>
        <time>2018-10-23T13:10:09Z</time>
      </trkpt>
      <trkpt lat="47.62623" lon="6.06833">
        <ele>209</ele>
        <time>2018-10-23T13:10:11Z</time>
      </trkpt>
      <trkpt lat="47.62622" lon="6.0682">
        <ele>209</ele>
        <time>2018-10-23T13:10:13Z</time>
      </trkpt>
      <trkpt lat="47.62622" lon="6.06808">
        <ele>209</ele>
        <time>2018-10-23T13:10:15Z</time>
      </trkpt>
      <trkpt lat="47.6262" lon="6.06795">
        <ele>209</ele>
        <time>2018-10-23T13:10:17Z</time>
      </trkpt>
      <trkpt lat="47.62619" lon="6.06788">
        <ele>209</ele>
        <time>2018-10-23T13:10:18Z</time>
      </trkpt>
      <trkpt lat="47.62619" lon="6.06781">
        <ele>209</ele>
        <time>2018-10-23T13:10:19Z</time>
      </trkpt>
      <trkpt lat="47.62618" lon="6.06774">
        <ele>209</ele>
        <time>2018-10-23T13:10:20Z</time>
      </trkpt>
      <trkpt lat="47.62616" lon="6.06762">
        <ele>209</ele>
        <time>2018-10-23T13:10:22Z</time>
      </trkpt>
      <trkpt lat="47.62612" lon="6.0675">
        <ele>209</ele>
        <time>2018-10-23T13:10:24Z</time>
      </trkpt>
      <trkpt lat="47.62607" lon="6.06738">
        <ele>209</ele>
        <time>2018-10-23T13:10:26Z</time>
      </trkpt>
      <trkpt lat="47.62604" lon="6.06733">
        <ele>209</ele>
        <time>2018-10-23T13:10:27Z</time>
      </trkpt>
      <trkpt lat="47.62601" lon="6.06727">
        <ele>209</ele>
        <time>2018-10-23T13:10:28Z</time>
      </trkpt>
      <trkpt lat="47.62598" lon="6.06722">
        <ele>209</ele>
        <time>2018-10-23T13:10:29Z</time>
      </trkpt>
      <trkpt lat="47.62595" lon="6.06716">
        <ele>209</ele>
        <time>2018-10-23T13:10:30Z</time>
      </trkpt>
      <trkpt lat="47.62592" lon="6.06711">
        <ele>210</ele>
        <time>2018-10-23T13:10:31Z</time>
      </trkpt>
      <trkpt lat="47.62587" lon="6.06701">
        <ele>210</ele>
        <time>2018-10-23T13:10:33Z</time>
      </trkpt>
      <trkpt lat="47.62581" lon="6.06693">
        <ele>210</ele>
        <time>2018-10-23T13:10:35Z</time>
      </trkpt>
      <trkpt lat="47.62575" lon="6.06685">
        <ele>210</ele>
        <time>2018-10-23T13:10:37Z</time>
      </trkpt>
      <trkpt lat="47.6257" lon="6.06677">
        <ele>210</ele>
        <time>2018-10-23T13:10:39Z</time>
      </trkpt>
      <trkpt lat="47.62566" lon="6.06668">
        <ele>210</ele>
        <time>2018-10-23T13:10:41Z</time>
      </trkpt>
      <trkpt lat="47.62568" lon="6.06658">
        <ele>210</ele>
        <time>2018-10-23T13:10:43Z</time>
      </trkpt>
      <trkpt lat="47.62574" lon="6.06648">
        <ele>210</ele>
        <time>2018-10-23T13:10:45Z</time>
      </trkpt>
      <trkpt lat="47.62579" lon="6.06638">
        <ele>210</ele>
        <time>2018-10-23T13:10:47Z</time>
      </trkpt>
      <trkpt lat="47.62585" lon="6.06628">
        <ele>210</ele>
        <time>2018-10-23T13:10:49Z</time>
      </trkpt>
      <trkpt lat="47.6259" lon="6.06618">
        <ele>209</ele>
        <time>2018-10-23T13:10:51Z</time>
      </trkpt>
      <trkpt lat="47.62595" lon="6.06608">
        <ele>209</ele>
        <time>2018-10-23T13:10:53Z</time>
      </trkpt>
      <trkpt lat="47.62601" lon="6.06599">
        <ele>209</ele>
        <time>2018-10-23T13:10:55Z</time>
      </trkpt>
      <trkpt lat="47.62605" lon="6.06589">
        <ele>209</ele>
        <time>2018-10-23T13:10:57Z</time>
      </trkpt>
      <trkpt lat="47.6261" lon="6.0658">
        <ele>210</ele>
        <time>2018-10-23T13:10:59Z</time>
      </trkpt>
      <trkpt lat="47.62615" lon="6.06571">
        <ele>210</ele>
        <time>2018-10-23T13:11:01Z</time>
      </trkpt>
      <trkpt lat="47.62619" lon="6.06563">
        <ele>210</ele>
        <time>2018-10-23T13:11:03Z</time>
      </trkpt>
      <trkpt lat="47.62623" lon="6.06555">
        <ele>210</ele>
        <time>2018-10-23T13:11:05Z</time>
      </trkpt>
      <trkpt lat="47.62628" lon="6.06547">
        <ele>210</ele>
        <time>2018-10-23T13:11:07Z</time>
      </trkpt>
      <trkpt lat="47.62632" lon="6.06539">
        <ele>210</ele>
        <time>2018-10-23T13:11:09Z</time>
      </trkpt>
      <trkpt lat="47.62635" lon="6.06532">
        <ele>210</ele>
        <time>2018-10-23T13:11:11Z</time>
      </trkpt>
      <trkpt lat="47.62639" lon="6.06526">
        <ele>210</ele>
        <time>2018-10-23T13:11:13Z</time>
      </trkpt>
      <trkpt lat="47.62643" lon="6.06519">
        <ele>210</ele>
        <time>2018-10-23T13:11:15Z</time>
      </trkpt>
      <trkpt lat="47.62646" lon="6.06513">
        <ele>210</ele>
        <time>2018-10-23T13:11:17Z</time>
      </trkpt>
      <trkpt lat="47.62649" lon="6.06507">
        <ele>210</ele>
        <time>2018-10-23T13:11:19Z</time>
      </trkpt>
      <trkpt lat="47.62653" lon="6.06499">
        <ele>211</ele>
        <time>2018-10-23T13:11:21Z</time>
      </trkpt>
      <trkpt lat="47.62657" lon="6.06493">
        <ele>211</ele>
        <time>2018-10-23T13:11:23Z</time>
      </trkpt>
      <trkpt lat="47.62661" lon="6.06485">
        <ele>211</ele>
        <time>2018-10-23T13:11:25Z</time>
      </trkpt>
      <trkpt lat="47.62664" lon="6.06479">
        <ele>211</ele>
        <time>2018-10-23T13:11:27Z</time>
      </trkpt>
      <trkpt lat="47.62667" lon="6.06472">
        <ele>215</ele>
        <time>2018-10-23T13:11:29Z</time>
      </trkpt>
      <trkpt lat="47.62671" lon="6.06464">
        <ele>216</ele>
        <time>2018-10-23T13:11:31Z</time>
      </trkpt>
      <trkpt lat="47.62674" lon="6.06457">
        <ele>216</ele>
        <time>2018-10-23T13:11:33Z</time>
      </trkpt>
      <trkpt lat="47.62679" lon="6.06449">
        <ele>217</ele>
        <time>2018-10-23T13:11:35Z</time>
      </trkpt>
      <trkpt lat="47.62683" lon="6.06439">
        <ele>217</ele>
        <time>2018-10-23T13:11:37Z</time>
      </trkpt>
      <trkpt lat="47.62683" lon="6.06428">
        <ele>217</ele>
        <time>2018-10-23T13:11:39Z</time>
      </trkpt>
      <trkpt lat="47.6268" lon="6.0642">
        <ele>216</ele>
        <time>2018-10-23T13:11:41Z</time>
      </trkpt>
      <trkpt lat="47.62675" lon="6.06412">
        <ele>218</ele>
        <time>2018-10-23T13:11:43Z</time>
      </trkpt>
      <trkpt lat="47.62668" lon="6.06405">
        <ele>218</ele>
        <time>2018-10-23T13:11:45Z</time>
      </trkpt>
      <trkpt lat="47.62663" lon="6.06398">
        <ele>216</ele>
        <time>2018-10-23T13:11:47Z</time>
      </trkpt>
      <trkpt lat="47.62658" lon="6.06393">
        <ele>216</ele>
        <time>2018-10-23T13:11:49Z</time>
      </trkpt>
      <trkpt lat="47.62652" lon="6.06387">
        <ele>217</ele>
        <time>2018-10-23T13:11:51Z</time>
      </trkpt>
      <trkpt lat="47.62646" lon="6.06382">
        <ele>217</ele>
        <time>2018-10-23T13:11:53Z</time>
      </trkpt>
      <trkpt lat="47.62642" lon="6.06378">
        <ele>217</ele>
        <time>2018-10-23T13:11:54Z</time>
      </trkpt>
      <trkpt lat="47.62636" lon="6.06373">
        <ele>217</ele>
        <time>2018-10-23T13:11:56Z</time>
      </trkpt>
      <trkpt lat="47.62629" lon="6.06366">
        <ele>217</ele>
        <time>2018-10-23T13:11:58Z</time>
      </trkpt>
      <trkpt lat="47.62621" lon="6.06359">
        <ele>217</ele>
        <time>2018-10-23T13:12:00Z</time>
      </trkpt>
      <trkpt lat="47.62617" lon="6.06354">
        <ele>217</ele>
        <time>2018-10-23T13:12:01Z</time>
      </trkpt>
      <trkpt lat="47.62613" lon="6.0635">
        <ele>217</ele>
        <time>2018-10-23T13:12:02Z</time>
      </trkpt>
      <trkpt lat="47.62605" lon="6.06341">
        <ele>216</ele>
        <time>2018-10-23T13:12:03Z</time>
      </trkpt>
      <trkpt lat="47.62599" lon="6.06334">
        <ele>216</ele>
        <time>2018-10-23T13:12:05Z</time>
      </trkpt>
      <trkpt lat="47.62594" lon="6.0633">
        <ele>217</ele>
        <time>2018-10-23T13:12:07Z</time>
      </trkpt>
      <trkpt lat="47.62591" lon="6.06326">
        <ele>217</ele>
        <time>2018-10-23T13:12:08Z</time>
      </trkpt>
      <trkpt lat="47.62584" lon="6.06318">
        <ele>218</ele>
        <time>2018-10-23T13:12:09Z</time>
      </trkpt>
      <trkpt lat="47.6258" lon="6.06314">
        <ele>215</ele>
        <time>2018-10-23T13:12:10Z</time>
      </trkpt>
      <trkpt lat="47.62576" lon="6.06309">
        <ele>215</ele>
        <time>2018-10-23T13:12:11Z</time>
      </trkpt>
      <trkpt lat="47.62569" lon="6.06301">
        <ele>215</ele>
        <time>2018-10-23T13:12:13Z</time>
      </trkpt>
      <trkpt lat="47.62563" lon="6.06295">
        <ele>215</ele>
        <time>2018-10-23T13:12:15Z</time>
      </trkpt>
      <trkpt lat="47.62558" lon="6.0629">
        <ele>215</ele>
        <time>2018-10-23T13:12:17Z</time>
      </trkpt>
      <trkpt lat="47.62554" lon="6.06285">
        <ele>215</ele>
        <time>2018-10-23T13:12:19Z</time>
      </trkpt>
      <trkpt lat="47.62549" lon="6.0628">
        <ele>215</ele>
        <time>2018-10-23T13:12:21Z</time>
      </trkpt>
      <trkpt lat="47.62544" lon="6.06276">
        <ele>215</ele>
        <time>2018-10-23T13:12:23Z</time>
      </trkpt>
      <trkpt lat="47.6254" lon="6.06272">
        <ele>215</ele>
        <time>2018-10-23T13:12:25Z</time>
      </trkpt>
      <trkpt lat="47.62535" lon="6.06266">
        <ele>215</ele>
        <time>2018-10-23T13:12:27Z</time>
      </trkpt>
      <trkpt lat="47.6253" lon="6.06261">
        <ele>215</ele>
        <time>2018-10-23T13:12:29Z</time>
      </trkpt>
      <trkpt lat="47.62526" lon="6.06255">
        <ele>215</ele>
        <time>2018-10-23T13:12:31Z</time>
      </trkpt>
      <trkpt lat="47.62523" lon="6.06248">
        <ele>216</ele>
        <time>2018-10-23T13:12:33Z</time>
      </trkpt>
      <trkpt lat="47.62521" lon="6.0624">
        <ele>216</ele>
        <time>2018-10-23T13:12:35Z</time>
      </trkpt>
      <trkpt lat="47.62521" lon="6.06232">
        <ele>216</ele>
        <time>2018-10-23T13:12:37Z</time>
      </trkpt>
      <trkpt lat="47.62524" lon="6.06223">
        <ele>217</ele>
        <time>2018-10-23T13:12:39Z</time>
      </trkpt>
      <trkpt lat="47.62527" lon="6.06217">
        <ele>217</ele>
        <time>2018-10-23T13:12:41Z</time>
      </trkpt>
      <trkpt lat="47.62531" lon="6.06212">
        <ele>217</ele>
        <time>2018-10-23T13:12:43Z</time>
      </trkpt>
      <trkpt lat="47.62535" lon="6.06207">
        <ele>217</ele>
        <time>2018-10-23T13:12:45Z</time>
      </trkpt>
      <trkpt lat="47.62541" lon="6.06201">
        <ele>218</ele>
        <time>2018-10-23T13:12:47Z</time>
      </trkpt>
      <trkpt lat="47.62546" lon="6.06194">
        <ele>218</ele>
        <time>2018-10-23T13:12:49Z</time>
      </trkpt>
      <trkpt lat="47.62551" lon="6.06188">
        <ele>218</ele>
        <time>2018-10-23T13:12:51Z</time>
      </trkpt>
      <trkpt lat="47.62556" lon="6.06182">
        <ele>218</ele>
        <time>2018-10-23T13:12:53Z</time>
      </trkpt>
      <trkpt lat="47.62561" lon="6.06176">
        <ele>218</ele>
        <time>2018-10-23T13:12:55Z</time>
      </trkpt>
      <trkpt lat="47.62565" lon="6.0617">
        <ele>218</ele>
        <time>2018-10-23T13:12:57Z</time>
      </trkpt>
      <trkpt lat="47.6257" lon="6.06164">
        <ele>218</ele>
        <time>2018-10-23T13:12:59Z</time>
      </trkpt>
      <trkpt lat="47.62575" lon="6.06159">
        <ele>218</ele>
        <time>2018-10-23T13:13:01Z</time>
      </trkpt>
      <trkpt lat="47.62579" lon="6.06154">
        <ele>218</ele>
        <time>2018-10-23T13:13:03Z</time>
      </trkpt>
      <trkpt lat="47.62584" lon="6.0615">
        <ele>219</ele>
        <time>2018-10-23T13:13:05Z</time>
      </trkpt>
      <trkpt lat="47.6259" lon="6.06145">
        <ele>220</ele>
        <time>2018-10-23T13:13:07Z</time>
      </trkpt>
      <trkpt lat="47.62595" lon="6.06141">
        <ele>220</ele>
        <time>2018-10-23T13:13:09Z</time>
      </trkpt>
      <trkpt lat="47.626" lon="6.06137">
        <ele>220</ele>
        <time>2018-10-23T13:13:11Z</time>
      </trkpt>
      <trkpt lat="47.62606" lon="6.06133">
        <ele>220</ele>
        <time>2018-10-23T13:13:13Z</time>
      </trkpt>
      <trkpt lat="47.62612" lon="6.06128">
        <ele>220</ele>
        <time>2018-10-23T13:13:15Z</time>
      </trkpt>
      <trkpt lat="47.62618" lon="6.06123">
        <ele>220</ele>
        <time>2018-10-23T13:13:17Z</time>
      </trkpt>
      <trkpt lat="47.62624" lon="6.0612">
        <ele>220</ele>
        <time>2018-10-23T13:13:19Z</time>
      </trkpt>
      <trkpt lat="47.62631" lon="6.06116">
        <ele>220</ele>
        <time>2018-10-23T13:13:21Z</time>
      </trkpt>
      <trkpt lat="47.62636" lon="6.06112">
        <ele>220</ele>
        <time>2018-10-23T13:13:23Z</time>
      </trkpt>
      <trkpt lat="47.62642" lon="6.06109">
        <ele>220</ele>
        <time>2018-10-23T13:13:25Z</time>
      </trkpt>
      <trkpt lat="47.62647" lon="6.06106">
        <ele>220</ele>
        <time>2018-10-23T13:13:27Z</time>
      </trkpt>
      <trkpt lat="47.62653" lon="6.06102">
        <ele>220</ele>
        <time>2018-10-23T13:13:29Z</time>
      </trkpt>
      <trkpt lat="47.62658" lon="6.06099">
        <ele>221</ele>
        <time>2018-10-23T13:13:31Z</time>
      </trkpt>
      <trkpt lat="47.62665" lon="6.06095">
        <ele>221</ele>
        <time>2018-10-23T13:13:33Z</time>
      </trkpt>
      <trkpt lat="47.62671" lon="6.0609">
        <ele>221</ele>
        <time>2018-10-23T13:13:35Z</time>
      </trkpt>
      <trkpt lat="47.62676" lon="6.06085">
        <ele>222</ele>
        <time>2018-10-23T13:13:37Z</time>
      </trkpt>
      <trkpt lat="47.62682" lon="6.06078">
        <ele>221</ele>
        <time>2018-10-23T13:13:39Z</time>
      </trkpt>
      <trkpt lat="47.62689" lon="6.06071">
        <ele>221</ele>
        <time>2018-10-23T13:13:41Z</time>
      </trkpt>
      <trkpt lat="47.62694" lon="6.06064">
        <ele>221</ele>
        <time>2018-10-23T13:13:43Z</time>
      </trkpt>
      <trkpt lat="47.62699" lon="6.06058">
        <ele>221</ele>
        <time>2018-10-23T13:13:45Z</time>
      </trkpt>
      <trkpt lat="47.62704" lon="6.0605">
        <ele>221</ele>
        <time>2018-10-23T13:13:47Z</time>
      </trkpt>
      <trkpt lat="47.62709" lon="6.06044">
        <ele>221</ele>
        <time>2018-10-23T13:13:49Z</time>
      </trkpt>
      <trkpt lat="47.62715" lon="6.06037">
        <ele>221</ele>
        <time>2018-10-23T13:13:51Z</time>
      </trkpt>
      <trkpt lat="47.62724" lon="6.06026">
        <ele>221</ele>
        <time>2018-10-23T13:13:53Z</time>
      </trkpt>
      <trkpt lat="47.6273" lon="6.06018">
        <ele>221</ele>
        <time>2018-10-23T13:13:55Z</time>
      </trkpt>
      <trkpt lat="47.62737" lon="6.06009">
        <ele>222</ele>
        <time>2018-10-23T13:13:57Z</time>
      </trkpt>
      <trkpt lat="47.62745" lon="6.06002">
        <ele>222</ele>
        <time>2018-10-23T13:13:59Z</time>
      </trkpt>
      <trkpt lat="47.62748" lon="6.05997">
        <ele>222</ele>
        <time>2018-10-23T13:14:00Z</time>
      </trkpt>
      <trkpt lat="47.62752" lon="6.05993">
        <ele>222</ele>
        <time>2018-10-23T13:14:01Z</time>
      </trkpt>
      <trkpt lat="47.62756" lon="6.05989">
        <ele>222</ele>
        <time>2018-10-23T13:14:02Z</time>
      </trkpt>
      <trkpt lat="47.6276" lon="6.05985">
        <ele>222</ele>
        <time>2018-10-23T13:14:03Z</time>
      </trkpt>
      <trkpt lat="47.62764" lon="6.05981">
        <ele>222</ele>
        <time>2018-10-23T13:14:04Z</time>
      </trkpt>
      <trkpt lat="47.62768" lon="6.05976">
        <ele>222</ele>
        <time>2018-10-23T13:14:05Z</time>
      </trkpt>
      <trkpt lat="47.62772" lon="6.05972">
        <ele>222</ele>
        <time>2018-10-23T13:14:06Z</time>
      </trkpt>
      <trkpt lat="47.62776" lon="6.05968">
        <ele>222</ele>
        <time>2018-10-23T13:14:07Z</time>
      </trkpt>
      <trkpt lat="47.62781" lon="6.05963">
        <ele>222</ele>
        <time>2018-10-23T13:14:08Z</time>
      </trkpt>
      <trkpt lat="47.62785" lon="6.05959">
        <ele>221</ele>
        <time>2018-10-23T13:14:09Z</time>
      </trkpt>
      <trkpt lat="47.62789" lon="6.05955">
        <ele>221</ele>
        <time>2018-10-23T13:14:10Z</time>
      </trkpt>
      <trkpt lat="47.62794" lon="6.0595">
        <ele>221</ele>
        <time>2018-10-23T13:14:11Z</time>
      </trkpt>
      <trkpt lat="47.62798" lon="6.05946">
        <ele>221</ele>
        <time>2018-10-23T13:14:12Z</time>
      </trkpt>
      <trkpt lat="47.62802" lon="6.05941">
        <ele>221</ele>
        <time>2018-10-23T13:14:13Z</time>
      </trkpt>
      <trkpt lat="47.62806" lon="6.05937">
        <ele>221</ele>
        <time>2018-10-23T13:14:14Z</time>
      </trkpt>
      <trkpt lat="47.62811" lon="6.05932">
        <ele>221</ele>
        <time>2018-10-23T13:14:15Z</time>
      </trkpt>
      <trkpt lat="47.62815" lon="6.05927">
        <ele>221</ele>
        <time>2018-10-23T13:14:16Z</time>
      </trkpt>
      <trkpt lat="47.6282" lon="6.05921">
        <ele>221</ele>
        <time>2018-10-23T13:14:17Z</time>
      </trkpt>
      <trkpt lat="47.62824" lon="6.05916">
        <ele>221</ele>
        <time>2018-10-23T13:14:18Z</time>
      </trkpt>
      <trkpt lat="47.62828" lon="6.0591">
        <ele>221</ele>
        <time>2018-10-23T13:14:19Z</time>
      </trkpt>
      <trkpt lat="47.62832" lon="6.05904">
        <ele>221</ele>
        <time>2018-10-23T13:14:20Z</time>
      </trkpt>
      <trkpt lat="47.62836" lon="6.05898">
        <ele>221</ele>
        <time>2018-10-23T13:14:21Z</time>
      </trkpt>
      <trkpt lat="47.6284" lon="6.05891">
        <ele>221</ele>
        <time>2018-10-23T13:14:22Z</time>
      </trkpt>
      <trkpt lat="47.62844" lon="6.05885">
        <ele>221</ele>
        <time>2018-10-23T13:14:23Z</time>
      </trkpt>
      <trkpt lat="47.62847" lon="6.05879">
        <ele>221</ele>
        <time>2018-10-23T13:14:24Z</time>
      </trkpt>
      <trkpt lat="47.6285" lon="6.05872">
        <ele>221</ele>
        <time>2018-10-23T13:14:25Z</time>
      </trkpt>
      <trkpt lat="47.62854" lon="6.05865">
        <ele>221</ele>
        <time>2018-10-23T13:14:26Z</time>
      </trkpt>
      <trkpt lat="47.62858" lon="6.05857">
        <ele>221</ele>
        <time>2018-10-23T13:14:27Z</time>
      </trkpt>
      <trkpt lat="47.62862" lon="6.0585">
        <ele>221</ele>
        <time>2018-10-23T13:14:28Z</time>
      </trkpt>
      <trkpt lat="47.62865" lon="6.05844">
        <ele>221</ele>
        <time>2018-10-23T13:14:29Z</time>
      </trkpt>
      <trkpt lat="47.62869" lon="6.05837">
        <ele>221</ele>
        <time>2018-10-23T13:14:30Z</time>
      </trkpt>
      <trkpt lat="47.62873" lon="6.05831">
        <ele>221</ele>
        <time>2018-10-23T13:14:31Z</time>
      </trkpt>
      <trkpt lat="47.62878" lon="6.05823">
        <ele>221</ele>
        <time>2018-10-23T13:14:32Z</time>
      </trkpt>
      <trkpt lat="47.62882" lon="6.05817">
        <ele>221</ele>
        <time>2018-10-23T13:14:33Z</time>
      </trkpt>
      <trkpt lat="47.62887" lon="6.0581">
        <ele>221</ele>
        <time>2018-10-23T13:14:34Z</time>
      </trkpt>
      <trkpt lat="47.62891" lon="6.05805">
        <ele>221</ele>
        <time>2018-10-23T13:14:35Z</time>
      </trkpt>
      <trkpt lat="47.62894" lon="6.05799">
        <ele>221</ele>
        <time>2018-10-23T13:14:36Z</time>
      </trkpt>
      <trkpt lat="47.62898" lon="6.05793">
        <ele>222</ele>
        <time>2018-10-23T13:14:37Z</time>
      </trkpt>
      <trkpt lat="47.62903" lon="6.05787">
        <ele>222</ele>
        <time>2018-10-23T13:14:38Z</time>
      </trkpt>
      <trkpt lat="47.62907" lon="6.05781">
        <ele>222</ele>
        <time>2018-10-23T13:14:39Z</time>
      </trkpt>
      <trkpt lat="47.62911" lon="6.05775">
        <ele>222</ele>
        <time>2018-10-23T13:14:40Z</time>
      </trkpt>
      <trkpt lat="47.62915" lon="6.05769">
        <ele>222</ele>
        <time>2018-10-23T13:14:41Z</time>
      </trkpt>
      <trkpt lat="47.62919" lon="6.05763">
        <ele>222</ele>
        <time>2018-10-23T13:14:42Z</time>
      </trkpt>
      <trkpt lat="47.62923" lon="6.05755">
        <ele>222</ele>
        <time>2018-10-23T13:14:43Z</time>
      </trkpt>
      <trkpt lat="47.62925" lon="6.05746">
        <ele>223</ele>
        <time>2018-10-23T13:14:44Z</time>
      </trkpt>
      <trkpt lat="47.62927" lon="6.05735">
        <ele>223</ele>
        <time>2018-10-23T13:14:45Z</time>
      </trkpt>
      <trkpt lat="47.62928" lon="6.05724">
        <ele>224</ele>
        <time>2018-10-23T13:14:46Z</time>
      </trkpt>
      <trkpt lat="47.62928" lon="6.05714">
        <ele>224</ele>
        <time>2018-10-23T13:14:47Z</time>
      </trkpt>
      <trkpt lat="47.62928" lon="6.05705">
        <ele>224</ele>
        <time>2018-10-23T13:14:48Z</time>
      </trkpt>
      <trkpt lat="47.62927" lon="6.05696">
        <ele>224</ele>
        <time>2018-10-23T13:14:49Z</time>
      </trkpt>
      <trkpt lat="47.62926" lon="6.05689">
        <ele>224</ele>
        <time>2018-10-23T13:14:50Z</time>
      </trkpt>
      <trkpt lat="47.62925" lon="6.05681">
        <ele>224</ele>
        <time>2018-10-23T13:14:51Z</time>
      </trkpt>
      <trkpt lat="47.62923" lon="6.05673">
        <ele>223</ele>
        <time>2018-10-23T13:14:52Z</time>
      </trkpt>
      <trkpt lat="47.62921" lon="6.05665">
        <ele>223</ele>
        <time>2018-10-23T13:14:53Z</time>
      </trkpt>
      <trkpt lat="47.62919" lon="6.05658">
        <ele>223</ele>
        <time>2018-10-23T13:14:54Z</time>
      </trkpt>
      <trkpt lat="47.62916" lon="6.05649">
        <ele>222</ele>
        <time>2018-10-23T13:14:55Z</time>
      </trkpt>
      <trkpt lat="47.62914" lon="6.05641">
        <ele>221</ele>
        <time>2018-10-23T13:14:56Z</time>
      </trkpt>
      <trkpt lat="47.62913" lon="6.05632">
        <ele>221</ele>
        <time>2018-10-23T13:14:57Z</time>
      </trkpt>
      <trkpt lat="47.62914" lon="6.05623">
        <ele>220</ele>
        <time>2018-10-23T13:14:58Z</time>
      </trkpt>
      <trkpt lat="47.62914" lon="6.05612">
        <ele>219</ele>
        <time>2018-10-23T13:14:59Z</time>
      </trkpt>
      <trkpt lat="47.62913" lon="6.05601">
        <ele>218</ele>
        <time>2018-10-23T13:15:00Z</time>
      </trkpt>
      <trkpt lat="47.62912" lon="6.05589">
        <ele>217</ele>
        <time>2018-10-23T13:15:01Z</time>
      </trkpt>
      <trkpt lat="47.62912" lon="6.05578">
        <ele>215</ele>
        <time>2018-10-23T13:15:02Z</time>
      </trkpt>
      <trkpt lat="47.62913" lon="6.05566">
        <ele>215</ele>
        <time>2018-10-23T13:15:03Z</time>
      </trkpt>
      <trkpt lat="47.62913" lon="6.05555">
        <ele>215</ele>
        <time>2018-10-23T13:15:04Z</time>
      </trkpt>
      <trkpt lat="47.62913" lon="6.05543">
        <ele>215</ele>
        <time>2018-10-23T13:15:05Z</time>
      </trkpt>
      <trkpt lat="47.62913" lon="6.05531">
        <ele>215</ele>
        <time>2018-10-23T13:15:06Z</time>
      </trkpt>
      <trkpt lat="47.62913" lon="6.05521">
        <ele>214</ele>
        <time>2018-10-23T13:15:07Z</time>
      </trkpt>
      <trkpt lat="47.62913" lon="6.05511">
        <ele>214</ele>
        <time>2018-10-23T13:15:08Z</time>
      </trkpt>
      <trkpt lat="47.62912" lon="6.05502">
        <ele>213</ele>
        <time>2018-10-23T13:15:09Z</time>
      </trkpt>
      <trkpt lat="47.62911" lon="6.05493">
        <ele>214</ele>
        <time>2018-10-23T13:15:10Z</time>
      </trkpt>
      <trkpt lat="47.62909" lon="6.05484">
        <ele>214</ele>
        <time>2018-10-23T13:15:11Z</time>
      </trkpt>
      <trkpt lat="47.62906" lon="6.05474">
        <ele>215</ele>
        <time>2018-10-23T13:15:12Z</time>
      </trkpt>
      <trkpt lat="47.62904" lon="6.05464">
        <ele>215</ele>
        <time>2018-10-23T13:15:13Z</time>
      </trkpt>
      <trkpt lat="47.62901" lon="6.05454">
        <ele>215</ele>
        <time>2018-10-23T13:15:14Z</time>
      </trkpt>
      <trkpt lat="47.62899" lon="6.05445">
        <ele>216</ele>
        <time>2018-10-23T13:15:15Z</time>
      </trkpt>
      <trkpt lat="47.62897" lon="6.05435">
        <ele>216</ele>
        <time>2018-10-23T13:15:16Z</time>
      </trkpt>
      <trkpt lat="47.62894" lon="6.05427">
        <ele>216</ele>
        <time>2018-10-23T13:15:17Z</time>
      </trkpt>
      <trkpt lat="47.62891" lon="6.05419">
        <ele>216</ele>
        <time>2018-10-23T13:15:18Z</time>
      </trkpt>
      <trkpt lat="47.62888" lon="6.05412">
        <ele>218</ele>
        <time>2018-10-23T13:15:19Z</time>
      </trkpt>
      <trkpt lat="47.62884" lon="6.05405">
        <ele>218</ele>
        <time>2018-10-23T13:15:20Z</time>
      </trkpt>
      <trkpt lat="47.62881" lon="6.05397">
        <ele>218</ele>
        <time>2018-10-23T13:15:21Z</time>
      </trkpt>
      <trkpt lat="47.62878" lon="6.0539">
        <ele>218</ele>
        <time>2018-10-23T13:15:22Z</time>
      </trkpt>
      <trkpt lat="47.62876" lon="6.05382">
        <ele>219</ele>
        <time>2018-10-23T13:15:23Z</time>
      </trkpt>
      <trkpt lat="47.62875" lon="6.05373">
        <ele>219</ele>
        <time>2018-10-23T13:15:24Z</time>
      </trkpt>
      <trkpt lat="47.62875" lon="6.05364">
        <ele>219</ele>
        <time>2018-10-23T13:15:25Z</time>
      </trkpt>
      <trkpt lat="47.62875" lon="6.05356">
        <ele>219</ele>
        <time>2018-10-23T13:15:26Z</time>
      </trkpt>
      <trkpt lat="47.62874" lon="6.05348">
        <ele>219</ele>
        <time>2018-10-23T13:15:27Z</time>
      </trkpt>
      <trkpt lat="47.62873" lon="6.05341">
        <ele>220</ele>
        <time>2018-10-23T13:15:28Z</time>
      </trkpt>
      <trkpt lat="47.62872" lon="6.05335">
        <ele>219</ele>
        <time>2018-10-23T13:15:29Z</time>
      </trkpt>
      <trkpt lat="47.62871" lon="6.05326">
        <ele>222</ele>
        <time>2018-10-23T13:15:31Z</time>
      </trkpt>
      <trkpt lat="47.62869" lon="6.05314">
        <ele>222</ele>
        <time>2018-10-23T13:15:33Z</time>
      </trkpt>
      <trkpt lat="47.62868" lon="6.05301">
        <ele>222</ele>
        <time>2018-10-23T13:15:35Z</time>
      </trkpt>
      <trkpt lat="47.62866" lon="6.05282">
        <ele>222</ele>
        <time>2018-10-23T13:15:37Z</time>
      </trkpt>
      <trkpt lat="47.62865" lon="6.05275">
        <ele>221</ele>
        <time>2018-10-23T13:15:38Z</time>
      </trkpt>
      <trkpt lat="47.62863" lon="6.05266">
        <ele>221</ele>
        <time>2018-10-23T13:15:39Z</time>
      </trkpt>
      <trkpt lat="47.62861" lon="6.05257">
        <ele>221</ele>
        <time>2018-10-23T13:15:40Z</time>
      </trkpt>
      <trkpt lat="47.62857" lon="6.05249">
        <ele>221</ele>
        <time>2018-10-23T13:15:41Z</time>
      </trkpt>
      <trkpt lat="47.62854" lon="6.0524">
        <ele>221</ele>
        <time>2018-10-23T13:15:42Z</time>
      </trkpt>
      <trkpt lat="47.62851" lon="6.05229">
        <ele>221</ele>
        <time>2018-10-23T13:15:43Z</time>
      </trkpt>
      <trkpt lat="47.62848" lon="6.05219">
        <ele>221</ele>
        <time>2018-10-23T13:15:44Z</time>
      </trkpt>
      <trkpt lat="47.62846" lon="6.05209">
        <ele>221</ele>
        <time>2018-10-23T13:15:45Z</time>
      </trkpt>
      <trkpt lat="47.62844" lon="6.05199">
        <ele>221</ele>
        <time>2018-10-23T13:15:46Z</time>
      </trkpt>
      <trkpt lat="47.62841" lon="6.05188">
        <ele>220</ele>
        <time>2018-10-23T13:15:47Z</time>
      </trkpt>
      <trkpt lat="47.62839" lon="6.05177">
        <ele>219</ele>
        <time>2018-10-23T13:15:48Z</time>
      </trkpt>
      <trkpt lat="47.62837" lon="6.05166">
        <ele>217</ele>
        <time>2018-10-23T13:15:49Z</time>
      </trkpt>
      <trkpt lat="47.62834" lon="6.05155">
        <ele>219</ele>
        <time>2018-10-23T13:15:50Z</time>
      </trkpt>
      <trkpt lat="47.62831" lon="6.05144">
        <ele>215</ele>
        <time>2018-10-23T13:15:51Z</time>
      </trkpt>
      <trkpt lat="47.62829" lon="6.05132">
        <ele>214</ele>
        <time>2018-10-23T13:15:52Z</time>
      </trkpt>
      <trkpt lat="47.62827" lon="6.0512">
        <ele>215</ele>
        <time>2018-10-23T13:15:53Z</time>
      </trkpt>
      <trkpt lat="47.62826" lon="6.05108">
        <ele>216</ele>
        <time>2018-10-23T13:15:54Z</time>
      </trkpt>
      <trkpt lat="47.62824" lon="6.05096">
        <ele>217</ele>
        <time>2018-10-23T13:15:55Z</time>
      </trkpt>
      <trkpt lat="47.62822" lon="6.05085">
        <ele>217</ele>
        <time>2018-10-23T13:15:56Z</time>
      </trkpt>
      <trkpt lat="47.6282" lon="6.05075">
        <ele>218</ele>
        <time>2018-10-23T13:15:57Z</time>
      </trkpt>
      <trkpt lat="47.62818" lon="6.05065">
        <ele>217</ele>
        <time>2018-10-23T13:15:58Z</time>
      </trkpt>
      <trkpt lat="47.62817" lon="6.05054">
        <ele>217</ele>
        <time>2018-10-23T13:15:59Z</time>
      </trkpt>
      <trkpt lat="47.62816" lon="6.05043">
        <ele>217</ele>
        <time>2018-10-23T13:16:00Z</time>
      </trkpt>
      <trkpt lat="47.62814" lon="6.05032">
        <ele>217</ele>
        <time>2018-10-23T13:16:01Z</time>
      </trkpt>
      <trkpt lat="47.62812" lon="6.05022">
        <ele>218</ele>
        <time>2018-10-23T13:16:02Z</time>
      </trkpt>
      <trkpt lat="47.62811" lon="6.05011">
        <ele>218</ele>
        <time>2018-10-23T13:16:03Z</time>
      </trkpt>
      <trkpt lat="47.6281" lon="6.05001">
        <ele>218</ele>
        <time>2018-10-23T13:16:04Z</time>
      </trkpt>
      <trkpt lat="47.62809" lon="6.04993">
        <ele>220</ele>
        <time>2018-10-23T13:16:05Z</time>
      </trkpt>
      <trkpt lat="47.62807" lon="6.04983">
        <ele>220</ele>
        <time>2018-10-23T13:16:06Z</time>
      </trkpt>
      <trkpt lat="47.62805" lon="6.04974">
        <ele>219</ele>
        <time>2018-10-23T13:16:07Z</time>
      </trkpt>
      <trkpt lat="47.62802" lon="6.04964">
        <ele>219</ele>
        <time>2018-10-23T13:16:08Z</time>
      </trkpt>
      <trkpt lat="47.628" lon="6.04952">
        <ele>219</ele>
        <time>2018-10-23T13:16:09Z</time>
      </trkpt>
      <trkpt lat="47.62797" lon="6.04941">
        <ele>219</ele>
        <time>2018-10-23T13:16:10Z</time>
      </trkpt>
      <trkpt lat="47.62795" lon="6.0493">
        <ele>219</ele>
        <time>2018-10-23T13:16:11Z</time>
      </trkpt>
      <trkpt lat="47.62792" lon="6.0492">
        <ele>219</ele>
        <time>2018-10-23T13:16:12Z</time>
      </trkpt>
      <trkpt lat="47.6279" lon="6.04909">
        <ele>220</ele>
        <time>2018-10-23T13:16:13Z</time>
      </trkpt>
      <trkpt lat="47.62788" lon="6.049">
        <ele>220</ele>
        <time>2018-10-23T13:16:14Z</time>
      </trkpt>
      <trkpt lat="47.62786" lon="6.04892">
        <ele>220</ele>
        <time>2018-10-23T13:16:15Z</time>
      </trkpt>
      <trkpt lat="47.62783" lon="6.04882">
        <ele>220</ele>
        <time>2018-10-23T13:16:16Z</time>
      </trkpt>
      <trkpt lat="47.62781" lon="6.0487">
        <ele>220</ele>
        <time>2018-10-23T13:16:17Z</time>
      </trkpt>
      <trkpt lat="47.6278" lon="6.0486">
        <ele>220</ele>
        <time>2018-10-23T13:16:18Z</time>
      </trkpt>
      <trkpt lat="47.62779" lon="6.04851">
        <ele>219</ele>
        <time>2018-10-23T13:16:19Z</time>
      </trkpt>
      <trkpt lat="47.62779" lon="6.04842">
        <ele>219</ele>
        <time>2018-10-23T13:16:20Z</time>
      </trkpt>
      <trkpt lat="47.62778" lon="6.04832">
        <ele>219</ele>
        <time>2018-10-23T13:16:21Z</time>
      </trkpt>
      <trkpt lat="47.62777" lon="6.04823">
        <ele>219</ele>
        <time>2018-10-23T13:16:22Z</time>
      </trkpt>
      <trkpt lat="47.62776" lon="6.04815">
        <ele>219</ele>
        <time>2018-10-23T13:16:23Z</time>
      </trkpt>
      <trkpt lat="47.62776" lon="6.04807">
        <ele>220</ele>
        <time>2018-10-23T13:16:24Z</time>
      </trkpt>
      <trkpt lat="47.62776" lon="6.04798">
        <ele>220</ele>
        <time>2018-10-23T13:16:25Z</time>
      </trkpt>
      <trkpt lat="47.62775" lon="6.04788">
        <ele>220</ele>
        <time>2018-10-23T13:16:26Z</time>
      </trkpt>
      <trkpt lat="47.62774" lon="6.04779">
        <ele>219</ele>
        <time>2018-10-23T13:16:27Z</time>
      </trkpt>
      <trkpt lat="47.62773" lon="6.04771">
        <ele>219</ele>
        <time>2018-10-23T13:16:28Z</time>
      </trkpt>
      <trkpt lat="47.62773" lon="6.04763">
        <ele>218</ele>
        <time>2018-10-23T13:16:29Z</time>
      </trkpt>
      <trkpt lat="47.62773" lon="6.04756">
        <ele>218</ele>
        <time>2018-10-23T13:16:30Z</time>
      </trkpt>
      <trkpt lat="47.62773" lon="6.04748">
        <ele>216</ele>
        <time>2018-10-23T13:16:31Z</time>
      </trkpt>
      <trkpt lat="47.62773" lon="6.0474">
        <ele>216</ele>
        <time>2018-10-23T13:16:32Z</time>
      </trkpt>
      <trkpt lat="47.62773" lon="6.04732">
        <ele>216</ele>
        <time>2018-10-23T13:16:33Z</time>
      </trkpt>
      <trkpt lat="47.62773" lon="6.04723">
        <ele>217</ele>
        <time>2018-10-23T13:16:34Z</time>
      </trkpt>
      <trkpt lat="47.62773" lon="6.04714">
        <ele>217</ele>
        <time>2018-10-23T13:16:35Z</time>
      </trkpt>
      <trkpt lat="47.62773" lon="6.04708">
        <ele>217</ele>
        <time>2018-10-23T13:16:36Z</time>
      </trkpt>
      <trkpt lat="47.62774" lon="6.04701">
        <ele>216</ele>
        <time>2018-10-23T13:16:37Z</time>
      </trkpt>
      <trkpt lat="47.62775" lon="6.04687">
        <ele>216</ele>
        <time>2018-10-23T13:16:39Z</time>
      </trkpt>
      <trkpt lat="47.62775" lon="6.04679">
        <ele>215</ele>
        <time>2018-10-23T13:16:40Z</time>
      </trkpt>
      <trkpt lat="47.62775" lon="6.04671">
        <ele>215</ele>
        <time>2018-10-23T13:16:41Z</time>
      </trkpt>
      <trkpt lat="47.62775" lon="6.04664">
        <ele>212</ele>
        <time>2018-10-23T13:16:42Z</time>
      </trkpt>
      <trkpt lat="47.62776" lon="6.04651">
        <ele>213</ele>
        <time>2018-10-23T13:16:44Z</time>
      </trkpt>
      <trkpt lat="47.62776" lon="6.04644">
        <ele>213</ele>
        <time>2018-10-23T13:16:45Z</time>
      </trkpt>
      <trkpt lat="47.62776" lon="6.04636">
        <ele>212</ele>
        <time>2018-10-23T13:16:46Z</time>
      </trkpt>
      <trkpt lat="47.62776" lon="6.04627">
        <ele>212</ele>
        <time>2018-10-23T13:16:47Z</time>
      </trkpt>
      <trkpt lat="47.62776" lon="6.04619">
        <ele>212</ele>
        <time>2018-10-23T13:16:48Z</time>
      </trkpt>
      <trkpt lat="47.62776" lon="6.04611">
        <ele>212</ele>
        <time>2018-10-23T13:16:49Z</time>
      </trkpt>
      <trkpt lat="47.62776" lon="6.04602">
        <ele>212</ele>
        <time>2018-10-23T13:16:50Z</time>
      </trkpt>
      <trkpt lat="47.62777" lon="6.04595">
        <ele>211</ele>
        <time>2018-10-23T13:16:51Z</time>
      </trkpt>
      <trkpt lat="47.62776" lon="6.04587">
        <ele>211</ele>
        <time>2018-10-23T13:16:52Z</time>
      </trkpt>
      <trkpt lat="47.62776" lon="6.04579">
        <ele>209</ele>
        <time>2018-10-23T13:16:53Z</time>
      </trkpt>
      <trkpt lat="47.62776" lon="6.04571">
        <ele>209</ele>
        <time>2018-10-23T13:16:54Z</time>
      </trkpt>
      <trkpt lat="47.62776" lon="6.04564">
        <ele>209</ele>
        <time>2018-10-23T13:16:55Z</time>
      </trkpt>
      <trkpt lat="47.62777" lon="6.04558">
        <ele>209</ele>
        <time>2018-10-23T13:16:56Z</time>
      </trkpt>
      <trkpt lat="47.62777" lon="6.04545">
        <ele>209</ele>
        <time>2018-10-23T13:16:58Z</time>
      </trkpt>
      <trkpt lat="47.62778" lon="6.04531">
        <ele>209</ele>
        <time>2018-10-23T13:17:00Z</time>
      </trkpt>
      <trkpt lat="47.62778" lon="6.04524">
        <ele>209</ele>
        <time>2018-10-23T13:17:01Z</time>
      </trkpt>
      <trkpt lat="47.62778" lon="6.04517">
        <ele>209</ele>
        <time>2018-10-23T13:17:02Z</time>
      </trkpt>
      <trkpt lat="47.62779" lon="6.0451">
        <ele>209</ele>
        <time>2018-10-23T13:17:03Z</time>
      </trkpt>
      <trkpt lat="47.62779" lon="6.04503">
        <ele>208</ele>
        <time>2018-10-23T13:17:04Z</time>
      </trkpt>
      <trkpt lat="47.62779" lon="6.04496">
        <ele>208</ele>
        <time>2018-10-23T13:17:05Z</time>
      </trkpt>
      <trkpt lat="47.6278" lon="6.04489">
        <ele>208</ele>
        <time>2018-10-23T13:17:06Z</time>
      </trkpt>
      <trkpt lat="47.6278" lon="6.04482">
        <ele>208</ele>
        <time>2018-10-23T13:17:07Z</time>
      </trkpt>
      <trkpt lat="47.62781" lon="6.04475">
        <ele>208</ele>
        <time>2018-10-23T13:17:08Z</time>
      </trkpt>
      <trkpt lat="47.62781" lon="6.04468">
        <ele>208</ele>
        <time>2018-10-23T13:17:09Z</time>
      </trkpt>
      <trkpt lat="47.62782" lon="6.04461">
        <ele>208</ele>
        <time>2018-10-23T13:17:10Z</time>
      </trkpt>
      <trkpt lat="47.62782" lon="6.04454">
        <ele>208</ele>
        <time>2018-10-23T13:17:11Z</time>
      </trkpt>
      <trkpt lat="47.62782" lon="6.04448">
        <ele>208</ele>
        <time>2018-10-23T13:17:12Z</time>
      </trkpt>
      <trkpt lat="47.62783" lon="6.04441">
        <ele>208</ele>
        <time>2018-10-23T13:17:13Z</time>
      </trkpt>
      <trkpt lat="47.62783" lon="6.04434">
        <ele>208</ele>
        <time>2018-10-23T13:17:14Z</time>
      </trkpt>
      <trkpt lat="47.62784" lon="6.04427">
        <ele>208</ele>
        <time>2018-10-23T13:17:15Z</time>
      </trkpt>
      <trkpt lat="47.62785" lon="6.0442">
        <ele>208</ele>
        <time>2018-10-23T13:17:16Z</time>
      </trkpt>
      <trkpt lat="47.62785" lon="6.04413">
        <ele>208</ele>
        <time>2018-10-23T13:17:17Z</time>
      </trkpt>
      <trkpt lat="47.62786" lon="6.04406">
        <ele>208</ele>
        <time>2018-10-23T13:17:18Z</time>
      </trkpt>
      <trkpt lat="47.62787" lon="6.04398">
        <ele>208</ele>
        <time>2018-10-23T13:17:19Z</time>
      </trkpt>
      <trkpt lat="47.62789" lon="6.0439">
        <ele>208</ele>
        <time>2018-10-23T13:17:20Z</time>
      </trkpt>
      <trkpt lat="47.6279" lon="6.04381">
        <ele>208</ele>
        <time>2018-10-23T13:17:21Z</time>
      </trkpt>
      <trkpt lat="47.62793" lon="6.04373">
        <ele>208</ele>
        <time>2018-10-23T13:17:22Z</time>
      </trkpt>
      <trkpt lat="47.62795" lon="6.04364">
        <ele>208</ele>
        <time>2018-10-23T13:17:23Z</time>
      </trkpt>
      <trkpt lat="47.62798" lon="6.04355">
        <ele>208</ele>
        <time>2018-10-23T13:17:24Z</time>
      </trkpt>
      <trkpt lat="47.62801" lon="6.04347">
        <ele>208</ele>
        <time>2018-10-23T13:17:25Z</time>
      </trkpt>
      <trkpt lat="47.62803" lon="6.04339">
        <ele>208</ele>
        <time>2018-10-23T13:17:26Z</time>
      </trkpt>
      <trkpt lat="47.62806" lon="6.04331">
        <ele>208</ele>
        <time>2018-10-23T13:17:27Z</time>
      </trkpt>
      <trkpt lat="47.62808" lon="6.04323">
        <ele>208</ele>
        <time>2018-10-23T13:17:28Z</time>
      </trkpt>
      <trkpt lat="47.6281" lon="6.04317">
        <ele>207</ele>
        <time>2018-10-23T13:17:29Z</time>
      </trkpt>
      <trkpt lat="47.62813" lon="6.04311">
        <ele>207</ele>
        <time>2018-10-23T13:17:30Z</time>
      </trkpt>
      <trkpt lat="47.62816" lon="6.04305">
        <ele>207</ele>
        <time>2018-10-23T13:17:31Z</time>
      </trkpt>
      <trkpt lat="47.62818" lon="6.04299">
        <ele>207</ele>
        <time>2018-10-23T13:17:32Z</time>
      </trkpt>
      <trkpt lat="47.62821" lon="6.04292">
        <ele>207</ele>
        <time>2018-10-23T13:17:33Z</time>
      </trkpt>
      <trkpt lat="47.62823" lon="6.04286">
        <ele>207</ele>
        <time>2018-10-23T13:17:34Z</time>
      </trkpt>
      <trkpt lat="47.62826" lon="6.04281">
        <ele>207</ele>
        <time>2018-10-23T13:17:35Z</time>
      </trkpt>
      <trkpt lat="47.62831" lon="6.0427">
        <ele>207</ele>
        <time>2018-10-23T13:17:37Z</time>
      </trkpt>
      <trkpt lat="47.62835" lon="6.0426">
        <ele>207</ele>
        <time>2018-10-23T13:17:39Z</time>
      </trkpt>
      <trkpt lat="47.6284" lon="6.0425">
        <ele>207</ele>
        <time>2018-10-23T13:17:41Z</time>
      </trkpt>
      <trkpt lat="47.62844" lon="6.04241">
        <ele>207</ele>
        <time>2018-10-23T13:17:43Z</time>
      </trkpt>
      <trkpt lat="47.62849" lon="6.04232">
        <ele>208</ele>
        <time>2018-10-23T13:17:45Z</time>
      </trkpt>
      <trkpt lat="47.62852" lon="6.04225">
        <ele>208</ele>
        <time>2018-10-23T13:17:47Z</time>
      </trkpt>
      <trkpt lat="47.62855" lon="6.04219">
        <ele>208</ele>
        <time>2018-10-23T13:17:49Z</time>
      </trkpt>
      <trkpt lat="47.6286" lon="6.04211">
        <ele>209</ele>
        <time>2018-10-23T13:17:51Z</time>
      </trkpt>
      <trkpt lat="47.62864" lon="6.04203">
        <ele>209</ele>
        <time>2018-10-23T13:17:53Z</time>
      </trkpt>
      <trkpt lat="47.62868" lon="6.04195">
        <ele>209</ele>
        <time>2018-10-23T13:17:54Z</time>
      </trkpt>
      <trkpt lat="47.62872" lon="6.04186">
        <ele>209</ele>
        <time>2018-10-23T13:17:56Z</time>
      </trkpt>
      <trkpt lat="47.62876" lon="6.04177">
        <ele>209</ele>
        <time>2018-10-23T13:17:58Z</time>
      </trkpt>
      <trkpt lat="47.62881" lon="6.04168">
        <ele>209</ele>
        <time>2018-10-23T13:18:00Z</time>
      </trkpt>
      <trkpt lat="47.62885" lon="6.04159">
        <ele>209</ele>
        <time>2018-10-23T13:18:02Z</time>
      </trkpt>
      <trkpt lat="47.62889" lon="6.0415">
        <ele>209</ele>
        <time>2018-10-23T13:18:04Z</time>
      </trkpt>
      <trkpt lat="47.62893" lon="6.0414">
        <ele>209</ele>
        <time>2018-10-23T13:18:06Z</time>
      </trkpt>
      <trkpt lat="47.62898" lon="6.04131">
        <ele>209</ele>
        <time>2018-10-23T13:18:08Z</time>
      </trkpt>
      <trkpt lat="47.62902" lon="6.04122">
        <ele>209</ele>
        <time>2018-10-23T13:18:10Z</time>
      </trkpt>
      <trkpt lat="47.62906" lon="6.04113">
        <ele>208</ele>
        <time>2018-10-23T13:18:12Z</time>
      </trkpt>
      <trkpt lat="47.6291" lon="6.04104">
        <ele>208</ele>
        <time>2018-10-23T13:18:14Z</time>
      </trkpt>
      <trkpt lat="47.62914" lon="6.04095">
        <ele>208</ele>
        <time>2018-10-23T13:18:16Z</time>
      </trkpt>
      <trkpt lat="47.62918" lon="6.04086">
        <ele>208</ele>
        <time>2018-10-23T13:18:18Z</time>
      </trkpt>
      <trkpt lat="47.62923" lon="6.04076">
        <ele>208</ele>
        <time>2018-10-23T13:18:20Z</time>
      </trkpt>
      <trkpt lat="47.62928" lon="6.04067">
        <ele>208</ele>
        <time>2018-10-23T13:18:22Z</time>
      </trkpt>
      <trkpt lat="47.62934" lon="6.04057">
        <ele>207</ele>
        <time>2018-10-23T13:18:24Z</time>
      </trkpt>
      <trkpt lat="47.62939" lon="6.04047">
        <ele>207</ele>
        <time>2018-10-23T13:18:26Z</time>
      </trkpt>
      <trkpt lat="47.62946" lon="6.04038">
        <ele>207</ele>
        <time>2018-10-23T13:18:28Z</time>
      </trkpt>
      <trkpt lat="47.62949" lon="6.04033">
        <ele>207</ele>
        <time>2018-10-23T13:18:29Z</time>
      </trkpt>
      <trkpt lat="47.62953" lon="6.04028">
        <ele>207</ele>
        <time>2018-10-23T13:18:30Z</time>
      </trkpt>
      <trkpt lat="47.62957" lon="6.04023">
        <ele>207</ele>
        <time>2018-10-23T13:18:31Z</time>
      </trkpt>
      <trkpt lat="47.62961" lon="6.04018">
        <ele>207</ele>
        <time>2018-10-23T13:18:32Z</time>
      </trkpt>
      <trkpt lat="47.62964" lon="6.04014">
        <ele>207</ele>
        <time>2018-10-23T13:18:33Z</time>
      </trkpt>
      <trkpt lat="47.62968" lon="6.04009">
        <ele>207</ele>
        <time>2018-10-23T13:18:34Z</time>
      </trkpt>
      <trkpt lat="47.62971" lon="6.04005">
        <ele>207</ele>
        <time>2018-10-23T13:18:35Z</time>
      </trkpt>
      <trkpt lat="47.62975" lon="6.04">
        <ele>206</ele>
        <time>2018-10-23T13:18:36Z</time>
      </trkpt>
      <trkpt lat="47.62979" lon="6.03995">
        <ele>206</ele>
        <time>2018-10-23T13:18:37Z</time>
      </trkpt>
      <trkpt lat="47.62982" lon="6.0399">
        <ele>206</ele>
        <time>2018-10-23T13:18:38Z</time>
      </trkpt>
      <trkpt lat="47.62986" lon="6.03985">
        <ele>206</ele>
        <time>2018-10-23T13:18:39Z</time>
      </trkpt>
      <trkpt lat="47.6299" lon="6.03981">
        <ele>206</ele>
        <time>2018-10-23T13:18:40Z</time>
      </trkpt>
      <trkpt lat="47.62994" lon="6.03976">
        <ele>206</ele>
        <time>2018-10-23T13:18:41Z</time>
      </trkpt>
      <trkpt lat="47.62999" lon="6.03971">
        <ele>206</ele>
        <time>2018-10-23T13:18:42Z</time>
      </trkpt>
      <trkpt lat="47.63003" lon="6.03967">
        <ele>206</ele>
        <time>2018-10-23T13:18:43Z</time>
      </trkpt>
      <trkpt lat="47.63007" lon="6.03962">
        <ele>206</ele>
        <time>2018-10-23T13:18:44Z</time>
      </trkpt>
      <trkpt lat="47.63011" lon="6.03957">
        <ele>207</ele>
        <time>2018-10-23T13:18:45Z</time>
      </trkpt>
      <trkpt lat="47.63016" lon="6.03952">
        <ele>207</ele>
        <time>2018-10-23T13:18:46Z</time>
      </trkpt>
      <trkpt lat="47.63021" lon="6.03949">
        <ele>207</ele>
        <time>2018-10-23T13:18:47Z</time>
      </trkpt>
      <trkpt lat="47.63026" lon="6.03946">
        <ele>207</ele>
        <time>2018-10-23T13:18:48Z</time>
      </trkpt>
      <trkpt lat="47.63031" lon="6.03945">
        <ele>207</ele>
        <time>2018-10-23T13:18:49Z</time>
      </trkpt>
      <trkpt lat="47.63037" lon="6.03944">
        <ele>207</ele>
        <time>2018-10-23T13:18:50Z</time>
      </trkpt>
      <trkpt lat="47.63042" lon="6.03944">
        <ele>207</ele>
        <time>2018-10-23T13:18:51Z</time>
      </trkpt>
      <trkpt lat="47.63048" lon="6.03945">
        <ele>207</ele>
        <time>2018-10-23T13:18:52Z</time>
      </trkpt>
      <trkpt lat="47.63053" lon="6.03945">
        <ele>207</ele>
        <time>2018-10-23T13:18:53Z</time>
      </trkpt>
      <trkpt lat="47.63059" lon="6.03946">
        <ele>207</ele>
        <time>2018-10-23T13:18:54Z</time>
      </trkpt>
      <trkpt lat="47.63064" lon="6.03948">
        <ele>207</ele>
        <time>2018-10-23T13:18:55Z</time>
      </trkpt>
      <trkpt lat="47.6307" lon="6.03949">
        <ele>207</ele>
        <time>2018-10-23T13:18:56Z</time>
      </trkpt>
      <trkpt lat="47.63075" lon="6.03951">
        <ele>207</ele>
        <time>2018-10-23T13:18:57Z</time>
      </trkpt>
      <trkpt lat="47.63081" lon="6.03953">
        <ele>207</ele>
        <time>2018-10-23T13:18:58Z</time>
      </trkpt>
      <trkpt lat="47.63086" lon="6.03955">
        <ele>208</ele>
        <time>2018-10-23T13:18:59Z</time>
      </trkpt>
      <trkpt lat="47.63091" lon="6.03958">
        <ele>208</ele>
        <time>2018-10-23T13:19:00Z</time>
      </trkpt>
      <trkpt lat="47.63096" lon="6.03961">
        <ele>208</ele>
        <time>2018-10-23T13:19:01Z</time>
      </trkpt>
      <trkpt lat="47.63101" lon="6.03966">
        <ele>208</ele>
        <time>2018-10-23T13:19:02Z</time>
      </trkpt>
      <trkpt lat="47.63105" lon="6.0397">
        <ele>208</ele>
        <time>2018-10-23T13:19:03Z</time>
      </trkpt>
      <trkpt lat="47.6311" lon="6.03975">
        <ele>208</ele>
        <time>2018-10-23T13:19:04Z</time>
      </trkpt>
      <trkpt lat="47.63114" lon="6.03979">
        <ele>208</ele>
        <time>2018-10-23T13:19:05Z</time>
      </trkpt>
      <trkpt lat="47.63118" lon="6.03984">
        <ele>208</ele>
        <time>2018-10-23T13:19:06Z</time>
      </trkpt>
      <trkpt lat="47.63121" lon="6.03988">
        <ele>208</ele>
        <time>2018-10-23T13:19:07Z</time>
      </trkpt>
      <trkpt lat="47.63126" lon="6.03992">
        <ele>208</ele>
        <time>2018-10-23T13:19:08Z</time>
      </trkpt>
      <trkpt lat="47.6313" lon="6.03995">
        <ele>208</ele>
        <time>2018-10-23T13:19:09Z</time>
      </trkpt>
      <trkpt lat="47.63134" lon="6.03998">
        <ele>208</ele>
        <time>2018-10-23T13:19:10Z</time>
      </trkpt>
      <trkpt lat="47.63138" lon="6.04001">
        <ele>210</ele>
        <time>2018-10-23T13:19:11Z</time>
      </trkpt>
      <trkpt lat="47.63147" lon="6.04005">
        <ele>210</ele>
        <time>2018-10-23T13:19:13Z</time>
      </trkpt>
      <trkpt lat="47.63156" lon="6.04006">
        <ele>209</ele>
        <time>2018-10-23T13:19:15Z</time>
      </trkpt>
      <trkpt lat="47.63161" lon="6.04005">
        <ele>209</ele>
        <time>2018-10-23T13:19:16Z</time>
      </trkpt>
      <trkpt lat="47.63169" lon="6.04003">
        <ele>209</ele>
        <time>2018-10-23T13:19:18Z</time>
      </trkpt>
      <trkpt lat="47.63177" lon="6.03999">
        <ele>209</ele>
        <time>2018-10-23T13:19:20Z</time>
      </trkpt>
      <trkpt lat="47.63185" lon="6.03995">
        <ele>209</ele>
        <time>2018-10-23T13:19:22Z</time>
      </trkpt>
      <trkpt lat="47.63193" lon="6.0399">
        <ele>209</ele>
        <time>2018-10-23T13:19:24Z</time>
      </trkpt>
      <trkpt lat="47.63201" lon="6.03984">
        <ele>209</ele>
        <time>2018-10-23T13:19:26Z</time>
      </trkpt>
      <trkpt lat="47.63205" lon="6.03981">
        <ele>209</ele>
        <time>2018-10-23T13:19:27Z</time>
      </trkpt>
      <trkpt lat="47.63209" lon="6.03978">
        <ele>209</ele>
        <time>2018-10-23T13:19:28Z</time>
      </trkpt>
      <trkpt lat="47.63213" lon="6.03974">
        <ele>209</ele>
        <time>2018-10-23T13:19:29Z</time>
      </trkpt>
      <trkpt lat="47.63218" lon="6.03971">
        <ele>209</ele>
        <time>2018-10-23T13:19:30Z</time>
      </trkpt>
      <trkpt lat="47.63225" lon="6.03966">
        <ele>209</ele>
        <time>2018-10-23T13:19:32Z</time>
      </trkpt>
      <trkpt lat="47.63233" lon="6.03961">
        <ele>209</ele>
        <time>2018-10-23T13:19:34Z</time>
      </trkpt>
      <trkpt lat="47.6324" lon="6.03955">
        <ele>209</ele>
        <time>2018-10-23T13:19:36Z</time>
      </trkpt>
      <trkpt lat="47.63245" lon="6.03951">
        <ele>209</ele>
        <time>2018-10-23T13:19:37Z</time>
      </trkpt>
      <trkpt lat="47.63249" lon="6.03948">
        <ele>209</ele>
        <time>2018-10-23T13:19:38Z</time>
      </trkpt>
      <trkpt lat="47.63253" lon="6.03944">
        <ele>211</ele>
        <time>2018-10-23T13:19:39Z</time>
      </trkpt>
      <trkpt lat="47.63258" lon="6.03941">
        <ele>211</ele>
        <time>2018-10-23T13:19:40Z</time>
      </trkpt>
      <trkpt lat="47.63263" lon="6.03937">
        <ele>211</ele>
        <time>2018-10-23T13:19:41Z</time>
      </trkpt>
      <trkpt lat="47.63269" lon="6.03933">
        <ele>211</ele>
        <time>2018-10-23T13:19:42Z</time>
      </trkpt>
      <trkpt lat="47.63274" lon="6.03929">
        <ele>211</ele>
        <time>2018-10-23T13:19:43Z</time>
      </trkpt>
      <trkpt lat="47.6328" lon="6.03926">
        <ele>211</ele>
        <time>2018-10-23T13:19:44Z</time>
      </trkpt>
      <trkpt lat="47.63286" lon="6.03922">
        <ele>212</ele>
        <time>2018-10-23T13:19:45Z</time>
      </trkpt>
      <trkpt lat="47.63292" lon="6.03919">
        <ele>212</ele>
        <time>2018-10-23T13:19:46Z</time>
      </trkpt>
      <trkpt lat="47.63297" lon="6.03915">
        <ele>210</ele>
        <time>2018-10-23T13:19:47Z</time>
      </trkpt>
      <trkpt lat="47.63304" lon="6.03911">
        <ele>210</ele>
        <time>2018-10-23T13:19:48Z</time>
      </trkpt>
      <trkpt lat="47.63309" lon="6.03907">
        <ele>210</ele>
        <time>2018-10-23T13:19:49Z</time>
      </trkpt>
      <trkpt lat="47.63315" lon="6.03903">
        <ele>210</ele>
        <time>2018-10-23T13:19:50Z</time>
      </trkpt>
      <trkpt lat="47.63321" lon="6.03899">
        <ele>210</ele>
        <time>2018-10-23T13:19:51Z</time>
      </trkpt>
      <trkpt lat="47.63327" lon="6.03895">
        <ele>210</ele>
        <time>2018-10-23T13:19:52Z</time>
      </trkpt>
      <trkpt lat="47.63333" lon="6.03891">
        <ele>210</ele>
        <time>2018-10-23T13:19:53Z</time>
      </trkpt>
      <trkpt lat="47.63339" lon="6.03888">
        <ele>212</ele>
        <time>2018-10-23T13:19:54Z</time>
      </trkpt>
      <trkpt lat="47.63344" lon="6.03885">
        <ele>212</ele>
        <time>2018-10-23T13:19:55Z</time>
      </trkpt>
      <trkpt lat="47.6335" lon="6.03881">
        <ele>212</ele>
        <time>2018-10-23T13:19:56Z</time>
      </trkpt>
      <trkpt lat="47.63355" lon="6.03877">
        <ele>212</ele>
        <time>2018-10-23T13:19:57Z</time>
      </trkpt>
      <trkpt lat="47.6336" lon="6.03873">
        <ele>212</ele>
        <time>2018-10-23T13:19:58Z</time>
      </trkpt>
      <trkpt lat="47.63365" lon="6.03869">
        <ele>212</ele>
        <time>2018-10-23T13:19:59Z</time>
      </trkpt>
      <trkpt lat="47.6337" lon="6.03865">
        <ele>212</ele>
        <time>2018-10-23T13:20:00Z</time>
      </trkpt>
      <trkpt lat="47.63374" lon="6.03859">
        <ele>212</ele>
        <time>2018-10-23T13:20:01Z</time>
      </trkpt>
      <trkpt lat="47.63379" lon="6.03854">
        <ele>212</ele>
        <time>2018-10-23T13:20:02Z</time>
      </trkpt>
      <trkpt lat="47.63383" lon="6.03849">
        <ele>213</ele>
        <time>2018-10-23T13:20:03Z</time>
      </trkpt>
      <trkpt lat="47.63387" lon="6.03845">
        <ele>213</ele>
        <time>2018-10-23T13:20:04Z</time>
      </trkpt>
      <trkpt lat="47.63391" lon="6.03841">
        <ele>213</ele>
        <time>2018-10-23T13:20:05Z</time>
      </trkpt>
      <trkpt lat="47.63395" lon="6.03836">
        <ele>213</ele>
        <time>2018-10-23T13:20:06Z</time>
      </trkpt>
      <trkpt lat="47.63399" lon="6.03832">
        <ele>211</ele>
        <time>2018-10-23T13:20:07Z</time>
      </trkpt>
      <trkpt lat="47.63403" lon="6.03828">
        <ele>211</ele>
        <time>2018-10-23T13:20:08Z</time>
      </trkpt>
      <trkpt lat="47.63406" lon="6.03824">
        <ele>211</ele>
        <time>2018-10-23T13:20:09Z</time>
      </trkpt>
      <trkpt lat="47.6341" lon="6.03819">
        <ele>211</ele>
        <time>2018-10-23T13:20:10Z</time>
      </trkpt>
      <trkpt lat="47.63414" lon="6.03815">
        <ele>211</ele>
        <time>2018-10-23T13:20:11Z</time>
      </trkpt>
      <trkpt lat="47.63417" lon="6.03811">
        <ele>213</ele>
        <time>2018-10-23T13:20:12Z</time>
      </trkpt>
      <trkpt lat="47.63421" lon="6.03807">
        <ele>213</ele>
        <time>2018-10-23T13:20:13Z</time>
      </trkpt>
      <trkpt lat="47.63425" lon="6.03803">
        <ele>213</ele>
        <time>2018-10-23T13:20:14Z</time>
      </trkpt>
      <trkpt lat="47.63429" lon="6.03799">
        <ele>212</ele>
        <time>2018-10-23T13:20:15Z</time>
      </trkpt>
      <trkpt lat="47.63432" lon="6.03795">
        <ele>212</ele>
        <time>2018-10-23T13:20:16Z</time>
      </trkpt>
      <trkpt lat="47.63439" lon="6.03788">
        <ele>212</ele>
        <time>2018-10-23T13:20:18Z</time>
      </trkpt>
      <trkpt lat="47.63446" lon="6.03781">
        <ele>212</ele>
        <time>2018-10-23T13:20:20Z</time>
      </trkpt>
      <trkpt lat="47.63452" lon="6.03776">
        <ele>212</ele>
        <time>2018-10-23T13:20:22Z</time>
      </trkpt>
      <trkpt lat="47.63458" lon="6.03771">
        <ele>212</ele>
        <time>2018-10-23T13:20:24Z</time>
      </trkpt>
      <trkpt lat="47.63465" lon="6.03764">
        <ele>212</ele>
        <time>2018-10-23T13:20:26Z</time>
      </trkpt>
      <trkpt lat="47.63472" lon="6.03758">
        <ele>212</ele>
        <time>2018-10-23T13:20:28Z</time>
      </trkpt>
      <trkpt lat="47.63479" lon="6.03753">
        <ele>212</ele>
        <time>2018-10-23T13:20:30Z</time>
      </trkpt>
      <trkpt lat="47.63483" lon="6.0375">
        <ele>210</ele>
        <time>2018-10-23T13:20:32Z</time>
      </trkpt>
      <trkpt lat="47.63489" lon="6.03744">
        <ele>210</ele>
        <time>2018-10-23T13:20:34Z</time>
      </trkpt>
      <trkpt lat="47.63495" lon="6.03739">
        <ele>210</ele>
        <time>2018-10-23T13:20:36Z</time>
      </trkpt>
      <trkpt lat="47.63501" lon="6.03734">
        <ele>211</ele>
        <time>2018-10-23T13:20:37Z</time>
      </trkpt>
      <trkpt lat="47.63508" lon="6.03728">
        <ele>211</ele>
        <time>2018-10-23T13:20:39Z</time>
      </trkpt>
      <trkpt lat="47.63514" lon="6.03721">
        <ele>210</ele>
        <time>2018-10-23T13:20:41Z</time>
      </trkpt>
      <trkpt lat="47.63521" lon="6.03714">
        <ele>210</ele>
        <time>2018-10-23T13:20:43Z</time>
      </trkpt>
      <trkpt lat="47.63529" lon="6.03707">
        <ele>210</ele>
        <time>2018-10-23T13:20:45Z</time>
      </trkpt>
      <trkpt lat="47.63536" lon="6.03701">
        <ele>210</ele>
        <time>2018-10-23T13:20:47Z</time>
      </trkpt>
      <trkpt lat="47.63544" lon="6.03694">
        <ele>210</ele>
        <time>2018-10-23T13:20:49Z</time>
      </trkpt>
      <trkpt lat="47.63551" lon="6.03688">
        <ele>210</ele>
        <time>2018-10-23T13:20:51Z</time>
      </trkpt>
      <trkpt lat="47.63559" lon="6.03683">
        <ele>210</ele>
        <time>2018-10-23T13:20:53Z</time>
      </trkpt>
      <trkpt lat="47.63568" lon="6.03678">
        <ele>209</ele>
        <time>2018-10-23T13:20:55Z</time>
      </trkpt>
      <trkpt lat="47.63576" lon="6.03672">
        <ele>209</ele>
        <time>2018-10-23T13:20:57Z</time>
      </trkpt>
      <trkpt lat="47.63584" lon="6.03666">
        <ele>208</ele>
        <time>2018-10-23T13:20:59Z</time>
      </trkpt>
      <trkpt lat="47.63591" lon="6.0366">
        <ele>208</ele>
        <time>2018-10-23T13:21:01Z</time>
      </trkpt>
      <trkpt lat="47.63599" lon="6.03654">
        <ele>208</ele>
        <time>2018-10-23T13:21:03Z</time>
      </trkpt>
      <trkpt lat="47.63606" lon="6.03648">
        <ele>208</ele>
        <time>2018-10-23T13:21:05Z</time>
      </trkpt>
      <trkpt lat="47.63613" lon="6.03642">
        <ele>208</ele>
        <time>2018-10-23T13:21:07Z</time>
      </trkpt>
      <trkpt lat="47.63619" lon="6.03636">
        <ele>208</ele>
        <time>2018-10-23T13:21:09Z</time>
      </trkpt>
      <trkpt lat="47.63627" lon="6.03629">
        <ele>208</ele>
        <time>2018-10-23T13:21:11Z</time>
      </trkpt>
      <trkpt lat="47.63635" lon="6.03623">
        <ele>208</ele>
        <time>2018-10-23T13:21:13Z</time>
      </trkpt>
      <trkpt lat="47.63641" lon="6.03616">
        <ele>208</ele>
        <time>2018-10-23T13:21:15Z</time>
      </trkpt>
      <trkpt lat="47.63648" lon="6.03608">
        <ele>208</ele>
        <time>2018-10-23T13:21:17Z</time>
      </trkpt>
      <trkpt lat="47.63654" lon="6.03601">
        <ele>208</ele>
        <time>2018-10-23T13:21:19Z</time>
      </trkpt>
      <trkpt lat="47.63659" lon="6.03592">
        <ele>208</ele>
        <time>2018-10-23T13:21:21Z</time>
      </trkpt>
      <trkpt lat="47.63665" lon="6.03585">
        <ele>208</ele>
        <time>2018-10-23T13:21:23Z</time>
      </trkpt>
      <trkpt lat="47.63668" lon="6.0358">
        <ele>208</ele>
        <time>2018-10-23T13:21:25Z</time>
      </trkpt>
      <trkpt lat="47.63673" lon="6.03575">
        <ele>209</ele>
        <time>2018-10-23T13:21:27Z</time>
      </trkpt>
      <trkpt lat="47.63681" lon="6.03565">
        <ele>210</ele>
        <time>2018-10-23T13:21:29Z</time>
      </trkpt>
      <trkpt lat="47.63686" lon="6.03556">
        <ele>210</ele>
        <time>2018-10-23T13:21:31Z</time>
      </trkpt>
      <trkpt lat="47.6369" lon="6.03546">
        <ele>210</ele>
        <time>2018-10-23T13:21:33Z</time>
      </trkpt>
      <trkpt lat="47.63694" lon="6.0354">
        <ele>210</ele>
        <time>2018-10-23T13:21:35Z</time>
      </trkpt>
      <trkpt lat="47.637" lon="6.03532">
        <ele>210</ele>
        <time>2018-10-23T13:21:37Z</time>
      </trkpt>
      <trkpt lat="47.63705" lon="6.0353">
        <ele>210</ele>
        <time>2018-10-23T13:21:39Z</time>
      </trkpt>
      <trkpt lat="47.6371" lon="6.03528">
        <ele>210</ele>
        <time>2018-10-23T13:21:41Z</time>
      </trkpt>
      <trkpt lat="47.63716" lon="6.03527">
        <ele>211</ele>
        <time>2018-10-23T13:21:43Z</time>
      </trkpt>
      <trkpt lat="47.63721" lon="6.03525">
        <ele>211</ele>
        <time>2018-10-23T13:21:45Z</time>
      </trkpt>
      <trkpt lat="47.63728" lon="6.03522">
        <ele>211</ele>
        <time>2018-10-23T13:21:47Z</time>
      </trkpt>
      <trkpt lat="47.63734" lon="6.0352">
        <ele>211</ele>
        <time>2018-10-23T13:21:49Z</time>
      </trkpt>
      <trkpt lat="47.63739" lon="6.03516">
        <ele>211</ele>
        <time>2018-10-23T13:21:52Z</time>
      </trkpt>
      <trkpt lat="47.63744" lon="6.03514">
        <ele>211</ele>
        <time>2018-10-23T13:21:54Z</time>
      </trkpt>
      <trkpt lat="47.63749" lon="6.03512">
        <ele>211</ele>
        <time>2018-10-23T13:21:56Z</time>
      </trkpt>
      <trkpt lat="47.63755" lon="6.03511">
        <ele>212</ele>
        <time>2018-10-23T13:21:58Z</time>
      </trkpt>
      <trkpt lat="47.6376" lon="6.03509">
        <ele>213</ele>
        <time>2018-10-23T13:22:00Z</time>
      </trkpt>
      <trkpt lat="47.63765" lon="6.03509">
        <ele>213</ele>
        <time>2018-10-23T13:22:02Z</time>
      </trkpt>
      <trkpt lat="47.6377" lon="6.03511">
        <ele>214</ele>
        <time>2018-10-23T13:22:05Z</time>
      </trkpt>
      <trkpt lat="47.63776" lon="6.03512">
        <ele>214</ele>
        <time>2018-10-23T13:22:08Z</time>
      </trkpt>
      <trkpt lat="47.63781" lon="6.03513">
        <ele>214</ele>
        <time>2018-10-23T13:22:11Z</time>
      </trkpt>
      <trkpt lat="47.63786" lon="6.03514">
        <ele>215</ele>
        <time>2018-10-23T13:22:14Z</time>
      </trkpt>
      <trkpt lat="47.6379" lon="6.03516">
        <ele>215</ele>
        <time>2018-10-23T13:22:17Z</time>
      </trkpt>
      <trkpt lat="47.63796" lon="6.03518">
        <ele>215</ele>
        <time>2018-10-23T13:22:20Z</time>
      </trkpt>
      <trkpt lat="47.638" lon="6.0352">
        <ele>215</ele>
        <time>2018-10-23T13:22:22Z</time>
      </trkpt>
      <trkpt lat="47.63806" lon="6.03522">
        <ele>215</ele>
        <time>2018-10-23T13:22:25Z</time>
      </trkpt>
      <trkpt lat="47.63813" lon="6.03522">
        <ele>215</ele>
        <time>2018-10-23T13:22:28Z</time>
      </trkpt>
      <trkpt lat="47.63818" lon="6.03523">
        <ele>215</ele>
        <time>2018-10-23T13:22:31Z</time>
      </trkpt>
      <trkpt lat="47.63823" lon="6.03524">
        <ele>215</ele>
        <time>2018-10-23T13:22:34Z</time>
      </trkpt>
      <trkpt lat="47.63828" lon="6.03525">
        <ele>215</ele>
        <time>2018-10-23T13:22:37Z</time>
      </trkpt>
      <trkpt lat="47.63833" lon="6.03526">
        <ele>216</ele>
        <time>2018-10-23T13:22:40Z</time>
      </trkpt>
      <trkpt lat="47.63839" lon="6.03527">
        <ele>216</ele>
        <time>2018-10-23T13:22:43Z</time>
      </trkpt>
      <trkpt lat="47.63844" lon="6.03529">
        <ele>217</ele>
        <time>2018-10-23T13:22:45Z</time>
      </trkpt>
      <trkpt lat="47.63849" lon="6.0353">
        <ele>217</ele>
        <time>2018-10-23T13:22:47Z</time>
      </trkpt>
      <trkpt lat="47.63855" lon="6.03532">
        <ele>217</ele>
        <time>2018-10-23T13:22:50Z</time>
      </trkpt>
      <trkpt lat="47.6386" lon="6.03535">
        <ele>217</ele>
        <time>2018-10-23T13:22:52Z</time>
      </trkpt>
      <trkpt lat="47.63864" lon="6.03538">
        <ele>217</ele>
        <time>2018-10-23T13:22:54Z</time>
      </trkpt>
      <trkpt lat="47.63869" lon="6.03541">
        <ele>218</ele>
        <time>2018-10-23T13:22:56Z</time>
      </trkpt>
      <trkpt lat="47.63874" lon="6.03545">
        <ele>218</ele>
        <time>2018-10-23T13:22:59Z</time>
      </trkpt>
      <trkpt lat="47.63879" lon="6.03549">
        <ele>218</ele>
        <time>2018-10-23T13:23:02Z</time>
      </trkpt>
      <trkpt lat="47.63885" lon="6.03551">
        <ele>218</ele>
        <time>2018-10-23T13:23:05Z</time>
      </trkpt>
      <trkpt lat="47.63891" lon="6.03554">
        <ele>218</ele>
        <time>2018-10-23T13:23:08Z</time>
      </trkpt>
      <trkpt lat="47.63898" lon="6.03557">
        <ele>218</ele>
        <time>2018-10-23T13:23:11Z</time>
      </trkpt>
      <trkpt lat="47.63903" lon="6.03559">
        <ele>218</ele>
        <time>2018-10-23T13:23:13Z</time>
      </trkpt>
      <trkpt lat="47.63907" lon="6.0356">
        <ele>219</ele>
        <time>2018-10-23T13:23:15Z</time>
      </trkpt>
      <trkpt lat="47.63912" lon="6.03562">
        <ele>219</ele>
        <time>2018-10-23T13:23:17Z</time>
      </trkpt>
      <trkpt lat="47.63917" lon="6.03563">
        <ele>219</ele>
        <time>2018-10-23T13:23:19Z</time>
      </trkpt>
      <trkpt lat="47.63923" lon="6.03565">
        <ele>218</ele>
        <time>2018-10-23T13:23:21Z</time>
      </trkpt>
      <trkpt lat="47.63928" lon="6.03566">
        <ele>218</ele>
        <time>2018-10-23T13:23:23Z</time>
      </trkpt>
      <trkpt lat="47.63934" lon="6.03568">
        <ele>218</ele>
        <time>2018-10-23T13:23:26Z</time>
      </trkpt>
      <trkpt lat="47.6394" lon="6.0357">
        <ele>218</ele>
        <time>2018-10-23T13:23:29Z</time>
      </trkpt>
      <trkpt lat="47.63945" lon="6.03572">
        <ele>217</ele>
        <time>2018-10-23T13:23:31Z</time>
      </trkpt>
      <trkpt lat="47.63952" lon="6.03575">
        <ele>217</ele>
        <time>2018-10-23T13:23:34Z</time>
      </trkpt>
      <trkpt lat="47.63958" lon="6.03578">
        <ele>217</ele>
        <time>2018-10-23T13:23:36Z</time>
      </trkpt>
      <trkpt lat="47.63964" lon="6.03582">
        <ele>217</ele>
        <time>2018-10-23T13:23:38Z</time>
      </trkpt>
      <trkpt lat="47.63971" lon="6.03586">
        <ele>220</ele>
        <time>2018-10-23T13:23:40Z</time>
      </trkpt>
      <trkpt lat="47.63978" lon="6.03591">
        <ele>220</ele>
        <time>2018-10-23T13:23:42Z</time>
      </trkpt>
      <trkpt lat="47.63984" lon="6.03596">
        <ele>220</ele>
        <time>2018-10-23T13:23:44Z</time>
      </trkpt>
      <trkpt lat="47.6399" lon="6.036">
        <ele>220</ele>
        <time>2018-10-23T13:23:46Z</time>
      </trkpt>
      <trkpt lat="47.63995" lon="6.03604">
        <ele>220</ele>
        <time>2018-10-23T13:23:48Z</time>
      </trkpt>
      <trkpt lat="47.64" lon="6.03607">
        <ele>220</ele>
        <time>2018-10-23T13:23:50Z</time>
      </trkpt>
      <trkpt lat="47.64005" lon="6.0361">
        <ele>219</ele>
        <time>2018-10-23T13:23:52Z</time>
      </trkpt>
      <trkpt lat="47.6401" lon="6.03613">
        <ele>219</ele>
        <time>2018-10-23T13:23:54Z</time>
      </trkpt>
      <trkpt lat="47.64015" lon="6.03616">
        <ele>219</ele>
        <time>2018-10-23T13:23:56Z</time>
      </trkpt>
      <trkpt lat="47.64021" lon="6.03619">
        <ele>219</ele>
        <time>2018-10-23T13:23:58Z</time>
      </trkpt>
      <trkpt lat="47.64026" lon="6.03624">
        <ele>219</ele>
        <time>2018-10-23T13:24:00Z</time>
      </trkpt>
      <trkpt lat="47.6403" lon="6.03628">
        <ele>219</ele>
        <time>2018-10-23T13:24:02Z</time>
      </trkpt>
      <trkpt lat="47.64035" lon="6.03632">
        <ele>219</ele>
        <time>2018-10-23T13:24:04Z</time>
      </trkpt>
      <trkpt lat="47.64041" lon="6.03636">
        <ele>219</ele>
        <time>2018-10-23T13:24:06Z</time>
      </trkpt>
      <trkpt lat="47.64045" lon="6.03639">
        <ele>219</ele>
        <time>2018-10-23T13:24:08Z</time>
      </trkpt>
      <trkpt lat="47.64051" lon="6.03643">
        <ele>219</ele>
        <time>2018-10-23T13:24:10Z</time>
      </trkpt>
      <trkpt lat="47.64056" lon="6.03645">
        <ele>219</ele>
        <time>2018-10-23T13:24:12Z</time>
      </trkpt>
      <trkpt lat="47.64061" lon="6.03647">
        <ele>219</ele>
        <time>2018-10-23T13:24:14Z</time>
      </trkpt>
      <trkpt lat="47.64068" lon="6.0365">
        <ele>220</ele>
        <time>2018-10-23T13:24:16Z</time>
      </trkpt>
      <trkpt lat="47.64075" lon="6.03654">
        <ele>220</ele>
        <time>2018-10-23T13:24:18Z</time>
      </trkpt>
      <trkpt lat="47.64089" lon="6.03661">
        <ele>219</ele>
        <time>2018-10-23T13:24:20Z</time>
      </trkpt>
      <trkpt lat="47.64093" lon="6.03663">
        <ele>219</ele>
        <time>2018-10-23T13:24:21Z</time>
      </trkpt>
      <trkpt lat="47.64102" lon="6.03667">
        <ele>218</ele>
        <time>2018-10-23T13:24:23Z</time>
      </trkpt>
      <trkpt lat="47.64106" lon="6.03669">
        <ele>221</ele>
        <time>2018-10-23T13:24:24Z</time>
      </trkpt>
      <trkpt lat="47.64111" lon="6.0367">
        <ele>221</ele>
        <time>2018-10-23T13:24:25Z</time>
      </trkpt>
      <trkpt lat="47.64116" lon="6.03672">
        <ele>221</ele>
        <time>2018-10-23T13:24:26Z</time>
      </trkpt>
      <trkpt lat="47.6412" lon="6.03674">
        <ele>221</ele>
        <time>2018-10-23T13:24:27Z</time>
      </trkpt>
      <trkpt lat="47.64125" lon="6.03676">
        <ele>221</ele>
        <time>2018-10-23T13:24:28Z</time>
      </trkpt>
      <trkpt lat="47.64129" lon="6.03678">
        <ele>220</ele>
        <time>2018-10-23T13:24:29Z</time>
      </trkpt>
      <trkpt lat="47.64133" lon="6.03679">
        <ele>220</ele>
        <time>2018-10-23T13:24:30Z</time>
      </trkpt>
      <trkpt lat="47.64138" lon="6.03681">
        <ele>220</ele>
        <time>2018-10-23T13:24:31Z</time>
      </trkpt>
      <trkpt lat="47.64147" lon="6.03683">
        <ele>220</ele>
        <time>2018-10-23T13:24:33Z</time>
      </trkpt>
      <trkpt lat="47.64151" lon="6.03684">
        <ele>219</ele>
        <time>2018-10-23T13:24:34Z</time>
      </trkpt>
      <trkpt lat="47.64156" lon="6.03685">
        <ele>219</ele>
        <time>2018-10-23T13:24:35Z</time>
      </trkpt>
      <trkpt lat="47.64161" lon="6.03686">
        <ele>219</ele>
        <time>2018-10-23T13:24:36Z</time>
      </trkpt>
      <trkpt lat="47.64167" lon="6.03686">
        <ele>218</ele>
        <time>2018-10-23T13:24:37Z</time>
      </trkpt>
      <trkpt lat="47.64172" lon="6.03686">
        <ele>218</ele>
        <time>2018-10-23T13:24:38Z</time>
      </trkpt>
      <trkpt lat="47.64177" lon="6.03685">
        <ele>218</ele>
        <time>2018-10-23T13:24:39Z</time>
      </trkpt>
      <trkpt lat="47.64182" lon="6.03686">
        <ele>218</ele>
        <time>2018-10-23T13:24:40Z</time>
      </trkpt>
      <trkpt lat="47.64186" lon="6.03686">
        <ele>218</ele>
        <time>2018-10-23T13:24:41Z</time>
      </trkpt>
      <trkpt lat="47.64191" lon="6.03687">
        <ele>218</ele>
        <time>2018-10-23T13:24:42Z</time>
      </trkpt>
      <trkpt lat="47.64196" lon="6.03686">
        <ele>218</ele>
        <time>2018-10-23T13:24:43Z</time>
      </trkpt>
      <trkpt lat="47.642" lon="6.03686">
        <ele>218</ele>
        <time>2018-10-23T13:24:44Z</time>
      </trkpt>
      <trkpt lat="47.64205" lon="6.03686">
        <ele>218</ele>
        <time>2018-10-23T13:24:45Z</time>
      </trkpt>
      <trkpt lat="47.64212" lon="6.03688">
        <ele>218</ele>
        <time>2018-10-23T13:24:47Z</time>
      </trkpt>
      <trkpt lat="47.6422" lon="6.03691">
        <ele>218</ele>
        <time>2018-10-23T13:24:49Z</time>
      </trkpt>
      <trkpt lat="47.64229" lon="6.03693">
        <ele>218</ele>
        <time>2018-10-23T13:24:51Z</time>
      </trkpt>
      <trkpt lat="47.64233" lon="6.03694">
        <ele>218</ele>
        <time>2018-10-23T13:24:52Z</time>
      </trkpt>
      <trkpt lat="47.64238" lon="6.03695">
        <ele>218</ele>
        <time>2018-10-23T13:24:53Z</time>
      </trkpt>
      <trkpt lat="47.64242" lon="6.03697">
        <ele>218</ele>
        <time>2018-10-23T13:24:54Z</time>
      </trkpt>
      <trkpt lat="47.64247" lon="6.03698">
        <ele>218</ele>
        <time>2018-10-23T13:24:55Z</time>
      </trkpt>
      <trkpt lat="47.64256" lon="6.037">
        <ele>218</ele>
        <time>2018-10-23T13:24:57Z</time>
      </trkpt>
      <trkpt lat="47.64265" lon="6.03702">
        <ele>218</ele>
        <time>2018-10-23T13:24:59Z</time>
      </trkpt>
      <trkpt lat="47.64273" lon="6.03705">
        <ele>218</ele>
        <time>2018-10-23T13:25:01Z</time>
      </trkpt>
      <trkpt lat="47.64281" lon="6.03708">
        <ele>218</ele>
        <time>2018-10-23T13:25:03Z</time>
      </trkpt>
      <trkpt lat="47.64288" lon="6.03709">
        <ele>218</ele>
        <time>2018-10-23T13:25:05Z</time>
      </trkpt>
      <trkpt lat="47.64296" lon="6.0371">
        <ele>218</ele>
        <time>2018-10-23T13:25:07Z</time>
      </trkpt>
      <trkpt lat="47.64303" lon="6.03711">
        <ele>218</ele>
        <time>2018-10-23T13:25:09Z</time>
      </trkpt>
      <trkpt lat="47.6431" lon="6.03711">
        <ele>218</ele>
        <time>2018-10-23T13:25:11Z</time>
      </trkpt>
      <trkpt lat="47.64318" lon="6.0371">
        <ele>218</ele>
        <time>2018-10-23T13:25:13Z</time>
      </trkpt>
      <trkpt lat="47.64326" lon="6.03709">
        <ele>218</ele>
        <time>2018-10-23T13:25:15Z</time>
      </trkpt>
      <trkpt lat="47.64334" lon="6.03708">
        <ele>216</ele>
        <time>2018-10-23T13:25:17Z</time>
      </trkpt>
      <trkpt lat="47.64341" lon="6.03707">
        <ele>216</ele>
        <time>2018-10-23T13:25:19Z</time>
      </trkpt>
      <trkpt lat="47.64346" lon="6.03706">
        <ele>216</ele>
        <time>2018-10-23T13:25:20Z</time>
      </trkpt>
      <trkpt lat="47.64354" lon="6.03705">
        <ele>215</ele>
        <time>2018-10-23T13:25:22Z</time>
      </trkpt>
      <trkpt lat="47.64359" lon="6.03704">
        <ele>215</ele>
        <time>2018-10-23T13:25:23Z</time>
      </trkpt>
      <trkpt lat="47.64364" lon="6.03703">
        <ele>215</ele>
        <time>2018-10-23T13:25:24Z</time>
      </trkpt>
      <trkpt lat="47.64369" lon="6.03701">
        <ele>215</ele>
        <time>2018-10-23T13:25:25Z</time>
      </trkpt>
      <trkpt lat="47.64374" lon="6.03699">
        <ele>215</ele>
        <time>2018-10-23T13:25:26Z</time>
      </trkpt>
      <trkpt lat="47.64379" lon="6.03697">
        <ele>215</ele>
        <time>2018-10-23T13:25:27Z</time>
      </trkpt>
      <trkpt lat="47.64385" lon="6.03693">
        <ele>214</ele>
        <time>2018-10-23T13:25:28Z</time>
      </trkpt>
      <trkpt lat="47.64392" lon="6.0369">
        <ele>214</ele>
        <time>2018-10-23T13:25:29Z</time>
      </trkpt>
      <trkpt lat="47.64398" lon="6.03684">
        <ele>214</ele>
        <time>2018-10-23T13:25:30Z</time>
      </trkpt>
      <trkpt lat="47.64403" lon="6.03676">
        <ele>213</ele>
        <time>2018-10-23T13:25:31Z</time>
      </trkpt>
      <trkpt lat="47.64407" lon="6.03665">
        <ele>212</ele>
        <time>2018-10-23T13:25:32Z</time>
      </trkpt>
      <trkpt lat="47.64411" lon="6.03655">
        <ele>212</ele>
        <time>2018-10-23T13:25:33Z</time>
      </trkpt>
      <trkpt lat="47.64414" lon="6.03645">
        <ele>212</ele>
        <time>2018-10-23T13:25:34Z</time>
      </trkpt>
      <trkpt lat="47.64418" lon="6.03636">
        <ele>211</ele>
        <time>2018-10-23T13:25:35Z</time>
      </trkpt>
      <trkpt lat="47.64423" lon="6.03629">
        <ele>211</ele>
        <time>2018-10-23T13:25:36Z</time>
      </trkpt>
      <trkpt lat="47.64429" lon="6.03624">
        <ele>211</ele>
        <time>2018-10-23T13:25:37Z</time>
      </trkpt>
      <trkpt lat="47.64435" lon="6.03621">
        <ele>211</ele>
        <time>2018-10-23T13:25:38Z</time>
      </trkpt>
      <trkpt lat="47.64441" lon="6.03621">
        <ele>211</ele>
        <time>2018-10-23T13:25:39Z</time>
      </trkpt>
      <trkpt lat="47.64447" lon="6.03623">
        <ele>211</ele>
        <time>2018-10-23T13:25:40Z</time>
      </trkpt>
      <trkpt lat="47.64453" lon="6.03624">
        <ele>211</ele>
        <time>2018-10-23T13:25:41Z</time>
      </trkpt>
      <trkpt lat="47.64459" lon="6.03624">
        <ele>211</ele>
        <time>2018-10-23T13:25:42Z</time>
      </trkpt>
      <trkpt lat="47.64464" lon="6.03625">
        <ele>211</ele>
        <time>2018-10-23T13:25:43Z</time>
      </trkpt>
      <trkpt lat="47.6447" lon="6.03625">
        <ele>211</ele>
        <time>2018-10-23T13:25:44Z</time>
      </trkpt>
      <trkpt lat="47.64474" lon="6.03625">
        <ele>211</ele>
        <time>2018-10-23T13:25:45Z</time>
      </trkpt>
      <trkpt lat="47.64479" lon="6.03626">
        <ele>211</ele>
        <time>2018-10-23T13:25:46Z</time>
      </trkpt>
      <trkpt lat="47.64484" lon="6.03626">
        <ele>211</ele>
        <time>2018-10-23T13:25:47Z</time>
      </trkpt>
      <trkpt lat="47.64489" lon="6.03626">
        <ele>211</ele>
        <time>2018-10-23T13:25:48Z</time>
      </trkpt>
      <trkpt lat="47.64494" lon="6.03625">
        <ele>211</ele>
        <time>2018-10-23T13:25:49Z</time>
      </trkpt>
      <trkpt lat="47.64503" lon="6.03624">
        <ele>211</ele>
        <time>2018-10-23T13:25:51Z</time>
      </trkpt>
      <trkpt lat="47.64507" lon="6.03623">
        <ele>211</ele>
        <time>2018-10-23T13:25:52Z</time>
      </trkpt>
      <trkpt lat="47.64512" lon="6.03622">
        <ele>211</ele>
        <time>2018-10-23T13:25:53Z</time>
      </trkpt>
      <trkpt lat="47.64517" lon="6.0362">
        <ele>211</ele>
        <time>2018-10-23T13:25:54Z</time>
      </trkpt>
      <trkpt lat="47.64522" lon="6.03619">
        <ele>211</ele>
        <time>2018-10-23T13:25:55Z</time>
      </trkpt>
      <trkpt lat="47.64526" lon="6.03617">
        <ele>211</ele>
        <time>2018-10-23T13:25:56Z</time>
      </trkpt>
      <trkpt lat="47.6453" lon="6.03616">
        <ele>211</ele>
        <time>2018-10-23T13:25:57Z</time>
      </trkpt>
      <trkpt lat="47.64539" lon="6.03613">
        <ele>211</ele>
        <time>2018-10-23T13:25:59Z</time>
      </trkpt>
      <trkpt lat="47.64547" lon="6.0361">
        <ele>211</ele>
        <time>2018-10-23T13:26:01Z</time>
      </trkpt>
      <trkpt lat="47.64551" lon="6.03608">
        <ele>211</ele>
        <time>2018-10-23T13:26:02Z</time>
      </trkpt>
      <trkpt lat="47.64559" lon="6.03603">
        <ele>212</ele>
        <time>2018-10-23T13:26:04Z</time>
      </trkpt>
      <trkpt lat="47.64567" lon="6.03596">
        <ele>212</ele>
        <time>2018-10-23T13:26:06Z</time>
      </trkpt>
      <trkpt lat="47.64574" lon="6.03588">
        <ele>212</ele>
        <time>2018-10-23T13:26:08Z</time>
      </trkpt>
      <trkpt lat="47.6458" lon="6.03579">
        <ele>212</ele>
        <time>2018-10-23T13:26:10Z</time>
      </trkpt>
      <trkpt lat="47.64587" lon="6.0357">
        <ele>212</ele>
        <time>2018-10-23T13:26:12Z</time>
      </trkpt>
      <trkpt lat="47.64593" lon="6.03562">
        <ele>212</ele>
        <time>2018-10-23T13:26:14Z</time>
      </trkpt>
      <trkpt lat="47.64597" lon="6.03558">
        <ele>212</ele>
        <time>2018-10-23T13:26:15Z</time>
      </trkpt>
      <trkpt lat="47.64604" lon="6.03549">
        <ele>212</ele>
        <time>2018-10-23T13:26:17Z</time>
      </trkpt>
      <trkpt lat="47.6461" lon="6.03541">
        <ele>211</ele>
        <time>2018-10-23T13:26:19Z</time>
      </trkpt>
      <trkpt lat="47.64614" lon="6.03536">
        <ele>211</ele>
        <time>2018-10-23T13:26:20Z</time>
      </trkpt>
      <trkpt lat="47.6462" lon="6.03528">
        <ele>211</ele>
        <time>2018-10-23T13:26:22Z</time>
      </trkpt>
      <trkpt lat="47.64627" lon="6.03519">
        <ele>211</ele>
        <time>2018-10-23T13:26:24Z</time>
      </trkpt>
      <trkpt lat="47.64634" lon="6.03511">
        <ele>211</ele>
        <time>2018-10-23T13:26:26Z</time>
      </trkpt>
      <trkpt lat="47.64638" lon="6.03506">
        <ele>211</ele>
        <time>2018-10-23T13:26:27Z</time>
      </trkpt>
      <trkpt lat="47.64641" lon="6.03501">
        <ele>211</ele>
        <time>2018-10-23T13:26:28Z</time>
      </trkpt>
      <trkpt lat="47.64645" lon="6.03497">
        <ele>210</ele>
        <time>2018-10-23T13:26:29Z</time>
      </trkpt>
      <trkpt lat="47.64649" lon="6.03492">
        <ele>210</ele>
        <time>2018-10-23T13:26:30Z</time>
      </trkpt>
      <trkpt lat="47.64655" lon="6.03482">
        <ele>210</ele>
        <time>2018-10-23T13:26:32Z</time>
      </trkpt>
      <trkpt lat="47.64659" lon="6.03477">
        <ele>210</ele>
        <time>2018-10-23T13:26:33Z</time>
      </trkpt>
      <trkpt lat="47.64662" lon="6.03473">
        <ele>210</ele>
        <time>2018-10-23T13:26:34Z</time>
      </trkpt>
      <trkpt lat="47.64666" lon="6.03468">
        <ele>210</ele>
        <time>2018-10-23T13:26:35Z</time>
      </trkpt>
      <trkpt lat="47.6467" lon="6.03463">
        <ele>212</ele>
        <time>2018-10-23T13:26:36Z</time>
      </trkpt>
      <trkpt lat="47.64673" lon="6.03458">
        <ele>212</ele>
        <time>2018-10-23T13:26:37Z</time>
      </trkpt>
      <trkpt lat="47.64677" lon="6.03454">
        <ele>212</ele>
        <time>2018-10-23T13:26:38Z</time>
      </trkpt>
      <trkpt lat="47.64685" lon="6.03447">
        <ele>212</ele>
        <time>2018-10-23T13:26:40Z</time>
      </trkpt>
      <trkpt lat="47.64689" lon="6.03443">
        <ele>212</ele>
        <time>2018-10-23T13:26:41Z</time>
      </trkpt>
      <trkpt lat="47.64694" lon="6.0344">
        <ele>212</ele>
        <time>2018-10-23T13:26:42Z</time>
      </trkpt>
      <trkpt lat="47.64698" lon="6.03437">
        <ele>212</ele>
        <time>2018-10-23T13:26:43Z</time>
      </trkpt>
      <trkpt lat="47.64705" lon="6.03431">
        <ele>212</ele>
        <time>2018-10-23T13:26:45Z</time>
      </trkpt>
      <trkpt lat="47.64709" lon="6.03428">
        <ele>212</ele>
        <time>2018-10-23T13:26:46Z</time>
      </trkpt>
      <trkpt lat="47.64717" lon="6.03423">
        <ele>212</ele>
        <time>2018-10-23T13:26:48Z</time>
      </trkpt>
      <trkpt lat="47.64725" lon="6.03417">
        <ele>212</ele>
        <time>2018-10-23T13:26:50Z</time>
      </trkpt>
      <trkpt lat="47.64732" lon="6.03411">
        <ele>211</ele>
        <time>2018-10-23T13:26:52Z</time>
      </trkpt>
      <trkpt lat="47.6474" lon="6.03405">
        <ele>211</ele>
        <time>2018-10-23T13:26:54Z</time>
      </trkpt>
      <trkpt lat="47.64747" lon="6.034">
        <ele>211</ele>
        <time>2018-10-23T13:26:56Z</time>
      </trkpt>
      <trkpt lat="47.64754" lon="6.03395">
        <ele>212</ele>
        <time>2018-10-23T13:26:58Z</time>
      </trkpt>
      <trkpt lat="47.64761" lon="6.0339">
        <ele>212</ele>
        <time>2018-10-23T13:27:00Z</time>
      </trkpt>
      <trkpt lat="47.64768" lon="6.03386">
        <ele>212</ele>
        <time>2018-10-23T13:27:02Z</time>
      </trkpt>
      <trkpt lat="47.64775" lon="6.03382">
        <ele>212</ele>
        <time>2018-10-23T13:27:04Z</time>
      </trkpt>
      <trkpt lat="47.64781" lon="6.03378">
        <ele>212</ele>
        <time>2018-10-23T13:27:06Z</time>
      </trkpt>
      <trkpt lat="47.64786" lon="6.03377">
        <ele>212</ele>
        <time>2018-10-23T13:27:08Z</time>
      </trkpt>
      <trkpt lat="47.64793" lon="6.03374">
        <ele>212</ele>
        <time>2018-10-23T13:27:11Z</time>
      </trkpt>
      <trkpt lat="47.648" lon="6.0337">
        <ele>212</ele>
        <time>2018-10-23T13:27:13Z</time>
      </trkpt>
      <trkpt lat="47.64809" lon="6.03365">
        <ele>212</ele>
        <time>2018-10-23T13:27:15Z</time>
      </trkpt>
      <trkpt lat="47.64814" lon="6.03363">
        <ele>212</ele>
        <time>2018-10-23T13:27:16Z</time>
      </trkpt>
      <trkpt lat="47.64818" lon="6.0336">
        <ele>212</ele>
        <time>2018-10-23T13:27:18Z</time>
      </trkpt>
      <trkpt lat="47.64825" lon="6.03356">
        <ele>212</ele>
        <time>2018-10-23T13:27:20Z</time>
      </trkpt>
      <trkpt lat="47.64833" lon="6.03353">
        <ele>212</ele>
        <time>2018-10-23T13:27:21Z</time>
      </trkpt>
      <trkpt lat="47.64838" lon="6.0335">
        <ele>214</ele>
        <time>2018-10-23T13:27:22Z</time>
      </trkpt>
      <trkpt lat="47.64844" lon="6.03347">
        <ele>214</ele>
        <time>2018-10-23T13:27:23Z</time>
      </trkpt>
      <trkpt lat="47.64848" lon="6.03344">
        <ele>214</ele>
        <time>2018-10-23T13:27:24Z</time>
      </trkpt>
      <trkpt lat="47.64853" lon="6.03341">
        <ele>214</ele>
        <time>2018-10-23T13:27:25Z</time>
      </trkpt>
      <trkpt lat="47.64862" lon="6.03336">
        <ele>215</ele>
        <time>2018-10-23T13:27:27Z</time>
      </trkpt>
      <trkpt lat="47.64866" lon="6.03334">
        <ele>215</ele>
        <time>2018-10-23T13:27:28Z</time>
      </trkpt>
      <trkpt lat="47.64871" lon="6.0333">
        <ele>212</ele>
        <time>2018-10-23T13:27:29Z</time>
      </trkpt>
      <trkpt lat="47.64876" lon="6.03328">
        <ele>212</ele>
        <time>2018-10-23T13:27:30Z</time>
      </trkpt>
      <trkpt lat="47.6488" lon="6.03324">
        <ele>212</ele>
        <time>2018-10-23T13:27:31Z</time>
      </trkpt>
      <trkpt lat="47.64888" lon="6.03321">
        <ele>212</ele>
        <time>2018-10-23T13:27:33Z</time>
      </trkpt>
      <trkpt lat="47.64894" lon="6.03318">
        <ele>212</ele>
        <time>2018-10-23T13:27:35Z</time>
      </trkpt>
      <trkpt lat="47.64899" lon="6.03315">
        <ele>212</ele>
        <time>2018-10-23T13:27:37Z</time>
      </trkpt>
      <trkpt lat="47.64906" lon="6.03311">
        <ele>212</ele>
        <time>2018-10-23T13:27:39Z</time>
      </trkpt>
      <trkpt lat="47.64914" lon="6.03306">
        <ele>212</ele>
        <time>2018-10-23T13:27:41Z</time>
      </trkpt>
      <trkpt lat="47.64922" lon="6.03302">
        <ele>214</ele>
        <time>2018-10-23T13:27:43Z</time>
      </trkpt>
      <trkpt lat="47.6493" lon="6.03298">
        <ele>214</ele>
        <time>2018-10-23T13:27:45Z</time>
      </trkpt>
      <trkpt lat="47.64941" lon="6.03292">
        <ele>214</ele>
        <time>2018-10-23T13:27:47Z</time>
      </trkpt>
      <trkpt lat="47.64948" lon="6.03287">
        <ele>214</ele>
        <time>2018-10-23T13:27:49Z</time>
      </trkpt>
      <trkpt lat="47.64957" lon="6.03282">
        <ele>214</ele>
        <time>2018-10-23T13:27:51Z</time>
      </trkpt>
      <trkpt lat="47.64965" lon="6.03278">
        <ele>214</ele>
        <time>2018-10-23T13:27:53Z</time>
      </trkpt>
      <trkpt lat="47.6497" lon="6.03274">
        <ele>214</ele>
        <time>2018-10-23T13:27:55Z</time>
      </trkpt>
      <trkpt lat="47.64976" lon="6.0327">
        <ele>214</ele>
        <time>2018-10-23T13:27:57Z</time>
      </trkpt>
      <trkpt lat="47.64984" lon="6.03264">
        <ele>214</ele>
        <time>2018-10-23T13:27:59Z</time>
      </trkpt>
      <trkpt lat="47.64989" lon="6.0326">
        <ele>214</ele>
        <time>2018-10-23T13:28:01Z</time>
      </trkpt>
      <trkpt lat="47.64994" lon="6.03256">
        <ele>213</ele>
        <time>2018-10-23T13:28:03Z</time>
      </trkpt>
      <trkpt lat="47.64999" lon="6.03253">
        <ele>213</ele>
        <time>2018-10-23T13:28:05Z</time>
      </trkpt>
      <trkpt lat="47.65004" lon="6.0325">
        <ele>214</ele>
        <time>2018-10-23T13:28:07Z</time>
      </trkpt>
      <trkpt lat="47.65008" lon="6.03247">
        <ele>212</ele>
        <time>2018-10-23T13:28:09Z</time>
      </trkpt>
      <trkpt lat="47.65013" lon="6.03244">
        <ele>212</ele>
        <time>2018-10-23T13:28:11Z</time>
      </trkpt>
      <trkpt lat="47.6502" lon="6.03239">
        <ele>212</ele>
        <time>2018-10-23T13:28:13Z</time>
      </trkpt>
      <trkpt lat="47.65026" lon="6.03232">
        <ele>212</ele>
        <time>2018-10-23T13:28:15Z</time>
      </trkpt>
      <trkpt lat="47.65032" lon="6.03225">
        <ele>211</ele>
        <time>2018-10-23T13:28:17Z</time>
      </trkpt>
      <trkpt lat="47.6504" lon="6.03215">
        <ele>211</ele>
        <time>2018-10-23T13:28:19Z</time>
      </trkpt>
      <trkpt lat="47.65043" lon="6.0321">
        <ele>211</ele>
        <time>2018-10-23T13:28:20Z</time>
      </trkpt>
      <trkpt lat="47.65046" lon="6.03205">
        <ele>211</ele>
        <time>2018-10-23T13:28:21Z</time>
      </trkpt>
      <trkpt lat="47.6505" lon="6.03195">
        <ele>211</ele>
        <time>2018-10-23T13:28:23Z</time>
      </trkpt>
      <trkpt lat="47.65053" lon="6.0319">
        <ele>210</ele>
        <time>2018-10-23T13:28:24Z</time>
      </trkpt>
      <trkpt lat="47.65056" lon="6.03185">
        <ele>210</ele>
        <time>2018-10-23T13:28:25Z</time>
      </trkpt>
      <trkpt lat="47.65062" lon="6.03174">
        <ele>210</ele>
        <time>2018-10-23T13:28:27Z</time>
      </trkpt>
      <trkpt lat="47.65065" lon="6.03168">
        <ele>210</ele>
        <time>2018-10-23T13:28:28Z</time>
      </trkpt>
      <trkpt lat="47.65068" lon="6.03162">
        <ele>208</ele>
        <time>2018-10-23T13:28:29Z</time>
      </trkpt>
      <trkpt lat="47.65073" lon="6.03151">
        <ele>208</ele>
        <time>2018-10-23T13:28:31Z</time>
      </trkpt>
      <trkpt lat="47.65078" lon="6.03139">
        <ele>208</ele>
        <time>2018-10-23T13:28:33Z</time>
      </trkpt>
      <trkpt lat="47.6508" lon="6.03132">
        <ele>208</ele>
        <time>2018-10-23T13:28:34Z</time>
      </trkpt>
      <trkpt lat="47.65083" lon="6.03126">
        <ele>209</ele>
        <time>2018-10-23T13:28:35Z</time>
      </trkpt>
      <trkpt lat="47.65087" lon="6.0312">
        <ele>209</ele>
        <time>2018-10-23T13:28:36Z</time>
      </trkpt>
      <trkpt lat="47.65093" lon="6.03112">
        <ele>209</ele>
        <time>2018-10-23T13:28:38Z</time>
      </trkpt>
      <trkpt lat="47.65097" lon="6.03107">
        <ele>209</ele>
        <time>2018-10-23T13:28:41Z</time>
      </trkpt>
      <trkpt lat="47.65101" lon="6.03101">
        <ele>209</ele>
        <time>2018-10-23T13:28:45Z</time>
      </trkpt>
      <trkpt lat="47.65105" lon="6.03096">
        <ele>209</ele>
        <time>2018-10-23T13:28:48Z</time>
      </trkpt>
      <trkpt lat="47.65109" lon="6.03092">
        <ele>209</ele>
        <time>2018-10-23T13:28:50Z</time>
      </trkpt>
      <trkpt lat="47.65113" lon="6.03088">
        <ele>209</ele>
        <time>2018-10-23T13:28:52Z</time>
      </trkpt>
      <trkpt lat="47.65118" lon="6.03083">
        <ele>207</ele>
        <time>2018-10-23T13:28:55Z</time>
      </trkpt>
      <trkpt lat="47.65123" lon="6.03078">
        <ele>207</ele>
        <time>2018-10-23T13:28:58Z</time>
      </trkpt>
      <trkpt lat="47.65128" lon="6.03074">
        <ele>207</ele>
        <time>2018-10-23T13:29:01Z</time>
      </trkpt>
      <trkpt lat="47.65132" lon="6.03069">
        <ele>207</ele>
        <time>2018-10-23T13:31:27Z</time>
      </trkpt>
      <trkpt lat="47.65134" lon="6.03063">
        <ele>207</ele>
        <time>2018-10-23T13:32:31Z</time>
      </trkpt>
      <trkpt lat="47.65138" lon="6.03058">
        <ele>207</ele>
        <time>2018-10-23T13:32:34Z</time>
      </trkpt>
      <trkpt lat="47.65143" lon="6.03056">
        <ele>207</ele>
        <time>2018-10-23T13:32:37Z</time>
      </trkpt>
      <trkpt lat="47.65147" lon="6.03054">
        <ele>207</ele>
        <time>2018-10-23T13:32:39Z</time>
      </trkpt>
      <trkpt lat="47.65152" lon="6.0305">
        <ele>207</ele>
        <time>2018-10-23T13:32:41Z</time>
      </trkpt>
      <trkpt lat="47.65157" lon="6.03046">
        <ele>207</ele>
        <time>2018-10-23T13:32:43Z</time>
      </trkpt>
      <trkpt lat="47.65163" lon="6.03041">
        <ele>207</ele>
        <time>2018-10-23T13:32:45Z</time>
      </trkpt>
      <trkpt lat="47.65169" lon="6.03036">
        <ele>208</ele>
        <time>2018-10-23T13:32:47Z</time>
      </trkpt>
      <trkpt lat="47.65175" lon="6.03031">
        <ele>208</ele>
        <time>2018-10-23T13:32:49Z</time>
      </trkpt>
      <trkpt lat="47.6518" lon="6.03028">
        <ele>208</ele>
        <time>2018-10-23T13:32:51Z</time>
      </trkpt>
      <trkpt lat="47.65187" lon="6.03024">
        <ele>208</ele>
        <time>2018-10-23T13:32:53Z</time>
      </trkpt>
      <trkpt lat="47.65194" lon="6.0302">
        <ele>208</ele>
        <time>2018-10-23T13:32:55Z</time>
      </trkpt>
      <trkpt lat="47.652" lon="6.03018">
        <ele>208</ele>
        <time>2018-10-23T13:32:57Z</time>
      </trkpt>
      <trkpt lat="47.65207" lon="6.03016">
        <ele>208</ele>
        <time>2018-10-23T13:32:59Z</time>
      </trkpt>
      <trkpt lat="47.65214" lon="6.03014">
        <ele>208</ele>
        <time>2018-10-23T13:33:01Z</time>
      </trkpt>
      <trkpt lat="47.6522" lon="6.03013">
        <ele>208</ele>
        <time>2018-10-23T13:33:03Z</time>
      </trkpt>
      <trkpt lat="47.65226" lon="6.03013">
        <ele>208</ele>
        <time>2018-10-23T13:33:05Z</time>
      </trkpt>
      <trkpt lat="47.65233" lon="6.03012">
        <ele>208</ele>
        <time>2018-10-23T13:33:07Z</time>
      </trkpt>
      <trkpt lat="47.65239" lon="6.03012">
        <ele>208</ele>
        <time>2018-10-23T13:33:09Z</time>
      </trkpt>
      <trkpt lat="47.65245" lon="6.03011">
        <ele>208</ele>
        <time>2018-10-23T13:33:11Z</time>
      </trkpt>
      <trkpt lat="47.65252" lon="6.0301">
        <ele>209</ele>
        <time>2018-10-23T13:33:13Z</time>
      </trkpt>
      <trkpt lat="47.65258" lon="6.0301">
        <ele>209</ele>
        <time>2018-10-23T13:33:15Z</time>
      </trkpt>
      <trkpt lat="47.65264" lon="6.03009">
        <ele>209</ele>
        <time>2018-10-23T13:33:17Z</time>
      </trkpt>
      <trkpt lat="47.6527" lon="6.03008">
        <ele>209</ele>
        <time>2018-10-23T13:33:19Z</time>
      </trkpt>
      <trkpt lat="47.65277" lon="6.03006">
        <ele>210</ele>
        <time>2018-10-23T13:33:21Z</time>
      </trkpt>
      <trkpt lat="47.65284" lon="6.03005">
        <ele>210</ele>
        <time>2018-10-23T13:33:23Z</time>
      </trkpt>
      <trkpt lat="47.6529" lon="6.03004">
        <ele>210</ele>
        <time>2018-10-23T13:33:25Z</time>
      </trkpt>
      <trkpt lat="47.65296" lon="6.03002">
        <ele>210</ele>
        <time>2018-10-23T13:33:27Z</time>
      </trkpt>
      <trkpt lat="47.65302" lon="6.03">
        <ele>210</ele>
        <time>2018-10-23T13:33:29Z</time>
      </trkpt>
      <trkpt lat="47.65307" lon="6.02998">
        <ele>209</ele>
        <time>2018-10-23T13:33:31Z</time>
      </trkpt>
      <trkpt lat="47.65313" lon="6.02995">
        <ele>209</ele>
        <time>2018-10-23T13:33:33Z</time>
      </trkpt>
      <trkpt lat="47.65319" lon="6.02992">
        <ele>209</ele>
        <time>2018-10-23T13:33:35Z</time>
      </trkpt>
      <trkpt lat="47.65325" lon="6.0299">
        <ele>209</ele>
        <time>2018-10-23T13:33:37Z</time>
      </trkpt>
      <trkpt lat="47.6533" lon="6.02988">
        <ele>209</ele>
        <time>2018-10-23T13:33:39Z</time>
      </trkpt>
      <trkpt lat="47.65336" lon="6.02985">
        <ele>210</ele>
        <time>2018-10-23T13:33:41Z</time>
      </trkpt>
      <trkpt lat="47.65342" lon="6.02982">
        <ele>210</ele>
        <time>2018-10-23T13:33:43Z</time>
      </trkpt>
      <trkpt lat="47.65348" lon="6.02978">
        <ele>210</ele>
        <time>2018-10-23T13:33:45Z</time>
      </trkpt>
      <trkpt lat="47.65355" lon="6.02975">
        <ele>210</ele>
        <time>2018-10-23T13:33:47Z</time>
      </trkpt>
      <trkpt lat="47.65362" lon="6.02972">
        <ele>210</ele>
        <time>2018-10-23T13:33:49Z</time>
      </trkpt>
      <trkpt lat="47.65368" lon="6.02969">
        <ele>210</ele>
        <time>2018-10-23T13:33:51Z</time>
      </trkpt>
      <trkpt lat="47.65375" lon="6.02966">
        <ele>210</ele>
        <time>2018-10-23T13:33:53Z</time>
      </trkpt>
      <trkpt lat="47.65381" lon="6.02962">
        <ele>210</ele>
        <time>2018-10-23T13:33:55Z</time>
      </trkpt>
      <trkpt lat="47.65392" lon="6.02957">
        <ele>209</ele>
        <time>2018-10-23T13:33:57Z</time>
      </trkpt>
      <trkpt lat="47.654" lon="6.02953">
        <ele>209</ele>
        <time>2018-10-23T13:33:59Z</time>
      </trkpt>
      <trkpt lat="47.65408" lon="6.02949">
        <ele>209</ele>
        <time>2018-10-23T13:34:01Z</time>
      </trkpt>
      <trkpt lat="47.65416" lon="6.02946">
        <ele>209</ele>
        <time>2018-10-23T13:34:03Z</time>
      </trkpt>
      <trkpt lat="47.65424" lon="6.02942">
        <ele>209</ele>
        <time>2018-10-23T13:34:05Z</time>
      </trkpt>
      <trkpt lat="47.65433" lon="6.02938">
        <ele>209</ele>
        <time>2018-10-23T13:34:07Z</time>
      </trkpt>
      <trkpt lat="47.6544" lon="6.02934">
        <ele>209</ele>
        <time>2018-10-23T13:34:09Z</time>
      </trkpt>
      <trkpt lat="47.65444" lon="6.02932">
        <ele>209</ele>
        <time>2018-10-23T13:34:10Z</time>
      </trkpt>
      <trkpt lat="47.65452" lon="6.02928">
        <ele>209</ele>
        <time>2018-10-23T13:34:12Z</time>
      </trkpt>
      <trkpt lat="47.6546" lon="6.02924">
        <ele>209</ele>
        <time>2018-10-23T13:34:14Z</time>
      </trkpt>
      <trkpt lat="47.65468" lon="6.0292">
        <ele>209</ele>
        <time>2018-10-23T13:34:16Z</time>
      </trkpt>
      <trkpt lat="47.65474" lon="6.02917">
        <ele>209</ele>
        <time>2018-10-23T13:34:18Z</time>
      </trkpt>
      <trkpt lat="47.65482" lon="6.02914">
        <ele>209</ele>
        <time>2018-10-23T13:34:20Z</time>
      </trkpt>
      <trkpt lat="47.65489" lon="6.02912">
        <ele>209</ele>
        <time>2018-10-23T13:34:22Z</time>
      </trkpt>
      <trkpt lat="47.65496" lon="6.02909">
        <ele>209</ele>
        <time>2018-10-23T13:34:24Z</time>
      </trkpt>
      <trkpt lat="47.65504" lon="6.02907">
        <ele>208</ele>
        <time>2018-10-23T13:34:26Z</time>
      </trkpt>
      <trkpt lat="47.65512" lon="6.02904">
        <ele>209</ele>
        <time>2018-10-23T13:34:28Z</time>
      </trkpt>
      <trkpt lat="47.65521" lon="6.029">
        <ele>209</ele>
        <time>2018-10-23T13:34:30Z</time>
      </trkpt>
      <trkpt lat="47.65529" lon="6.02898">
        <ele>209</ele>
        <time>2018-10-23T13:34:32Z</time>
      </trkpt>
      <trkpt lat="47.65534" lon="6.02896">
        <ele>209</ele>
        <time>2018-10-23T13:34:33Z</time>
      </trkpt>
      <trkpt lat="47.65539" lon="6.02895">
        <ele>209</ele>
        <time>2018-10-23T13:34:34Z</time>
      </trkpt>
      <trkpt lat="47.65543" lon="6.02894">
        <ele>209</ele>
        <time>2018-10-23T13:34:35Z</time>
      </trkpt>
      <trkpt lat="47.65548" lon="6.02892">
        <ele>209</ele>
        <time>2018-10-23T13:34:36Z</time>
      </trkpt>
      <trkpt lat="47.65553" lon="6.02891">
        <ele>209</ele>
        <time>2018-10-23T13:34:37Z</time>
      </trkpt>
      <trkpt lat="47.65558" lon="6.02889">
        <ele>209</ele>
        <time>2018-10-23T13:34:38Z</time>
      </trkpt>
      <trkpt lat="47.65563" lon="6.02888">
        <ele>209</ele>
        <time>2018-10-23T13:34:39Z</time>
      </trkpt>
      <trkpt lat="47.65567" lon="6.02887">
        <ele>209</ele>
        <time>2018-10-23T13:34:40Z</time>
      </trkpt>
      <trkpt lat="47.65572" lon="6.02885">
        <ele>209</ele>
        <time>2018-10-23T13:34:41Z</time>
      </trkpt>
      <trkpt lat="47.65577" lon="6.02884">
        <ele>209</ele>
        <time>2018-10-23T13:34:42Z</time>
      </trkpt>
      <trkpt lat="47.65581" lon="6.02883">
        <ele>209</ele>
        <time>2018-10-23T13:34:43Z</time>
      </trkpt>
      <trkpt lat="47.65586" lon="6.02882">
        <ele>209</ele>
        <time>2018-10-23T13:34:44Z</time>
      </trkpt>
      <trkpt lat="47.65591" lon="6.02881">
        <ele>209</ele>
        <time>2018-10-23T13:34:45Z</time>
      </trkpt>
      <trkpt lat="47.65595" lon="6.0288">
        <ele>209</ele>
        <time>2018-10-23T13:34:46Z</time>
      </trkpt>
      <trkpt lat="47.656" lon="6.02878">
        <ele>209</ele>
        <time>2018-10-23T13:34:47Z</time>
      </trkpt>
      <trkpt lat="47.65609" lon="6.02876">
        <ele>209</ele>
        <time>2018-10-23T13:34:49Z</time>
      </trkpt>
      <trkpt lat="47.65614" lon="6.02875">
        <ele>209</ele>
        <time>2018-10-23T13:34:50Z</time>
      </trkpt>
      <trkpt lat="47.65618" lon="6.02874">
        <ele>209</ele>
        <time>2018-10-23T13:34:51Z</time>
      </trkpt>
      <trkpt lat="47.65623" lon="6.02872">
        <ele>209</ele>
        <time>2018-10-23T13:34:52Z</time>
      </trkpt>
      <trkpt lat="47.65628" lon="6.02871">
        <ele>208</ele>
        <time>2018-10-23T13:34:53Z</time>
      </trkpt>
      <trkpt lat="47.65633" lon="6.02869">
        <ele>208</ele>
        <time>2018-10-23T13:34:54Z</time>
      </trkpt>
      <trkpt lat="47.65637" lon="6.02868">
        <ele>208</ele>
        <time>2018-10-23T13:34:55Z</time>
      </trkpt>
      <trkpt lat="47.65642" lon="6.02867">
        <ele>208</ele>
        <time>2018-10-23T13:34:56Z</time>
      </trkpt>
      <trkpt lat="47.65647" lon="6.02866">
        <ele>208</ele>
        <time>2018-10-23T13:34:57Z</time>
      </trkpt>
      <trkpt lat="47.65651" lon="6.02864">
        <ele>208</ele>
        <time>2018-10-23T13:34:58Z</time>
      </trkpt>
      <trkpt lat="47.6566" lon="6.02861">
        <ele>208</ele>
        <time>2018-10-23T13:35:00Z</time>
      </trkpt>
      <trkpt lat="47.65665" lon="6.0286">
        <ele>208</ele>
        <time>2018-10-23T13:35:01Z</time>
      </trkpt>
      <trkpt lat="47.65669" lon="6.02858">
        <ele>207</ele>
        <time>2018-10-23T13:35:02Z</time>
      </trkpt>
      <trkpt lat="47.65674" lon="6.02857">
        <ele>207</ele>
        <time>2018-10-23T13:35:03Z</time>
      </trkpt>
      <trkpt lat="47.65682" lon="6.02854">
        <ele>207</ele>
        <time>2018-10-23T13:35:05Z</time>
      </trkpt>
      <trkpt lat="47.65689" lon="6.02851">
        <ele>207</ele>
        <time>2018-10-23T13:35:07Z</time>
      </trkpt>
      <trkpt lat="47.65697" lon="6.02847">
        <ele>207</ele>
        <time>2018-10-23T13:35:09Z</time>
      </trkpt>
      <trkpt lat="47.65705" lon="6.02844">
        <ele>207</ele>
        <time>2018-10-23T13:35:11Z</time>
      </trkpt>
      <trkpt lat="47.65713" lon="6.0284">
        <ele>207</ele>
        <time>2018-10-23T13:35:13Z</time>
      </trkpt>
      <trkpt lat="47.65721" lon="6.02837">
        <ele>207</ele>
        <time>2018-10-23T13:35:15Z</time>
      </trkpt>
      <trkpt lat="47.65726" lon="6.02835">
        <ele>206</ele>
        <time>2018-10-23T13:35:16Z</time>
      </trkpt>
      <trkpt lat="47.65735" lon="6.02831">
        <ele>206</ele>
        <time>2018-10-23T13:35:18Z</time>
      </trkpt>
      <trkpt lat="47.65739" lon="6.02829">
        <ele>205</ele>
        <time>2018-10-23T13:35:19Z</time>
      </trkpt>
      <trkpt lat="47.65749" lon="6.02825">
        <ele>205</ele>
        <time>2018-10-23T13:35:21Z</time>
      </trkpt>
      <trkpt lat="47.65758" lon="6.02821">
        <ele>205</ele>
        <time>2018-10-23T13:35:23Z</time>
      </trkpt>
      <trkpt lat="47.65763" lon="6.02818">
        <ele>205</ele>
        <time>2018-10-23T13:35:24Z</time>
      </trkpt>
      <trkpt lat="47.65767" lon="6.02816">
        <ele>206</ele>
        <time>2018-10-23T13:35:25Z</time>
      </trkpt>
      <trkpt lat="47.65772" lon="6.02814">
        <ele>206</ele>
        <time>2018-10-23T13:35:26Z</time>
      </trkpt>
      <trkpt lat="47.65776" lon="6.02812">
        <ele>206</ele>
        <time>2018-10-23T13:35:27Z</time>
      </trkpt>
      <trkpt lat="47.65781" lon="6.0281">
        <ele>206</ele>
        <time>2018-10-23T13:35:28Z</time>
      </trkpt>
      <trkpt lat="47.65786" lon="6.02807">
        <ele>206</ele>
        <time>2018-10-23T13:35:29Z</time>
      </trkpt>
      <trkpt lat="47.65791" lon="6.02805">
        <ele>206</ele>
        <time>2018-10-23T13:35:30Z</time>
      </trkpt>
      <trkpt lat="47.65796" lon="6.02803">
        <ele>206</ele>
        <time>2018-10-23T13:35:31Z</time>
      </trkpt>
      <trkpt lat="47.65801" lon="6.02801">
        <ele>206</ele>
        <time>2018-10-23T13:35:32Z</time>
      </trkpt>
      <trkpt lat="47.65805" lon="6.02798">
        <ele>206</ele>
        <time>2018-10-23T13:35:33Z</time>
      </trkpt>
      <trkpt lat="47.6581" lon="6.02796">
        <ele>206</ele>
        <time>2018-10-23T13:35:34Z</time>
      </trkpt>
      <trkpt lat="47.65815" lon="6.02794">
        <ele>206</ele>
        <time>2018-10-23T13:35:35Z</time>
      </trkpt>
      <trkpt lat="47.65819" lon="6.02791">
        <ele>206</ele>
        <time>2018-10-23T13:35:36Z</time>
      </trkpt>
      <trkpt lat="47.65824" lon="6.02789">
        <ele>206</ele>
        <time>2018-10-23T13:35:37Z</time>
      </trkpt>
      <trkpt lat="47.65829" lon="6.02787">
        <ele>206</ele>
        <time>2018-10-23T13:35:38Z</time>
      </trkpt>
      <trkpt lat="47.65834" lon="6.02785">
        <ele>205</ele>
        <time>2018-10-23T13:35:39Z</time>
      </trkpt>
      <trkpt lat="47.65838" lon="6.02782">
        <ele>205</ele>
        <time>2018-10-23T13:35:40Z</time>
      </trkpt>
      <trkpt lat="47.65843" lon="6.0278">
        <ele>205</ele>
        <time>2018-10-23T13:35:41Z</time>
      </trkpt>
      <trkpt lat="47.65848" lon="6.02777">
        <ele>205</ele>
        <time>2018-10-23T13:35:42Z</time>
      </trkpt>
      <trkpt lat="47.65852" lon="6.02774">
        <ele>205</ele>
        <time>2018-10-23T13:35:43Z</time>
      </trkpt>
      <trkpt lat="47.65857" lon="6.02771">
        <ele>205</ele>
        <time>2018-10-23T13:35:44Z</time>
      </trkpt>
      <trkpt lat="47.65861" lon="6.02769">
        <ele>205</ele>
        <time>2018-10-23T13:35:45Z</time>
      </trkpt>
      <trkpt lat="47.65866" lon="6.02766">
        <ele>205</ele>
        <time>2018-10-23T13:35:46Z</time>
      </trkpt>
      <trkpt lat="47.6587" lon="6.02763">
        <ele>205</ele>
        <time>2018-10-23T13:35:47Z</time>
      </trkpt>
      <trkpt lat="47.65874" lon="6.0276">
        <ele>205</ele>
        <time>2018-10-23T13:35:48Z</time>
      </trkpt>
      <trkpt lat="47.65879" lon="6.02757">
        <ele>205</ele>
        <time>2018-10-23T13:35:49Z</time>
      </trkpt>
      <trkpt lat="47.65887" lon="6.02751">
        <ele>204</ele>
        <time>2018-10-23T13:35:51Z</time>
      </trkpt>
      <trkpt lat="47.65891" lon="6.02748">
        <ele>204</ele>
        <time>2018-10-23T13:35:52Z</time>
      </trkpt>
      <trkpt lat="47.65895" lon="6.02745">
        <ele>204</ele>
        <time>2018-10-23T13:35:53Z</time>
      </trkpt>
      <trkpt lat="47.659" lon="6.02742">
        <ele>204</ele>
        <time>2018-10-23T13:35:54Z</time>
      </trkpt>
      <trkpt lat="47.65904" lon="6.02739">
        <ele>204</ele>
        <time>2018-10-23T13:35:55Z</time>
      </trkpt>
      <trkpt lat="47.65908" lon="6.02736">
        <ele>204</ele>
        <time>2018-10-23T13:35:56Z</time>
      </trkpt>
      <trkpt lat="47.65916" lon="6.0273">
        <ele>204</ele>
        <time>2018-10-23T13:35:58Z</time>
      </trkpt>
      <trkpt lat="47.65923" lon="6.02724">
        <ele>204</ele>
        <time>2018-10-23T13:36:00Z</time>
      </trkpt>
      <trkpt lat="47.65931" lon="6.02718">
        <ele>204</ele>
        <time>2018-10-23T13:36:02Z</time>
      </trkpt>
      <trkpt lat="47.65938" lon="6.02713">
        <ele>205</ele>
        <time>2018-10-23T13:36:04Z</time>
      </trkpt>
      <trkpt lat="47.65944" lon="6.02707">
        <ele>205</ele>
        <time>2018-10-23T13:36:06Z</time>
      </trkpt>
      <trkpt lat="47.65952" lon="6.02702">
        <ele>205</ele>
        <time>2018-10-23T13:36:08Z</time>
      </trkpt>
      <trkpt lat="47.65959" lon="6.02697">
        <ele>205</ele>
        <time>2018-10-23T13:36:10Z</time>
      </trkpt>
      <trkpt lat="47.65966" lon="6.02691">
        <ele>205</ele>
        <time>2018-10-23T13:36:12Z</time>
      </trkpt>
      <trkpt lat="47.65973" lon="6.02686">
        <ele>206</ele>
        <time>2018-10-23T13:36:14Z</time>
      </trkpt>
      <trkpt lat="47.6598" lon="6.02681">
        <ele>206</ele>
        <time>2018-10-23T13:36:16Z</time>
      </trkpt>
      <trkpt lat="47.65987" lon="6.02676">
        <ele>207</ele>
        <time>2018-10-23T13:36:18Z</time>
      </trkpt>
      <trkpt lat="47.65993" lon="6.02672">
        <ele>207</ele>
        <time>2018-10-23T13:36:20Z</time>
      </trkpt>
      <trkpt lat="47.65998" lon="6.02669">
        <ele>208</ele>
        <time>2018-10-23T13:36:22Z</time>
      </trkpt>
      <trkpt lat="47.66002" lon="6.02665">
        <ele>208</ele>
        <time>2018-10-23T13:36:24Z</time>
      </trkpt>
      <trkpt lat="47.66007" lon="6.02662">
        <ele>208</ele>
        <time>2018-10-23T13:36:27Z</time>
      </trkpt>
      <trkpt lat="47.66012" lon="6.02658">
        <ele>208</ele>
        <time>2018-10-23T13:36:29Z</time>
      </trkpt>
      <trkpt lat="47.66019" lon="6.02654">
        <ele>209</ele>
        <time>2018-10-23T13:36:31Z</time>
      </trkpt>
      <trkpt lat="47.66027" lon="6.02647">
        <ele>209</ele>
        <time>2018-10-23T13:36:32Z</time>
      </trkpt>
      <trkpt lat="47.66032" lon="6.02644">
        <ele>209</ele>
        <time>2018-10-23T13:36:33Z</time>
      </trkpt>
      <trkpt lat="47.66037" lon="6.02641">
        <ele>209</ele>
        <time>2018-10-23T13:36:34Z</time>
      </trkpt>
      <trkpt lat="47.66041" lon="6.02639">
        <ele>209</ele>
        <time>2018-10-23T13:36:35Z</time>
      </trkpt>
      <trkpt lat="47.66049" lon="6.02634">
        <ele>209</ele>
        <time>2018-10-23T13:36:37Z</time>
      </trkpt>
      <trkpt lat="47.66056" lon="6.0263">
        <ele>209</ele>
        <time>2018-10-23T13:36:39Z</time>
      </trkpt>
      <trkpt lat="47.66064" lon="6.02629">
        <ele>209</ele>
        <time>2018-10-23T13:36:41Z</time>
      </trkpt>
      <trkpt lat="47.66072" lon="6.02628">
        <ele>209</ele>
        <time>2018-10-23T13:36:43Z</time>
      </trkpt>
      <trkpt lat="47.6608" lon="6.02627">
        <ele>209</ele>
        <time>2018-10-23T13:36:45Z</time>
      </trkpt>
      <trkpt lat="47.66087" lon="6.02626">
        <ele>210</ele>
        <time>2018-10-23T13:36:47Z</time>
      </trkpt>
      <trkpt lat="47.66095" lon="6.02627">
        <ele>210</ele>
        <time>2018-10-23T13:36:49Z</time>
      </trkpt>
      <trkpt lat="47.66101" lon="6.02629">
        <ele>210</ele>
        <time>2018-10-23T13:36:51Z</time>
      </trkpt>
      <trkpt lat="47.66108" lon="6.0263">
        <ele>210</ele>
        <time>2018-10-23T13:36:53Z</time>
      </trkpt>
      <trkpt lat="47.66113" lon="6.02633">
        <ele>210</ele>
        <time>2018-10-23T13:36:55Z</time>
      </trkpt>
      <trkpt lat="47.6612" lon="6.02636">
        <ele>210</ele>
        <time>2018-10-23T13:36:57Z</time>
      </trkpt>
      <trkpt lat="47.66125" lon="6.02638">
        <ele>210</ele>
        <time>2018-10-23T13:36:59Z</time>
      </trkpt>
      <trkpt lat="47.66129" lon="6.02641">
        <ele>210</ele>
        <time>2018-10-23T13:37:01Z</time>
      </trkpt>
      <trkpt lat="47.66134" lon="6.02644">
        <ele>211</ele>
        <time>2018-10-23T13:37:03Z</time>
      </trkpt>
      <trkpt lat="47.66138" lon="6.02648">
        <ele>211</ele>
        <time>2018-10-23T13:37:05Z</time>
      </trkpt>
      <trkpt lat="47.66142" lon="6.02652">
        <ele>211</ele>
        <time>2018-10-23T13:37:08Z</time>
      </trkpt>
      <trkpt lat="47.66149" lon="6.02655">
        <ele>211</ele>
        <time>2018-10-23T13:37:11Z</time>
      </trkpt>
      <trkpt lat="47.66154" lon="6.02658">
        <ele>211</ele>
        <time>2018-10-23T13:37:13Z</time>
      </trkpt>
      <trkpt lat="47.66158" lon="6.02661">
        <ele>211</ele>
        <time>2018-10-23T13:37:15Z</time>
      </trkpt>
      <trkpt lat="47.66162" lon="6.02663">
        <ele>212</ele>
        <time>2018-10-23T13:37:17Z</time>
      </trkpt>
      <trkpt lat="47.66168" lon="6.02667">
        <ele>212</ele>
        <time>2018-10-23T13:37:20Z</time>
      </trkpt>
      <trkpt lat="47.66174" lon="6.02671">
        <ele>212</ele>
        <time>2018-10-23T13:37:23Z</time>
      </trkpt>
      <trkpt lat="47.66178" lon="6.02674">
        <ele>213</ele>
        <time>2018-10-23T13:37:25Z</time>
      </trkpt>
      <trkpt lat="47.66183" lon="6.02678">
        <ele>213</ele>
        <time>2018-10-23T13:37:28Z</time>
      </trkpt>
      <trkpt lat="47.66187" lon="6.02683">
        <ele>213</ele>
        <time>2018-10-23T13:37:31Z</time>
      </trkpt>
      <trkpt lat="47.66188" lon="6.0269">
        <ele>213</ele>
        <time>2018-10-23T13:37:34Z</time>
      </trkpt>
      <trkpt lat="47.66189" lon="6.02698">
        <ele>213</ele>
        <time>2018-10-23T13:37:37Z</time>
      </trkpt>
      <trkpt lat="47.6619" lon="6.02706">
        <ele>213</ele>
        <time>2018-10-23T13:37:40Z</time>
      </trkpt>
      <trkpt lat="47.66191" lon="6.02713">
        <ele>213</ele>
        <time>2018-10-23T13:37:43Z</time>
      </trkpt>
      <trkpt lat="47.66192" lon="6.02721">
        <ele>213</ele>
        <time>2018-10-23T13:37:46Z</time>
      </trkpt>
      <trkpt lat="47.66193" lon="6.02728">
        <ele>213</ele>
        <time>2018-10-23T13:37:49Z</time>
      </trkpt>
      <trkpt lat="47.66194" lon="6.02737">
        <ele>214</ele>
        <time>2018-10-23T13:37:52Z</time>
      </trkpt>
      <trkpt lat="47.66194" lon="6.02746">
        <ele>214</ele>
        <time>2018-10-23T13:37:55Z</time>
      </trkpt>
      <trkpt lat="47.66194" lon="6.02756">
        <ele>214</ele>
        <time>2018-10-23T13:37:58Z</time>
      </trkpt>
      <trkpt lat="47.66195" lon="6.02765">
        <ele>214</ele>
        <time>2018-10-23T13:38:01Z</time>
      </trkpt>
      <trkpt lat="47.66196" lon="6.02774">
        <ele>215</ele>
        <time>2018-10-23T13:38:04Z</time>
      </trkpt>
      <trkpt lat="47.66198" lon="6.02783">
        <ele>215</ele>
        <time>2018-10-23T13:38:07Z</time>
      </trkpt>
      <trkpt lat="47.662" lon="6.02791">
        <ele>215</ele>
        <time>2018-10-23T13:38:10Z</time>
      </trkpt>
      <trkpt lat="47.66203" lon="6.02797">
        <ele>215</ele>
        <time>2018-10-23T13:38:12Z</time>
      </trkpt>
      <trkpt lat="47.66206" lon="6.02803">
        <ele>215</ele>
        <time>2018-10-23T13:38:14Z</time>
      </trkpt>
      <trkpt lat="47.66209" lon="6.02812">
        <ele>215</ele>
        <time>2018-10-23T13:38:17Z</time>
      </trkpt>
      <trkpt lat="47.66212" lon="6.02819">
        <ele>215</ele>
        <time>2018-10-23T13:38:20Z</time>
      </trkpt>
      <trkpt lat="47.66215" lon="6.02826">
        <ele>215</ele>
        <time>2018-10-23T13:38:23Z</time>
      </trkpt>
      <trkpt lat="47.66219" lon="6.02832">
        <ele>216</ele>
        <time>2018-10-23T13:38:26Z</time>
      </trkpt>
      <trkpt lat="47.66223" lon="6.02839">
        <ele>215</ele>
        <time>2018-10-23T13:38:29Z</time>
      </trkpt>
      <trkpt lat="47.66227" lon="6.02845">
        <ele>216</ele>
        <time>2018-10-23T13:38:32Z</time>
      </trkpt>
      <trkpt lat="47.66232" lon="6.02851">
        <ele>216</ele>
        <time>2018-10-23T13:38:35Z</time>
      </trkpt>
      <trkpt lat="47.66237" lon="6.02857">
        <ele>216</ele>
        <time>2018-10-23T13:38:38Z</time>
      </trkpt>
      <trkpt lat="47.66242" lon="6.02863">
        <ele>215</ele>
        <time>2018-10-23T13:38:41Z</time>
      </trkpt>
      <trkpt lat="47.66246" lon="6.02868">
        <ele>215</ele>
        <time>2018-10-23T13:38:43Z</time>
      </trkpt>
      <trkpt lat="47.66251" lon="6.02873">
        <ele>218</ele>
        <time>2018-10-23T13:38:45Z</time>
      </trkpt>
      <trkpt lat="47.66255" lon="6.02878">
        <ele>218</ele>
        <time>2018-10-23T13:38:47Z</time>
      </trkpt>
      <trkpt lat="47.6626" lon="6.02883">
        <ele>218</ele>
        <time>2018-10-23T13:38:49Z</time>
      </trkpt>
      <trkpt lat="47.66263" lon="6.02889">
        <ele>218</ele>
        <time>2018-10-23T13:38:51Z</time>
      </trkpt>
      <trkpt lat="47.66267" lon="6.02894">
        <ele>218</ele>
        <time>2018-10-23T13:38:53Z</time>
      </trkpt>
      <trkpt lat="47.66272" lon="6.02901">
        <ele>218</ele>
        <time>2018-10-23T13:38:56Z</time>
      </trkpt>
      <trkpt lat="47.66275" lon="6.02906">
        <ele>218</ele>
        <time>2018-10-23T13:38:58Z</time>
      </trkpt>
      <trkpt lat="47.66279" lon="6.0291">
        <ele>218</ele>
        <time>2018-10-23T13:39:00Z</time>
      </trkpt>
      <trkpt lat="47.66282" lon="6.02914">
        <ele>218</ele>
        <time>2018-10-23T13:39:02Z</time>
      </trkpt>
      <trkpt lat="47.66286" lon="6.02919">
        <ele>217</ele>
        <time>2018-10-23T13:39:04Z</time>
      </trkpt>
      <trkpt lat="47.66289" lon="6.02924">
        <ele>217</ele>
        <time>2018-10-23T13:39:06Z</time>
      </trkpt>
      <trkpt lat="47.66293" lon="6.02932">
        <ele>217</ele>
        <time>2018-10-23T13:39:09Z</time>
      </trkpt>
      <trkpt lat="47.66297" lon="6.02938">
        <ele>217</ele>
        <time>2018-10-23T13:39:11Z</time>
      </trkpt>
      <trkpt lat="47.66301" lon="6.02943">
        <ele>218</ele>
        <time>2018-10-23T13:39:13Z</time>
      </trkpt>
      <trkpt lat="47.66305" lon="6.0295">
        <ele>218</ele>
        <time>2018-10-23T13:39:16Z</time>
      </trkpt>
      <trkpt lat="47.66308" lon="6.02955">
        <ele>218</ele>
        <time>2018-10-23T13:39:18Z</time>
      </trkpt>
      <trkpt lat="47.66312" lon="6.0296">
        <ele>218</ele>
        <time>2018-10-23T13:39:20Z</time>
      </trkpt>
      <trkpt lat="47.66315" lon="6.02964">
        <ele>218</ele>
        <time>2018-10-23T13:39:22Z</time>
      </trkpt>
      <trkpt lat="47.66319" lon="6.02969">
        <ele>218</ele>
        <time>2018-10-23T13:39:24Z</time>
      </trkpt>
      <trkpt lat="47.66323" lon="6.02975">
        <ele>218</ele>
        <time>2018-10-23T13:39:26Z</time>
      </trkpt>
      <trkpt lat="47.66326" lon="6.0298">
        <ele>218</ele>
        <time>2018-10-23T13:39:28Z</time>
      </trkpt>
      <trkpt lat="47.6633" lon="6.02985">
        <ele>218</ele>
        <time>2018-10-23T13:39:30Z</time>
      </trkpt>
      <trkpt lat="47.66334" lon="6.02991">
        <ele>221</ele>
        <time>2018-10-23T13:39:32Z</time>
      </trkpt>
      <trkpt lat="47.66337" lon="6.02997">
        <ele>220</ele>
        <time>2018-10-23T13:39:34Z</time>
      </trkpt>
      <trkpt lat="47.66341" lon="6.03003">
        <ele>219</ele>
        <time>2018-10-23T13:39:36Z</time>
      </trkpt>
      <trkpt lat="47.66347" lon="6.03011">
        <ele>220</ele>
        <time>2018-10-23T13:39:38Z</time>
      </trkpt>
      <trkpt lat="47.66354" lon="6.0302">
        <ele>220</ele>
        <time>2018-10-23T13:39:40Z</time>
      </trkpt>
      <trkpt lat="47.66358" lon="6.03025">
        <ele>220</ele>
        <time>2018-10-23T13:39:41Z</time>
      </trkpt>
      <trkpt lat="47.66363" lon="6.03029">
        <ele>220</ele>
        <time>2018-10-23T13:39:42Z</time>
      </trkpt>
      <trkpt lat="47.66367" lon="6.03033">
        <ele>220</ele>
        <time>2018-10-23T13:39:43Z</time>
      </trkpt>
      <trkpt lat="47.66373" lon="6.03036">
        <ele>220</ele>
        <time>2018-10-23T13:39:44Z</time>
      </trkpt>
      <trkpt lat="47.66382" lon="6.03042">
        <ele>220</ele>
        <time>2018-10-23T13:39:45Z</time>
      </trkpt>
      <trkpt lat="47.66386" lon="6.03045">
        <ele>220</ele>
        <time>2018-10-23T13:39:46Z</time>
      </trkpt>
      <trkpt lat="47.66395" lon="6.03049">
        <ele>220</ele>
        <time>2018-10-23T13:39:48Z</time>
      </trkpt>
      <trkpt lat="47.66401" lon="6.03052">
        <ele>220</ele>
        <time>2018-10-23T13:39:49Z</time>
      </trkpt>
      <trkpt lat="47.66407" lon="6.03055">
        <ele>220</ele>
        <time>2018-10-23T13:39:50Z</time>
      </trkpt>
      <trkpt lat="47.66411" lon="6.03057">
        <ele>220</ele>
        <time>2018-10-23T13:39:51Z</time>
      </trkpt>
      <trkpt lat="47.66416" lon="6.0306">
        <ele>220</ele>
        <time>2018-10-23T13:39:52Z</time>
      </trkpt>
      <trkpt lat="47.66423" lon="6.03063">
        <ele>221</ele>
        <time>2018-10-23T13:39:53Z</time>
      </trkpt>
      <trkpt lat="47.66428" lon="6.03065">
        <ele>221</ele>
        <time>2018-10-23T13:39:54Z</time>
      </trkpt>
      <trkpt lat="47.66434" lon="6.03068">
        <ele>221</ele>
        <time>2018-10-23T13:39:55Z</time>
      </trkpt>
      <trkpt lat="47.6644" lon="6.03072">
        <ele>221</ele>
        <time>2018-10-23T13:39:56Z</time>
      </trkpt>
      <trkpt lat="47.66446" lon="6.03074">
        <ele>222</ele>
        <time>2018-10-23T13:39:57Z</time>
      </trkpt>
      <trkpt lat="47.66452" lon="6.03077">
        <ele>222</ele>
        <time>2018-10-23T13:39:58Z</time>
      </trkpt>
      <trkpt lat="47.66459" lon="6.0308">
        <ele>222</ele>
        <time>2018-10-23T13:39:59Z</time>
      </trkpt>
      <trkpt lat="47.66465" lon="6.03083">
        <ele>222</ele>
        <time>2018-10-23T13:40:00Z</time>
      </trkpt>
      <trkpt lat="47.66472" lon="6.03085">
        <ele>216</ele>
        <time>2018-10-23T13:40:01Z</time>
      </trkpt>
      <trkpt lat="47.66478" lon="6.03087">
        <ele>216</ele>
        <time>2018-10-23T13:40:02Z</time>
      </trkpt>
      <trkpt lat="47.66484" lon="6.03087">
        <ele>217</ele>
        <time>2018-10-23T13:40:03Z</time>
      </trkpt>
      <trkpt lat="47.6649" lon="6.03088">
        <ele>217</ele>
        <time>2018-10-23T13:40:04Z</time>
      </trkpt>
      <trkpt lat="47.66496" lon="6.03089">
        <ele>218</ele>
        <time>2018-10-23T13:40:05Z</time>
      </trkpt>
      <trkpt lat="47.66502" lon="6.03089">
        <ele>218</ele>
        <time>2018-10-23T13:40:06Z</time>
      </trkpt>
      <trkpt lat="47.66507" lon="6.0309">
        <ele>217</ele>
        <time>2018-10-23T13:40:07Z</time>
      </trkpt>
      <trkpt lat="47.66512" lon="6.0309">
        <ele>217</ele>
        <time>2018-10-23T13:40:08Z</time>
      </trkpt>
      <trkpt lat="47.66517" lon="6.03091">
        <ele>217</ele>
        <time>2018-10-23T13:40:09Z</time>
      </trkpt>
      <trkpt lat="47.66525" lon="6.03092">
        <ele>216</ele>
        <time>2018-10-23T13:40:11Z</time>
      </trkpt>
      <trkpt lat="47.66533" lon="6.03092">
        <ele>216</ele>
        <time>2018-10-23T13:40:13Z</time>
      </trkpt>
      <trkpt lat="47.66541" lon="6.03092">
        <ele>216</ele>
        <time>2018-10-23T13:40:15Z</time>
      </trkpt>
      <trkpt lat="47.66549" lon="6.03094">
        <ele>215</ele>
        <time>2018-10-23T13:40:17Z</time>
      </trkpt>
      <trkpt lat="47.66556" lon="6.03095">
        <ele>215</ele>
        <time>2018-10-23T13:40:19Z</time>
      </trkpt>
      <trkpt lat="47.66563" lon="6.03096">
        <ele>215</ele>
        <time>2018-10-23T13:40:21Z</time>
      </trkpt>
      <trkpt lat="47.66569" lon="6.03096">
        <ele>216</ele>
        <time>2018-10-23T13:40:23Z</time>
      </trkpt>
      <trkpt lat="47.66576" lon="6.03096">
        <ele>216</ele>
        <time>2018-10-23T13:40:25Z</time>
      </trkpt>
      <trkpt lat="47.66583" lon="6.03097">
        <ele>216</ele>
        <time>2018-10-23T13:40:27Z</time>
      </trkpt>
      <trkpt lat="47.66589" lon="6.03097">
        <ele>216</ele>
        <time>2018-10-23T13:40:29Z</time>
      </trkpt>
      <trkpt lat="47.66596" lon="6.03097">
        <ele>215</ele>
        <time>2018-10-23T13:40:32Z</time>
      </trkpt>
      <trkpt lat="47.66602" lon="6.03096">
        <ele>215</ele>
        <time>2018-10-23T13:40:34Z</time>
      </trkpt>
      <trkpt lat="47.66609" lon="6.03096">
        <ele>215</ele>
        <time>2018-10-23T13:40:36Z</time>
      </trkpt>
      <trkpt lat="47.66616" lon="6.03096">
        <ele>215</ele>
        <time>2018-10-23T13:40:38Z</time>
      </trkpt>
      <trkpt lat="47.66622" lon="6.03096">
        <ele>215</ele>
        <time>2018-10-23T13:40:40Z</time>
      </trkpt>
      <trkpt lat="47.66628" lon="6.03096">
        <ele>215</ele>
        <time>2018-10-23T13:40:42Z</time>
      </trkpt>
      <trkpt lat="47.66634" lon="6.03095">
        <ele>215</ele>
        <time>2018-10-23T13:40:44Z</time>
      </trkpt>
      <trkpt lat="47.6664" lon="6.03094">
        <ele>215</ele>
        <time>2018-10-23T13:40:46Z</time>
      </trkpt>
      <trkpt lat="47.66646" lon="6.03094">
        <ele>215</ele>
        <time>2018-10-23T13:40:48Z</time>
      </trkpt>
      <trkpt lat="47.66651" lon="6.03093">
        <ele>215</ele>
        <time>2018-10-23T13:40:50Z</time>
      </trkpt>
      <trkpt lat="47.66657" lon="6.03093">
        <ele>215</ele>
        <time>2018-10-23T13:40:52Z</time>
      </trkpt>
      <trkpt lat="47.66664" lon="6.03093">
        <ele>215</ele>
        <time>2018-10-23T13:40:54Z</time>
      </trkpt>
      <trkpt lat="47.6667" lon="6.03094">
        <ele>216</ele>
        <time>2018-10-23T13:40:56Z</time>
      </trkpt>
      <trkpt lat="47.66676" lon="6.03095">
        <ele>216</ele>
        <time>2018-10-23T13:40:58Z</time>
      </trkpt>
      <trkpt lat="47.66681" lon="6.03098">
        <ele>217</ele>
        <time>2018-10-23T13:41:00Z</time>
      </trkpt>
      <trkpt lat="47.66687" lon="6.031">
        <ele>217</ele>
        <time>2018-10-23T13:41:02Z</time>
      </trkpt>
      <trkpt lat="47.66692" lon="6.03103">
        <ele>217</ele>
        <time>2018-10-23T13:41:04Z</time>
      </trkpt>
      <trkpt lat="47.66697" lon="6.03106">
        <ele>217</ele>
        <time>2018-10-23T13:41:06Z</time>
      </trkpt>
      <trkpt lat="47.66702" lon="6.0311">
        <ele>217</ele>
        <time>2018-10-23T13:41:08Z</time>
      </trkpt>
      <trkpt lat="47.66707" lon="6.03114">
        <ele>217</ele>
        <time>2018-10-23T13:41:10Z</time>
      </trkpt>
      <trkpt lat="47.66712" lon="6.03118">
        <ele>217</ele>
        <time>2018-10-23T13:41:12Z</time>
      </trkpt>
      <trkpt lat="47.66716" lon="6.03121">
        <ele>217</ele>
        <time>2018-10-23T13:41:14Z</time>
      </trkpt>
      <trkpt lat="47.66721" lon="6.03125">
        <ele>217</ele>
        <time>2018-10-23T13:41:16Z</time>
      </trkpt>
      <trkpt lat="47.66725" lon="6.03129">
        <ele>217</ele>
        <time>2018-10-23T13:41:18Z</time>
      </trkpt>
      <trkpt lat="47.66729" lon="6.03132">
        <ele>217</ele>
        <time>2018-10-23T13:41:20Z</time>
      </trkpt>
      <trkpt lat="47.66735" lon="6.03135">
        <ele>218</ele>
        <time>2018-10-23T13:41:23Z</time>
      </trkpt>
      <trkpt lat="47.66741" lon="6.03139">
        <ele>218</ele>
        <time>2018-10-23T13:41:26Z</time>
      </trkpt>
      <trkpt lat="47.66745" lon="6.03142">
        <ele>218</ele>
        <time>2018-10-23T13:41:28Z</time>
      </trkpt>
      <trkpt lat="47.6675" lon="6.03144">
        <ele>218</ele>
        <time>2018-10-23T13:41:31Z</time>
      </trkpt>
      <trkpt lat="47.66755" lon="6.03145">
        <ele>220</ele>
        <time>2018-10-23T13:41:34Z</time>
      </trkpt>
      <trkpt lat="47.6676" lon="6.03146">
        <ele>220</ele>
        <time>2018-10-23T13:41:37Z</time>
      </trkpt>
      <trkpt lat="47.66766" lon="6.03149">
        <ele>220</ele>
        <time>2018-10-23T13:41:40Z</time>
      </trkpt>
      <trkpt lat="47.66771" lon="6.03151">
        <ele>220</ele>
        <time>2018-10-23T13:41:43Z</time>
      </trkpt>
      <trkpt lat="47.66776" lon="6.03153">
        <ele>221</ele>
        <time>2018-10-23T13:41:46Z</time>
      </trkpt>
      <trkpt lat="47.66781" lon="6.03154">
        <ele>221</ele>
        <time>2018-10-23T13:41:49Z</time>
      </trkpt>
      <trkpt lat="47.66786" lon="6.03155">
        <ele>221</ele>
        <time>2018-10-23T13:41:52Z</time>
      </trkpt>
      <trkpt lat="47.66793" lon="6.03155">
        <ele>221</ele>
        <time>2018-10-23T13:41:55Z</time>
      </trkpt>
      <trkpt lat="47.66797" lon="6.03155">
        <ele>221</ele>
        <time>2018-10-23T13:41:58Z</time>
      </trkpt>
      <trkpt lat="47.66803" lon="6.03156">
        <ele>222</ele>
        <time>2018-10-23T13:42:01Z</time>
      </trkpt>
      <trkpt lat="47.66808" lon="6.03157">
        <ele>222</ele>
        <time>2018-10-23T13:42:04Z</time>
      </trkpt>
      <trkpt lat="47.66814" lon="6.03159">
        <ele>222</ele>
        <time>2018-10-23T13:42:07Z</time>
      </trkpt>
      <trkpt lat="47.66819" lon="6.03161">
        <ele>222</ele>
        <time>2018-10-23T13:42:09Z</time>
      </trkpt>
      <trkpt lat="47.66823" lon="6.03162">
        <ele>222</ele>
        <time>2018-10-23T13:42:11Z</time>
      </trkpt>
      <trkpt lat="47.66828" lon="6.03163">
        <ele>222</ele>
        <time>2018-10-23T13:42:13Z</time>
      </trkpt>
      <trkpt lat="47.66834" lon="6.03164">
        <ele>223</ele>
        <time>2018-10-23T13:42:16Z</time>
      </trkpt>
      <trkpt lat="47.66839" lon="6.03165">
        <ele>223</ele>
        <time>2018-10-23T13:42:19Z</time>
      </trkpt>
      <trkpt lat="47.66845" lon="6.03165">
        <ele>224</ele>
        <time>2018-10-23T13:42:22Z</time>
      </trkpt>
      <trkpt lat="47.66852" lon="6.03166">
        <ele>225</ele>
        <time>2018-10-23T13:42:25Z</time>
      </trkpt>
      <trkpt lat="47.66858" lon="6.03167">
        <ele>225</ele>
        <time>2018-10-23T13:42:27Z</time>
      </trkpt>
      <trkpt lat="47.66865" lon="6.03167">
        <ele>225</ele>
        <time>2018-10-23T13:42:30Z</time>
      </trkpt>
      <trkpt lat="47.6687" lon="6.03168">
        <ele>225</ele>
        <time>2018-10-23T13:42:34Z</time>
      </trkpt>
      <trkpt lat="47.66874" lon="6.03169">
        <ele>226</ele>
        <time>2018-10-23T13:42:38Z</time>
      </trkpt>
      <trkpt lat="47.66879" lon="6.03171">
        <ele>226</ele>
        <time>2018-10-23T13:42:42Z</time>
      </trkpt>
      <trkpt lat="47.66884" lon="6.03171">
        <ele>226</ele>
        <time>2018-10-23T13:42:45Z</time>
      </trkpt>
      <trkpt lat="47.66888" lon="6.03175">
        <ele>226</ele>
        <time>2018-10-23T13:42:48Z</time>
      </trkpt>
      <trkpt lat="47.66893" lon="6.03179">
        <ele>227</ele>
        <time>2018-10-23T13:42:50Z</time>
      </trkpt>
      <trkpt lat="47.66898" lon="6.03183">
        <ele>227</ele>
        <time>2018-10-23T13:42:53Z</time>
      </trkpt>
      <trkpt lat="47.66903" lon="6.03187">
        <ele>227</ele>
        <time>2018-10-23T13:42:56Z</time>
      </trkpt>
      <trkpt lat="47.66908" lon="6.03192">
        <ele>227</ele>
        <time>2018-10-23T13:42:59Z</time>
      </trkpt>
      <trkpt lat="47.66912" lon="6.03197">
        <ele>227</ele>
        <time>2018-10-23T13:43:02Z</time>
      </trkpt>
      <trkpt lat="47.66918" lon="6.032">
        <ele>231</ele>
        <time>2018-10-23T13:43:05Z</time>
      </trkpt>
      <trkpt lat="47.66922" lon="6.03205">
        <ele>231</ele>
        <time>2018-10-23T13:43:08Z</time>
      </trkpt>
      <trkpt lat="47.66926" lon="6.03211">
        <ele>231</ele>
        <time>2018-10-23T13:43:11Z</time>
      </trkpt>
      <trkpt lat="47.6693" lon="6.03217">
        <ele>231</ele>
        <time>2018-10-23T13:43:13Z</time>
      </trkpt>
      <trkpt lat="47.66935" lon="6.03223">
        <ele>232</ele>
        <time>2018-10-23T13:43:16Z</time>
      </trkpt>
      <trkpt lat="47.66939" lon="6.03228">
        <ele>232</ele>
        <time>2018-10-23T13:43:19Z</time>
      </trkpt>
      <trkpt lat="47.66944" lon="6.03234">
        <ele>232</ele>
        <time>2018-10-23T13:43:22Z</time>
      </trkpt>
      <trkpt lat="47.66949" lon="6.03239">
        <ele>232</ele>
        <time>2018-10-23T13:43:26Z</time>
      </trkpt>
      <trkpt lat="47.66953" lon="6.03244">
        <ele>232</ele>
        <time>2018-10-23T13:43:29Z</time>
      </trkpt>
      <trkpt lat="47.66956" lon="6.03249">
        <ele>232</ele>
        <time>2018-10-23T13:43:32Z</time>
      </trkpt>
      <trkpt lat="47.6696" lon="6.03255">
        <ele>234</ele>
        <time>2018-10-23T13:43:35Z</time>
      </trkpt>
      <trkpt lat="47.66964" lon="6.03261">
        <ele>235</ele>
        <time>2018-10-23T13:43:38Z</time>
      </trkpt>
      <trkpt lat="47.66969" lon="6.03266">
        <ele>235</ele>
        <time>2018-10-23T13:43:41Z</time>
      </trkpt>
      <trkpt lat="47.66974" lon="6.03271">
        <ele>235</ele>
        <time>2018-10-23T13:43:44Z</time>
      </trkpt>
      <trkpt lat="47.66979" lon="6.03277">
        <ele>235</ele>
        <time>2018-10-23T13:43:47Z</time>
      </trkpt>
      <trkpt lat="47.66983" lon="6.03284">
        <ele>236</ele>
        <time>2018-10-23T13:43:50Z</time>
      </trkpt>
      <trkpt lat="47.66986" lon="6.03289">
        <ele>236</ele>
        <time>2018-10-23T13:43:52Z</time>
      </trkpt>
      <trkpt lat="47.6699" lon="6.03295">
        <ele>236</ele>
        <time>2018-10-23T13:43:55Z</time>
      </trkpt>
      <trkpt lat="47.66995" lon="6.033">
        <ele>236</ele>
        <time>2018-10-23T13:43:58Z</time>
      </trkpt>
      <trkpt lat="47.66999" lon="6.03306">
        <ele>237</ele>
        <time>2018-10-23T13:44:02Z</time>
      </trkpt>
      <trkpt lat="47.67003" lon="6.03312">
        <ele>238</ele>
        <time>2018-10-23T13:44:05Z</time>
      </trkpt>
      <trkpt lat="47.67007" lon="6.03319">
        <ele>239</ele>
        <time>2018-10-23T13:44:08Z</time>
      </trkpt>
      <trkpt lat="47.6701" lon="6.03325">
        <ele>239</ele>
        <time>2018-10-23T13:44:10Z</time>
      </trkpt>
      <trkpt lat="47.67015" lon="6.03332">
        <ele>239</ele>
        <time>2018-10-23T13:44:13Z</time>
      </trkpt>
      <trkpt lat="47.67018" lon="6.03338">
        <ele>240</ele>
        <time>2018-10-23T13:44:15Z</time>
      </trkpt>
      <trkpt lat="47.67023" lon="6.03345">
        <ele>241</ele>
        <time>2018-10-23T13:44:18Z</time>
      </trkpt>
      <trkpt lat="47.67026" lon="6.0335">
        <ele>241</ele>
        <time>2018-10-23T13:44:20Z</time>
      </trkpt>
      <trkpt lat="47.67029" lon="6.03355">
        <ele>241</ele>
        <time>2018-10-23T13:44:22Z</time>
      </trkpt>
      <trkpt lat="47.67033" lon="6.03361">
        <ele>241</ele>
        <time>2018-10-23T13:44:24Z</time>
      </trkpt>
      <trkpt lat="47.67037" lon="6.03366">
        <ele>241</ele>
        <time>2018-10-23T13:44:26Z</time>
      </trkpt>
      <trkpt lat="47.67041" lon="6.03374">
        <ele>241</ele>
        <time>2018-10-23T13:44:29Z</time>
      </trkpt>
      <trkpt lat="47.67046" lon="6.03382">
        <ele>241</ele>
        <time>2018-10-23T13:44:32Z</time>
      </trkpt>
      <trkpt lat="47.6705" lon="6.03389">
        <ele>241</ele>
        <time>2018-10-23T13:44:34Z</time>
      </trkpt>
      <trkpt lat="47.67054" lon="6.03395">
        <ele>241</ele>
        <time>2018-10-23T13:44:36Z</time>
      </trkpt>
      <trkpt lat="47.67058" lon="6.034">
        <ele>241</ele>
        <time>2018-10-23T13:44:38Z</time>
      </trkpt>
      <trkpt lat="47.67064" lon="6.03407">
        <ele>242</ele>
        <time>2018-10-23T13:44:40Z</time>
      </trkpt>
      <trkpt lat="47.6707" lon="6.03412">
        <ele>242</ele>
        <time>2018-10-23T13:44:42Z</time>
      </trkpt>
      <trkpt lat="47.67074" lon="6.03418">
        <ele>243</ele>
        <time>2018-10-23T13:44:44Z</time>
      </trkpt>
      <trkpt lat="47.67078" lon="6.03424">
        <ele>243</ele>
        <time>2018-10-23T13:44:46Z</time>
      </trkpt>
      <trkpt lat="47.67082" lon="6.03429">
        <ele>243</ele>
        <time>2018-10-23T13:44:48Z</time>
      </trkpt>
      <trkpt lat="47.67085" lon="6.03435">
        <ele>242</ele>
        <time>2018-10-23T13:44:50Z</time>
      </trkpt>
      <trkpt lat="47.67089" lon="6.03441">
        <ele>242</ele>
        <time>2018-10-23T13:44:52Z</time>
      </trkpt>
      <trkpt lat="47.67093" lon="6.03449">
        <ele>242</ele>
        <time>2018-10-23T13:44:55Z</time>
      </trkpt>
      <trkpt lat="47.67097" lon="6.03455">
        <ele>242</ele>
        <time>2018-10-23T13:44:57Z</time>
      </trkpt>
      <trkpt lat="47.67102" lon="6.03461">
        <ele>242</ele>
        <time>2018-10-23T13:44:59Z</time>
      </trkpt>
      <trkpt lat="47.67105" lon="6.03467">
        <ele>242</ele>
        <time>2018-10-23T13:45:01Z</time>
      </trkpt>
      <trkpt lat="47.6711" lon="6.03473">
        <ele>242</ele>
        <time>2018-10-23T13:45:03Z</time>
      </trkpt>
      <trkpt lat="47.67114" lon="6.03479">
        <ele>242</ele>
        <time>2018-10-23T13:45:05Z</time>
      </trkpt>
      <trkpt lat="47.67118" lon="6.03486">
        <ele>242</ele>
        <time>2018-10-23T13:45:07Z</time>
      </trkpt>
      <trkpt lat="47.67121" lon="6.03493">
        <ele>242</ele>
        <time>2018-10-23T13:45:09Z</time>
      </trkpt>
      <trkpt lat="47.67125" lon="6.035">
        <ele>242</ele>
        <time>2018-10-23T13:45:11Z</time>
      </trkpt>
      <trkpt lat="47.67128" lon="6.03506">
        <ele>246</ele>
        <time>2018-10-23T13:45:13Z</time>
      </trkpt>
      <trkpt lat="47.67131" lon="6.03511">
        <ele>246</ele>
        <time>2018-10-23T13:45:15Z</time>
      </trkpt>
      <trkpt lat="47.67136" lon="6.03519">
        <ele>246</ele>
        <time>2018-10-23T13:45:18Z</time>
      </trkpt>
      <trkpt lat="47.67139" lon="6.03524">
        <ele>246</ele>
        <time>2018-10-23T13:45:20Z</time>
      </trkpt>
      <trkpt lat="47.67142" lon="6.03529">
        <ele>247</ele>
        <time>2018-10-23T13:45:22Z</time>
      </trkpt>
      <trkpt lat="47.67146" lon="6.03535">
        <ele>247</ele>
        <time>2018-10-23T13:45:24Z</time>
      </trkpt>
      <trkpt lat="47.6715" lon="6.03541">
        <ele>247</ele>
        <time>2018-10-23T13:45:27Z</time>
      </trkpt>
      <trkpt lat="47.67154" lon="6.03547">
        <ele>247</ele>
        <time>2018-10-23T13:45:29Z</time>
      </trkpt>
      <trkpt lat="47.67157" lon="6.03552">
        <ele>248</ele>
        <time>2018-10-23T13:45:31Z</time>
      </trkpt>
      <trkpt lat="47.67162" lon="6.0356">
        <ele>248</ele>
        <time>2018-10-23T13:45:33Z</time>
      </trkpt>
      <trkpt lat="47.67167" lon="6.03567">
        <ele>249</ele>
        <time>2018-10-23T13:45:35Z</time>
      </trkpt>
      <trkpt lat="47.67172" lon="6.03575">
        <ele>245</ele>
        <time>2018-10-23T13:45:37Z</time>
      </trkpt>
      <trkpt lat="47.67178" lon="6.03584">
        <ele>246</ele>
        <time>2018-10-23T13:45:39Z</time>
      </trkpt>
      <trkpt lat="47.67184" lon="6.03594">
        <ele>244</ele>
        <time>2018-10-23T13:45:41Z</time>
      </trkpt>
      <trkpt lat="47.67189" lon="6.03603">
        <ele>243</ele>
        <time>2018-10-23T13:45:42Z</time>
      </trkpt>
      <trkpt lat="47.67196" lon="6.03616">
        <ele>242</ele>
        <time>2018-10-23T13:45:43Z</time>
      </trkpt>
      <trkpt lat="47.67199" lon="6.03624">
        <ele>241</ele>
        <time>2018-10-23T13:45:44Z</time>
      </trkpt>
      <trkpt lat="47.67203" lon="6.03633">
        <ele>241</ele>
        <time>2018-10-23T13:45:45Z</time>
      </trkpt>
      <trkpt lat="47.67207" lon="6.03642">
        <ele>241</ele>
        <time>2018-10-23T13:45:46Z</time>
      </trkpt>
      <trkpt lat="47.67212" lon="6.0365">
        <ele>240</ele>
        <time>2018-10-23T13:45:47Z</time>
      </trkpt>
      <trkpt lat="47.67217" lon="6.0366">
        <ele>239</ele>
        <time>2018-10-23T13:45:48Z</time>
      </trkpt>
      <trkpt lat="47.67222" lon="6.03669">
        <ele>241</ele>
        <time>2018-10-23T13:45:49Z</time>
      </trkpt>
      <trkpt lat="47.67228" lon="6.03681">
        <ele>240</ele>
        <time>2018-10-23T13:45:50Z</time>
      </trkpt>
      <trkpt lat="47.67235" lon="6.03692">
        <ele>241</ele>
        <time>2018-10-23T13:45:51Z</time>
      </trkpt>
      <trkpt lat="47.67241" lon="6.03703">
        <ele>242</ele>
        <time>2018-10-23T13:45:52Z</time>
      </trkpt>
      <trkpt lat="47.67247" lon="6.03713">
        <ele>242</ele>
        <time>2018-10-23T13:45:53Z</time>
      </trkpt>
      <trkpt lat="47.67253" lon="6.03724">
        <ele>231</ele>
        <time>2018-10-23T13:45:54Z</time>
      </trkpt>
      <trkpt lat="47.6726" lon="6.03735">
        <ele>233</ele>
        <time>2018-10-23T13:45:55Z</time>
      </trkpt>
      <trkpt lat="47.67266" lon="6.03745">
        <ele>233</ele>
        <time>2018-10-23T13:45:56Z</time>
      </trkpt>
      <trkpt lat="47.67273" lon="6.03756">
        <ele>236</ele>
        <time>2018-10-23T13:45:57Z</time>
      </trkpt>
      <trkpt lat="47.6728" lon="6.03768">
        <ele>235</ele>
        <time>2018-10-23T13:45:58Z</time>
      </trkpt>
      <trkpt lat="47.67288" lon="6.03781">
        <ele>234</ele>
        <time>2018-10-23T13:45:59Z</time>
      </trkpt>
      <trkpt lat="47.67295" lon="6.03793">
        <ele>234</ele>
        <time>2018-10-23T13:46:00Z</time>
      </trkpt>
      <trkpt lat="47.67301" lon="6.03805">
        <ele>234</ele>
        <time>2018-10-23T13:46:01Z</time>
      </trkpt>
      <trkpt lat="47.67308" lon="6.03817">
        <ele>233</ele>
        <time>2018-10-23T13:46:02Z</time>
      </trkpt>
      <trkpt lat="47.67314" lon="6.03829">
        <ele>232</ele>
        <time>2018-10-23T13:46:03Z</time>
      </trkpt>
      <trkpt lat="47.67321" lon="6.03841">
        <ele>235</ele>
        <time>2018-10-23T13:46:04Z</time>
      </trkpt>
      <trkpt lat="47.67327" lon="6.03853">
        <ele>236</ele>
        <time>2018-10-23T13:46:05Z</time>
      </trkpt>
      <trkpt lat="47.67333" lon="6.03865">
        <ele>237</ele>
        <time>2018-10-23T13:46:06Z</time>
      </trkpt>
      <trkpt lat="47.6734" lon="6.03877">
        <ele>228</ele>
        <time>2018-10-23T13:46:07Z</time>
      </trkpt>
      <trkpt lat="47.67346" lon="6.03888">
        <ele>228</ele>
        <time>2018-10-23T13:46:08Z</time>
      </trkpt>
      <trkpt lat="47.67353" lon="6.03897">
        <ele>228</ele>
        <time>2018-10-23T13:46:09Z</time>
      </trkpt>
      <trkpt lat="47.67361" lon="6.03905">
        <ele>228</ele>
        <time>2018-10-23T13:46:10Z</time>
      </trkpt>
      <trkpt lat="47.67368" lon="6.03911">
        <ele>227</ele>
        <time>2018-10-23T13:46:11Z</time>
      </trkpt>
      <trkpt lat="47.67374" lon="6.03919">
        <ele>233</ele>
        <time>2018-10-23T13:46:12Z</time>
      </trkpt>
      <trkpt lat="47.67381" lon="6.03925">
        <ele>232</ele>
        <time>2018-10-23T13:46:13Z</time>
      </trkpt>
      <trkpt lat="47.67388" lon="6.03933">
        <ele>232</ele>
        <time>2018-10-23T13:46:14Z</time>
      </trkpt>
      <trkpt lat="47.67394" lon="6.03941">
        <ele>232</ele>
        <time>2018-10-23T13:46:15Z</time>
      </trkpt>
      <trkpt lat="47.674" lon="6.0395">
        <ele>232</ele>
        <time>2018-10-23T13:46:16Z</time>
      </trkpt>
      <trkpt lat="47.67405" lon="6.03959">
        <ele>233</ele>
        <time>2018-10-23T13:46:17Z</time>
      </trkpt>
      <trkpt lat="47.6741" lon="6.03968">
        <ele>234</ele>
        <time>2018-10-23T13:46:18Z</time>
      </trkpt>
      <trkpt lat="47.67415" lon="6.03975">
        <ele>235</ele>
        <time>2018-10-23T13:46:19Z</time>
      </trkpt>
      <trkpt lat="47.67419" lon="6.03984">
        <ele>228</ele>
        <time>2018-10-23T13:46:20Z</time>
      </trkpt>
      <trkpt lat="47.67424" lon="6.03992">
        <ele>230</ele>
        <time>2018-10-23T13:46:21Z</time>
      </trkpt>
      <trkpt lat="47.67429" lon="6.03999">
        <ele>230</ele>
        <time>2018-10-23T13:46:22Z</time>
      </trkpt>
      <trkpt lat="47.67433" lon="6.04007">
        <ele>234</ele>
        <time>2018-10-23T13:46:23Z</time>
      </trkpt>
      <trkpt lat="47.67437" lon="6.04012">
        <ele>233</ele>
        <time>2018-10-23T13:46:24Z</time>
      </trkpt>
      <trkpt lat="47.6744" lon="6.04019">
        <ele>233</ele>
        <time>2018-10-23T13:46:25Z</time>
      </trkpt>
      <trkpt lat="47.67443" lon="6.04025">
        <ele>233</ele>
        <time>2018-10-23T13:46:26Z</time>
      </trkpt>
      <trkpt lat="47.67447" lon="6.04031">
        <ele>233</ele>
        <time>2018-10-23T13:46:27Z</time>
      </trkpt>
      <trkpt lat="47.6745" lon="6.04037">
        <ele>233</ele>
        <time>2018-10-23T13:46:28Z</time>
      </trkpt>
      <trkpt lat="47.67453" lon="6.04043">
        <ele>233</ele>
        <time>2018-10-23T13:46:29Z</time>
      </trkpt>
      <trkpt lat="47.67457" lon="6.04049">
        <ele>233</ele>
        <time>2018-10-23T13:46:30Z</time>
      </trkpt>
      <trkpt lat="47.67461" lon="6.04054">
        <ele>233</ele>
        <time>2018-10-23T13:46:31Z</time>
      </trkpt>
      <trkpt lat="47.67465" lon="6.04061">
        <ele>233</ele>
        <time>2018-10-23T13:46:32Z</time>
      </trkpt>
      <trkpt lat="47.6747" lon="6.04068">
        <ele>233</ele>
        <time>2018-10-23T13:46:33Z</time>
      </trkpt>
      <trkpt lat="47.67475" lon="6.04075">
        <ele>232</ele>
        <time>2018-10-23T13:46:34Z</time>
      </trkpt>
      <trkpt lat="47.6748" lon="6.04083">
        <ele>232</ele>
        <time>2018-10-23T13:46:35Z</time>
      </trkpt>
      <trkpt lat="47.67485" lon="6.0409">
        <ele>236</ele>
        <time>2018-10-23T13:46:36Z</time>
      </trkpt>
      <trkpt lat="47.6749" lon="6.04097">
        <ele>236</ele>
        <time>2018-10-23T13:46:37Z</time>
      </trkpt>
      <trkpt lat="47.67495" lon="6.04104">
        <ele>237</ele>
        <time>2018-10-23T13:46:38Z</time>
      </trkpt>
      <trkpt lat="47.675" lon="6.04112">
        <ele>228</ele>
        <time>2018-10-23T13:46:39Z</time>
      </trkpt>
      <trkpt lat="47.67506" lon="6.04118">
        <ele>228</ele>
        <time>2018-10-23T13:46:40Z</time>
      </trkpt>
      <trkpt lat="47.67511" lon="6.04124">
        <ele>229</ele>
        <time>2018-10-23T13:46:41Z</time>
      </trkpt>
      <trkpt lat="47.67516" lon="6.0413">
        <ele>229</ele>
        <time>2018-10-23T13:46:42Z</time>
      </trkpt>
      <trkpt lat="47.67521" lon="6.04136">
        <ele>229</ele>
        <time>2018-10-23T13:46:43Z</time>
      </trkpt>
      <trkpt lat="47.67526" lon="6.04141">
        <ele>229</ele>
        <time>2018-10-23T13:46:44Z</time>
      </trkpt>
      <trkpt lat="47.67531" lon="6.04147">
        <ele>229</ele>
        <time>2018-10-23T13:46:45Z</time>
      </trkpt>
      <trkpt lat="47.67535" lon="6.04152">
        <ele>228</ele>
        <time>2018-10-23T13:46:46Z</time>
      </trkpt>
      <trkpt lat="47.67539" lon="6.04158">
        <ele>228</ele>
        <time>2018-10-23T13:46:47Z</time>
      </trkpt>
      <trkpt lat="47.67543" lon="6.04163">
        <ele>227</ele>
        <time>2018-10-23T13:46:48Z</time>
      </trkpt>
      <trkpt lat="47.67547" lon="6.04169">
        <ele>234</ele>
        <time>2018-10-23T13:46:49Z</time>
      </trkpt>
      <trkpt lat="47.67551" lon="6.04174">
        <ele>234</ele>
        <time>2018-10-23T13:46:50Z</time>
      </trkpt>
      <trkpt lat="47.67554" lon="6.04179">
        <ele>233</ele>
        <time>2018-10-23T13:46:51Z</time>
      </trkpt>
      <trkpt lat="47.67558" lon="6.04184">
        <ele>233</ele>
        <time>2018-10-23T13:46:52Z</time>
      </trkpt>
      <trkpt lat="47.67562" lon="6.0419">
        <ele>233</ele>
        <time>2018-10-23T13:46:53Z</time>
      </trkpt>
      <trkpt lat="47.67566" lon="6.04195">
        <ele>234</ele>
        <time>2018-10-23T13:46:54Z</time>
      </trkpt>
      <trkpt lat="47.67571" lon="6.042">
        <ele>234</ele>
        <time>2018-10-23T13:46:55Z</time>
      </trkpt>
      <trkpt lat="47.67576" lon="6.04206">
        <ele>235</ele>
        <time>2018-10-23T13:46:56Z</time>
      </trkpt>
      <trkpt lat="47.6758" lon="6.04213">
        <ele>235</ele>
        <time>2018-10-23T13:46:57Z</time>
      </trkpt>
      <trkpt lat="47.67585" lon="6.04219">
        <ele>226</ele>
        <time>2018-10-23T13:46:58Z</time>
      </trkpt>
      <trkpt lat="47.67589" lon="6.04226">
        <ele>227</ele>
        <time>2018-10-23T13:46:59Z</time>
      </trkpt>
      <trkpt lat="47.67594" lon="6.04232">
        <ele>228</ele>
        <time>2018-10-23T13:47:00Z</time>
      </trkpt>
      <trkpt lat="47.67599" lon="6.04239">
        <ele>228</ele>
        <time>2018-10-23T13:47:01Z</time>
      </trkpt>
      <trkpt lat="47.67604" lon="6.04245">
        <ele>228</ele>
        <time>2018-10-23T13:47:02Z</time>
      </trkpt>
      <trkpt lat="47.67609" lon="6.04252">
        <ele>234</ele>
        <time>2018-10-23T13:47:03Z</time>
      </trkpt>
      <trkpt lat="47.67614" lon="6.04259">
        <ele>233</ele>
        <time>2018-10-23T13:47:04Z</time>
      </trkpt>
      <trkpt lat="47.67618" lon="6.04266">
        <ele>233</ele>
        <time>2018-10-23T13:47:05Z</time>
      </trkpt>
      <trkpt lat="47.67623" lon="6.04272">
        <ele>232</ele>
        <time>2018-10-23T13:47:06Z</time>
      </trkpt>
      <trkpt lat="47.67627" lon="6.04279">
        <ele>232</ele>
        <time>2018-10-23T13:47:07Z</time>
      </trkpt>
      <trkpt lat="47.67632" lon="6.04286">
        <ele>232</ele>
        <time>2018-10-23T13:47:08Z</time>
      </trkpt>
      <trkpt lat="47.67636" lon="6.04293">
        <ele>232</ele>
        <time>2018-10-23T13:47:09Z</time>
      </trkpt>
      <trkpt lat="47.67641" lon="6.04298">
        <ele>232</ele>
        <time>2018-10-23T13:47:10Z</time>
      </trkpt>
      <trkpt lat="47.67646" lon="6.04304">
        <ele>232</ele>
        <time>2018-10-23T13:47:11Z</time>
      </trkpt>
      <trkpt lat="47.67651" lon="6.04309">
        <ele>232</ele>
        <time>2018-10-23T13:47:12Z</time>
      </trkpt>
      <trkpt lat="47.67655" lon="6.04314">
        <ele>232</ele>
        <time>2018-10-23T13:47:13Z</time>
      </trkpt>
      <trkpt lat="47.67659" lon="6.04319">
        <ele>232</ele>
        <time>2018-10-23T13:47:14Z</time>
      </trkpt>
      <trkpt lat="47.67664" lon="6.04325">
        <ele>232</ele>
        <time>2018-10-23T13:47:15Z</time>
      </trkpt>
      <trkpt lat="47.67669" lon="6.0433">
        <ele>229</ele>
        <time>2018-10-23T13:47:16Z</time>
      </trkpt>
      <trkpt lat="47.67674" lon="6.04335">
        <ele>231</ele>
        <time>2018-10-23T13:47:17Z</time>
      </trkpt>
      <trkpt lat="47.67679" lon="6.04338">
        <ele>230</ele>
        <time>2018-10-23T13:47:18Z</time>
      </trkpt>
      <trkpt lat="47.67683" lon="6.04342">
        <ele>230</ele>
        <time>2018-10-23T13:47:19Z</time>
      </trkpt>
      <trkpt lat="47.67688" lon="6.04346">
        <ele>230</ele>
        <time>2018-10-23T13:47:20Z</time>
      </trkpt>
      <trkpt lat="47.67693" lon="6.0435">
        <ele>230</ele>
        <time>2018-10-23T13:47:21Z</time>
      </trkpt>
      <trkpt lat="47.67699" lon="6.04355">
        <ele>229</ele>
        <time>2018-10-23T13:47:22Z</time>
      </trkpt>
      <trkpt lat="47.67705" lon="6.04359">
        <ele>229</ele>
        <time>2018-10-23T13:47:23Z</time>
      </trkpt>
      <trkpt lat="47.67711" lon="6.04363">
        <ele>229</ele>
        <time>2018-10-23T13:47:24Z</time>
      </trkpt>
      <trkpt lat="47.67717" lon="6.04368">
        <ele>229</ele>
        <time>2018-10-23T13:47:25Z</time>
      </trkpt>
      <trkpt lat="47.67723" lon="6.04373">
        <ele>228</ele>
        <time>2018-10-23T13:47:26Z</time>
      </trkpt>
      <trkpt lat="47.6773" lon="6.04377">
        <ele>228</ele>
        <time>2018-10-23T13:47:27Z</time>
      </trkpt>
      <trkpt lat="47.67736" lon="6.04381">
        <ele>228</ele>
        <time>2018-10-23T13:47:28Z</time>
      </trkpt>
      <trkpt lat="47.67744" lon="6.04386">
        <ele>229</ele>
        <time>2018-10-23T13:47:29Z</time>
      </trkpt>
      <trkpt lat="47.67751" lon="6.04389">
        <ele>222</ele>
        <time>2018-10-23T13:47:30Z</time>
      </trkpt>
      <trkpt lat="47.67758" lon="6.04394">
        <ele>223</ele>
        <time>2018-10-23T13:47:31Z</time>
      </trkpt>
      <trkpt lat="47.67764" lon="6.04396">
        <ele>223</ele>
        <time>2018-10-23T13:47:32Z</time>
      </trkpt>
      <trkpt lat="47.6777" lon="6.04398">
        <ele>222</ele>
        <time>2018-10-23T13:47:33Z</time>
      </trkpt>
      <trkpt lat="47.67776" lon="6.044">
        <ele>222</ele>
        <time>2018-10-23T13:47:34Z</time>
      </trkpt>
      <trkpt lat="47.67782" lon="6.04403">
        <ele>221</ele>
        <time>2018-10-23T13:47:35Z</time>
      </trkpt>
      <trkpt lat="47.67788" lon="6.04405">
        <ele>221</ele>
        <time>2018-10-23T13:47:36Z</time>
      </trkpt>
      <trkpt lat="47.67794" lon="6.04407">
        <ele>220</ele>
        <time>2018-10-23T13:47:37Z</time>
      </trkpt>
      <trkpt lat="47.67801" lon="6.04409">
        <ele>220</ele>
        <time>2018-10-23T13:47:38Z</time>
      </trkpt>
      <trkpt lat="47.67808" lon="6.04412">
        <ele>219</ele>
        <time>2018-10-23T13:47:39Z</time>
      </trkpt>
      <trkpt lat="47.67814" lon="6.04415">
        <ele>219</ele>
        <time>2018-10-23T13:47:40Z</time>
      </trkpt>
      <trkpt lat="47.6782" lon="6.04416">
        <ele>219</ele>
        <time>2018-10-23T13:47:41Z</time>
      </trkpt>
      <trkpt lat="47.67827" lon="6.04418">
        <ele>221</ele>
        <time>2018-10-23T13:47:42Z</time>
      </trkpt>
      <trkpt lat="47.67834" lon="6.0442">
        <ele>218</ele>
        <time>2018-10-23T13:47:43Z</time>
      </trkpt>
      <trkpt lat="47.67842" lon="6.04422">
        <ele>218</ele>
        <time>2018-10-23T13:47:44Z</time>
      </trkpt>
      <trkpt lat="47.67849" lon="6.04423">
        <ele>218</ele>
        <time>2018-10-23T13:47:45Z</time>
      </trkpt>
      <trkpt lat="47.67856" lon="6.04423">
        <ele>217</ele>
        <time>2018-10-23T13:47:46Z</time>
      </trkpt>
      <trkpt lat="47.67863" lon="6.04424">
        <ele>217</ele>
        <time>2018-10-23T13:47:47Z</time>
      </trkpt>
      <trkpt lat="47.6787" lon="6.04425">
        <ele>217</ele>
        <time>2018-10-23T13:47:48Z</time>
      </trkpt>
      <trkpt lat="47.67876" lon="6.04425">
        <ele>216</ele>
        <time>2018-10-23T13:47:49Z</time>
      </trkpt>
      <trkpt lat="47.67883" lon="6.04426">
        <ele>216</ele>
        <time>2018-10-23T13:47:50Z</time>
      </trkpt>
      <trkpt lat="47.67889" lon="6.04427">
        <ele>215</ele>
        <time>2018-10-23T13:47:51Z</time>
      </trkpt>
      <trkpt lat="47.67895" lon="6.04428">
        <ele>215</ele>
        <time>2018-10-23T13:47:52Z</time>
      </trkpt>
      <trkpt lat="47.67901" lon="6.04429">
        <ele>214</ele>
        <time>2018-10-23T13:47:53Z</time>
      </trkpt>
      <trkpt lat="47.67907" lon="6.0443">
        <ele>214</ele>
        <time>2018-10-23T13:47:54Z</time>
      </trkpt>
      <trkpt lat="47.67913" lon="6.04431">
        <ele>214</ele>
        <time>2018-10-23T13:47:55Z</time>
      </trkpt>
      <trkpt lat="47.67919" lon="6.04432">
        <ele>211</ele>
        <time>2018-10-23T13:47:56Z</time>
      </trkpt>
      <trkpt lat="47.67926" lon="6.04432">
        <ele>211</ele>
        <time>2018-10-23T13:47:57Z</time>
      </trkpt>
      <trkpt lat="47.67931" lon="6.04433">
        <ele>212</ele>
        <time>2018-10-23T13:47:58Z</time>
      </trkpt>
      <trkpt lat="47.67937" lon="6.04434">
        <ele>212</ele>
        <time>2018-10-23T13:47:59Z</time>
      </trkpt>
      <trkpt lat="47.67943" lon="6.04434">
        <ele>212</ele>
        <time>2018-10-23T13:48:00Z</time>
      </trkpt>
      <trkpt lat="47.67948" lon="6.04434">
        <ele>212</ele>
        <time>2018-10-23T13:48:01Z</time>
      </trkpt>
      <trkpt lat="47.67954" lon="6.04434">
        <ele>212</ele>
        <time>2018-10-23T13:48:02Z</time>
      </trkpt>
      <trkpt lat="47.6796" lon="6.04434">
        <ele>212</ele>
        <time>2018-10-23T13:48:03Z</time>
      </trkpt>
      <trkpt lat="47.67965" lon="6.04433">
        <ele>212</ele>
        <time>2018-10-23T13:48:04Z</time>
      </trkpt>
      <trkpt lat="47.6797" lon="6.04432">
        <ele>211</ele>
        <time>2018-10-23T13:48:05Z</time>
      </trkpt>
      <trkpt lat="47.67975" lon="6.04432">
        <ele>211</ele>
        <time>2018-10-23T13:48:06Z</time>
      </trkpt>
      <trkpt lat="47.6798" lon="6.04431">
        <ele>211</ele>
        <time>2018-10-23T13:48:07Z</time>
      </trkpt>
      <trkpt lat="47.67985" lon="6.04431">
        <ele>211</ele>
        <time>2018-10-23T13:48:08Z</time>
      </trkpt>
      <trkpt lat="47.6799" lon="6.0443">
        <ele>211</ele>
        <time>2018-10-23T13:48:09Z</time>
      </trkpt>
      <trkpt lat="47.67995" lon="6.04431">
        <ele>211</ele>
        <time>2018-10-23T13:48:10Z</time>
      </trkpt>
      <trkpt lat="47.68001" lon="6.04432">
        <ele>210</ele>
        <time>2018-10-23T13:48:11Z</time>
      </trkpt>
      <trkpt lat="47.68005" lon="6.04434">
        <ele>210</ele>
        <time>2018-10-23T13:48:12Z</time>
      </trkpt>
      <trkpt lat="47.6801" lon="6.04436">
        <ele>210</ele>
        <time>2018-10-23T13:48:13Z</time>
      </trkpt>
      <trkpt lat="47.68015" lon="6.04437">
        <ele>210</ele>
        <time>2018-10-23T13:48:14Z</time>
      </trkpt>
      <trkpt lat="47.6802" lon="6.04438">
        <ele>210</ele>
        <time>2018-10-23T13:48:15Z</time>
      </trkpt>
      <trkpt lat="47.68025" lon="6.04438">
        <ele>210</ele>
        <time>2018-10-23T13:48:16Z</time>
      </trkpt>
      <trkpt lat="47.68031" lon="6.04436">
        <ele>210</ele>
        <time>2018-10-23T13:48:17Z</time>
      </trkpt>
      <trkpt lat="47.68036" lon="6.04432">
        <ele>209</ele>
        <time>2018-10-23T13:48:18Z</time>
      </trkpt>
      <trkpt lat="47.68041" lon="6.04428">
        <ele>209</ele>
        <time>2018-10-23T13:48:19Z</time>
      </trkpt>
      <trkpt lat="47.68046" lon="6.04423">
        <ele>209</ele>
        <time>2018-10-23T13:48:20Z</time>
      </trkpt>
      <trkpt lat="47.6805" lon="6.04419">
        <ele>209</ele>
        <time>2018-10-23T13:48:21Z</time>
      </trkpt>
      <trkpt lat="47.68054" lon="6.04414">
        <ele>209</ele>
        <time>2018-10-23T13:48:22Z</time>
      </trkpt>
      <trkpt lat="47.68059" lon="6.0441">
        <ele>209</ele>
        <time>2018-10-23T13:48:23Z</time>
      </trkpt>
      <trkpt lat="47.68064" lon="6.04407">
        <ele>209</ele>
        <time>2018-10-23T13:48:24Z</time>
      </trkpt>
      <trkpt lat="47.68069" lon="6.04405">
        <ele>209</ele>
        <time>2018-10-23T13:48:25Z</time>
      </trkpt>
      <trkpt lat="47.68074" lon="6.04404">
        <ele>209</ele>
        <time>2018-10-23T13:48:26Z</time>
      </trkpt>
      <trkpt lat="47.68079" lon="6.04402">
        <ele>209</ele>
        <time>2018-10-23T13:48:27Z</time>
      </trkpt>
      <trkpt lat="47.68084" lon="6.04401">
        <ele>208</ele>
        <time>2018-10-23T13:48:28Z</time>
      </trkpt>
      <trkpt lat="47.68089" lon="6.04399">
        <ele>209</ele>
        <time>2018-10-23T13:48:29Z</time>
      </trkpt>
      <trkpt lat="47.68094" lon="6.04397">
        <ele>209</ele>
        <time>2018-10-23T13:48:30Z</time>
      </trkpt>
      <trkpt lat="47.68099" lon="6.04395">
        <ele>209</ele>
        <time>2018-10-23T13:48:31Z</time>
      </trkpt>
      <trkpt lat="47.68104" lon="6.04393">
        <ele>209</ele>
        <time>2018-10-23T13:48:32Z</time>
      </trkpt>
      <trkpt lat="47.68108" lon="6.04391">
        <ele>209</ele>
        <time>2018-10-23T13:48:33Z</time>
      </trkpt>
      <trkpt lat="47.68113" lon="6.0439">
        <ele>209</ele>
        <time>2018-10-23T13:48:34Z</time>
      </trkpt>
      <trkpt lat="47.68117" lon="6.04388">
        <ele>209</ele>
        <time>2018-10-23T13:48:35Z</time>
      </trkpt>
      <trkpt lat="47.68122" lon="6.04386">
        <ele>209</ele>
        <time>2018-10-23T13:48:36Z</time>
      </trkpt>
      <trkpt lat="47.68127" lon="6.04385">
        <ele>209</ele>
        <time>2018-10-23T13:48:37Z</time>
      </trkpt>
      <trkpt lat="47.68136" lon="6.04382">
        <ele>209</ele>
        <time>2018-10-23T13:48:39Z</time>
      </trkpt>
      <trkpt lat="47.6814" lon="6.0438">
        <ele>209</ele>
        <time>2018-10-23T13:48:40Z</time>
      </trkpt>
      <trkpt lat="47.68145" lon="6.04378">
        <ele>209</ele>
        <time>2018-10-23T13:48:41Z</time>
      </trkpt>
      <trkpt lat="47.68149" lon="6.04376">
        <ele>209</ele>
        <time>2018-10-23T13:48:42Z</time>
      </trkpt>
      <trkpt lat="47.68158" lon="6.04373">
        <ele>209</ele>
        <time>2018-10-23T13:48:44Z</time>
      </trkpt>
      <trkpt lat="47.68165" lon="6.0437">
        <ele>209</ele>
        <time>2018-10-23T13:48:46Z</time>
      </trkpt>
      <trkpt lat="47.68173" lon="6.04368">
        <ele>210</ele>
        <time>2018-10-23T13:48:48Z</time>
      </trkpt>
      <trkpt lat="47.6818" lon="6.04368">
        <ele>210</ele>
        <time>2018-10-23T13:48:50Z</time>
      </trkpt>
      <trkpt lat="47.68186" lon="6.0437">
        <ele>210</ele>
        <time>2018-10-23T13:48:52Z</time>
      </trkpt>
      <trkpt lat="47.68194" lon="6.04373">
        <ele>210</ele>
        <time>2018-10-23T13:48:54Z</time>
      </trkpt>
      <trkpt lat="47.68201" lon="6.04377">
        <ele>210</ele>
        <time>2018-10-23T13:48:56Z</time>
      </trkpt>
      <trkpt lat="47.68208" lon="6.04383">
        <ele>210</ele>
        <time>2018-10-23T13:48:58Z</time>
      </trkpt>
      <trkpt lat="47.68216" lon="6.04388">
        <ele>210</ele>
        <time>2018-10-23T13:49:00Z</time>
      </trkpt>
      <trkpt lat="47.68223" lon="6.04394">
        <ele>210</ele>
        <time>2018-10-23T13:49:02Z</time>
      </trkpt>
      <trkpt lat="47.6823" lon="6.04398">
        <ele>210</ele>
        <time>2018-10-23T13:49:04Z</time>
      </trkpt>
      <trkpt lat="47.68238" lon="6.04403">
        <ele>210</ele>
        <time>2018-10-23T13:49:06Z</time>
      </trkpt>
      <trkpt lat="47.68245" lon="6.04406">
        <ele>210</ele>
        <time>2018-10-23T13:49:08Z</time>
      </trkpt>
      <trkpt lat="47.68251" lon="6.04411">
        <ele>210</ele>
        <time>2018-10-23T13:49:10Z</time>
      </trkpt>
      <trkpt lat="47.68258" lon="6.04414">
        <ele>210</ele>
        <time>2018-10-23T13:49:12Z</time>
      </trkpt>
      <trkpt lat="47.68265" lon="6.04418">
        <ele>211</ele>
        <time>2018-10-23T13:49:14Z</time>
      </trkpt>
      <trkpt lat="47.68269" lon="6.0442">
        <ele>211</ele>
        <time>2018-10-23T13:49:16Z</time>
      </trkpt>
      <trkpt lat="47.68275" lon="6.04422">
        <ele>211</ele>
        <time>2018-10-23T13:49:18Z</time>
      </trkpt>
      <trkpt lat="47.68281" lon="6.04423">
        <ele>211</ele>
        <time>2018-10-23T13:49:20Z</time>
      </trkpt>
      <trkpt lat="47.68287" lon="6.04424">
        <ele>211</ele>
        <time>2018-10-23T13:49:22Z</time>
      </trkpt>
      <trkpt lat="47.68295" lon="6.04426">
        <ele>211</ele>
        <time>2018-10-23T13:49:24Z</time>
      </trkpt>
      <trkpt lat="47.68302" lon="6.04427">
        <ele>211</ele>
        <time>2018-10-23T13:49:26Z</time>
      </trkpt>
      <trkpt lat="47.68308" lon="6.04428">
        <ele>211</ele>
        <time>2018-10-23T13:49:28Z</time>
      </trkpt>
      <trkpt lat="47.68314" lon="6.04429">
        <ele>211</ele>
        <time>2018-10-23T13:49:30Z</time>
      </trkpt>
      <trkpt lat="47.68321" lon="6.0443">
        <ele>211</ele>
        <time>2018-10-23T13:49:32Z</time>
      </trkpt>
      <trkpt lat="47.68326" lon="6.0443">
        <ele>211</ele>
        <time>2018-10-23T13:49:34Z</time>
      </trkpt>
      <trkpt lat="47.68332" lon="6.04431">
        <ele>211</ele>
        <time>2018-10-23T13:49:36Z</time>
      </trkpt>
      <trkpt lat="47.68338" lon="6.04431">
        <ele>212</ele>
        <time>2018-10-23T13:49:38Z</time>
      </trkpt>
      <trkpt lat="47.68344" lon="6.04432">
        <ele>212</ele>
        <time>2018-10-23T13:49:40Z</time>
      </trkpt>
      <trkpt lat="47.68349" lon="6.04432">
        <ele>212</ele>
        <time>2018-10-23T13:49:42Z</time>
      </trkpt>
      <trkpt lat="47.68355" lon="6.04433">
        <ele>212</ele>
        <time>2018-10-23T13:49:44Z</time>
      </trkpt>
      <trkpt lat="47.68361" lon="6.04433">
        <ele>212</ele>
        <time>2018-10-23T13:49:46Z</time>
      </trkpt>
      <trkpt lat="47.68366" lon="6.04433">
        <ele>213</ele>
        <time>2018-10-23T13:49:48Z</time>
      </trkpt>
      <trkpt lat="47.68372" lon="6.04433">
        <ele>213</ele>
        <time>2018-10-23T13:49:51Z</time>
      </trkpt>
      <trkpt lat="47.68379" lon="6.04433">
        <ele>213</ele>
        <time>2018-10-23T13:49:54Z</time>
      </trkpt>
      <trkpt lat="47.68385" lon="6.04434">
        <ele>213</ele>
        <time>2018-10-23T13:49:57Z</time>
      </trkpt>
      <trkpt lat="47.68391" lon="6.04435">
        <ele>213</ele>
        <time>2018-10-23T13:50:00Z</time>
      </trkpt>
      <trkpt lat="47.68397" lon="6.04435">
        <ele>213</ele>
        <time>2018-10-23T13:50:03Z</time>
      </trkpt>
      <trkpt lat="47.68402" lon="6.04436">
        <ele>213</ele>
        <time>2018-10-23T13:50:05Z</time>
      </trkpt>
      <trkpt lat="47.68408" lon="6.04436">
        <ele>213</ele>
        <time>2018-10-23T13:50:08Z</time>
      </trkpt>
      <trkpt lat="47.68414" lon="6.04436">
        <ele>213</ele>
        <time>2018-10-23T13:50:11Z</time>
      </trkpt>
      <trkpt lat="47.68421" lon="6.04436">
        <ele>215</ele>
        <time>2018-10-23T13:50:14Z</time>
      </trkpt>
      <trkpt lat="47.68427" lon="6.04436">
        <ele>215</ele>
        <time>2018-10-23T13:50:17Z</time>
      </trkpt>
      <trkpt lat="47.68433" lon="6.04437">
        <ele>215</ele>
        <time>2018-10-23T13:50:20Z</time>
      </trkpt>
      <trkpt lat="47.68439" lon="6.04437">
        <ele>215</ele>
        <time>2018-10-23T13:50:23Z</time>
      </trkpt>
      <trkpt lat="47.68445" lon="6.04436">
        <ele>216</ele>
        <time>2018-10-23T13:50:26Z</time>
      </trkpt>
      <trkpt lat="47.6845" lon="6.04436">
        <ele>216</ele>
        <time>2018-10-23T13:50:29Z</time>
      </trkpt>
      <trkpt lat="47.68456" lon="6.04436">
        <ele>216</ele>
        <time>2018-10-23T13:50:32Z</time>
      </trkpt>
      <trkpt lat="47.68462" lon="6.04436">
        <ele>216</ele>
        <time>2018-10-23T13:50:35Z</time>
      </trkpt>
      <trkpt lat="47.68468" lon="6.04437">
        <ele>216</ele>
        <time>2018-10-23T13:50:38Z</time>
      </trkpt>
      <trkpt lat="47.68473" lon="6.04437">
        <ele>216</ele>
        <time>2018-10-23T13:50:41Z</time>
      </trkpt>
      <trkpt lat="47.68479" lon="6.04436">
        <ele>216</ele>
        <time>2018-10-23T13:50:44Z</time>
      </trkpt>
      <trkpt lat="47.68485" lon="6.04438">
        <ele>217</ele>
        <time>2018-10-23T13:50:47Z</time>
      </trkpt>
      <trkpt lat="47.68491" lon="6.04439">
        <ele>217</ele>
        <time>2018-10-23T13:50:50Z</time>
      </trkpt>
      <trkpt lat="47.68496" lon="6.04441">
        <ele>217</ele>
        <time>2018-10-23T13:50:53Z</time>
      </trkpt>
      <trkpt lat="47.68502" lon="6.04443">
        <ele>219</ele>
        <time>2018-10-23T13:50:56Z</time>
      </trkpt>
      <trkpt lat="47.68506" lon="6.04445">
        <ele>219</ele>
        <time>2018-10-23T13:50:59Z</time>
      </trkpt>
      <trkpt lat="47.68511" lon="6.04447">
        <ele>219</ele>
        <time>2018-10-23T13:51:02Z</time>
      </trkpt>
      <trkpt lat="47.68515" lon="6.0445">
        <ele>219</ele>
        <time>2018-10-23T13:51:05Z</time>
      </trkpt>
      <trkpt lat="47.68521" lon="6.04454">
        <ele>219</ele>
        <time>2018-10-23T13:51:09Z</time>
      </trkpt>
      <trkpt lat="47.68526" lon="6.04457">
        <ele>220</ele>
        <time>2018-10-23T13:51:13Z</time>
      </trkpt>
      <trkpt lat="47.68531" lon="6.0446">
        <ele>220</ele>
        <time>2018-10-23T13:51:17Z</time>
      </trkpt>
      <trkpt lat="47.68536" lon="6.04465">
        <ele>220</ele>
        <time>2018-10-23T13:51:21Z</time>
      </trkpt>
      <trkpt lat="47.6854" lon="6.04468">
        <ele>220</ele>
        <time>2018-10-23T13:51:25Z</time>
      </trkpt>
      <trkpt lat="47.68545" lon="6.04472">
        <ele>220</ele>
        <time>2018-10-23T13:51:29Z</time>
      </trkpt>
      <trkpt lat="47.6855" lon="6.04475">
        <ele>221</ele>
        <time>2018-10-23T13:51:33Z</time>
      </trkpt>
      <trkpt lat="47.68555" lon="6.04479">
        <ele>221</ele>
        <time>2018-10-23T13:51:37Z</time>
      </trkpt>
      <trkpt lat="47.68559" lon="6.04483">
        <ele>221</ele>
        <time>2018-10-23T13:51:40Z</time>
      </trkpt>
      <trkpt lat="47.68565" lon="6.04486">
        <ele>222</ele>
        <time>2018-10-23T13:51:44Z</time>
      </trkpt>
      <trkpt lat="47.6857" lon="6.04489">
        <ele>222</ele>
        <time>2018-10-23T13:51:47Z</time>
      </trkpt>
      <trkpt lat="47.68574" lon="6.04492">
        <ele>222</ele>
        <time>2018-10-23T13:51:51Z</time>
      </trkpt>
      <trkpt lat="47.68579" lon="6.04496">
        <ele>223</ele>
        <time>2018-10-23T13:51:55Z</time>
      </trkpt>
      <trkpt lat="47.68583" lon="6.04498">
        <ele>224</ele>
        <time>2018-10-23T13:51:59Z</time>
      </trkpt>
      <trkpt lat="47.68588" lon="6.04502">
        <ele>225</ele>
        <time>2018-10-23T13:52:03Z</time>
      </trkpt>
      <trkpt lat="47.68592" lon="6.04505">
        <ele>226</ele>
        <time>2018-10-23T13:52:07Z</time>
      </trkpt>
      <trkpt lat="47.68597" lon="6.04508">
        <ele>226</ele>
        <time>2018-10-23T13:52:11Z</time>
      </trkpt>
      <trkpt lat="47.68601" lon="6.04511">
        <ele>227</ele>
        <time>2018-10-23T13:52:15Z</time>
      </trkpt>
      <trkpt lat="47.68606" lon="6.04516">
        <ele>228</ele>
        <time>2018-10-23T13:52:19Z</time>
      </trkpt>
      <trkpt lat="47.6861" lon="6.04519">
        <ele>228</ele>
        <time>2018-10-23T13:52:23Z</time>
      </trkpt>
      <trkpt lat="47.68615" lon="6.04523">
        <ele>228</ele>
        <time>2018-10-23T13:52:27Z</time>
      </trkpt>
      <trkpt lat="47.6862" lon="6.04529">
        <ele>229</ele>
        <time>2018-10-23T13:52:31Z</time>
      </trkpt>
      <trkpt lat="47.68624" lon="6.04534">
        <ele>229</ele>
        <time>2018-10-23T13:52:35Z</time>
      </trkpt>
      <trkpt lat="47.68626" lon="6.04541">
        <ele>229</ele>
        <time>2018-10-23T13:52:39Z</time>
      </trkpt>
      <trkpt lat="47.68624" lon="6.04547">
        <ele>229</ele>
        <time>2018-10-23T13:52:44Z</time>
      </trkpt>
    </trkseg>
  </trk>
</gpx>